<?xml version="1.0" encoding="UTF-8" standalone="no" ?>
<gpx xmlns="http://www.topografix.com/GPX/1/1" xmlns:xsi="http://www.w3.org/2001/XMLSchema-instance" xsi:schemaLocation="http://www.topografix.com/GPX/1/1 http://www.topografix.com/GPX/1/1/gpx.xsd" version="1.1" creator="VisuGPX - https://www.visugpx.com">
  <metadata>
    <name>2015-08-07 Bivouac à l\'arche double</name>
    <desc><![CDATA[Aller par le pas de Ragris et le grand sangle de l\'Aup du Seuil, retour par l\'arche miracle]]></desc>
  </metadata>
  <trk>
    <name><![CDATA[2015-08-07 Arches double et miracle]]></name>
    <trkseg>
      <trkpt lat="45.35573" lon="5.91867">
        <ele>1062</ele>
        <time>2015-05-28T13:43:08Z</time>
      </trkpt>
      <trkpt lat="45.35567" lon="5.91869">
        <ele>1062</ele>
        <time>2015-05-28T13:43:13Z</time>
      </trkpt>
      <trkpt lat="45.35558" lon="5.91871">
        <ele>1062.234837423</ele>
        <time>2015-05-28T13:43:18Z</time>
      </trkpt>
      <trkpt lat="45.35551" lon="5.91874">
        <ele>1062.234837423</ele>
        <time>2015-05-28T13:43:23Z</time>
      </trkpt>
      <trkpt lat="45.35543" lon="5.91872">
        <ele>1066.067901719</ele>
        <time>2015-05-28T13:43:28Z</time>
      </trkpt>
      <trkpt lat="45.35535" lon="5.9187">
        <ele>1066.067901719</ele>
        <time>2015-05-28T13:43:33Z</time>
      </trkpt>
      <trkpt lat="45.35526" lon="5.91868">
        <ele>1072.251514177</ele>
        <time>2015-05-28T13:43:38Z</time>
      </trkpt>
      <trkpt lat="45.35516" lon="5.9187">
        <ele>1078.196614593</ele>
        <time>2015-05-28T13:43:43Z</time>
      </trkpt>
      <trkpt lat="45.35512" lon="5.91869">
        <ele>1078.196614593</ele>
        <time>2015-05-28T13:43:48Z</time>
      </trkpt>
      <trkpt lat="45.35506" lon="5.91859">
        <ele>1083.214791683</ele>
        <time>2015-05-28T13:43:53Z</time>
      </trkpt>
      <trkpt lat="45.35503" lon="5.91837">
        <ele>1087.630482464</ele>
        <time>2015-05-28T13:43:58Z</time>
      </trkpt>
      <trkpt lat="45.35501" lon="5.9183">
        <ele>1087.630482464</ele>
        <time>2015-05-28T13:44:03Z</time>
      </trkpt>
      <trkpt lat="45.35499" lon="5.91814">
        <ele>1091.160098697</ele>
        <time>2015-05-28T13:44:08Z</time>
      </trkpt>
      <trkpt lat="45.35494" lon="5.91801">
        <ele>1094.071255818</ele>
        <time>2015-05-28T13:44:13Z</time>
      </trkpt>
      <trkpt lat="45.35491" lon="5.91792">
        <ele>1094.071255818</ele>
        <time>2015-05-28T13:44:18Z</time>
      </trkpt>
      <trkpt lat="45.35489" lon="5.91786">
        <ele>1096.258314734</ele>
        <time>2015-05-28T13:44:24Z</time>
      </trkpt>
      <trkpt lat="45.35488" lon="5.91774">
        <ele>1096.258314734</ele>
        <time>2015-05-28T13:44:29Z</time>
      </trkpt>
      <trkpt lat="45.35483" lon="5.91763">
        <ele>1097.355206545</ele>
        <time>2015-05-28T13:44:34Z</time>
      </trkpt>
      <trkpt lat="45.3548" lon="5.91754">
        <ele>1097.355206545</ele>
        <time>2015-05-28T13:44:38Z</time>
      </trkpt>
      <trkpt lat="45.35479" lon="5.91744">
        <ele>1097.423260982</ele>
        <time>2015-05-28T13:44:44Z</time>
      </trkpt>
      <trkpt lat="45.35477" lon="5.91733">
        <ele>1097.423260982</ele>
        <time>2015-05-28T13:44:48Z</time>
      </trkpt>
      <trkpt lat="45.35474" lon="5.91722">
        <ele>1097.068366505</ele>
        <time>2015-05-28T13:44:53Z</time>
      </trkpt>
      <trkpt lat="45.35475" lon="5.91717">
        <ele>1097.068366505</ele>
        <time>2015-05-28T13:44:58Z</time>
      </trkpt>
      <trkpt lat="45.35478" lon="5.9171">
        <ele>1095.54775622</ele>
        <time>2015-05-28T13:45:03Z</time>
      </trkpt>
      <trkpt lat="45.35475" lon="5.91696">
        <ele>1093.873549683</ele>
        <time>2015-05-28T13:45:08Z</time>
      </trkpt>
      <trkpt lat="45.35473" lon="5.91685">
        <ele>1093.873549683</ele>
        <time>2015-05-28T13:45:13Z</time>
      </trkpt>
      <trkpt lat="45.35469" lon="5.91675">
        <ele>1091.97553175</ele>
        <time>2015-05-28T13:45:18Z</time>
      </trkpt>
      <trkpt lat="45.35465" lon="5.91662">
        <ele>1090.44490814</ele>
        <time>2015-05-28T13:45:24Z</time>
      </trkpt>
      <trkpt lat="45.35458" lon="5.91654">
        <ele>1088.977568343</ele>
        <time>2015-05-28T13:45:29Z</time>
      </trkpt>
      <trkpt lat="45.35456" lon="5.91645">
        <ele>1088.977568343</ele>
        <time>2015-05-28T13:45:34Z</time>
      </trkpt>
      <trkpt lat="45.35453" lon="5.91632">
        <ele>1087.937237265</ele>
        <time>2015-05-28T13:45:39Z</time>
      </trkpt>
      <trkpt lat="45.35444" lon="5.91623">
        <ele>1087.311208251</ele>
        <time>2015-05-28T13:45:44Z</time>
      </trkpt>
      <trkpt lat="45.35443" lon="5.91609">
        <ele>1086.449097441</ele>
        <time>2015-05-28T13:45:48Z</time>
      </trkpt>
      <trkpt lat="45.35439" lon="5.91605">
        <ele>1086.449097441</ele>
        <time>2015-05-28T13:45:54Z</time>
      </trkpt>
      <trkpt lat="45.35436" lon="5.91598">
        <ele>1086.16952149</ele>
        <time>2015-05-28T13:45:59Z</time>
      </trkpt>
      <trkpt lat="45.35431" lon="5.91594">
        <ele>1086.16952149</ele>
        <time>2015-05-28T13:46:04Z</time>
      </trkpt>
      <trkpt lat="45.35423" lon="5.91588">
        <ele>1087.025815252</ele>
        <time>2015-05-28T13:46:09Z</time>
      </trkpt>
      <trkpt lat="45.35418" lon="5.9158">
        <ele>1087.025815252</ele>
        <time>2015-05-28T13:46:14Z</time>
      </trkpt>
      <trkpt lat="45.35416" lon="5.91575">
        <ele>1088.294167944</ele>
        <time>2015-05-28T13:46:18Z</time>
      </trkpt>
      <trkpt lat="45.35409" lon="5.91571">
        <ele>1088.294167944</ele>
        <time>2015-05-28T13:46:23Z</time>
      </trkpt>
      <trkpt lat="45.35407" lon="5.91569">
        <ele>1089.191816698</ele>
        <time>2015-05-28T13:46:29Z</time>
      </trkpt>
      <trkpt lat="45.35405" lon="5.91555">
        <ele>1089.759952322</ele>
        <time>2015-05-28T13:46:34Z</time>
      </trkpt>
      <trkpt lat="45.35397" lon="5.91543">
        <ele>1089.889200213</ele>
        <time>2015-05-28T13:46:38Z</time>
      </trkpt>
      <trkpt lat="45.35391" lon="5.91535">
        <ele>1089.889200213</ele>
        <time>2015-05-28T13:46:43Z</time>
      </trkpt>
      <trkpt lat="45.35389" lon="5.91521">
        <ele>1090.050255377</ele>
        <time>2015-05-28T13:46:49Z</time>
      </trkpt>
      <trkpt lat="45.3538" lon="5.91504">
        <ele>1089.955799805</ele>
        <time>2015-05-28T13:46:54Z</time>
      </trkpt>
      <trkpt lat="45.35376" lon="5.915">
        <ele>1089.955799805</ele>
        <time>2015-05-28T13:46:59Z</time>
      </trkpt>
      <trkpt lat="45.35374" lon="5.91492">
        <ele>1089.767052286</ele>
        <time>2015-05-28T13:47:04Z</time>
      </trkpt>
      <trkpt lat="45.35371" lon="5.91485">
        <ele>1089.767052286</ele>
        <time>2015-05-28T13:47:09Z</time>
      </trkpt>
      <trkpt lat="45.35372" lon="5.91475">
        <ele>1090.326195294</ele>
        <time>2015-05-28T13:47:14Z</time>
      </trkpt>
      <trkpt lat="45.35368" lon="5.91463">
        <ele>1091.013583352</ele>
        <time>2015-05-28T13:47:19Z</time>
      </trkpt>
      <trkpt lat="45.35371" lon="5.91456">
        <ele>1091.013583352</ele>
        <time>2015-05-28T13:47:24Z</time>
      </trkpt>
      <trkpt lat="45.35369" lon="5.91444">
        <ele>1091.123520358</ele>
        <time>2015-05-28T13:47:29Z</time>
      </trkpt>
      <trkpt lat="45.35366" lon="5.91433">
        <ele>1091.123520358</ele>
        <time>2015-05-28T13:47:34Z</time>
      </trkpt>
      <trkpt lat="45.35368" lon="5.91424">
        <ele>1091.113136056</ele>
        <time>2015-05-28T13:47:39Z</time>
      </trkpt>
      <trkpt lat="45.35371" lon="5.91417">
        <ele>1091.113136056</ele>
        <time>2015-05-28T13:47:43Z</time>
      </trkpt>
      <trkpt lat="45.35372" lon="5.91409">
        <ele>1090.016741547</ele>
        <time>2015-05-28T13:47:49Z</time>
      </trkpt>
      <trkpt lat="45.35372" lon="5.91397">
        <ele>1090.016741547</ele>
        <time>2015-05-28T13:47:55Z</time>
      </trkpt>
      <trkpt lat="45.35368" lon="5.91386">
        <ele>1089.859898962</ele>
        <time>2015-05-28T13:47:59Z</time>
      </trkpt>
      <trkpt lat="45.35368" lon="5.91379">
        <ele>1089.859898962</ele>
        <time>2015-05-28T13:48:03Z</time>
      </trkpt>
      <trkpt lat="45.35365" lon="5.91372">
        <ele>1089.745127742</ele>
        <time>2015-05-28T13:48:09Z</time>
      </trkpt>
      <trkpt lat="45.35359" lon="5.91359">
        <ele>1089.813566091</ele>
        <time>2015-05-28T13:48:13Z</time>
      </trkpt>
      <trkpt lat="45.35356" lon="5.91353">
        <ele>1089.813566091</ele>
        <time>2015-05-28T13:48:18Z</time>
      </trkpt>
      <trkpt lat="45.35355" lon="5.91349">
        <ele>1089.813566091</ele>
        <time>2015-05-28T13:48:23Z</time>
      </trkpt>
      <trkpt lat="45.35352" lon="5.9134">
        <ele>1089.348824627</ele>
        <time>2015-05-28T13:48:28Z</time>
      </trkpt>
      <trkpt lat="45.35347" lon="5.91328">
        <ele>1088.814726433</ele>
        <time>2015-05-28T13:48:33Z</time>
      </trkpt>
      <trkpt lat="45.35344" lon="5.91325">
        <ele>1088.814726433</ele>
        <time>2015-05-28T13:48:38Z</time>
      </trkpt>
      <trkpt lat="45.35341" lon="5.91317">
        <ele>1087.93408186</ele>
        <time>2015-05-28T13:48:44Z</time>
      </trkpt>
      <trkpt lat="45.35339" lon="5.91304">
        <ele>1087.168807009</ele>
        <time>2015-05-28T13:48:49Z</time>
      </trkpt>
      <trkpt lat="45.35341" lon="5.91299">
        <ele>1087.168807009</ele>
        <time>2015-05-28T13:48:53Z</time>
      </trkpt>
      <trkpt lat="45.35345" lon="5.91278">
        <ele>1086.812003733</ele>
        <time>2015-05-28T13:48:59Z</time>
      </trkpt>
      <trkpt lat="45.35349" lon="5.91268">
        <ele>1086.812003733</ele>
        <time>2015-05-28T13:49:03Z</time>
      </trkpt>
      <trkpt lat="45.35357" lon="5.91286">
        <ele>1086.846722578</ele>
        <time>2015-05-28T13:49:08Z</time>
      </trkpt>
      <trkpt lat="45.3536" lon="5.91299">
        <ele>1087.402147428</ele>
        <time>2015-05-28T13:49:14Z</time>
      </trkpt>
      <trkpt lat="45.35367" lon="5.91297">
        <ele>1087.402147428</ele>
        <time>2015-05-28T13:49:19Z</time>
      </trkpt>
      <trkpt lat="45.35367" lon="5.91306">
        <ele>1088.59712446</ele>
        <time>2015-05-28T13:49:24Z</time>
      </trkpt>
      <trkpt lat="45.35378" lon="5.91309">
        <ele>1089.645628838</ele>
        <time>2015-05-28T13:49:30Z</time>
      </trkpt>
      <trkpt lat="45.35384" lon="5.91315">
        <ele>1089.645628838</ele>
        <time>2015-05-28T13:49:34Z</time>
      </trkpt>
      <trkpt lat="45.35388" lon="5.91316">
        <ele>1091.005613868</ele>
        <time>2015-05-28T13:49:39Z</time>
      </trkpt>
      <trkpt lat="45.35386" lon="5.91333">
        <ele>1092.654376961</ele>
        <time>2015-05-28T13:49:43Z</time>
      </trkpt>
      <trkpt lat="45.3539" lon="5.91338">
        <ele>1092.654376961</ele>
        <time>2015-05-28T13:49:48Z</time>
      </trkpt>
      <trkpt lat="45.35392" lon="5.91342">
        <ele>1093.515741075</ele>
        <time>2015-05-28T13:49:53Z</time>
      </trkpt>
      <trkpt lat="45.35395" lon="5.91343">
        <ele>1093.515741075</ele>
        <time>2015-05-28T13:49:58Z</time>
      </trkpt>
      <trkpt lat="45.35409" lon="5.91351">
        <ele>1094.550341237</ele>
        <time>2015-05-28T13:50:13Z</time>
      </trkpt>
      <trkpt lat="45.35414" lon="5.91365">
        <ele>1094.990775114</ele>
        <time>2015-05-28T13:50:18Z</time>
      </trkpt>
      <trkpt lat="45.3542" lon="5.91368">
        <ele>1094.990775114</ele>
        <time>2015-05-28T13:50:23Z</time>
      </trkpt>
      <trkpt lat="45.35423" lon="5.91376">
        <ele>1096.242191323</ele>
        <time>2015-05-28T13:50:28Z</time>
      </trkpt>
      <trkpt lat="45.35426" lon="5.91379">
        <ele>1096.242191323</ele>
        <time>2015-05-28T13:50:33Z</time>
      </trkpt>
      <trkpt lat="45.3543" lon="5.91384">
        <ele>1097.486813639</ele>
        <time>2015-05-28T13:50:38Z</time>
      </trkpt>
      <trkpt lat="45.35438" lon="5.91386">
        <ele>1097.486813639</ele>
        <time>2015-05-28T13:50:44Z</time>
      </trkpt>
      <trkpt lat="45.35439" lon="5.91394">
        <ele>1098.573072715</ele>
        <time>2015-05-28T13:50:49Z</time>
      </trkpt>
      <trkpt lat="45.35449" lon="5.91397">
        <ele>1100.115788366</ele>
        <time>2015-05-28T13:50:54Z</time>
      </trkpt>
      <trkpt lat="45.35451" lon="5.91405">
        <ele>1100.115788366</ele>
        <time>2015-05-28T13:50:58Z</time>
      </trkpt>
      <trkpt lat="45.35458" lon="5.91407">
        <ele>1101.022807188</ele>
        <time>2015-05-28T13:51:03Z</time>
      </trkpt>
      <trkpt lat="45.35461" lon="5.91413">
        <ele>1101.022807188</ele>
        <time>2015-05-28T13:51:08Z</time>
      </trkpt>
      <trkpt lat="45.35462" lon="5.91415">
        <ele>1101.022807188</ele>
        <time>2015-05-28T13:51:13Z</time>
      </trkpt>
      <trkpt lat="45.35467" lon="5.91423">
        <ele>1100.744254193</ele>
        <time>2015-05-28T13:51:18Z</time>
      </trkpt>
      <trkpt lat="45.35478" lon="5.91421">
        <ele>1100.429995921</ele>
        <time>2015-05-28T13:51:23Z</time>
      </trkpt>
      <trkpt lat="45.35477" lon="5.91432">
        <ele>1100.429995921</ele>
        <time>2015-05-28T13:51:28Z</time>
      </trkpt>
      <trkpt lat="45.35481" lon="5.9143">
        <ele>1100.386224296</ele>
        <time>2015-05-28T13:51:33Z</time>
      </trkpt>
      <trkpt lat="45.35487" lon="5.91436">
        <ele>1100.386224296</ele>
        <time>2015-05-28T13:51:38Z</time>
      </trkpt>
      <trkpt lat="45.3549" lon="5.91432">
        <ele>1100.295189751</ele>
        <time>2015-05-28T13:51:43Z</time>
      </trkpt>
      <trkpt lat="45.35497" lon="5.91432">
        <ele>1100.295189751</ele>
        <time>2015-05-28T13:51:48Z</time>
      </trkpt>
      <trkpt lat="45.35503" lon="5.91435">
        <ele>1100.163705577</ele>
        <time>2015-05-28T13:51:53Z</time>
      </trkpt>
      <trkpt lat="45.3551" lon="5.91432">
        <ele>1100.163705577</ele>
        <time>2015-05-28T13:51:58Z</time>
      </trkpt>
      <trkpt lat="45.35514" lon="5.91436">
        <ele>1100.146579487</ele>
        <time>2015-05-28T13:52:03Z</time>
      </trkpt>
      <trkpt lat="45.35519" lon="5.91448">
        <ele>1100.829721834</ele>
        <time>2015-05-28T13:52:08Z</time>
      </trkpt>
      <trkpt lat="45.35518" lon="5.91454">
        <ele>1100.829721834</ele>
        <time>2015-05-28T13:52:13Z</time>
      </trkpt>
      <trkpt lat="45.3552" lon="5.91459">
        <ele>1100.829721834</ele>
        <time>2015-05-28T13:52:18Z</time>
      </trkpt>
      <trkpt lat="45.3553" lon="5.91457">
        <ele>1102.156444365</ele>
        <time>2015-05-28T13:52:23Z</time>
      </trkpt>
      <trkpt lat="45.35534" lon="5.91465">
        <ele>1102.156444365</ele>
        <time>2015-05-28T13:52:29Z</time>
      </trkpt>
      <trkpt lat="45.35538" lon="5.91469">
        <ele>1104.073110793</ele>
        <time>2015-05-28T13:52:34Z</time>
      </trkpt>
      <trkpt lat="45.35545" lon="5.91475">
        <ele>1104.073110793</ele>
        <time>2015-05-28T13:52:39Z</time>
      </trkpt>
      <trkpt lat="45.35551" lon="5.91486">
        <ele>1105.352170228</ele>
        <time>2015-05-28T13:52:44Z</time>
      </trkpt>
      <trkpt lat="45.35556" lon="5.91487">
        <ele>1105.352170228</ele>
        <time>2015-05-28T13:52:49Z</time>
      </trkpt>
      <trkpt lat="45.35562" lon="5.91483">
        <ele>1106.777877161</ele>
        <time>2015-05-28T13:52:54Z</time>
      </trkpt>
      <trkpt lat="45.35567" lon="5.91475">
        <ele>1106.777877161</ele>
        <time>2015-05-28T13:52:59Z</time>
      </trkpt>
      <trkpt lat="45.3557" lon="5.91474">
        <ele>1108.629906294</ele>
        <time>2015-05-28T13:53:03Z</time>
      </trkpt>
      <trkpt lat="45.35568" lon="5.91467">
        <ele>1108.629906294</ele>
        <time>2015-05-28T13:53:09Z</time>
      </trkpt>
      <trkpt lat="45.3556" lon="5.91462">
        <ele>1110.286962552</ele>
        <time>2015-05-28T13:53:14Z</time>
      </trkpt>
      <trkpt lat="45.35558" lon="5.91456">
        <ele>1110.286962552</ele>
        <time>2015-05-28T13:53:19Z</time>
      </trkpt>
      <trkpt lat="45.35557" lon="5.91447">
        <ele>1111.908333086</ele>
        <time>2015-05-28T13:53:23Z</time>
      </trkpt>
      <trkpt lat="45.35555" lon="5.9144">
        <ele>1111.908333086</ele>
        <time>2015-05-28T13:53:29Z</time>
      </trkpt>
      <trkpt lat="45.35551" lon="5.91429">
        <ele>1113.931787302</ele>
        <time>2015-05-28T13:53:34Z</time>
      </trkpt>
      <trkpt lat="45.35548" lon="5.91426">
        <ele>1113.931787302</ele>
        <time>2015-05-28T13:53:38Z</time>
      </trkpt>
      <trkpt lat="45.35543" lon="5.91427">
        <ele>1113.931787302</ele>
        <time>2015-05-28T13:53:44Z</time>
      </trkpt>
      <trkpt lat="45.35541" lon="5.91419">
        <ele>1115.886550708</ele>
        <time>2015-05-28T13:53:49Z</time>
      </trkpt>
      <trkpt lat="45.35537" lon="5.91409">
        <ele>1115.886550708</ele>
        <time>2015-05-28T13:53:54Z</time>
      </trkpt>
      <trkpt lat="45.35534" lon="5.91393">
        <ele>1117.775130895</ele>
        <time>2015-05-28T13:54:00Z</time>
      </trkpt>
      <trkpt lat="45.35533" lon="5.91393">
        <ele>1117.775130895</ele>
        <time>2015-05-28T13:54:04Z</time>
      </trkpt>
      <trkpt lat="45.35529" lon="5.91382">
        <ele>1120.035074675</ele>
        <time>2015-05-28T13:54:08Z</time>
      </trkpt>
      <trkpt lat="45.35528" lon="5.91371">
        <ele>1120.035074675</ele>
        <time>2015-05-28T13:54:13Z</time>
      </trkpt>
      <trkpt lat="45.35523" lon="5.91369">
        <ele>1122.054710093</ele>
        <time>2015-05-28T13:54:19Z</time>
      </trkpt>
      <trkpt lat="45.35521" lon="5.91361">
        <ele>1122.054710093</ele>
        <time>2015-05-28T13:54:23Z</time>
      </trkpt>
      <trkpt lat="45.35523" lon="5.91355">
        <ele>1123.559932379</ele>
        <time>2015-05-28T13:54:29Z</time>
      </trkpt>
      <trkpt lat="45.35526" lon="5.91356">
        <ele>1123.559932379</ele>
        <time>2015-05-28T13:54:34Z</time>
      </trkpt>
      <trkpt lat="45.35533" lon="5.91353">
        <ele>1125.311232363</ele>
        <time>2015-05-28T13:54:39Z</time>
      </trkpt>
      <trkpt lat="45.35539" lon="5.9135">
        <ele>1125.311232363</ele>
        <time>2015-05-28T13:54:44Z</time>
      </trkpt>
      <trkpt lat="45.35543" lon="5.9135">
        <ele>1126.709638167</ele>
        <time>2015-05-28T13:54:49Z</time>
      </trkpt>
      <trkpt lat="45.35544" lon="5.91352">
        <ele>1126.709638167</ele>
        <time>2015-05-28T13:54:53Z</time>
      </trkpt>
      <trkpt lat="45.35554" lon="5.91352">
        <ele>1127.780357398</ele>
        <time>2015-05-28T13:54:58Z</time>
      </trkpt>
      <trkpt lat="45.3556" lon="5.91354">
        <ele>1127.780357398</ele>
        <time>2015-05-28T13:55:03Z</time>
      </trkpt>
      <trkpt lat="45.35564" lon="5.91355">
        <ele>1128.836197035</ele>
        <time>2015-05-28T13:55:08Z</time>
      </trkpt>
      <trkpt lat="45.35565" lon="5.91358">
        <ele>1128.836197035</ele>
        <time>2015-05-28T13:55:13Z</time>
      </trkpt>
      <trkpt lat="45.3557" lon="5.91362">
        <ele>1128.836197035</ele>
        <time>2015-05-28T13:55:19Z</time>
      </trkpt>
      <trkpt lat="45.3558" lon="5.91362">
        <ele>1129.877876836</ele>
        <time>2015-05-28T13:55:24Z</time>
      </trkpt>
      <trkpt lat="45.35585" lon="5.91363">
        <ele>1129.877876836</ele>
        <time>2015-05-28T13:55:29Z</time>
      </trkpt>
      <trkpt lat="45.35589" lon="5.91365">
        <ele>1130.617629528</ele>
        <time>2015-05-28T13:55:33Z</time>
      </trkpt>
      <trkpt lat="45.35593" lon="5.91364">
        <ele>1130.617629528</ele>
        <time>2015-05-28T13:55:38Z</time>
      </trkpt>
      <trkpt lat="45.356" lon="5.91362">
        <ele>1132.087991293</ele>
        <time>2015-05-28T13:55:43Z</time>
      </trkpt>
      <trkpt lat="45.35608" lon="5.9136">
        <ele>1132.087991293</ele>
        <time>2015-05-28T13:55:48Z</time>
      </trkpt>
      <trkpt lat="45.35609" lon="5.91362">
        <ele>1134.089313134</ele>
        <time>2015-05-28T13:55:53Z</time>
      </trkpt>
      <trkpt lat="45.35614" lon="5.91358">
        <ele>1134.089313134</ele>
        <time>2015-05-28T13:55:58Z</time>
      </trkpt>
      <trkpt lat="45.35624" lon="5.91358">
        <ele>1136.723799605</ele>
        <time>2015-05-28T13:56:03Z</time>
      </trkpt>
      <trkpt lat="45.35632" lon="5.91358">
        <ele>1136.723799605</ele>
        <time>2015-05-28T13:56:08Z</time>
      </trkpt>
      <trkpt lat="45.35638" lon="5.91363">
        <ele>1138.786874356</ele>
        <time>2015-05-28T13:56:13Z</time>
      </trkpt>
      <trkpt lat="45.35649" lon="5.91355">
        <ele>1140.75025755</ele>
        <time>2015-05-28T13:56:18Z</time>
      </trkpt>
      <trkpt lat="45.35653" lon="5.9136">
        <ele>1140.75025755</ele>
        <time>2015-05-28T13:56:23Z</time>
      </trkpt>
      <trkpt lat="45.35655" lon="5.91358">
        <ele>1140.75025755</ele>
        <time>2015-05-28T13:56:28Z</time>
      </trkpt>
      <trkpt lat="45.35656" lon="5.91358">
        <ele>1140.75025755</ele>
        <time>2015-05-28T13:56:33Z</time>
      </trkpt>
      <trkpt lat="45.35657" lon="5.91357">
        <ele>1140.75025755</ele>
        <time>2015-05-28T13:56:38Z</time>
      </trkpt>
      <trkpt lat="45.35657" lon="5.91357">
        <ele>1140.75025755</ele>
        <time>2015-05-28T13:56:45Z</time>
      </trkpt>
      <trkpt lat="45.35657" lon="5.91357">
        <ele>1140.75025755</ele>
        <time>2015-05-28T13:56:49Z</time>
      </trkpt>
      <trkpt lat="45.35672" lon="5.91351">
        <ele>1143.483788001</ele>
        <time>2015-05-28T13:56:54Z</time>
      </trkpt>
      <trkpt lat="45.35679" lon="5.91362">
        <ele>1146.061173508</ele>
        <time>2015-05-28T13:56:58Z</time>
      </trkpt>
      <trkpt lat="45.35692" lon="5.91357">
        <ele>1148.922297585</ele>
        <time>2015-05-28T13:57:03Z</time>
      </trkpt>
      <trkpt lat="45.35708" lon="5.91349">
        <ele>1152.041472641</ele>
        <time>2015-05-28T13:57:09Z</time>
      </trkpt>
      <trkpt lat="45.3572" lon="5.91333">
        <ele>1154.67324209</ele>
        <time>2015-05-28T13:57:13Z</time>
      </trkpt>
      <trkpt lat="45.35723" lon="5.91329">
        <ele>1154.67324209</ele>
        <time>2015-05-28T13:57:18Z</time>
      </trkpt>
      <trkpt lat="45.35724" lon="5.9133">
        <ele>1154.67324209</ele>
        <time>2015-05-28T13:57:23Z</time>
      </trkpt>
      <trkpt lat="45.35726" lon="5.91329">
        <ele>1154.67324209</ele>
        <time>2015-05-28T13:57:28Z</time>
      </trkpt>
      <trkpt lat="45.35727" lon="5.91327">
        <ele>1157.858789509</ele>
        <time>2015-05-28T13:57:34Z</time>
      </trkpt>
      <trkpt lat="45.3573" lon="5.91328">
        <ele>1157.858789509</ele>
        <time>2015-05-28T13:57:38Z</time>
      </trkpt>
      <trkpt lat="45.35734" lon="5.91324">
        <ele>1157.858789509</ele>
        <time>2015-05-28T13:57:43Z</time>
      </trkpt>
      <trkpt lat="45.35744" lon="5.91323">
        <ele>1160.542440902</ele>
        <time>2015-05-28T13:57:49Z</time>
      </trkpt>
      <trkpt lat="45.35748" lon="5.91326">
        <ele>1160.542440902</ele>
        <time>2015-05-28T13:57:54Z</time>
      </trkpt>
      <trkpt lat="45.35759" lon="5.91322">
        <ele>1162.757038897</ele>
        <time>2015-05-28T13:57:59Z</time>
      </trkpt>
      <trkpt lat="45.35762" lon="5.91322">
        <ele>1162.757038897</ele>
        <time>2015-05-28T13:58:04Z</time>
      </trkpt>
      <trkpt lat="45.35763" lon="5.91316">
        <ele>1162.757038897</ele>
        <time>2015-05-28T13:58:09Z</time>
      </trkpt>
      <trkpt lat="45.35768" lon="5.91316">
        <ele>1165.976787119</ele>
        <time>2015-05-28T13:58:14Z</time>
      </trkpt>
      <trkpt lat="45.3577" lon="5.91309">
        <ele>1165.976787119</ele>
        <time>2015-05-28T13:58:18Z</time>
      </trkpt>
      <trkpt lat="45.35784" lon="5.91305">
        <ele>1169.689903781</ele>
        <time>2015-05-28T13:58:24Z</time>
      </trkpt>
      <trkpt lat="45.3579" lon="5.913">
        <ele>1169.689903781</ele>
        <time>2015-05-28T13:58:29Z</time>
      </trkpt>
      <trkpt lat="45.358" lon="5.91304">
        <ele>1173.276649401</ele>
        <time>2015-05-28T13:58:35Z</time>
      </trkpt>
      <trkpt lat="45.35802" lon="5.91302">
        <ele>1173.276649401</ele>
        <time>2015-05-28T13:58:39Z</time>
      </trkpt>
      <trkpt lat="45.35801" lon="5.91302">
        <ele>1173.276649401</ele>
        <time>2015-05-28T13:58:44Z</time>
      </trkpt>
      <trkpt lat="45.35806" lon="5.91297">
        <ele>1176.884503888</ele>
        <time>2015-05-28T13:58:49Z</time>
      </trkpt>
      <trkpt lat="45.35808" lon="5.91291">
        <ele>1176.884503888</ele>
        <time>2015-05-28T13:58:54Z</time>
      </trkpt>
      <trkpt lat="45.35815" lon="5.91284">
        <ele>1180.07321967</ele>
        <time>2015-05-28T13:58:59Z</time>
      </trkpt>
      <trkpt lat="45.35815" lon="5.91285">
        <ele>1180.07321967</ele>
        <time>2015-05-28T13:59:03Z</time>
      </trkpt>
      <trkpt lat="45.35818" lon="5.91281">
        <ele>1180.07321967</ele>
        <time>2015-05-28T13:59:09Z</time>
      </trkpt>
      <trkpt lat="45.35825" lon="5.9127">
        <ele>1182.868981263</ele>
        <time>2015-05-28T13:59:14Z</time>
      </trkpt>
      <trkpt lat="45.35831" lon="5.91269">
        <ele>1182.868981263</ele>
        <time>2015-05-28T13:59:18Z</time>
      </trkpt>
      <trkpt lat="45.35838" lon="5.91264">
        <ele>1185.297317419</ele>
        <time>2015-05-28T13:59:24Z</time>
      </trkpt>
      <trkpt lat="45.3584" lon="5.91264">
        <ele>1185.297317419</ele>
        <time>2015-05-28T13:59:28Z</time>
      </trkpt>
      <trkpt lat="45.35841" lon="5.91262">
        <ele>1185.297317419</ele>
        <time>2015-05-28T13:59:34Z</time>
      </trkpt>
      <trkpt lat="45.35844" lon="5.91259">
        <ele>1185.297317419</ele>
        <time>2015-05-28T13:59:39Z</time>
      </trkpt>
      <trkpt lat="45.35844" lon="5.91262">
        <ele>1188.681220302</ele>
        <time>2015-05-28T13:59:44Z</time>
      </trkpt>
      <trkpt lat="45.35856" lon="5.91256">
        <ele>1191.791772556</ele>
        <time>2015-05-28T13:59:48Z</time>
      </trkpt>
      <trkpt lat="45.35873" lon="5.91245">
        <ele>1194.212591934</ele>
        <time>2015-05-28T13:59:54Z</time>
      </trkpt>
      <trkpt lat="45.35875" lon="5.91246">
        <ele>1194.212591934</ele>
        <time>2015-05-28T13:59:58Z</time>
      </trkpt>
      <trkpt lat="45.35864" lon="5.91242">
        <ele>1196.713842096</ele>
        <time>2015-05-28T14:00:03Z</time>
      </trkpt>
      <trkpt lat="45.35866" lon="5.91241">
        <ele>1196.713842096</ele>
        <time>2015-05-28T14:00:08Z</time>
      </trkpt>
      <trkpt lat="45.35872" lon="5.91229">
        <ele>1198.855139754</ele>
        <time>2015-05-28T14:00:13Z</time>
      </trkpt>
      <trkpt lat="45.35879" lon="5.91226">
        <ele>1198.855139754</ele>
        <time>2015-05-28T14:00:18Z</time>
      </trkpt>
      <trkpt lat="45.35888" lon="5.91223">
        <ele>1200.950741107</ele>
        <time>2015-05-28T14:00:23Z</time>
      </trkpt>
      <trkpt lat="45.35887" lon="5.9122">
        <ele>1200.950741107</ele>
        <time>2015-05-28T14:00:28Z</time>
      </trkpt>
      <trkpt lat="45.35894" lon="5.91217">
        <ele>1202.859395663</ele>
        <time>2015-05-28T14:00:34Z</time>
      </trkpt>
      <trkpt lat="45.35893" lon="5.91208">
        <ele>1202.859395663</ele>
        <time>2015-05-28T14:00:38Z</time>
      </trkpt>
      <trkpt lat="45.35892" lon="5.91211">
        <ele>1202.859395663</ele>
        <time>2015-05-28T14:00:43Z</time>
      </trkpt>
      <trkpt lat="45.35896" lon="5.91211">
        <ele>1205.316076013</ele>
        <time>2015-05-28T14:00:49Z</time>
      </trkpt>
      <trkpt lat="45.359" lon="5.91203">
        <ele>1205.316076013</ele>
        <time>2015-05-28T14:00:54Z</time>
      </trkpt>
      <trkpt lat="45.35896" lon="5.91201">
        <ele>1207.702482601</ele>
        <time>2015-05-28T14:00:59Z</time>
      </trkpt>
      <trkpt lat="45.35904" lon="5.91199">
        <ele>1207.702482601</ele>
        <time>2015-05-28T14:01:04Z</time>
      </trkpt>
      <trkpt lat="45.35918" lon="5.91188">
        <ele>1210.599617172</ele>
        <time>2015-05-28T14:01:09Z</time>
      </trkpt>
      <trkpt lat="45.35921" lon="5.91191">
        <ele>1210.599617172</ele>
        <time>2015-05-28T14:01:14Z</time>
      </trkpt>
      <trkpt lat="45.35924" lon="5.91187">
        <ele>1210.599617172</ele>
        <time>2015-05-28T14:01:19Z</time>
      </trkpt>
      <trkpt lat="45.35924" lon="5.91187">
        <ele>1210.599617172</ele>
        <time>2015-05-28T14:01:24Z</time>
      </trkpt>
      <trkpt lat="45.35927" lon="5.91186">
        <ele>1213.390961314</ele>
        <time>2015-05-28T14:01:29Z</time>
      </trkpt>
      <trkpt lat="45.35928" lon="5.91184">
        <ele>1213.390961314</ele>
        <time>2015-05-28T14:01:33Z</time>
      </trkpt>
      <trkpt lat="45.35929" lon="5.91183">
        <ele>1213.390961314</ele>
        <time>2015-05-28T14:01:39Z</time>
      </trkpt>
      <trkpt lat="45.3593" lon="5.91183">
        <ele>1213.390961314</ele>
        <time>2015-05-28T14:01:44Z</time>
      </trkpt>
      <trkpt lat="45.3593" lon="5.91183">
        <ele>1213.390961314</ele>
        <time>2015-05-28T14:01:49Z</time>
      </trkpt>
      <trkpt lat="45.35931" lon="5.91183">
        <ele>1213.390961314</ele>
        <time>2015-05-28T14:01:53Z</time>
      </trkpt>
      <trkpt lat="45.35931" lon="5.91183">
        <ele>1213.390961314</ele>
        <time>2015-05-28T14:01:59Z</time>
      </trkpt>
      <trkpt lat="45.35931" lon="5.91183">
        <ele>1213.390961314</ele>
        <time>2015-05-28T14:02:04Z</time>
      </trkpt>
      <trkpt lat="45.35943" lon="5.91171">
        <ele>1217.091639373</ele>
        <time>2015-05-28T14:02:08Z</time>
      </trkpt>
      <trkpt lat="45.35947" lon="5.91161">
        <ele>1217.091639373</ele>
        <time>2015-05-28T14:02:13Z</time>
      </trkpt>
      <trkpt lat="45.35946" lon="5.9116">
        <ele>1221.630447784</ele>
        <time>2015-05-28T14:02:18Z</time>
      </trkpt>
      <trkpt lat="45.35944" lon="5.91155">
        <ele>1221.630447784</ele>
        <time>2015-05-28T14:02:23Z</time>
      </trkpt>
      <trkpt lat="45.35936" lon="5.91154">
        <ele>1226.650886369</ele>
        <time>2015-05-28T14:02:28Z</time>
      </trkpt>
      <trkpt lat="45.35937" lon="5.91154">
        <ele>1226.650886369</ele>
        <time>2015-05-28T14:02:33Z</time>
      </trkpt>
      <trkpt lat="45.35935" lon="5.9116">
        <ele>1226.650886369</ele>
        <time>2015-05-28T14:02:38Z</time>
      </trkpt>
      <trkpt lat="45.35933" lon="5.91163">
        <ele>1226.650886369</ele>
        <time>2015-05-28T14:02:43Z</time>
      </trkpt>
      <trkpt lat="45.35928" lon="5.9116">
        <ele>1231.677329229</ele>
        <time>2015-05-28T14:02:48Z</time>
      </trkpt>
      <trkpt lat="45.35924" lon="5.91158">
        <ele>1231.677329229</ele>
        <time>2015-05-28T14:02:53Z</time>
      </trkpt>
      <trkpt lat="45.35921" lon="5.91157">
        <ele>1231.677329229</ele>
        <time>2015-05-28T14:02:59Z</time>
      </trkpt>
      <trkpt lat="45.35919" lon="5.91156">
        <ele>1235.836848061</ele>
        <time>2015-05-28T14:03:03Z</time>
      </trkpt>
      <trkpt lat="45.35917" lon="5.91155">
        <ele>1235.836848061</ele>
        <time>2015-05-28T14:03:08Z</time>
      </trkpt>
      <trkpt lat="45.35906" lon="5.91149">
        <ele>1238.899870372</ele>
        <time>2015-05-28T14:03:13Z</time>
      </trkpt>
      <trkpt lat="45.35903" lon="5.91154">
        <ele>1238.899870372</ele>
        <time>2015-05-28T14:03:18Z</time>
      </trkpt>
      <trkpt lat="45.35901" lon="5.91152">
        <ele>1238.899870372</ele>
        <time>2015-05-28T14:03:23Z</time>
      </trkpt>
      <trkpt lat="45.35898" lon="5.91143">
        <ele>1241.809981596</ele>
        <time>2015-05-28T14:03:28Z</time>
      </trkpt>
      <trkpt lat="45.35892" lon="5.91139">
        <ele>1241.809981596</ele>
        <time>2015-05-28T14:03:35Z</time>
      </trkpt>
      <trkpt lat="45.35889" lon="5.91126">
        <ele>1244.86538789</ele>
        <time>2015-05-28T14:03:39Z</time>
      </trkpt>
      <trkpt lat="45.35883" lon="5.91122">
        <ele>1244.86538789</ele>
        <time>2015-05-28T14:03:43Z</time>
      </trkpt>
      <trkpt lat="45.35877" lon="5.91122">
        <ele>1247.477330897</ele>
        <time>2015-05-28T14:03:48Z</time>
      </trkpt>
      <trkpt lat="45.35875" lon="5.91112">
        <ele>1247.477330897</ele>
        <time>2015-05-28T14:03:54Z</time>
      </trkpt>
      <trkpt lat="45.3587" lon="5.9111">
        <ele>1249.389965323</ele>
        <time>2015-05-28T14:03:58Z</time>
      </trkpt>
      <trkpt lat="45.35868" lon="5.91111">
        <ele>1249.389965323</ele>
        <time>2015-05-28T14:04:04Z</time>
      </trkpt>
      <trkpt lat="45.35866" lon="5.91109">
        <ele>1249.389965323</ele>
        <time>2015-05-28T14:04:09Z</time>
      </trkpt>
      <trkpt lat="45.3586" lon="5.91108">
        <ele>1252.386018044</ele>
        <time>2015-05-28T14:04:14Z</time>
      </trkpt>
      <trkpt lat="45.35857" lon="5.91103">
        <ele>1252.386018044</ele>
        <time>2015-05-28T14:04:19Z</time>
      </trkpt>
      <trkpt lat="45.35857" lon="5.91092">
        <ele>1255.520091341</ele>
        <time>2015-05-28T14:04:24Z</time>
      </trkpt>
      <trkpt lat="45.35852" lon="5.9109">
        <ele>1255.520091341</ele>
        <time>2015-05-28T14:04:28Z</time>
      </trkpt>
      <trkpt lat="45.35852" lon="5.91082">
        <ele>1257.19541945</ele>
        <time>2015-05-28T14:04:33Z</time>
      </trkpt>
      <trkpt lat="45.35851" lon="5.91069">
        <ele>1258.53085023</ele>
        <time>2015-05-28T14:04:38Z</time>
      </trkpt>
      <trkpt lat="45.35851" lon="5.91058">
        <ele>1258.53085023</ele>
        <time>2015-05-28T14:04:44Z</time>
      </trkpt>
      <trkpt lat="45.3585" lon="5.91055">
        <ele>1259.699342708</ele>
        <time>2015-05-28T14:04:48Z</time>
      </trkpt>
      <trkpt lat="45.3585" lon="5.9105">
        <ele>1259.699342708</ele>
        <time>2015-05-28T14:04:53Z</time>
      </trkpt>
      <trkpt lat="45.35849" lon="5.91044">
        <ele>1259.699342708</ele>
        <time>2015-05-28T14:04:58Z</time>
      </trkpt>
      <trkpt lat="45.35847" lon="5.91036">
        <ele>1261.00578971</ele>
        <time>2015-05-28T14:05:03Z</time>
      </trkpt>
      <trkpt lat="45.35844" lon="5.91031">
        <ele>1261.00578971</ele>
        <time>2015-05-28T14:05:08Z</time>
      </trkpt>
      <trkpt lat="45.35843" lon="5.91024">
        <ele>1262.876455432</ele>
        <time>2015-05-28T14:05:14Z</time>
      </trkpt>
      <trkpt lat="45.35842" lon="5.91018">
        <ele>1262.876455432</ele>
        <time>2015-05-28T14:05:18Z</time>
      </trkpt>
      <trkpt lat="45.3584" lon="5.91015">
        <ele>1262.876455432</ele>
        <time>2015-05-28T14:05:24Z</time>
      </trkpt>
      <trkpt lat="45.3584" lon="5.9101">
        <ele>1264.119497739</ele>
        <time>2015-05-28T14:05:29Z</time>
      </trkpt>
      <trkpt lat="45.35841" lon="5.91006">
        <ele>1264.119497739</ele>
        <time>2015-05-28T14:05:33Z</time>
      </trkpt>
      <trkpt lat="45.35843" lon="5.90995">
        <ele>1265.938215762</ele>
        <time>2015-05-28T14:05:39Z</time>
      </trkpt>
      <trkpt lat="45.35839" lon="5.90986">
        <ele>1265.938215762</ele>
        <time>2015-05-28T14:05:44Z</time>
      </trkpt>
      <trkpt lat="45.35835" lon="5.90981">
        <ele>1268.148891297</ele>
        <time>2015-05-28T14:05:49Z</time>
      </trkpt>
      <trkpt lat="45.35839" lon="5.90973">
        <ele>1268.148891297</ele>
        <time>2015-05-28T14:05:54Z</time>
      </trkpt>
      <trkpt lat="45.35833" lon="5.90968">
        <ele>1270.580204111</ele>
        <time>2015-05-28T14:05:58Z</time>
      </trkpt>
      <trkpt lat="45.35841" lon="5.90967">
        <ele>1270.580204111</ele>
        <time>2015-05-28T14:06:04Z</time>
      </trkpt>
      <trkpt lat="45.35839" lon="5.90967">
        <ele>1272.784568244</ele>
        <time>2015-05-28T14:06:09Z</time>
      </trkpt>
      <trkpt lat="45.35839" lon="5.90967">
        <ele>1272.784568244</ele>
        <time>2015-05-28T14:06:14Z</time>
      </trkpt>
      <trkpt lat="45.35838" lon="5.90966">
        <ele>1272.784568244</ele>
        <time>2015-05-28T14:06:19Z</time>
      </trkpt>
      <trkpt lat="45.35838" lon="5.90966">
        <ele>1272.784568244</ele>
        <time>2015-05-28T14:06:24Z</time>
      </trkpt>
      <trkpt lat="45.35838" lon="5.90966">
        <ele>1272.784568244</ele>
        <time>2015-05-28T14:06:28Z</time>
      </trkpt>
      <trkpt lat="45.3584" lon="5.90959">
        <ele>1272.784568244</ele>
        <time>2015-05-28T14:06:34Z</time>
      </trkpt>
      <trkpt lat="45.35836" lon="5.90956">
        <ele>1275.35669239</ele>
        <time>2015-05-28T14:06:39Z</time>
      </trkpt>
      <trkpt lat="45.35834" lon="5.90954">
        <ele>1275.35669239</ele>
        <time>2015-05-28T14:06:44Z</time>
      </trkpt>
      <trkpt lat="45.35833" lon="5.90954">
        <ele>1275.35669239</ele>
        <time>2015-05-28T14:06:49Z</time>
      </trkpt>
      <trkpt lat="45.35834" lon="5.90946">
        <ele>1275.35669239</ele>
        <time>2015-05-28T14:06:53Z</time>
      </trkpt>
      <trkpt lat="45.35837" lon="5.90922">
        <ele>1277.981877004</ele>
        <time>2015-05-28T14:06:58Z</time>
      </trkpt>
      <trkpt lat="45.3583" lon="5.90918">
        <ele>1277.981877004</ele>
        <time>2015-05-28T14:07:03Z</time>
      </trkpt>
      <trkpt lat="45.35832" lon="5.90915">
        <ele>1280.944829901</ele>
        <time>2015-05-28T14:07:08Z</time>
      </trkpt>
      <trkpt lat="45.35829" lon="5.90915">
        <ele>1280.944829901</ele>
        <time>2015-05-28T14:07:13Z</time>
      </trkpt>
      <trkpt lat="45.35821" lon="5.90908">
        <ele>1284.220157714</ele>
        <time>2015-05-28T14:07:18Z</time>
      </trkpt>
      <trkpt lat="45.35816" lon="5.909">
        <ele>1284.220157714</ele>
        <time>2015-05-28T14:07:23Z</time>
      </trkpt>
      <trkpt lat="45.35813" lon="5.90895">
        <ele>1287.351103085</ele>
        <time>2015-05-28T14:07:28Z</time>
      </trkpt>
      <trkpt lat="45.35813" lon="5.90888">
        <ele>1287.351103085</ele>
        <time>2015-05-28T14:07:33Z</time>
      </trkpt>
      <trkpt lat="45.3581" lon="5.90885">
        <ele>1287.351103085</ele>
        <time>2015-05-28T14:07:38Z</time>
      </trkpt>
      <trkpt lat="45.3581" lon="5.90883">
        <ele>1289.914856312</ele>
        <time>2015-05-28T14:07:43Z</time>
      </trkpt>
      <trkpt lat="45.35808" lon="5.90879">
        <ele>1289.914856312</ele>
        <time>2015-05-28T14:07:48Z</time>
      </trkpt>
      <trkpt lat="45.35808" lon="5.90873">
        <ele>1289.914856312</ele>
        <time>2015-05-28T14:07:53Z</time>
      </trkpt>
      <trkpt lat="45.35806" lon="5.90867">
        <ele>1292.53005174</ele>
        <time>2015-05-28T14:07:58Z</time>
      </trkpt>
      <trkpt lat="45.35803" lon="5.90865">
        <ele>1292.53005174</ele>
        <time>2015-05-28T14:08:03Z</time>
      </trkpt>
      <trkpt lat="45.35802" lon="5.90857">
        <ele>1292.53005174</ele>
        <time>2015-05-28T14:08:08Z</time>
      </trkpt>
      <trkpt lat="45.35799" lon="5.90855">
        <ele>1295.625618114</ele>
        <time>2015-05-28T14:08:13Z</time>
      </trkpt>
      <trkpt lat="45.358" lon="5.9085">
        <ele>1295.625618114</ele>
        <time>2015-05-28T14:08:18Z</time>
      </trkpt>
      <trkpt lat="45.35799" lon="5.90844">
        <ele>1295.625618114</ele>
        <time>2015-05-28T14:08:23Z</time>
      </trkpt>
      <trkpt lat="45.35806" lon="5.90838">
        <ele>1298.588822116</ele>
        <time>2015-05-28T14:08:28Z</time>
      </trkpt>
      <trkpt lat="45.35808" lon="5.90834">
        <ele>1298.588822116</ele>
        <time>2015-05-28T14:08:33Z</time>
      </trkpt>
      <trkpt lat="45.35808" lon="5.90829">
        <ele>1298.588822116</ele>
        <time>2015-05-28T14:08:38Z</time>
      </trkpt>
      <trkpt lat="45.35809" lon="5.90825">
        <ele>1301.71699912</ele>
        <time>2015-05-28T14:08:44Z</time>
      </trkpt>
      <trkpt lat="45.3581" lon="5.90821">
        <ele>1301.71699912</ele>
        <time>2015-05-28T14:08:48Z</time>
      </trkpt>
      <trkpt lat="45.35812" lon="5.90819">
        <ele>1301.71699912</ele>
        <time>2015-05-28T14:08:53Z</time>
      </trkpt>
      <trkpt lat="45.35812" lon="5.90818">
        <ele>1301.71699912</ele>
        <time>2015-05-28T14:09:00Z</time>
      </trkpt>
      <trkpt lat="45.35812" lon="5.90818">
        <ele>1301.71699912</ele>
        <time>2015-05-28T14:09:04Z</time>
      </trkpt>
      <trkpt lat="45.35812" lon="5.90818">
        <ele>1301.71699912</ele>
        <time>2015-05-28T14:09:09Z</time>
      </trkpt>
      <trkpt lat="45.35811" lon="5.90818">
        <ele>1301.71699912</ele>
        <time>2015-05-28T14:09:14Z</time>
      </trkpt>
      <trkpt lat="45.35811" lon="5.90818">
        <ele>1301.71699912</ele>
        <time>2015-05-28T14:09:19Z</time>
      </trkpt>
      <trkpt lat="45.35811" lon="5.90818">
        <ele>1301.71699912</ele>
        <time>2015-05-28T14:09:23Z</time>
      </trkpt>
      <trkpt lat="45.35816" lon="5.90805">
        <ele>1304.852835671</ele>
        <time>2015-05-28T14:09:28Z</time>
      </trkpt>
      <trkpt lat="45.35812" lon="5.90796">
        <ele>1304.852835671</ele>
        <time>2015-05-28T14:09:33Z</time>
      </trkpt>
      <trkpt lat="45.35809" lon="5.90792">
        <ele>1308.715246877</ele>
        <time>2015-05-28T14:09:38Z</time>
      </trkpt>
      <trkpt lat="45.35803" lon="5.90787">
        <ele>1308.715246877</ele>
        <time>2015-05-28T14:09:43Z</time>
      </trkpt>
      <trkpt lat="45.35797" lon="5.90781">
        <ele>1312.671273145</ele>
        <time>2015-05-28T14:09:48Z</time>
      </trkpt>
      <trkpt lat="45.35794" lon="5.90773">
        <ele>1312.671273145</ele>
        <time>2015-05-28T14:09:54Z</time>
      </trkpt>
      <trkpt lat="45.35795" lon="5.90768">
        <ele>1316.278321144</ele>
        <time>2015-05-28T14:09:59Z</time>
      </trkpt>
      <trkpt lat="45.35792" lon="5.90762">
        <ele>1316.278321144</ele>
        <time>2015-05-28T14:10:03Z</time>
      </trkpt>
      <trkpt lat="45.35788" lon="5.90755">
        <ele>1319.992001534</ele>
        <time>2015-05-28T14:10:08Z</time>
      </trkpt>
      <trkpt lat="45.35783" lon="5.90756">
        <ele>1319.992001534</ele>
        <time>2015-05-28T14:10:13Z</time>
      </trkpt>
      <trkpt lat="45.35776" lon="5.90753">
        <ele>1323.369496894</ele>
        <time>2015-05-28T14:10:18Z</time>
      </trkpt>
      <trkpt lat="45.35772" lon="5.90747">
        <ele>1323.369496894</ele>
        <time>2015-05-28T14:10:24Z</time>
      </trkpt>
      <trkpt lat="45.35771" lon="5.90743">
        <ele>1323.369496894</ele>
        <time>2015-05-28T14:10:28Z</time>
      </trkpt>
      <trkpt lat="45.35769" lon="5.90739">
        <ele>1326.289726009</ele>
        <time>2015-05-28T14:10:33Z</time>
      </trkpt>
      <trkpt lat="45.35768" lon="5.90733">
        <ele>1326.289726009</ele>
        <time>2015-05-28T14:10:39Z</time>
      </trkpt>
      <trkpt lat="45.35762" lon="5.90732">
        <ele>1329.218277751</ele>
        <time>2015-05-28T14:10:44Z</time>
      </trkpt>
      <trkpt lat="45.35757" lon="5.90733">
        <ele>1329.218277751</ele>
        <time>2015-05-28T14:10:48Z</time>
      </trkpt>
      <trkpt lat="45.35753" lon="5.90727">
        <ele>1332.010092349</ele>
        <time>2015-05-28T14:10:54Z</time>
      </trkpt>
      <trkpt lat="45.35754" lon="5.90727">
        <ele>1332.010092349</ele>
        <time>2015-05-28T14:10:59Z</time>
      </trkpt>
      <trkpt lat="45.35754" lon="5.90726">
        <ele>1332.010092349</ele>
        <time>2015-05-28T14:11:04Z</time>
      </trkpt>
      <trkpt lat="45.35754" lon="5.90723">
        <ele>1332.010092349</ele>
        <time>2015-05-28T14:11:08Z</time>
      </trkpt>
      <trkpt lat="45.35754" lon="5.90723">
        <ele>1332.010092349</ele>
        <time>2015-05-28T14:11:13Z</time>
      </trkpt>
      <trkpt lat="45.35753" lon="5.90709">
        <ele>1334.387069645</ele>
        <time>2015-05-28T14:11:19Z</time>
      </trkpt>
      <trkpt lat="45.35744" lon="5.90707">
        <ele>1334.387069645</ele>
        <time>2015-05-28T14:11:24Z</time>
      </trkpt>
      <trkpt lat="45.35744" lon="5.90696">
        <ele>1336.092732231</ele>
        <time>2015-05-28T14:11:28Z</time>
      </trkpt>
      <trkpt lat="45.35742" lon="5.90688">
        <ele>1336.092732231</ele>
        <time>2015-05-28T14:11:34Z</time>
      </trkpt>
      <trkpt lat="45.3574" lon="5.90683">
        <ele>1337.756030284</ele>
        <time>2015-05-28T14:11:39Z</time>
      </trkpt>
      <trkpt lat="45.35735" lon="5.90678">
        <ele>1337.756030284</ele>
        <time>2015-05-28T14:11:44Z</time>
      </trkpt>
      <trkpt lat="45.35733" lon="5.90674">
        <ele>1339.95984066</ele>
        <time>2015-05-28T14:11:48Z</time>
      </trkpt>
      <trkpt lat="45.3573" lon="5.90668">
        <ele>1339.95984066</ele>
        <time>2015-05-28T14:11:54Z</time>
      </trkpt>
      <trkpt lat="45.35729" lon="5.90663">
        <ele>1339.95984066</ele>
        <time>2015-05-28T14:11:59Z</time>
      </trkpt>
      <trkpt lat="45.35727" lon="5.90658">
        <ele>1342.233917383</ele>
        <time>2015-05-28T14:12:04Z</time>
      </trkpt>
      <trkpt lat="45.35726" lon="5.90649">
        <ele>1342.233917383</ele>
        <time>2015-05-28T14:12:09Z</time>
      </trkpt>
      <trkpt lat="45.35725" lon="5.90642">
        <ele>1344.286474788</ele>
        <time>2015-05-28T14:12:14Z</time>
      </trkpt>
      <trkpt lat="45.35723" lon="5.90631">
        <ele>1344.286474788</ele>
        <time>2015-05-28T14:12:19Z</time>
      </trkpt>
      <trkpt lat="45.3572" lon="5.90627">
        <ele>1346.568339671</ele>
        <time>2015-05-28T14:12:24Z</time>
      </trkpt>
      <trkpt lat="45.35717" lon="5.90621">
        <ele>1346.568339671</ele>
        <time>2015-05-28T14:12:28Z</time>
      </trkpt>
      <trkpt lat="45.3571" lon="5.90615">
        <ele>1349.352451445</ele>
        <time>2015-05-28T14:12:34Z</time>
      </trkpt>
      <trkpt lat="45.35707" lon="5.90604">
        <ele>1349.352451445</ele>
        <time>2015-05-28T14:12:39Z</time>
      </trkpt>
      <trkpt lat="45.35708" lon="5.9061">
        <ele>1351.73737592</ele>
        <time>2015-05-28T14:12:44Z</time>
      </trkpt>
      <trkpt lat="45.35705" lon="5.90593">
        <ele>1354.330125354</ele>
        <time>2015-05-28T14:12:48Z</time>
      </trkpt>
      <trkpt lat="45.35706" lon="5.90593">
        <ele>1354.330125354</ele>
        <time>2015-05-28T14:12:53Z</time>
      </trkpt>
      <trkpt lat="45.35704" lon="5.90592">
        <ele>1354.330125354</ele>
        <time>2015-05-28T14:12:58Z</time>
      </trkpt>
      <trkpt lat="45.35705" lon="5.90593">
        <ele>1354.330125354</ele>
        <time>2015-05-28T14:13:03Z</time>
      </trkpt>
      <trkpt lat="45.35705" lon="5.90593">
        <ele>1354.330125354</ele>
        <time>2015-05-28T14:13:08Z</time>
      </trkpt>
      <trkpt lat="45.35705" lon="5.90593">
        <ele>1354.330125354</ele>
        <time>2015-05-28T14:13:13Z</time>
      </trkpt>
      <trkpt lat="45.35705" lon="5.90593">
        <ele>1354.330125354</ele>
        <time>2015-05-28T14:13:18Z</time>
      </trkpt>
      <trkpt lat="45.35705" lon="5.90593">
        <ele>1354.330125354</ele>
        <time>2015-05-28T14:13:23Z</time>
      </trkpt>
      <trkpt lat="45.35699" lon="5.90589">
        <ele>1357.980742995</ele>
        <time>2015-05-28T14:13:28Z</time>
      </trkpt>
      <trkpt lat="45.35693" lon="5.90586">
        <ele>1357.980742995</ele>
        <time>2015-05-28T14:13:34Z</time>
      </trkpt>
      <trkpt lat="45.35689" lon="5.90583">
        <ele>1361.312165385</ele>
        <time>2015-05-28T14:13:39Z</time>
      </trkpt>
      <trkpt lat="45.35685" lon="5.90579">
        <ele>1361.312165385</ele>
        <time>2015-05-28T14:13:43Z</time>
      </trkpt>
      <trkpt lat="45.35681" lon="5.9057">
        <ele>1364.490493119</ele>
        <time>2015-05-28T14:13:49Z</time>
      </trkpt>
      <trkpt lat="45.35677" lon="5.90564">
        <ele>1364.490493119</ele>
        <time>2015-05-28T14:13:54Z</time>
      </trkpt>
      <trkpt lat="45.35674" lon="5.90562">
        <ele>1364.490493119</ele>
        <time>2015-05-28T14:13:59Z</time>
      </trkpt>
      <trkpt lat="45.3567" lon="5.90558">
        <ele>1367.381823058</ele>
        <time>2015-05-28T14:14:04Z</time>
      </trkpt>
      <trkpt lat="45.35668" lon="5.90553">
        <ele>1367.381823058</ele>
        <time>2015-05-28T14:14:09Z</time>
      </trkpt>
      <trkpt lat="45.35668" lon="5.90551">
        <ele>1367.381823058</ele>
        <time>2015-05-28T14:14:14Z</time>
      </trkpt>
      <trkpt lat="45.35669" lon="5.90548">
        <ele>1367.381823058</ele>
        <time>2015-05-28T14:14:19Z</time>
      </trkpt>
      <trkpt lat="45.35668" lon="5.90547">
        <ele>1367.381823058</ele>
        <time>2015-05-28T14:14:24Z</time>
      </trkpt>
      <trkpt lat="45.35669" lon="5.90539">
        <ele>1370.295224632</ele>
        <time>2015-05-28T14:14:29Z</time>
      </trkpt>
      <trkpt lat="45.35662" lon="5.90534">
        <ele>1370.295224632</ele>
        <time>2015-05-28T14:14:33Z</time>
      </trkpt>
      <trkpt lat="45.35656" lon="5.90524">
        <ele>1373.661111199</ele>
        <time>2015-05-28T14:14:39Z</time>
      </trkpt>
      <trkpt lat="45.35658" lon="5.9052">
        <ele>1373.661111199</ele>
        <time>2015-05-28T14:14:44Z</time>
      </trkpt>
      <trkpt lat="45.35659" lon="5.90517">
        <ele>1373.661111199</ele>
        <time>2015-05-28T14:14:48Z</time>
      </trkpt>
      <trkpt lat="45.35658" lon="5.90514">
        <ele>1373.661111199</ele>
        <time>2015-05-28T14:14:54Z</time>
      </trkpt>
      <trkpt lat="45.35657" lon="5.90511">
        <ele>1376.435894903</ele>
        <time>2015-05-28T14:14:59Z</time>
      </trkpt>
      <trkpt lat="45.35656" lon="5.90495">
        <ele>1378.9513129</ele>
        <time>2015-05-28T14:15:04Z</time>
      </trkpt>
      <trkpt lat="45.35655" lon="5.90488">
        <ele>1378.9513129</ele>
        <time>2015-05-28T14:15:08Z</time>
      </trkpt>
      <trkpt lat="45.35653" lon="5.90476">
        <ele>1381.659573657</ele>
        <time>2015-05-28T14:15:14Z</time>
      </trkpt>
      <trkpt lat="45.35644" lon="5.90471">
        <ele>1384.258570456</ele>
        <time>2015-05-28T14:15:19Z</time>
      </trkpt>
      <trkpt lat="45.35646" lon="5.90457">
        <ele>1386.756918258</ele>
        <time>2015-05-28T14:15:24Z</time>
      </trkpt>
      <trkpt lat="45.35641" lon="5.90451">
        <ele>1386.756918258</ele>
        <time>2015-05-28T14:15:28Z</time>
      </trkpt>
      <trkpt lat="45.35637" lon="5.90446">
        <ele>1389.595213626</ele>
        <time>2015-05-28T14:15:34Z</time>
      </trkpt>
      <trkpt lat="45.35633" lon="5.9044">
        <ele>1389.595213626</ele>
        <time>2015-05-28T14:15:39Z</time>
      </trkpt>
      <trkpt lat="45.35627" lon="5.90441">
        <ele>1392.748397703</ele>
        <time>2015-05-28T14:15:44Z</time>
      </trkpt>
      <trkpt lat="45.35624" lon="5.90434">
        <ele>1392.748397703</ele>
        <time>2015-05-28T14:15:48Z</time>
      </trkpt>
      <trkpt lat="45.3562" lon="5.9042">
        <ele>1396.048256585</ele>
        <time>2015-05-28T14:15:54Z</time>
      </trkpt>
      <trkpt lat="45.35616" lon="5.90413">
        <ele>1396.048256585</ele>
        <time>2015-05-28T14:15:59Z</time>
      </trkpt>
      <trkpt lat="45.35614" lon="5.9041">
        <ele>1398.329742268</ele>
        <time>2015-05-28T14:16:04Z</time>
      </trkpt>
      <trkpt lat="45.35614" lon="5.90403">
        <ele>1398.329742268</ele>
        <time>2015-05-28T14:16:08Z</time>
      </trkpt>
      <trkpt lat="45.35611" lon="5.90404">
        <ele>1398.329742268</ele>
        <time>2015-05-28T14:16:14Z</time>
      </trkpt>
      <trkpt lat="45.35609" lon="5.90395">
        <ele>1400.677914625</ele>
        <time>2015-05-28T14:16:19Z</time>
      </trkpt>
      <trkpt lat="45.35603" lon="5.90396">
        <ele>1400.677914625</ele>
        <time>2015-05-28T14:16:24Z</time>
      </trkpt>
      <trkpt lat="45.35594" lon="5.9039">
        <ele>1403.377381343</ele>
        <time>2015-05-28T14:16:28Z</time>
      </trkpt>
      <trkpt lat="45.35591" lon="5.90381">
        <ele>1403.377381343</ele>
        <time>2015-05-28T14:16:34Z</time>
      </trkpt>
      <trkpt lat="45.35586" lon="5.90387">
        <ele>1406.546744413</ele>
        <time>2015-05-28T14:16:39Z</time>
      </trkpt>
      <trkpt lat="45.35587" lon="5.90386">
        <ele>1406.546744413</ele>
        <time>2015-05-28T14:16:44Z</time>
      </trkpt>
      <trkpt lat="45.35585" lon="5.90384">
        <ele>1406.546744413</ele>
        <time>2015-05-28T14:16:49Z</time>
      </trkpt>
      <trkpt lat="45.35585" lon="5.90384">
        <ele>1406.546744413</ele>
        <time>2015-05-28T14:16:54Z</time>
      </trkpt>
      <trkpt lat="45.35585" lon="5.90384">
        <ele>1406.546744413</ele>
        <time>2015-05-28T14:16:59Z</time>
      </trkpt>
      <trkpt lat="45.35585" lon="5.90384">
        <ele>1406.546744413</ele>
        <time>2015-05-28T14:17:04Z</time>
      </trkpt>
      <trkpt lat="45.35585" lon="5.90384">
        <ele>1406.546744413</ele>
        <time>2015-05-28T14:17:08Z</time>
      </trkpt>
      <trkpt lat="45.35578" lon="5.90372">
        <ele>1409.574016406</ele>
        <time>2015-05-28T14:17:14Z</time>
      </trkpt>
      <trkpt lat="45.35566" lon="5.90374">
        <ele>1413.045453316</ele>
        <time>2015-05-28T14:17:19Z</time>
      </trkpt>
      <trkpt lat="45.35551" lon="5.90371">
        <ele>1416.49422257</ele>
        <time>2015-05-28T14:17:24Z</time>
      </trkpt>
      <trkpt lat="45.35535" lon="5.90376">
        <ele>1420.352522653</ele>
        <time>2015-05-28T14:17:29Z</time>
      </trkpt>
      <trkpt lat="45.35534" lon="5.90353">
        <ele>1423.290330194</ele>
        <time>2015-05-28T14:17:34Z</time>
      </trkpt>
      <trkpt lat="45.35535" lon="5.90353">
        <ele>1423.290330194</ele>
        <time>2015-05-28T14:17:39Z</time>
      </trkpt>
      <trkpt lat="45.35534" lon="5.90355">
        <ele>1423.290330194</ele>
        <time>2015-05-28T14:17:44Z</time>
      </trkpt>
      <trkpt lat="45.35533" lon="5.90356">
        <ele>1423.290330194</ele>
        <time>2015-05-28T14:17:49Z</time>
      </trkpt>
      <trkpt lat="45.35533" lon="5.90357">
        <ele>1423.290330194</ele>
        <time>2015-05-28T14:17:54Z</time>
      </trkpt>
      <trkpt lat="45.35533" lon="5.90356">
        <ele>1423.290330194</ele>
        <time>2015-05-28T14:17:59Z</time>
      </trkpt>
      <trkpt lat="45.35533" lon="5.90356">
        <ele>1423.290330194</ele>
        <time>2015-05-28T14:18:04Z</time>
      </trkpt>
      <trkpt lat="45.35533" lon="5.90356">
        <ele>1423.290330194</ele>
        <time>2015-05-28T14:18:08Z</time>
      </trkpt>
      <trkpt lat="45.35533" lon="5.90356">
        <ele>1423.290330194</ele>
        <time>2015-05-28T14:18:14Z</time>
      </trkpt>
      <trkpt lat="45.35533" lon="5.90356">
        <ele>1423.290330194</ele>
        <time>2015-05-28T14:18:19Z</time>
      </trkpt>
      <trkpt lat="45.35527" lon="5.90353">
        <ele>1425.807255743</ele>
        <time>2015-05-28T14:18:24Z</time>
      </trkpt>
      <trkpt lat="45.3552" lon="5.90326">
        <ele>1427.070401308</ele>
        <time>2015-05-28T14:18:28Z</time>
      </trkpt>
      <trkpt lat="45.35516" lon="5.90318">
        <ele>1427.070401308</ele>
        <time>2015-05-28T14:18:34Z</time>
      </trkpt>
      <trkpt lat="45.35516" lon="5.90313">
        <ele>1430.058474319</ele>
        <time>2015-05-28T14:18:39Z</time>
      </trkpt>
      <trkpt lat="45.35519" lon="5.90307">
        <ele>1430.058474319</ele>
        <time>2015-05-28T14:18:44Z</time>
      </trkpt>
      <trkpt lat="45.35511" lon="5.903">
        <ele>1433.491422014</ele>
        <time>2015-05-28T14:18:49Z</time>
      </trkpt>
      <trkpt lat="45.35508" lon="5.90302">
        <ele>1433.491422014</ele>
        <time>2015-05-28T14:18:54Z</time>
      </trkpt>
      <trkpt lat="45.35508" lon="5.90303">
        <ele>1433.491422014</ele>
        <time>2015-05-28T14:18:59Z</time>
      </trkpt>
      <trkpt lat="45.35508" lon="5.90302">
        <ele>1433.491422014</ele>
        <time>2015-05-28T14:19:04Z</time>
      </trkpt>
      <trkpt lat="45.35509" lon="5.90302">
        <ele>1433.491422014</ele>
        <time>2015-05-28T14:19:08Z</time>
      </trkpt>
      <trkpt lat="45.35509" lon="5.90302">
        <ele>1433.491422014</ele>
        <time>2015-05-28T14:19:14Z</time>
      </trkpt>
      <trkpt lat="45.35509" lon="5.90302">
        <ele>1433.491422014</ele>
        <time>2015-05-28T14:19:19Z</time>
      </trkpt>
      <trkpt lat="45.35509" lon="5.90302">
        <ele>1433.491422014</ele>
        <time>2015-05-28T14:19:24Z</time>
      </trkpt>
      <trkpt lat="45.35509" lon="5.90302">
        <ele>1433.491422014</ele>
        <time>2015-05-28T14:19:29Z</time>
      </trkpt>
      <trkpt lat="45.35498" lon="5.90304">
        <ele>1437.190760894</ele>
        <time>2015-05-28T14:19:34Z</time>
      </trkpt>
      <trkpt lat="45.35487" lon="5.90305">
        <ele>1441.134491288</ele>
        <time>2015-05-28T14:19:39Z</time>
      </trkpt>
      <trkpt lat="45.3549" lon="5.90304">
        <ele>1441.134491288</ele>
        <time>2015-05-28T14:19:44Z</time>
      </trkpt>
      <trkpt lat="45.35485" lon="5.90309">
        <ele>1441.134491288</ele>
        <time>2015-05-28T14:19:49Z</time>
      </trkpt>
      <trkpt lat="45.35478" lon="5.90304">
        <ele>1444.581001376</ele>
        <time>2015-05-28T14:19:54Z</time>
      </trkpt>
      <trkpt lat="45.35472" lon="5.90297">
        <ele>1444.581001376</ele>
        <time>2015-05-28T14:19:59Z</time>
      </trkpt>
      <trkpt lat="45.35474" lon="5.9029">
        <ele>1448.141573482</ele>
        <time>2015-05-28T14:20:04Z</time>
      </trkpt>
      <trkpt lat="45.35472" lon="5.90284">
        <ele>1448.141573482</ele>
        <time>2015-05-28T14:20:08Z</time>
      </trkpt>
      <trkpt lat="45.35472" lon="5.90275">
        <ele>1451.373510892</ele>
        <time>2015-05-28T14:20:14Z</time>
      </trkpt>
      <trkpt lat="45.35473" lon="5.90269">
        <ele>1451.373510892</ele>
        <time>2015-05-28T14:20:19Z</time>
      </trkpt>
      <trkpt lat="45.35469" lon="5.90264">
        <ele>1454.732254548</ele>
        <time>2015-05-28T14:20:24Z</time>
      </trkpt>
      <trkpt lat="45.35468" lon="5.90262">
        <ele>1454.732254548</ele>
        <time>2015-05-28T14:20:28Z</time>
      </trkpt>
      <trkpt lat="45.35468" lon="5.90255">
        <ele>1454.732254548</ele>
        <time>2015-05-28T14:20:34Z</time>
      </trkpt>
      <trkpt lat="45.3547" lon="5.90255">
        <ele>1454.732254548</ele>
        <time>2015-05-28T14:20:39Z</time>
      </trkpt>
      <trkpt lat="45.3547" lon="5.90254">
        <ele>1454.732254548</ele>
        <time>2015-05-28T14:20:44Z</time>
      </trkpt>
      <trkpt lat="45.3547" lon="5.90254">
        <ele>1454.732254548</ele>
        <time>2015-05-28T14:20:48Z</time>
      </trkpt>
      <trkpt lat="45.35469" lon="5.9025">
        <ele>1458.063018367</ele>
        <time>2015-05-28T14:20:54Z</time>
      </trkpt>
      <trkpt lat="45.35471" lon="5.90243">
        <ele>1458.063018367</ele>
        <time>2015-05-28T14:20:59Z</time>
      </trkpt>
      <trkpt lat="45.35471" lon="5.90233">
        <ele>1460.646050913</ele>
        <time>2015-05-28T14:21:04Z</time>
      </trkpt>
      <trkpt lat="45.35477" lon="5.90226">
        <ele>1460.646050913</ele>
        <time>2015-05-28T14:21:09Z</time>
      </trkpt>
      <trkpt lat="45.35476" lon="5.90218">
        <ele>1462.969490205</ele>
        <time>2015-05-28T14:21:14Z</time>
      </trkpt>
      <trkpt lat="45.35475" lon="5.9021">
        <ele>1462.969490205</ele>
        <time>2015-05-28T14:21:19Z</time>
      </trkpt>
      <trkpt lat="45.35479" lon="5.90202">
        <ele>1465.054036075</ele>
        <time>2015-05-28T14:21:24Z</time>
      </trkpt>
      <trkpt lat="45.35482" lon="5.90193">
        <ele>1465.054036075</ele>
        <time>2015-05-28T14:21:28Z</time>
      </trkpt>
      <trkpt lat="45.35481" lon="5.90186">
        <ele>1467.784226415</ele>
        <time>2015-05-28T14:21:34Z</time>
      </trkpt>
      <trkpt lat="45.35484" lon="5.90184">
        <ele>1467.784226415</ele>
        <time>2015-05-28T14:21:39Z</time>
      </trkpt>
      <trkpt lat="45.35484" lon="5.90185">
        <ele>1467.784226415</ele>
        <time>2015-05-28T14:21:44Z</time>
      </trkpt>
      <trkpt lat="45.35484" lon="5.90186">
        <ele>1467.784226415</ele>
        <time>2015-05-28T14:21:48Z</time>
      </trkpt>
      <trkpt lat="45.35484" lon="5.90186">
        <ele>1467.784226415</ele>
        <time>2015-05-28T14:21:54Z</time>
      </trkpt>
      <trkpt lat="45.35484" lon="5.90186">
        <ele>1467.784226415</ele>
        <time>2015-05-28T14:21:59Z</time>
      </trkpt>
      <trkpt lat="45.35484" lon="5.90186">
        <ele>1467.784226415</ele>
        <time>2015-05-28T14:22:04Z</time>
      </trkpt>
      <trkpt lat="45.35484" lon="5.90186">
        <ele>1467.784226415</ele>
        <time>2015-05-28T14:22:08Z</time>
      </trkpt>
      <trkpt lat="45.35484" lon="5.90186">
        <ele>1467.784226415</ele>
        <time>2015-05-28T14:22:14Z</time>
      </trkpt>
      <trkpt lat="45.35484" lon="5.90186">
        <ele>1467.784226415</ele>
        <time>2015-05-28T14:22:19Z</time>
      </trkpt>
      <trkpt lat="45.35484" lon="5.90186">
        <ele>1467.784226415</ele>
        <time>2015-05-28T14:22:24Z</time>
      </trkpt>
      <trkpt lat="45.35484" lon="5.90186">
        <ele>1467.784226415</ele>
        <time>2015-05-28T14:22:29Z</time>
      </trkpt>
      <trkpt lat="45.35484" lon="5.90186">
        <ele>1467.784226415</ele>
        <time>2015-05-28T14:22:34Z</time>
      </trkpt>
      <trkpt lat="45.35484" lon="5.90186">
        <ele>1467.784226415</ele>
        <time>2015-05-28T14:22:39Z</time>
      </trkpt>
      <trkpt lat="45.35484" lon="5.90186">
        <ele>1467.784226415</ele>
        <time>2015-05-28T14:22:44Z</time>
      </trkpt>
      <trkpt lat="45.35484" lon="5.90186">
        <ele>1467.784226415</ele>
        <time>2015-05-28T14:22:48Z</time>
      </trkpt>
      <trkpt lat="45.35484" lon="5.90186">
        <ele>1467.784226415</ele>
        <time>2015-05-28T14:22:54Z</time>
      </trkpt>
      <trkpt lat="45.35484" lon="5.90186">
        <ele>1467.784226415</ele>
        <time>2015-05-28T14:22:59Z</time>
      </trkpt>
      <trkpt lat="45.35484" lon="5.90186">
        <ele>1467.784226415</ele>
        <time>2015-05-28T14:23:04Z</time>
      </trkpt>
      <trkpt lat="45.35484" lon="5.90186">
        <ele>1467.784226415</ele>
        <time>2015-05-28T14:23:08Z</time>
      </trkpt>
      <trkpt lat="45.35485" lon="5.90185">
        <ele>1467.784226415</ele>
        <time>2015-05-28T14:23:14Z</time>
      </trkpt>
      <trkpt lat="45.35484" lon="5.90177">
        <ele>1470.680824929</ele>
        <time>2015-05-28T14:23:19Z</time>
      </trkpt>
      <trkpt lat="45.35486" lon="5.90169">
        <ele>1470.680824929</ele>
        <time>2015-05-28T14:23:24Z</time>
      </trkpt>
      <trkpt lat="45.35491" lon="5.90165">
        <ele>1473.299344259</ele>
        <time>2015-05-28T14:23:29Z</time>
      </trkpt>
      <trkpt lat="45.35499" lon="5.90162">
        <ele>1473.299344259</ele>
        <time>2015-05-28T14:23:34Z</time>
      </trkpt>
      <trkpt lat="45.35504" lon="5.90153">
        <ele>1475.661070099</ele>
        <time>2015-05-28T14:23:39Z</time>
      </trkpt>
      <trkpt lat="45.35513" lon="5.90152">
        <ele>1475.661070099</ele>
        <time>2015-05-28T14:23:44Z</time>
      </trkpt>
      <trkpt lat="45.3552" lon="5.90153">
        <ele>1477.210002828</ele>
        <time>2015-05-28T14:23:48Z</time>
      </trkpt>
      <trkpt lat="45.35527" lon="5.90148">
        <ele>1477.210002828</ele>
        <time>2015-05-28T14:23:54Z</time>
      </trkpt>
      <trkpt lat="45.35534" lon="5.90156">
        <ele>1479.45082108</ele>
        <time>2015-05-28T14:23:59Z</time>
      </trkpt>
      <trkpt lat="45.3554" lon="5.9016">
        <ele>1479.45082108</ele>
        <time>2015-05-28T14:24:04Z</time>
      </trkpt>
      <trkpt lat="45.35543" lon="5.90164">
        <ele>1481.758164225</ele>
        <time>2015-05-28T14:24:08Z</time>
      </trkpt>
      <trkpt lat="45.35548" lon="5.90159">
        <ele>1481.758164225</ele>
        <time>2015-05-28T14:24:14Z</time>
      </trkpt>
      <trkpt lat="45.35551" lon="5.90149">
        <ele>1483.840631129</ele>
        <time>2015-05-28T14:24:19Z</time>
      </trkpt>
      <trkpt lat="45.35556" lon="5.90158">
        <ele>1483.840631129</ele>
        <time>2015-05-28T14:24:24Z</time>
      </trkpt>
      <trkpt lat="45.35558" lon="5.90161">
        <ele>1486.005281744</ele>
        <time>2015-05-28T14:24:28Z</time>
      </trkpt>
      <trkpt lat="45.35562" lon="5.90162">
        <ele>1486.005281744</ele>
        <time>2015-05-28T14:24:33Z</time>
      </trkpt>
      <trkpt lat="45.3557" lon="5.90149">
        <ele>1488.392252942</ele>
        <time>2015-05-28T14:24:38Z</time>
      </trkpt>
      <trkpt lat="45.3557" lon="5.90145">
        <ele>1488.392252942</ele>
        <time>2015-05-28T14:24:45Z</time>
      </trkpt>
      <trkpt lat="45.35577" lon="5.9015">
        <ele>1491.130735657</ele>
        <time>2015-05-28T14:24:49Z</time>
      </trkpt>
      <trkpt lat="45.35581" lon="5.90147">
        <ele>1491.130735657</ele>
        <time>2015-05-28T14:24:55Z</time>
      </trkpt>
      <trkpt lat="45.35581" lon="5.90146">
        <ele>1491.130735657</ele>
        <time>2015-05-28T14:24:59Z</time>
      </trkpt>
      <trkpt lat="45.3559" lon="5.90157">
        <ele>1494.195304012</ele>
        <time>2015-05-28T14:25:04Z</time>
      </trkpt>
      <trkpt lat="45.35588" lon="5.9015">
        <ele>1494.195304012</ele>
        <time>2015-05-28T14:25:09Z</time>
      </trkpt>
      <trkpt lat="45.35591" lon="5.90155">
        <ele>1497.129122694</ele>
        <time>2015-05-28T14:25:14Z</time>
      </trkpt>
      <trkpt lat="45.35594" lon="5.90153">
        <ele>1497.129122694</ele>
        <time>2015-05-28T14:25:19Z</time>
      </trkpt>
      <trkpt lat="45.35594" lon="5.90147">
        <ele>1497.129122694</ele>
        <time>2015-05-28T14:25:24Z</time>
      </trkpt>
      <trkpt lat="45.35601" lon="5.90156">
        <ele>1500.51803409</ele>
        <time>2015-05-28T14:25:29Z</time>
      </trkpt>
      <trkpt lat="45.35601" lon="5.90143">
        <ele>1500.51803409</ele>
        <time>2015-05-28T14:25:34Z</time>
      </trkpt>
      <trkpt lat="45.35611" lon="5.90146">
        <ele>1503.750656366</ele>
        <time>2015-05-28T14:25:39Z</time>
      </trkpt>
      <trkpt lat="45.35612" lon="5.90146">
        <ele>1503.750656366</ele>
        <time>2015-05-28T14:25:44Z</time>
      </trkpt>
      <trkpt lat="45.35614" lon="5.90156">
        <ele>1503.750656366</ele>
        <time>2015-05-28T14:25:49Z</time>
      </trkpt>
      <trkpt lat="45.35614" lon="5.90162">
        <ele>1507.702052866</ele>
        <time>2015-05-28T14:25:54Z</time>
      </trkpt>
      <trkpt lat="45.35618" lon="5.90158">
        <ele>1507.702052866</ele>
        <time>2015-05-28T14:25:59Z</time>
      </trkpt>
      <trkpt lat="45.35622" lon="5.9015">
        <ele>1511.019310099</ele>
        <time>2015-05-28T14:26:04Z</time>
      </trkpt>
      <trkpt lat="45.35625" lon="5.90149">
        <ele>1511.019310099</ele>
        <time>2015-05-28T14:26:09Z</time>
      </trkpt>
      <trkpt lat="45.3563" lon="5.90147">
        <ele>1511.019310099</ele>
        <time>2015-05-28T14:26:14Z</time>
      </trkpt>
      <trkpt lat="45.35635" lon="5.90146">
        <ele>1514.180006501</ele>
        <time>2015-05-28T14:26:19Z</time>
      </trkpt>
      <trkpt lat="45.35637" lon="5.90148">
        <ele>1514.180006501</ele>
        <time>2015-05-28T14:26:24Z</time>
      </trkpt>
      <trkpt lat="45.35639" lon="5.9015">
        <ele>1514.180006501</ele>
        <time>2015-05-28T14:26:29Z</time>
      </trkpt>
      <trkpt lat="45.35643" lon="5.9015">
        <ele>1517.19474307</ele>
        <time>2015-05-28T14:26:35Z</time>
      </trkpt>
      <trkpt lat="45.35647" lon="5.90149">
        <ele>1517.19474307</ele>
        <time>2015-05-28T14:26:39Z</time>
      </trkpt>
      <trkpt lat="45.35652" lon="5.90148">
        <ele>1520.650200176</ele>
        <time>2015-05-28T14:26:44Z</time>
      </trkpt>
      <trkpt lat="45.35658" lon="5.9014">
        <ele>1520.650200176</ele>
        <time>2015-05-28T14:26:49Z</time>
      </trkpt>
      <trkpt lat="45.3566" lon="5.90146">
        <ele>1523.647619363</ele>
        <time>2015-05-28T14:26:54Z</time>
      </trkpt>
      <trkpt lat="45.35665" lon="5.90149">
        <ele>1523.647619363</ele>
        <time>2015-05-28T14:26:59Z</time>
      </trkpt>
      <trkpt lat="45.35668" lon="5.90148">
        <ele>1523.647619363</ele>
        <time>2015-05-28T14:27:03Z</time>
      </trkpt>
      <trkpt lat="45.35668" lon="5.90148">
        <ele>1523.647619363</ele>
        <time>2015-05-28T14:27:09Z</time>
      </trkpt>
      <trkpt lat="45.35669" lon="5.90149">
        <ele>1525.78788983</ele>
        <time>2015-05-28T14:27:15Z</time>
      </trkpt>
      <trkpt lat="45.35669" lon="5.90149">
        <ele>1525.78788983</ele>
        <time>2015-05-28T14:27:19Z</time>
      </trkpt>
      <trkpt lat="45.35676" lon="5.90146">
        <ele>1525.78788983</ele>
        <time>2015-05-28T14:27:24Z</time>
      </trkpt>
      <trkpt lat="45.35682" lon="5.90146">
        <ele>1528.577076076</ele>
        <time>2015-05-28T14:27:29Z</time>
      </trkpt>
      <trkpt lat="45.35686" lon="5.90148">
        <ele>1528.577076076</ele>
        <time>2015-05-28T14:27:34Z</time>
      </trkpt>
      <trkpt lat="45.35688" lon="5.90146">
        <ele>1528.577076076</ele>
        <time>2015-05-28T14:27:38Z</time>
      </trkpt>
      <trkpt lat="45.35691" lon="5.90153">
        <ele>1531.823571584</ele>
        <time>2015-05-28T14:27:45Z</time>
      </trkpt>
      <trkpt lat="45.35692" lon="5.90156">
        <ele>1531.823571584</ele>
        <time>2015-05-28T14:27:49Z</time>
      </trkpt>
      <trkpt lat="45.35693" lon="5.90156">
        <ele>1531.823571584</ele>
        <time>2015-05-28T14:27:55Z</time>
      </trkpt>
      <trkpt lat="45.35698" lon="5.90153">
        <ele>1531.823571584</ele>
        <time>2015-05-28T14:27:59Z</time>
      </trkpt>
      <trkpt lat="45.35701" lon="5.90151">
        <ele>1535.49268036</ele>
        <time>2015-05-28T14:28:04Z</time>
      </trkpt>
      <trkpt lat="45.35704" lon="5.90147">
        <ele>1535.49268036</ele>
        <time>2015-05-28T14:28:09Z</time>
      </trkpt>
      <trkpt lat="45.35704" lon="5.90142">
        <ele>1535.49268036</ele>
        <time>2015-05-28T14:28:15Z</time>
      </trkpt>
      <trkpt lat="45.35707" lon="5.90143">
        <ele>1538.686410401</ele>
        <time>2015-05-28T14:28:19Z</time>
      </trkpt>
      <trkpt lat="45.35707" lon="5.90146">
        <ele>1538.686410401</ele>
        <time>2015-05-28T14:28:24Z</time>
      </trkpt>
      <trkpt lat="45.35708" lon="5.9014">
        <ele>1538.686410401</ele>
        <time>2015-05-28T14:28:29Z</time>
      </trkpt>
      <trkpt lat="45.3571" lon="5.90137">
        <ele>1542.015191766</ele>
        <time>2015-05-28T14:28:35Z</time>
      </trkpt>
      <trkpt lat="45.35713" lon="5.9014">
        <ele>1542.015191766</ele>
        <time>2015-05-28T14:28:39Z</time>
      </trkpt>
      <trkpt lat="45.35718" lon="5.9014">
        <ele>1542.015191766</ele>
        <time>2015-05-28T14:28:44Z</time>
      </trkpt>
      <trkpt lat="45.35718" lon="5.9014">
        <ele>1542.015191766</ele>
        <time>2015-05-28T14:28:49Z</time>
      </trkpt>
      <trkpt lat="45.35718" lon="5.90139">
        <ele>1545.611915065</ele>
        <time>2015-05-28T14:28:55Z</time>
      </trkpt>
      <trkpt lat="45.35718" lon="5.90139">
        <ele>1545.611915065</ele>
        <time>2015-05-28T14:28:59Z</time>
      </trkpt>
      <trkpt lat="45.35718" lon="5.90139">
        <ele>1545.611915065</ele>
        <time>2015-05-28T14:29:04Z</time>
      </trkpt>
      <trkpt lat="45.35718" lon="5.90139">
        <ele>1545.611915065</ele>
        <time>2015-05-28T14:29:09Z</time>
      </trkpt>
      <trkpt lat="45.35718" lon="5.90139">
        <ele>1545.611915065</ele>
        <time>2015-05-28T14:29:14Z</time>
      </trkpt>
      <trkpt lat="45.35718" lon="5.90139">
        <ele>1545.611915065</ele>
        <time>2015-05-28T14:29:19Z</time>
      </trkpt>
      <trkpt lat="45.35721" lon="5.90135">
        <ele>1545.611915065</ele>
        <time>2015-05-28T14:29:24Z</time>
      </trkpt>
      <trkpt lat="45.35728" lon="5.90128">
        <ele>1548.73430793</ele>
        <time>2015-05-28T14:29:29Z</time>
      </trkpt>
      <trkpt lat="45.35734" lon="5.90117">
        <ele>1552.137087696</ele>
        <time>2015-05-28T14:29:34Z</time>
      </trkpt>
      <trkpt lat="45.35742" lon="5.90114">
        <ele>1552.137087696</ele>
        <time>2015-05-28T14:29:39Z</time>
      </trkpt>
      <trkpt lat="45.35744" lon="5.90113">
        <ele>1555.798211736</ele>
        <time>2015-05-28T14:29:44Z</time>
      </trkpt>
      <trkpt lat="45.35744" lon="5.90112">
        <ele>1555.798211736</ele>
        <time>2015-05-28T14:29:49Z</time>
      </trkpt>
      <trkpt lat="45.35744" lon="5.90111">
        <ele>1555.798211736</ele>
        <time>2015-05-28T14:29:55Z</time>
      </trkpt>
      <trkpt lat="45.35743" lon="5.90111">
        <ele>1555.798211736</ele>
        <time>2015-05-28T14:29:59Z</time>
      </trkpt>
      <trkpt lat="45.35744" lon="5.90111">
        <ele>1555.798211736</ele>
        <time>2015-05-28T14:30:04Z</time>
      </trkpt>
      <trkpt lat="45.35744" lon="5.90111">
        <ele>1555.798211736</ele>
        <time>2015-05-28T14:30:09Z</time>
      </trkpt>
      <trkpt lat="45.35744" lon="5.90111">
        <ele>1555.798211736</ele>
        <time>2015-05-28T14:30:14Z</time>
      </trkpt>
      <trkpt lat="45.35744" lon="5.90111">
        <ele>1555.798211736</ele>
        <time>2015-05-28T14:30:19Z</time>
      </trkpt>
      <trkpt lat="45.35744" lon="5.90111">
        <ele>1555.798211736</ele>
        <time>2015-05-28T14:30:24Z</time>
      </trkpt>
      <trkpt lat="45.35744" lon="5.90111">
        <ele>1555.798211736</ele>
        <time>2015-05-28T14:30:29Z</time>
      </trkpt>
      <trkpt lat="45.35748" lon="5.90107">
        <ele>1555.798211736</ele>
        <time>2015-05-28T14:30:34Z</time>
      </trkpt>
      <trkpt lat="45.3575" lon="5.90093">
        <ele>1558.976001865</ele>
        <time>2015-05-28T14:30:39Z</time>
      </trkpt>
      <trkpt lat="45.35754" lon="5.90092">
        <ele>1558.976001865</ele>
        <time>2015-05-28T14:30:43Z</time>
      </trkpt>
      <trkpt lat="45.35768" lon="5.90097">
        <ele>1562.858093015</ele>
        <time>2015-05-28T14:30:49Z</time>
      </trkpt>
      <trkpt lat="45.35768" lon="5.90094">
        <ele>1562.858093015</ele>
        <time>2015-05-28T14:30:54Z</time>
      </trkpt>
      <trkpt lat="45.35778" lon="5.90098">
        <ele>1567.101822658</ele>
        <time>2015-05-28T14:31:00Z</time>
      </trkpt>
      <trkpt lat="45.35777" lon="5.90098">
        <ele>1567.101822658</ele>
        <time>2015-05-28T14:31:04Z</time>
      </trkpt>
      <trkpt lat="45.35778" lon="5.90099">
        <ele>1567.101822658</ele>
        <time>2015-05-28T14:31:09Z</time>
      </trkpt>
      <trkpt lat="45.35778" lon="5.901">
        <ele>1567.101822658</ele>
        <time>2015-05-28T14:31:14Z</time>
      </trkpt>
      <trkpt lat="45.35778" lon="5.901">
        <ele>1567.101822658</ele>
        <time>2015-05-28T14:31:19Z</time>
      </trkpt>
      <trkpt lat="45.35778" lon="5.90099">
        <ele>1567.101822658</ele>
        <time>2015-05-28T14:31:24Z</time>
      </trkpt>
      <trkpt lat="45.35778" lon="5.901">
        <ele>1567.101822658</ele>
        <time>2015-05-28T14:31:29Z</time>
      </trkpt>
      <trkpt lat="45.35778" lon="5.901">
        <ele>1567.101822658</ele>
        <time>2015-05-28T14:31:34Z</time>
      </trkpt>
      <trkpt lat="45.35783" lon="5.90098">
        <ele>1567.101822658</ele>
        <time>2015-05-28T14:31:39Z</time>
      </trkpt>
      <trkpt lat="45.35792" lon="5.90104">
        <ele>1572.253392181</ele>
        <time>2015-05-28T14:31:44Z</time>
      </trkpt>
      <trkpt lat="45.35799" lon="5.90109">
        <ele>1572.253392181</ele>
        <time>2015-05-28T14:31:49Z</time>
      </trkpt>
      <trkpt lat="45.35802" lon="5.90116">
        <ele>1577.087046347</ele>
        <time>2015-05-28T14:31:54Z</time>
      </trkpt>
      <trkpt lat="45.35803" lon="5.90117">
        <ele>1577.087046347</ele>
        <time>2015-05-28T14:31:59Z</time>
      </trkpt>
      <trkpt lat="45.35804" lon="5.9012">
        <ele>1577.087046347</ele>
        <time>2015-05-28T14:32:04Z</time>
      </trkpt>
      <trkpt lat="45.35804" lon="5.9012">
        <ele>1577.087046347</ele>
        <time>2015-05-28T14:32:09Z</time>
      </trkpt>
      <trkpt lat="45.35805" lon="5.9012">
        <ele>1577.087046347</ele>
        <time>2015-05-28T14:32:14Z</time>
      </trkpt>
      <trkpt lat="45.35805" lon="5.9012">
        <ele>1577.087046347</ele>
        <time>2015-05-28T14:32:19Z</time>
      </trkpt>
      <trkpt lat="45.35805" lon="5.90121">
        <ele>1577.087046347</ele>
        <time>2015-05-28T14:32:24Z</time>
      </trkpt>
      <trkpt lat="45.35805" lon="5.90121">
        <ele>1577.087046347</ele>
        <time>2015-05-28T14:32:29Z</time>
      </trkpt>
      <trkpt lat="45.35805" lon="5.90121">
        <ele>1577.087046347</ele>
        <time>2015-05-28T14:32:35Z</time>
      </trkpt>
      <trkpt lat="45.35805" lon="5.90121">
        <ele>1577.087046347</ele>
        <time>2015-05-28T14:32:39Z</time>
      </trkpt>
      <trkpt lat="45.35805" lon="5.90121">
        <ele>1577.087046347</ele>
        <time>2015-05-28T14:32:44Z</time>
      </trkpt>
      <trkpt lat="45.35806" lon="5.90121">
        <ele>1577.087046347</ele>
        <time>2015-05-28T14:32:49Z</time>
      </trkpt>
      <trkpt lat="45.35806" lon="5.90121">
        <ele>1577.087046347</ele>
        <time>2015-05-28T14:32:54Z</time>
      </trkpt>
      <trkpt lat="45.35806" lon="5.90121">
        <ele>1577.087046347</ele>
        <time>2015-05-28T14:32:59Z</time>
      </trkpt>
      <trkpt lat="45.35806" lon="5.90121">
        <ele>1577.087046347</ele>
        <time>2015-05-28T14:33:04Z</time>
      </trkpt>
      <trkpt lat="45.35806" lon="5.90121">
        <ele>1577.087046347</ele>
        <time>2015-05-28T14:33:09Z</time>
      </trkpt>
      <trkpt lat="45.35806" lon="5.90121">
        <ele>1577.087046347</ele>
        <time>2015-05-28T14:33:14Z</time>
      </trkpt>
      <trkpt lat="45.35806" lon="5.90121">
        <ele>1577.087046347</ele>
        <time>2015-05-28T14:33:19Z</time>
      </trkpt>
      <trkpt lat="45.35806" lon="5.90121">
        <ele>1577.087046347</ele>
        <time>2015-05-28T14:33:24Z</time>
      </trkpt>
      <trkpt lat="45.35806" lon="5.90121">
        <ele>1577.087046347</ele>
        <time>2015-05-28T14:33:29Z</time>
      </trkpt>
      <trkpt lat="45.35806" lon="5.90121">
        <ele>1577.087046347</ele>
        <time>2015-05-28T14:33:35Z</time>
      </trkpt>
      <trkpt lat="45.35815" lon="5.90114">
        <ele>1581.765023607</ele>
        <time>2015-05-28T14:33:39Z</time>
      </trkpt>
      <trkpt lat="45.35819" lon="5.90108">
        <ele>1581.765023607</ele>
        <time>2015-05-28T14:33:44Z</time>
      </trkpt>
      <trkpt lat="45.35822" lon="5.90109">
        <ele>1581.765023607</ele>
        <time>2015-05-28T14:33:49Z</time>
      </trkpt>
      <trkpt lat="45.35826" lon="5.90107">
        <ele>1586.582261404</ele>
        <time>2015-05-28T14:33:53Z</time>
      </trkpt>
      <trkpt lat="45.35828" lon="5.90105">
        <ele>1586.582261404</ele>
        <time>2015-05-28T14:33:58Z</time>
      </trkpt>
      <trkpt lat="45.35831" lon="5.90104">
        <ele>1586.582261404</ele>
        <time>2015-05-28T14:34:05Z</time>
      </trkpt>
      <trkpt lat="45.35833" lon="5.90103">
        <ele>1586.582261404</ele>
        <time>2015-05-28T14:34:08Z</time>
      </trkpt>
      <trkpt lat="45.35837" lon="5.90101">
        <ele>1592.244055007</ele>
        <time>2015-05-28T14:34:15Z</time>
      </trkpt>
      <trkpt lat="45.35835" lon="5.90101">
        <ele>1592.244055007</ele>
        <time>2015-05-28T14:34:19Z</time>
      </trkpt>
      <trkpt lat="45.35835" lon="5.901">
        <ele>1592.244055007</ele>
        <time>2015-05-28T14:34:24Z</time>
      </trkpt>
      <trkpt lat="45.3584" lon="5.90099">
        <ele>1592.244055007</ele>
        <time>2015-05-28T14:34:29Z</time>
      </trkpt>
      <trkpt lat="45.35843" lon="5.90099">
        <ele>1598.248723439</ele>
        <time>2015-05-28T14:34:34Z</time>
      </trkpt>
      <trkpt lat="45.35841" lon="5.90097">
        <ele>1598.248723439</ele>
        <time>2015-05-28T14:34:39Z</time>
      </trkpt>
      <trkpt lat="45.35843" lon="5.90094">
        <ele>1598.248723439</ele>
        <time>2015-05-28T14:34:44Z</time>
      </trkpt>
      <trkpt lat="45.35846" lon="5.90096">
        <ele>1598.248723439</ele>
        <time>2015-05-28T14:34:49Z</time>
      </trkpt>
      <trkpt lat="45.35848" lon="5.90091">
        <ele>1604.418805651</ele>
        <time>2015-05-28T14:34:55Z</time>
      </trkpt>
      <trkpt lat="45.35852" lon="5.90093">
        <ele>1604.418805651</ele>
        <time>2015-05-28T14:34:59Z</time>
      </trkpt>
      <trkpt lat="45.35854" lon="5.90095">
        <ele>1604.418805651</ele>
        <time>2015-05-28T14:35:04Z</time>
      </trkpt>
      <trkpt lat="45.35859" lon="5.90098">
        <ele>1610.15719956</ele>
        <time>2015-05-28T14:35:09Z</time>
      </trkpt>
      <trkpt lat="45.35863" lon="5.90101">
        <ele>1610.15719956</ele>
        <time>2015-05-28T14:35:14Z</time>
      </trkpt>
      <trkpt lat="45.35866" lon="5.90102">
        <ele>1610.15719956</ele>
        <time>2015-05-28T14:35:19Z</time>
      </trkpt>
      <trkpt lat="45.35869" lon="5.90101">
        <ele>1615.488455375</ele>
        <time>2015-05-28T14:35:24Z</time>
      </trkpt>
      <trkpt lat="45.35872" lon="5.90102">
        <ele>1615.488455375</ele>
        <time>2015-05-28T14:35:29Z</time>
      </trkpt>
      <trkpt lat="45.35879" lon="5.90096">
        <ele>1619.716049509</ele>
        <time>2015-05-28T14:35:34Z</time>
      </trkpt>
      <trkpt lat="45.3588" lon="5.90095">
        <ele>1619.716049509</ele>
        <time>2015-05-28T14:35:39Z</time>
      </trkpt>
      <trkpt lat="45.35879" lon="5.90098">
        <ele>1619.716049509</ele>
        <time>2015-05-28T14:35:44Z</time>
      </trkpt>
      <trkpt lat="45.35886" lon="5.90102">
        <ele>1624.215426269</ele>
        <time>2015-05-28T14:35:49Z</time>
      </trkpt>
      <trkpt lat="45.35889" lon="5.90102">
        <ele>1624.215426269</ele>
        <time>2015-05-28T14:35:54Z</time>
      </trkpt>
      <trkpt lat="45.35891" lon="5.90103">
        <ele>1624.215426269</ele>
        <time>2015-05-28T14:35:59Z</time>
      </trkpt>
      <trkpt lat="45.35892" lon="5.90101">
        <ele>1624.215426269</ele>
        <time>2015-05-28T14:36:04Z</time>
      </trkpt>
      <trkpt lat="45.35893" lon="5.90102">
        <ele>1624.215426269</ele>
        <time>2015-05-28T14:36:09Z</time>
      </trkpt>
      <trkpt lat="45.35893" lon="5.90102">
        <ele>1624.215426269</ele>
        <time>2015-05-28T14:36:14Z</time>
      </trkpt>
      <trkpt lat="45.35893" lon="5.90102">
        <ele>1624.215426269</ele>
        <time>2015-05-28T14:36:19Z</time>
      </trkpt>
      <trkpt lat="45.35893" lon="5.90102">
        <ele>1624.215426269</ele>
        <time>2015-05-28T14:36:24Z</time>
      </trkpt>
      <trkpt lat="45.35894" lon="5.901">
        <ele>1628.386933331</ele>
        <time>2015-05-28T14:36:29Z</time>
      </trkpt>
      <trkpt lat="45.35902" lon="5.90105">
        <ele>1628.386933331</ele>
        <time>2015-05-28T14:36:35Z</time>
      </trkpt>
      <trkpt lat="45.35909" lon="5.90103">
        <ele>1632.252480646</ele>
        <time>2015-05-28T14:36:39Z</time>
      </trkpt>
      <trkpt lat="45.35912" lon="5.90107">
        <ele>1632.252480646</ele>
        <time>2015-05-28T14:36:44Z</time>
      </trkpt>
      <trkpt lat="45.35917" lon="5.90103">
        <ele>1635.545146474</ele>
        <time>2015-05-28T14:36:49Z</time>
      </trkpt>
      <trkpt lat="45.3592" lon="5.90109">
        <ele>1635.545146474</ele>
        <time>2015-05-28T14:36:54Z</time>
      </trkpt>
      <trkpt lat="45.35922" lon="5.90109">
        <ele>1635.545146474</ele>
        <time>2015-05-28T14:36:59Z</time>
      </trkpt>
      <trkpt lat="45.35923" lon="5.9011">
        <ele>1635.545146474</ele>
        <time>2015-05-28T14:37:03Z</time>
      </trkpt>
      <trkpt lat="45.35924" lon="5.90108">
        <ele>1638.451691199</ele>
        <time>2015-05-28T14:37:08Z</time>
      </trkpt>
      <trkpt lat="45.35924" lon="5.90107">
        <ele>1638.451691199</ele>
        <time>2015-05-28T14:37:14Z</time>
      </trkpt>
      <trkpt lat="45.3593" lon="5.90108">
        <ele>1638.451691199</ele>
        <time>2015-05-28T14:37:19Z</time>
      </trkpt>
      <trkpt lat="45.35933" lon="5.90111">
        <ele>1640.281693054</ele>
        <time>2015-05-28T14:37:24Z</time>
      </trkpt>
      <trkpt lat="45.35939" lon="5.90105">
        <ele>1640.281693054</ele>
        <time>2015-05-28T14:37:29Z</time>
      </trkpt>
      <trkpt lat="45.35947" lon="5.90101">
        <ele>1641.983796053</ele>
        <time>2015-05-28T14:37:34Z</time>
      </trkpt>
      <trkpt lat="45.3595" lon="5.901">
        <ele>1641.983796053</ele>
        <time>2015-05-28T14:37:39Z</time>
      </trkpt>
      <trkpt lat="45.35952" lon="5.90108">
        <ele>1641.983796053</ele>
        <time>2015-05-28T14:37:44Z</time>
      </trkpt>
      <trkpt lat="45.35957" lon="5.90113">
        <ele>1644.149180494</ele>
        <time>2015-05-28T14:37:49Z</time>
      </trkpt>
      <trkpt lat="45.35961" lon="5.90114">
        <ele>1644.149180494</ele>
        <time>2015-05-28T14:37:54Z</time>
      </trkpt>
      <trkpt lat="45.35964" lon="5.90113">
        <ele>1644.149180494</ele>
        <time>2015-05-28T14:37:59Z</time>
      </trkpt>
      <trkpt lat="45.35969" lon="5.90118">
        <ele>1646.459699736</ele>
        <time>2015-05-28T14:38:04Z</time>
      </trkpt>
      <trkpt lat="45.35974" lon="5.9012">
        <ele>1646.459699736</ele>
        <time>2015-05-28T14:38:09Z</time>
      </trkpt>
      <trkpt lat="45.35974" lon="5.90121">
        <ele>1646.459699736</ele>
        <time>2015-05-28T14:38:14Z</time>
      </trkpt>
      <trkpt lat="45.35974" lon="5.90123">
        <ele>1646.459699736</ele>
        <time>2015-05-28T14:38:19Z</time>
      </trkpt>
      <trkpt lat="45.35978" lon="5.90127">
        <ele>1649.773110897</ele>
        <time>2015-05-28T14:38:24Z</time>
      </trkpt>
      <trkpt lat="45.35984" lon="5.90127">
        <ele>1649.773110897</ele>
        <time>2015-05-28T14:38:29Z</time>
      </trkpt>
      <trkpt lat="45.35987" lon="5.90126">
        <ele>1652.431493823</ele>
        <time>2015-05-28T14:38:34Z</time>
      </trkpt>
      <trkpt lat="45.35988" lon="5.90124">
        <ele>1652.431493823</ele>
        <time>2015-05-28T14:38:39Z</time>
      </trkpt>
      <trkpt lat="45.35988" lon="5.90123">
        <ele>1652.431493823</ele>
        <time>2015-05-28T14:38:44Z</time>
      </trkpt>
      <trkpt lat="45.35988" lon="5.90123">
        <ele>1652.431493823</ele>
        <time>2015-05-28T14:38:49Z</time>
      </trkpt>
      <trkpt lat="45.35995" lon="5.90127">
        <ele>1654.341691145</ele>
        <time>2015-05-28T14:38:54Z</time>
      </trkpt>
      <trkpt lat="45.36002" lon="5.90128">
        <ele>1654.341691145</ele>
        <time>2015-05-28T14:38:58Z</time>
      </trkpt>
      <trkpt lat="45.36004" lon="5.90131">
        <ele>1655.707720907</ele>
        <time>2015-05-28T14:39:03Z</time>
      </trkpt>
      <trkpt lat="45.36006" lon="5.90132">
        <ele>1655.707720907</ele>
        <time>2015-05-28T14:39:08Z</time>
      </trkpt>
      <trkpt lat="45.36006" lon="5.90133">
        <ele>1655.707720907</ele>
        <time>2015-05-28T14:39:13Z</time>
      </trkpt>
      <trkpt lat="45.36006" lon="5.90133">
        <ele>1655.707720907</ele>
        <time>2015-05-28T14:39:18Z</time>
      </trkpt>
      <trkpt lat="45.36009" lon="5.90133">
        <ele>1655.707720907</ele>
        <time>2015-05-28T14:39:23Z</time>
      </trkpt>
      <trkpt lat="45.36009" lon="5.90135">
        <ele>1655.707720907</ele>
        <time>2015-05-28T14:39:28Z</time>
      </trkpt>
      <trkpt lat="45.3601" lon="5.90136">
        <ele>1655.707720907</ele>
        <time>2015-05-28T14:39:34Z</time>
      </trkpt>
      <trkpt lat="45.36014" lon="5.90134">
        <ele>1657.15247113</ele>
        <time>2015-05-28T14:39:39Z</time>
      </trkpt>
      <trkpt lat="45.36014" lon="5.90141">
        <ele>1657.15247113</ele>
        <time>2015-05-28T14:39:44Z</time>
      </trkpt>
      <trkpt lat="45.36017" lon="5.90141">
        <ele>1657.15247113</ele>
        <time>2015-05-28T14:39:48Z</time>
      </trkpt>
      <trkpt lat="45.36018" lon="5.90142">
        <ele>1658.676388191</ele>
        <time>2015-05-28T14:39:53Z</time>
      </trkpt>
      <trkpt lat="45.36016" lon="5.90143">
        <ele>1658.676388191</ele>
        <time>2015-05-28T14:39:59Z</time>
      </trkpt>
      <trkpt lat="45.36016" lon="5.90144">
        <ele>1658.676388191</ele>
        <time>2015-05-28T14:40:04Z</time>
      </trkpt>
      <trkpt lat="45.36016" lon="5.90146">
        <ele>1658.676388191</ele>
        <time>2015-05-28T14:40:09Z</time>
      </trkpt>
      <trkpt lat="45.36016" lon="5.90146">
        <ele>1658.676388191</ele>
        <time>2015-05-28T14:40:13Z</time>
      </trkpt>
      <trkpt lat="45.36021" lon="5.90151">
        <ele>1659.847293652</ele>
        <time>2015-05-28T14:40:20Z</time>
      </trkpt>
      <trkpt lat="45.3602" lon="5.90159">
        <ele>1659.847293652</ele>
        <time>2015-05-28T14:40:24Z</time>
      </trkpt>
      <trkpt lat="45.36024" lon="5.9016">
        <ele>1660.842138122</ele>
        <time>2015-05-28T14:40:28Z</time>
      </trkpt>
      <trkpt lat="45.36027" lon="5.90164">
        <ele>1660.842138122</ele>
        <time>2015-05-28T14:40:34Z</time>
      </trkpt>
      <trkpt lat="45.36033" lon="5.90168">
        <ele>1661.392963373</ele>
        <time>2015-05-28T14:40:39Z</time>
      </trkpt>
      <trkpt lat="45.36035" lon="5.90166">
        <ele>1661.392963373</ele>
        <time>2015-05-28T14:40:44Z</time>
      </trkpt>
      <trkpt lat="45.36036" lon="5.90166">
        <ele>1661.392963373</ele>
        <time>2015-05-28T14:40:49Z</time>
      </trkpt>
      <trkpt lat="45.36037" lon="5.90166">
        <ele>1661.392963373</ele>
        <time>2015-05-28T14:40:54Z</time>
      </trkpt>
      <trkpt lat="45.36036" lon="5.90166">
        <ele>1661.392963373</ele>
        <time>2015-05-28T14:40:59Z</time>
      </trkpt>
      <trkpt lat="45.36036" lon="5.90166">
        <ele>1661.392963373</ele>
        <time>2015-05-28T14:41:04Z</time>
      </trkpt>
      <trkpt lat="45.36043" lon="5.90176">
        <ele>1660.964429139</ele>
        <time>2015-05-28T14:41:09Z</time>
      </trkpt>
      <trkpt lat="45.36049" lon="5.9018">
        <ele>1660.964429139</ele>
        <time>2015-05-28T14:41:14Z</time>
      </trkpt>
      <trkpt lat="45.36055" lon="5.9018">
        <ele>1661.08071609</ele>
        <time>2015-05-28T14:41:19Z</time>
      </trkpt>
      <trkpt lat="45.36057" lon="5.90189">
        <ele>1661.08071609</ele>
        <time>2015-05-28T14:41:24Z</time>
      </trkpt>
      <trkpt lat="45.36059" lon="5.90192">
        <ele>1660.846603419</ele>
        <time>2015-05-28T14:41:29Z</time>
      </trkpt>
      <trkpt lat="45.36061" lon="5.90194">
        <ele>1660.846603419</ele>
        <time>2015-05-28T14:41:34Z</time>
      </trkpt>
      <trkpt lat="45.36064" lon="5.90203">
        <ele>1660.874578413</ele>
        <time>2015-05-28T14:41:39Z</time>
      </trkpt>
      <trkpt lat="45.3607" lon="5.90207">
        <ele>1660.874578413</ele>
        <time>2015-05-28T14:41:44Z</time>
      </trkpt>
      <trkpt lat="45.36073" lon="5.90207">
        <ele>1660.874578413</ele>
        <time>2015-05-28T14:41:49Z</time>
      </trkpt>
      <trkpt lat="45.36077" lon="5.9021">
        <ele>1660.146008503</ele>
        <time>2015-05-28T14:41:54Z</time>
      </trkpt>
      <trkpt lat="45.3608" lon="5.90213">
        <ele>1660.146008503</ele>
        <time>2015-05-28T14:41:59Z</time>
      </trkpt>
      <trkpt lat="45.36082" lon="5.90219">
        <ele>1660.146008503</ele>
        <time>2015-05-28T14:42:04Z</time>
      </trkpt>
      <trkpt lat="45.36082" lon="5.90219">
        <ele>1660.146008503</ele>
        <time>2015-05-28T14:42:09Z</time>
      </trkpt>
      <trkpt lat="45.36087" lon="5.90223">
        <ele>1658.727801428</ele>
        <time>2015-05-28T14:42:14Z</time>
      </trkpt>
      <trkpt lat="45.36087" lon="5.90231">
        <ele>1658.727801428</ele>
        <time>2015-05-28T14:42:19Z</time>
      </trkpt>
      <trkpt lat="45.36095" lon="5.90233">
        <ele>1657.116009514</ele>
        <time>2015-05-28T14:42:24Z</time>
      </trkpt>
      <trkpt lat="45.36097" lon="5.90238">
        <ele>1657.116009514</ele>
        <time>2015-05-28T14:42:29Z</time>
      </trkpt>
      <trkpt lat="45.36102" lon="5.90234">
        <ele>1656.058782313</ele>
        <time>2015-05-28T14:42:34Z</time>
      </trkpt>
      <trkpt lat="45.36101" lon="5.90233">
        <ele>1656.058782313</ele>
        <time>2015-05-28T14:42:39Z</time>
      </trkpt>
      <trkpt lat="45.361" lon="5.90231">
        <ele>1656.058782313</ele>
        <time>2015-05-28T14:42:44Z</time>
      </trkpt>
      <trkpt lat="45.36099" lon="5.9023">
        <ele>1656.058782313</ele>
        <time>2015-05-28T14:42:49Z</time>
      </trkpt>
      <trkpt lat="45.36099" lon="5.9023">
        <ele>1656.058782313</ele>
        <time>2015-05-28T14:42:54Z</time>
      </trkpt>
      <trkpt lat="45.36099" lon="5.9023">
        <ele>1656.058782313</ele>
        <time>2015-05-28T14:42:59Z</time>
      </trkpt>
      <trkpt lat="45.36099" lon="5.9023">
        <ele>1656.058782313</ele>
        <time>2015-05-28T14:43:03Z</time>
      </trkpt>
      <trkpt lat="45.36099" lon="5.9023">
        <ele>1656.058782313</ele>
        <time>2015-05-28T14:43:08Z</time>
      </trkpt>
      <trkpt lat="45.36099" lon="5.9023">
        <ele>1656.058782313</ele>
        <time>2015-05-28T14:43:13Z</time>
      </trkpt>
      <trkpt lat="45.36099" lon="5.9023">
        <ele>1656.058782313</ele>
        <time>2015-05-28T14:43:18Z</time>
      </trkpt>
      <trkpt lat="45.36099" lon="5.9023">
        <ele>1656.058782313</ele>
        <time>2015-05-28T14:43:23Z</time>
      </trkpt>
      <trkpt lat="45.36099" lon="5.9023">
        <ele>1656.058782313</ele>
        <time>2015-05-28T14:43:28Z</time>
      </trkpt>
      <trkpt lat="45.36099" lon="5.9023">
        <ele>1656.058782313</ele>
        <time>2015-05-28T14:43:33Z</time>
      </trkpt>
      <trkpt lat="45.36099" lon="5.9023">
        <ele>1656.058782313</ele>
        <time>2015-05-28T14:43:38Z</time>
      </trkpt>
      <trkpt lat="45.36099" lon="5.9023">
        <ele>1656.058782313</ele>
        <time>2015-05-28T14:43:43Z</time>
      </trkpt>
      <trkpt lat="45.36099" lon="5.9023">
        <ele>1656.058782313</ele>
        <time>2015-05-28T14:43:48Z</time>
      </trkpt>
      <trkpt lat="45.36099" lon="5.9023">
        <ele>1656.058782313</ele>
        <time>2015-05-28T14:43:53Z</time>
      </trkpt>
      <trkpt lat="45.36099" lon="5.9023">
        <ele>1656.058782313</ele>
        <time>2015-05-28T14:43:58Z</time>
      </trkpt>
      <trkpt lat="45.36099" lon="5.9023">
        <ele>1656.058782313</ele>
        <time>2015-05-28T14:44:03Z</time>
      </trkpt>
      <trkpt lat="45.36099" lon="5.9023">
        <ele>1656.058782313</ele>
        <time>2015-05-28T14:44:08Z</time>
      </trkpt>
      <trkpt lat="45.36099" lon="5.9023">
        <ele>1656.058782313</ele>
        <time>2015-05-28T14:44:13Z</time>
      </trkpt>
      <trkpt lat="45.36099" lon="5.9023">
        <ele>1656.058782313</ele>
        <time>2015-05-28T14:44:18Z</time>
      </trkpt>
      <trkpt lat="45.36099" lon="5.9023">
        <ele>1656.058782313</ele>
        <time>2015-05-28T14:44:23Z</time>
      </trkpt>
      <trkpt lat="45.36099" lon="5.9023">
        <ele>1656.058782313</ele>
        <time>2015-05-28T14:44:29Z</time>
      </trkpt>
      <trkpt lat="45.36099" lon="5.9023">
        <ele>1656.058782313</ele>
        <time>2015-05-28T14:44:34Z</time>
      </trkpt>
      <trkpt lat="45.36096" lon="5.90225">
        <ele>1656.058782313</ele>
        <time>2015-05-28T14:44:38Z</time>
      </trkpt>
      <trkpt lat="45.36095" lon="5.9022">
        <ele>1656.103397569</ele>
        <time>2015-05-28T14:44:44Z</time>
      </trkpt>
      <trkpt lat="45.36096" lon="5.90213">
        <ele>1656.103397569</ele>
        <time>2015-05-28T14:44:48Z</time>
      </trkpt>
      <trkpt lat="45.36093" lon="5.90209">
        <ele>1655.736021554</ele>
        <time>2015-05-28T14:44:53Z</time>
      </trkpt>
      <trkpt lat="45.36091" lon="5.90207">
        <ele>1655.736021554</ele>
        <time>2015-05-28T14:44:58Z</time>
      </trkpt>
      <trkpt lat="45.3609" lon="5.90204">
        <ele>1655.736021554</ele>
        <time>2015-05-28T14:45:03Z</time>
      </trkpt>
      <trkpt lat="45.36092" lon="5.90201">
        <ele>1655.736021554</ele>
        <time>2015-05-28T14:45:08Z</time>
      </trkpt>
      <trkpt lat="45.36092" lon="5.90201">
        <ele>1655.736021554</ele>
        <time>2015-05-28T14:45:13Z</time>
      </trkpt>
      <trkpt lat="45.36092" lon="5.90201">
        <ele>1655.572466217</ele>
        <time>2015-05-28T14:45:19Z</time>
      </trkpt>
      <trkpt lat="45.36093" lon="5.90199">
        <ele>1655.572466217</ele>
        <time>2015-05-28T14:45:24Z</time>
      </trkpt>
      <trkpt lat="45.36092" lon="5.90193">
        <ele>1655.572466217</ele>
        <time>2015-05-28T14:45:29Z</time>
      </trkpt>
      <trkpt lat="45.36082" lon="5.90193">
        <ele>1656.470680669</ele>
        <time>2015-05-28T14:45:35Z</time>
      </trkpt>
      <trkpt lat="45.36086" lon="5.9019">
        <ele>1656.470680669</ele>
        <time>2015-05-28T14:45:39Z</time>
      </trkpt>
      <trkpt lat="45.36088" lon="5.90189">
        <ele>1656.470680669</ele>
        <time>2015-05-28T14:45:43Z</time>
      </trkpt>
      <trkpt lat="45.36088" lon="5.90189">
        <ele>1656.470680669</ele>
        <time>2015-05-28T14:45:48Z</time>
      </trkpt>
      <trkpt lat="45.36087" lon="5.90182">
        <ele>1657.348888824</ele>
        <time>2015-05-28T14:45:54Z</time>
      </trkpt>
      <trkpt lat="45.36088" lon="5.90176">
        <ele>1657.781168888</ele>
        <time>2015-05-28T14:45:59Z</time>
      </trkpt>
      <trkpt lat="45.36097" lon="5.90178">
        <ele>1658.213448952</ele>
        <time>2015-05-28T14:46:04Z</time>
      </trkpt>
      <trkpt lat="45.36106" lon="5.90173">
        <ele>1658.645729016</ele>
        <time>2015-05-28T14:46:09Z</time>
      </trkpt>
      <trkpt lat="45.36085" lon="5.90184">
        <ele>1659.078009079</ele>
        <time>2015-05-28T14:46:13Z</time>
      </trkpt>
      <trkpt lat="45.36085" lon="5.90186">
        <ele>1659.078009079</ele>
        <time>2015-05-28T14:46:19Z</time>
      </trkpt>
      <trkpt lat="45.36091" lon="5.90182">
        <ele>1659.078009079</ele>
        <time>2015-05-28T14:46:23Z</time>
      </trkpt>
      <trkpt lat="45.36091" lon="5.90182">
        <ele>1659.078009079</ele>
        <time>2015-05-28T14:46:29Z</time>
      </trkpt>
      <trkpt lat="45.36091" lon="5.90183">
        <ele>1659.078009079</ele>
        <time>2015-05-28T14:46:34Z</time>
      </trkpt>
      <trkpt lat="45.36091" lon="5.90183">
        <ele>1659.078009079</ele>
        <time>2015-05-28T14:46:39Z</time>
      </trkpt>
      <trkpt lat="45.36091" lon="5.90183">
        <ele>1659.078009079</ele>
        <time>2015-05-28T14:46:44Z</time>
      </trkpt>
      <trkpt lat="45.36091" lon="5.90183">
        <ele>1659.078009079</ele>
        <time>2015-05-28T14:46:49Z</time>
      </trkpt>
      <trkpt lat="45.36091" lon="5.90183">
        <ele>1659.078009079</ele>
        <time>2015-05-28T14:46:54Z</time>
      </trkpt>
      <trkpt lat="45.36091" lon="5.90183">
        <ele>1659.078009079</ele>
        <time>2015-05-28T14:46:58Z</time>
      </trkpt>
      <trkpt lat="45.36091" lon="5.90183">
        <ele>1659.078009079</ele>
        <time>2015-05-28T14:47:03Z</time>
      </trkpt>
      <trkpt lat="45.36091" lon="5.90183">
        <ele>1659.078009079</ele>
        <time>2015-05-28T14:47:09Z</time>
      </trkpt>
      <trkpt lat="45.36091" lon="5.90183">
        <ele>1659.078009079</ele>
        <time>2015-05-28T14:47:14Z</time>
      </trkpt>
      <trkpt lat="45.36091" lon="5.90183">
        <ele>1659.078009079</ele>
        <time>2015-05-28T14:47:18Z</time>
      </trkpt>
      <trkpt lat="45.36091" lon="5.90183">
        <ele>1659.078009079</ele>
        <time>2015-05-28T14:47:24Z</time>
      </trkpt>
      <trkpt lat="45.36091" lon="5.90183">
        <ele>1659.078009079</ele>
        <time>2015-05-28T14:47:29Z</time>
      </trkpt>
      <trkpt lat="45.36091" lon="5.90183">
        <ele>1659.078009079</ele>
        <time>2015-05-28T14:47:34Z</time>
      </trkpt>
      <trkpt lat="45.36091" lon="5.90183">
        <ele>1659.078009079</ele>
        <time>2015-05-28T14:47:39Z</time>
      </trkpt>
      <trkpt lat="45.36091" lon="5.90183">
        <ele>1659.078009079</ele>
        <time>2015-05-28T14:47:44Z</time>
      </trkpt>
      <trkpt lat="45.36091" lon="5.90183">
        <ele>1659.078009079</ele>
        <time>2015-05-28T14:47:49Z</time>
      </trkpt>
      <trkpt lat="45.36091" lon="5.90183">
        <ele>1659.078009079</ele>
        <time>2015-05-28T14:47:54Z</time>
      </trkpt>
      <trkpt lat="45.36091" lon="5.90183">
        <ele>1659.078009079</ele>
        <time>2015-05-28T14:47:59Z</time>
      </trkpt>
      <trkpt lat="45.36091" lon="5.90183">
        <ele>1659.078009079</ele>
        <time>2015-05-28T14:48:03Z</time>
      </trkpt>
      <trkpt lat="45.36091" lon="5.90183">
        <ele>1659.078009079</ele>
        <time>2015-05-28T14:48:09Z</time>
      </trkpt>
      <trkpt lat="45.36091" lon="5.90183">
        <ele>1659.078009079</ele>
        <time>2015-05-28T14:48:14Z</time>
      </trkpt>
      <trkpt lat="45.36091" lon="5.90183">
        <ele>1659.078009079</ele>
        <time>2015-05-28T14:48:18Z</time>
      </trkpt>
      <trkpt lat="45.36091" lon="5.90183">
        <ele>1659.078009079</ele>
        <time>2015-05-28T14:48:24Z</time>
      </trkpt>
      <trkpt lat="45.36091" lon="5.90183">
        <ele>1659.078009079</ele>
        <time>2015-05-28T14:48:28Z</time>
      </trkpt>
      <trkpt lat="45.36091" lon="5.90183">
        <ele>1659.078009079</ele>
        <time>2015-05-28T14:48:35Z</time>
      </trkpt>
      <trkpt lat="45.36091" lon="5.90183">
        <ele>1659.078009079</ele>
        <time>2015-05-28T14:48:39Z</time>
      </trkpt>
      <trkpt lat="45.36091" lon="5.90183">
        <ele>1659.078009079</ele>
        <time>2015-05-28T14:48:44Z</time>
      </trkpt>
      <trkpt lat="45.36091" lon="5.90183">
        <ele>1659.078009079</ele>
        <time>2015-05-28T14:48:49Z</time>
      </trkpt>
      <trkpt lat="45.36091" lon="5.90183">
        <ele>1659.078009079</ele>
        <time>2015-05-28T14:48:54Z</time>
      </trkpt>
      <trkpt lat="45.36091" lon="5.90183">
        <ele>1659.078009079</ele>
        <time>2015-05-28T14:48:59Z</time>
      </trkpt>
      <trkpt lat="45.36091" lon="5.90183">
        <ele>1659.078009079</ele>
        <time>2015-05-28T14:49:04Z</time>
      </trkpt>
      <trkpt lat="45.36091" lon="5.90183">
        <ele>1659.078009079</ele>
        <time>2015-05-28T14:49:08Z</time>
      </trkpt>
      <trkpt lat="45.36091" lon="5.90183">
        <ele>1659.078009079</ele>
        <time>2015-05-28T14:49:15Z</time>
      </trkpt>
      <trkpt lat="45.36091" lon="5.90183">
        <ele>1659.078009079</ele>
        <time>2015-05-28T14:49:19Z</time>
      </trkpt>
      <trkpt lat="45.36091" lon="5.90183">
        <ele>1659.078009079</ele>
        <time>2015-05-28T14:49:24Z</time>
      </trkpt>
      <trkpt lat="45.36091" lon="5.90183">
        <ele>1659.078009079</ele>
        <time>2015-05-28T14:49:30Z</time>
      </trkpt>
      <trkpt lat="45.36091" lon="5.90183">
        <ele>1659.078009079</ele>
        <time>2015-05-28T14:49:34Z</time>
      </trkpt>
      <trkpt lat="45.36091" lon="5.90183">
        <ele>1659.078009079</ele>
        <time>2015-05-28T14:49:39Z</time>
      </trkpt>
      <trkpt lat="45.36091" lon="5.90183">
        <ele>1659.078009079</ele>
        <time>2015-05-28T14:49:44Z</time>
      </trkpt>
      <trkpt lat="45.36091" lon="5.90183">
        <ele>1659.078009079</ele>
        <time>2015-05-28T14:49:49Z</time>
      </trkpt>
      <trkpt lat="45.36091" lon="5.90183">
        <ele>1659.078009079</ele>
        <time>2015-05-28T14:49:54Z</time>
      </trkpt>
      <trkpt lat="45.36091" lon="5.90183">
        <ele>1659.078009079</ele>
        <time>2015-05-28T14:49:59Z</time>
      </trkpt>
      <trkpt lat="45.36091" lon="5.90183">
        <ele>1659.078009079</ele>
        <time>2015-05-28T14:50:04Z</time>
      </trkpt>
      <trkpt lat="45.36091" lon="5.90183">
        <ele>1659.078009079</ele>
        <time>2015-05-28T14:50:09Z</time>
      </trkpt>
      <trkpt lat="45.36091" lon="5.90183">
        <ele>1659.078009079</ele>
        <time>2015-05-28T14:50:14Z</time>
      </trkpt>
      <trkpt lat="45.36091" lon="5.90183">
        <ele>1659.078009079</ele>
        <time>2015-05-28T14:50:19Z</time>
      </trkpt>
      <trkpt lat="45.36091" lon="5.90183">
        <ele>1659.078009079</ele>
        <time>2015-05-28T14:50:24Z</time>
      </trkpt>
      <trkpt lat="45.36091" lon="5.90183">
        <ele>1659.078009079</ele>
        <time>2015-05-28T14:50:29Z</time>
      </trkpt>
      <trkpt lat="45.36091" lon="5.90183">
        <ele>1659.078009079</ele>
        <time>2015-05-28T14:50:34Z</time>
      </trkpt>
      <trkpt lat="45.36091" lon="5.90183">
        <ele>1659.078009079</ele>
        <time>2015-05-28T14:50:39Z</time>
      </trkpt>
      <trkpt lat="45.36091" lon="5.90183">
        <ele>1659.078009079</ele>
        <time>2015-05-28T14:50:44Z</time>
      </trkpt>
      <trkpt lat="45.36091" lon="5.90183">
        <ele>1659.078009079</ele>
        <time>2015-05-28T14:50:49Z</time>
      </trkpt>
      <trkpt lat="45.36091" lon="5.90183">
        <ele>1659.078009079</ele>
        <time>2015-05-28T14:50:54Z</time>
      </trkpt>
      <trkpt lat="45.36091" lon="5.90183">
        <ele>1659.078009079</ele>
        <time>2015-05-28T14:50:59Z</time>
      </trkpt>
      <trkpt lat="45.36091" lon="5.90184">
        <ele>1659.078009079</ele>
        <time>2015-05-28T14:51:03Z</time>
      </trkpt>
      <trkpt lat="45.36091" lon="5.90184">
        <ele>1659.078009079</ele>
        <time>2015-05-28T14:51:09Z</time>
      </trkpt>
      <trkpt lat="45.36091" lon="5.90184">
        <ele>1659.078009079</ele>
        <time>2015-05-28T14:51:13Z</time>
      </trkpt>
      <trkpt lat="45.36091" lon="5.90184">
        <ele>1659.078009079</ele>
        <time>2015-05-28T14:51:19Z</time>
      </trkpt>
      <trkpt lat="45.36091" lon="5.90184">
        <ele>1659.078009079</ele>
        <time>2015-05-28T14:51:24Z</time>
      </trkpt>
      <trkpt lat="45.36091" lon="5.90184">
        <ele>1659.078009079</ele>
        <time>2015-05-28T14:51:28Z</time>
      </trkpt>
      <trkpt lat="45.36091" lon="5.90184">
        <ele>1659.078009079</ele>
        <time>2015-05-28T14:51:34Z</time>
      </trkpt>
      <trkpt lat="45.36091" lon="5.90184">
        <ele>1659.078009079</ele>
        <time>2015-05-28T14:51:39Z</time>
      </trkpt>
      <trkpt lat="45.36091" lon="5.90184">
        <ele>1659.078009079</ele>
        <time>2015-05-28T14:51:44Z</time>
      </trkpt>
      <trkpt lat="45.36091" lon="5.90184">
        <ele>1659.078009079</ele>
        <time>2015-05-28T14:51:49Z</time>
      </trkpt>
      <trkpt lat="45.36091" lon="5.90184">
        <ele>1659.078009079</ele>
        <time>2015-05-28T14:51:54Z</time>
      </trkpt>
      <trkpt lat="45.36091" lon="5.90184">
        <ele>1659.078009079</ele>
        <time>2015-05-28T14:51:59Z</time>
      </trkpt>
      <trkpt lat="45.36091" lon="5.90184">
        <ele>1659.078009079</ele>
        <time>2015-05-28T14:52:04Z</time>
      </trkpt>
      <trkpt lat="45.36091" lon="5.90184">
        <ele>1659.078009079</ele>
        <time>2015-05-28T14:52:09Z</time>
      </trkpt>
      <trkpt lat="45.36091" lon="5.90184">
        <ele>1659.078009079</ele>
        <time>2015-05-28T14:52:14Z</time>
      </trkpt>
      <trkpt lat="45.36091" lon="5.90184">
        <ele>1659.078009079</ele>
        <time>2015-05-28T14:52:19Z</time>
      </trkpt>
      <trkpt lat="45.36091" lon="5.90184">
        <ele>1659.078009079</ele>
        <time>2015-05-28T14:52:24Z</time>
      </trkpt>
      <trkpt lat="45.36091" lon="5.90184">
        <ele>1659.078009079</ele>
        <time>2015-05-28T14:52:29Z</time>
      </trkpt>
      <trkpt lat="45.36091" lon="5.90184">
        <ele>1659.078009079</ele>
        <time>2015-05-28T14:52:34Z</time>
      </trkpt>
      <trkpt lat="45.36091" lon="5.90184">
        <ele>1659.078009079</ele>
        <time>2015-05-28T14:52:39Z</time>
      </trkpt>
      <trkpt lat="45.36091" lon="5.90184">
        <ele>1659.078009079</ele>
        <time>2015-05-28T14:52:44Z</time>
      </trkpt>
      <trkpt lat="45.36091" lon="5.90184">
        <ele>1659.078009079</ele>
        <time>2015-05-28T14:52:49Z</time>
      </trkpt>
      <trkpt lat="45.36091" lon="5.90184">
        <ele>1659.078009079</ele>
        <time>2015-05-28T14:52:54Z</time>
      </trkpt>
      <trkpt lat="45.36091" lon="5.90184">
        <ele>1659.078009079</ele>
        <time>2015-05-28T14:52:59Z</time>
      </trkpt>
      <trkpt lat="45.36091" lon="5.90184">
        <ele>1659.078009079</ele>
        <time>2015-05-28T14:53:04Z</time>
      </trkpt>
      <trkpt lat="45.36091" lon="5.90184">
        <ele>1659.078009079</ele>
        <time>2015-05-28T14:53:09Z</time>
      </trkpt>
      <trkpt lat="45.36091" lon="5.90184">
        <ele>1659.078009079</ele>
        <time>2015-05-28T14:53:14Z</time>
      </trkpt>
      <trkpt lat="45.36091" lon="5.90184">
        <ele>1659.078009079</ele>
        <time>2015-05-28T14:53:19Z</time>
      </trkpt>
      <trkpt lat="45.36091" lon="5.90184">
        <ele>1659.078009079</ele>
        <time>2015-05-28T14:53:23Z</time>
      </trkpt>
      <trkpt lat="45.36091" lon="5.90184">
        <ele>1659.078009079</ele>
        <time>2015-05-28T14:53:28Z</time>
      </trkpt>
      <trkpt lat="45.36091" lon="5.90184">
        <ele>1659.078009079</ele>
        <time>2015-05-28T14:53:33Z</time>
      </trkpt>
      <trkpt lat="45.36091" lon="5.90184">
        <ele>1659.078009079</ele>
        <time>2015-05-28T14:53:38Z</time>
      </trkpt>
      <trkpt lat="45.36091" lon="5.90184">
        <ele>1659.078009079</ele>
        <time>2015-05-28T14:53:43Z</time>
      </trkpt>
      <trkpt lat="45.36091" lon="5.90184">
        <ele>1659.078009079</ele>
        <time>2015-05-28T14:53:48Z</time>
      </trkpt>
      <trkpt lat="45.36091" lon="5.90184">
        <ele>1659.078009079</ele>
        <time>2015-05-28T14:53:53Z</time>
      </trkpt>
      <trkpt lat="45.36091" lon="5.90184">
        <ele>1659.078009079</ele>
        <time>2015-05-28T14:53:58Z</time>
      </trkpt>
      <trkpt lat="45.36091" lon="5.90184">
        <ele>1659.078009079</ele>
        <time>2015-05-28T14:54:03Z</time>
      </trkpt>
      <trkpt lat="45.36091" lon="5.90184">
        <ele>1659.078009079</ele>
        <time>2015-05-28T14:54:08Z</time>
      </trkpt>
      <trkpt lat="45.36091" lon="5.90184">
        <ele>1659.078009079</ele>
        <time>2015-05-28T14:54:13Z</time>
      </trkpt>
      <trkpt lat="45.36091" lon="5.90184">
        <ele>1659.078009079</ele>
        <time>2015-05-28T14:54:18Z</time>
      </trkpt>
      <trkpt lat="45.36082" lon="5.90186">
        <ele>1659.580104343</ele>
        <time>2015-05-28T14:54:23Z</time>
      </trkpt>
      <trkpt lat="45.3608" lon="5.90184">
        <ele>1659.580104343</ele>
        <time>2015-05-28T14:54:28Z</time>
      </trkpt>
      <trkpt lat="45.3608" lon="5.90185">
        <ele>1659.580104343</ele>
        <time>2015-05-28T14:54:34Z</time>
      </trkpt>
      <trkpt lat="45.36078" lon="5.90184">
        <ele>1659.580104343</ele>
        <time>2015-05-28T14:54:38Z</time>
      </trkpt>
      <trkpt lat="45.36073" lon="5.90181">
        <ele>1659.815286038</ele>
        <time>2015-05-28T14:54:43Z</time>
      </trkpt>
      <trkpt lat="45.36072" lon="5.90175">
        <ele>1659.815286038</ele>
        <time>2015-05-28T14:54:48Z</time>
      </trkpt>
      <trkpt lat="45.36066" lon="5.90166">
        <ele>1659.808962675</ele>
        <time>2015-05-28T14:54:54Z</time>
      </trkpt>
      <trkpt lat="45.36061" lon="5.9016">
        <ele>1659.808962675</ele>
        <time>2015-05-28T14:54:59Z</time>
      </trkpt>
      <trkpt lat="45.36055" lon="5.90163">
        <ele>1659.873324499</ele>
        <time>2015-05-28T14:55:04Z</time>
      </trkpt>
      <trkpt lat="45.36051" lon="5.9017">
        <ele>1659.873324499</ele>
        <time>2015-05-28T14:55:10Z</time>
      </trkpt>
      <trkpt lat="45.36051" lon="5.90171">
        <ele>1659.873324499</ele>
        <time>2015-05-28T14:55:14Z</time>
      </trkpt>
      <trkpt lat="45.3605" lon="5.90163">
        <ele>1661.017737992</ele>
        <time>2015-05-28T14:55:19Z</time>
      </trkpt>
      <trkpt lat="45.36048" lon="5.90164">
        <ele>1661.017737992</ele>
        <time>2015-05-28T14:55:24Z</time>
      </trkpt>
      <trkpt lat="45.36052" lon="5.90152">
        <ele>1661.436035721</ele>
        <time>2015-05-28T14:55:30Z</time>
      </trkpt>
      <trkpt lat="45.36052" lon="5.90147">
        <ele>1661.436035721</ele>
        <time>2015-05-28T14:55:34Z</time>
      </trkpt>
      <trkpt lat="45.36046" lon="5.90145">
        <ele>1662.050529242</ele>
        <time>2015-05-28T14:55:39Z</time>
      </trkpt>
      <trkpt lat="45.36045" lon="5.90142">
        <ele>1662.050529242</ele>
        <time>2015-05-28T14:55:43Z</time>
      </trkpt>
      <trkpt lat="45.36044" lon="5.9014">
        <ele>1662.050529242</ele>
        <time>2015-05-28T14:55:49Z</time>
      </trkpt>
      <trkpt lat="45.36042" lon="5.90135">
        <ele>1662.050529242</ele>
        <time>2015-05-28T14:55:54Z</time>
      </trkpt>
      <trkpt lat="45.36041" lon="5.90131">
        <ele>1662.562105537</ele>
        <time>2015-05-28T14:55:59Z</time>
      </trkpt>
      <trkpt lat="45.36041" lon="5.9013">
        <ele>1662.562105537</ele>
        <time>2015-05-28T14:56:03Z</time>
      </trkpt>
      <trkpt lat="45.3604" lon="5.90131">
        <ele>1662.562105537</ele>
        <time>2015-05-28T14:56:08Z</time>
      </trkpt>
      <trkpt lat="45.3604" lon="5.90128">
        <ele>1662.562105537</ele>
        <time>2015-05-28T14:56:13Z</time>
      </trkpt>
      <trkpt lat="45.36041" lon="5.90128">
        <ele>1662.562105537</ele>
        <time>2015-05-28T14:56:18Z</time>
      </trkpt>
      <trkpt lat="45.36041" lon="5.90128">
        <ele>1662.562105537</ele>
        <time>2015-05-28T14:56:23Z</time>
      </trkpt>
      <trkpt lat="45.36041" lon="5.90128">
        <ele>1662.562105537</ele>
        <time>2015-05-28T14:56:29Z</time>
      </trkpt>
      <trkpt lat="45.36041" lon="5.90128">
        <ele>1662.562105537</ele>
        <time>2015-05-28T14:56:34Z</time>
      </trkpt>
      <trkpt lat="45.36041" lon="5.90128">
        <ele>1662.562105537</ele>
        <time>2015-05-28T14:56:40Z</time>
      </trkpt>
      <trkpt lat="45.36041" lon="5.90128">
        <ele>1662.562105537</ele>
        <time>2015-05-28T14:56:44Z</time>
      </trkpt>
      <trkpt lat="45.36046" lon="5.90127">
        <ele>1662.562105537</ele>
        <time>2015-05-28T14:56:50Z</time>
      </trkpt>
      <trkpt lat="45.36048" lon="5.90127">
        <ele>1663.414244079</ele>
        <time>2015-05-28T14:56:54Z</time>
      </trkpt>
      <trkpt lat="45.36049" lon="5.90126">
        <ele>1663.414244079</ele>
        <time>2015-05-28T14:56:59Z</time>
      </trkpt>
      <trkpt lat="45.36049" lon="5.90125">
        <ele>1663.414244079</ele>
        <time>2015-05-28T14:57:03Z</time>
      </trkpt>
      <trkpt lat="45.3605" lon="5.90125">
        <ele>1663.414244079</ele>
        <time>2015-05-28T14:57:08Z</time>
      </trkpt>
      <trkpt lat="45.3605" lon="5.90125">
        <ele>1663.414244079</ele>
        <time>2015-05-28T14:57:14Z</time>
      </trkpt>
      <trkpt lat="45.36054" lon="5.90119">
        <ele>1663.414244079</ele>
        <time>2015-05-28T14:57:19Z</time>
      </trkpt>
      <trkpt lat="45.36058" lon="5.90119">
        <ele>1664.440229551</ele>
        <time>2015-05-28T14:57:24Z</time>
      </trkpt>
      <trkpt lat="45.36062" lon="5.90118">
        <ele>1664.440229551</ele>
        <time>2015-05-28T14:57:29Z</time>
      </trkpt>
      <trkpt lat="45.3606" lon="5.90116">
        <ele>1664.440229551</ele>
        <time>2015-05-28T14:57:34Z</time>
      </trkpt>
      <trkpt lat="45.36058" lon="5.90114">
        <ele>1664.440229551</ele>
        <time>2015-05-28T14:57:39Z</time>
      </trkpt>
      <trkpt lat="45.36058" lon="5.90114">
        <ele>1666.061343221</ele>
        <time>2015-05-28T14:57:44Z</time>
      </trkpt>
      <trkpt lat="45.36059" lon="5.90113">
        <ele>1666.061343221</ele>
        <time>2015-05-28T14:57:49Z</time>
      </trkpt>
      <trkpt lat="45.36058" lon="5.90112">
        <ele>1666.061343221</ele>
        <time>2015-05-28T14:57:53Z</time>
      </trkpt>
      <trkpt lat="45.36055" lon="5.90107">
        <ele>1666.061343221</ele>
        <time>2015-05-28T14:57:59Z</time>
      </trkpt>
      <trkpt lat="45.36057" lon="5.90103">
        <ele>1668.089610011</ele>
        <time>2015-05-28T14:58:04Z</time>
      </trkpt>
      <trkpt lat="45.36057" lon="5.90103">
        <ele>1668.089610011</ele>
        <time>2015-05-28T14:58:09Z</time>
      </trkpt>
      <trkpt lat="45.36057" lon="5.90101">
        <ele>1668.089610011</ele>
        <time>2015-05-28T14:58:13Z</time>
      </trkpt>
      <trkpt lat="45.36057" lon="5.90098">
        <ele>1668.089610011</ele>
        <time>2015-05-28T14:58:19Z</time>
      </trkpt>
      <trkpt lat="45.36058" lon="5.90095">
        <ele>1668.089610011</ele>
        <time>2015-05-28T14:58:24Z</time>
      </trkpt>
      <trkpt lat="45.36057" lon="5.9009">
        <ele>1671.35832076</ele>
        <time>2015-05-28T14:58:29Z</time>
      </trkpt>
      <trkpt lat="45.36058" lon="5.9009">
        <ele>1671.35832076</ele>
        <time>2015-05-28T14:58:34Z</time>
      </trkpt>
      <trkpt lat="45.3606" lon="5.90089">
        <ele>1671.35832076</ele>
        <time>2015-05-28T14:58:39Z</time>
      </trkpt>
      <trkpt lat="45.36059" lon="5.90089">
        <ele>1671.35832076</ele>
        <time>2015-05-28T14:58:43Z</time>
      </trkpt>
      <trkpt lat="45.36059" lon="5.90089">
        <ele>1671.35832076</ele>
        <time>2015-05-28T14:58:49Z</time>
      </trkpt>
      <trkpt lat="45.36059" lon="5.90089">
        <ele>1671.35832076</ele>
        <time>2015-05-28T14:58:53Z</time>
      </trkpt>
      <trkpt lat="45.36059" lon="5.90089">
        <ele>1671.35832076</ele>
        <time>2015-05-28T14:58:59Z</time>
      </trkpt>
      <trkpt lat="45.36059" lon="5.90089">
        <ele>1671.35832076</ele>
        <time>2015-05-28T14:59:04Z</time>
      </trkpt>
      <trkpt lat="45.36059" lon="5.90089">
        <ele>1671.35832076</ele>
        <time>2015-05-28T14:59:09Z</time>
      </trkpt>
      <trkpt lat="45.36059" lon="5.90089">
        <ele>1671.35832076</ele>
        <time>2015-05-28T14:59:14Z</time>
      </trkpt>
      <trkpt lat="45.3606" lon="5.90089">
        <ele>1671.35832076</ele>
        <time>2015-05-28T14:59:18Z</time>
      </trkpt>
      <trkpt lat="45.3606" lon="5.90089">
        <ele>1671.35832076</ele>
        <time>2015-05-28T14:59:24Z</time>
      </trkpt>
      <trkpt lat="45.3606" lon="5.90089">
        <ele>1671.35832076</ele>
        <time>2015-05-28T14:59:28Z</time>
      </trkpt>
      <trkpt lat="45.36072" lon="5.90087">
        <ele>1674.906581035</ele>
        <time>2015-05-28T14:59:34Z</time>
      </trkpt>
      <trkpt lat="45.36076" lon="5.90088">
        <ele>1674.906581035</ele>
        <time>2015-05-28T14:59:39Z</time>
      </trkpt>
      <trkpt lat="45.36078" lon="5.90088">
        <ele>1674.906581035</ele>
        <time>2015-05-28T14:59:45Z</time>
      </trkpt>
      <trkpt lat="45.36077" lon="5.90086">
        <ele>1674.906581035</ele>
        <time>2015-05-28T14:59:49Z</time>
      </trkpt>
      <trkpt lat="45.36077" lon="5.90086">
        <ele>1674.906581035</ele>
        <time>2015-05-28T14:59:54Z</time>
      </trkpt>
      <trkpt lat="45.36083" lon="5.90084">
        <ele>1678.419608799</ele>
        <time>2015-05-28T14:59:59Z</time>
      </trkpt>
      <trkpt lat="45.36085" lon="5.90085">
        <ele>1678.419608799</ele>
        <time>2015-05-28T15:00:04Z</time>
      </trkpt>
      <trkpt lat="45.36091" lon="5.90084">
        <ele>1678.419608799</ele>
        <time>2015-05-28T15:00:09Z</time>
      </trkpt>
      <trkpt lat="45.36093" lon="5.90085">
        <ele>1682.90273773</ele>
        <time>2015-05-28T15:00:14Z</time>
      </trkpt>
      <trkpt lat="45.36095" lon="5.90081">
        <ele>1682.90273773</ele>
        <time>2015-05-28T15:00:19Z</time>
      </trkpt>
      <trkpt lat="45.36096" lon="5.90081">
        <ele>1682.90273773</ele>
        <time>2015-05-28T15:00:24Z</time>
      </trkpt>
      <trkpt lat="45.36096" lon="5.90081">
        <ele>1682.90273773</ele>
        <time>2015-05-28T15:00:29Z</time>
      </trkpt>
      <trkpt lat="45.36095" lon="5.90082">
        <ele>1682.90273773</ele>
        <time>2015-05-28T15:00:33Z</time>
      </trkpt>
      <trkpt lat="45.36096" lon="5.90078">
        <ele>1682.90273773</ele>
        <time>2015-05-28T15:00:38Z</time>
      </trkpt>
      <trkpt lat="45.36093" lon="5.90073">
        <ele>1688.275874087</ele>
        <time>2015-05-28T15:00:43Z</time>
      </trkpt>
      <trkpt lat="45.36096" lon="5.90069">
        <ele>1688.275874087</ele>
        <time>2015-05-28T15:00:48Z</time>
      </trkpt>
      <trkpt lat="45.36094" lon="5.90065">
        <ele>1688.275874087</ele>
        <time>2015-05-28T15:00:53Z</time>
      </trkpt>
      <trkpt lat="45.36092" lon="5.9006">
        <ele>1693.597599435</ele>
        <time>2015-05-28T15:01:00Z</time>
      </trkpt>
      <trkpt lat="45.3609" lon="5.90058">
        <ele>1693.597599435</ele>
        <time>2015-05-28T15:01:03Z</time>
      </trkpt>
      <trkpt lat="45.36089" lon="5.90057">
        <ele>1693.597599435</ele>
        <time>2015-05-28T15:01:08Z</time>
      </trkpt>
      <trkpt lat="45.36089" lon="5.90051">
        <ele>1693.597599435</ele>
        <time>2015-05-28T15:01:13Z</time>
      </trkpt>
      <trkpt lat="45.36088" lon="5.90052">
        <ele>1693.597599435</ele>
        <time>2015-05-28T15:01:19Z</time>
      </trkpt>
      <trkpt lat="45.36089" lon="5.90052">
        <ele>1699.00456268</ele>
        <time>2015-05-28T15:01:24Z</time>
      </trkpt>
      <trkpt lat="45.3609" lon="5.90052">
        <ele>1699.00456268</ele>
        <time>2015-05-28T15:01:29Z</time>
      </trkpt>
      <trkpt lat="45.3609" lon="5.90052">
        <ele>1699.00456268</ele>
        <time>2015-05-28T15:01:33Z</time>
      </trkpt>
      <trkpt lat="45.36089" lon="5.90052">
        <ele>1699.00456268</ele>
        <time>2015-05-28T15:01:38Z</time>
      </trkpt>
      <trkpt lat="45.36089" lon="5.90052">
        <ele>1699.00456268</ele>
        <time>2015-05-28T15:01:43Z</time>
      </trkpt>
      <trkpt lat="45.36089" lon="5.90052">
        <ele>1699.00456268</ele>
        <time>2015-05-28T15:01:48Z</time>
      </trkpt>
      <trkpt lat="45.36089" lon="5.90052">
        <ele>1699.00456268</ele>
        <time>2015-05-28T15:01:53Z</time>
      </trkpt>
      <trkpt lat="45.36085" lon="5.90049">
        <ele>1699.00456268</ele>
        <time>2015-05-28T15:01:58Z</time>
      </trkpt>
      <trkpt lat="45.36085" lon="5.90047">
        <ele>1699.00456268</ele>
        <time>2015-05-28T15:02:03Z</time>
      </trkpt>
      <trkpt lat="45.36085" lon="5.90046">
        <ele>1704.911381652</ele>
        <time>2015-05-28T15:02:08Z</time>
      </trkpt>
      <trkpt lat="45.36083" lon="5.90046">
        <ele>1704.911381652</ele>
        <time>2015-05-28T15:02:13Z</time>
      </trkpt>
      <trkpt lat="45.3608" lon="5.90039">
        <ele>1704.911381652</ele>
        <time>2015-05-28T15:02:18Z</time>
      </trkpt>
      <trkpt lat="45.36076" lon="5.90032">
        <ele>1710.836205411</ele>
        <time>2015-05-28T15:02:25Z</time>
      </trkpt>
      <trkpt lat="45.36072" lon="5.90029">
        <ele>1710.836205411</ele>
        <time>2015-05-28T15:02:29Z</time>
      </trkpt>
      <trkpt lat="45.36069" lon="5.90027">
        <ele>1710.836205411</ele>
        <time>2015-05-28T15:02:33Z</time>
      </trkpt>
      <trkpt lat="45.36069" lon="5.90019">
        <ele>1716.764953125</ele>
        <time>2015-05-28T15:02:38Z</time>
      </trkpt>
      <trkpt lat="45.36062" lon="5.90021">
        <ele>1716.764953125</ele>
        <time>2015-05-28T15:02:43Z</time>
      </trkpt>
      <trkpt lat="45.36059" lon="5.9002">
        <ele>1722.684688909</ele>
        <time>2015-05-28T15:02:50Z</time>
      </trkpt>
      <trkpt lat="45.36058" lon="5.90018">
        <ele>1722.684688909</ele>
        <time>2015-05-28T15:02:53Z</time>
      </trkpt>
      <trkpt lat="45.36058" lon="5.90017">
        <ele>1722.684688909</ele>
        <time>2015-05-28T15:02:59Z</time>
      </trkpt>
      <trkpt lat="45.36056" lon="5.90013">
        <ele>1722.684688909</ele>
        <time>2015-05-28T15:03:03Z</time>
      </trkpt>
      <trkpt lat="45.36057" lon="5.90009">
        <ele>1728.727714324</ele>
        <time>2015-05-28T15:03:08Z</time>
      </trkpt>
      <trkpt lat="45.36057" lon="5.90008">
        <ele>1728.727714324</ele>
        <time>2015-05-28T15:03:13Z</time>
      </trkpt>
      <trkpt lat="45.36059" lon="5.90007">
        <ele>1728.727714324</ele>
        <time>2015-05-28T15:03:18Z</time>
      </trkpt>
      <trkpt lat="45.36059" lon="5.90007">
        <ele>1728.727714324</ele>
        <time>2015-05-28T15:03:23Z</time>
      </trkpt>
      <trkpt lat="45.36059" lon="5.90007">
        <ele>1728.727714324</ele>
        <time>2015-05-28T15:03:29Z</time>
      </trkpt>
      <trkpt lat="45.36059" lon="5.90007">
        <ele>1728.727714324</ele>
        <time>2015-05-28T15:03:33Z</time>
      </trkpt>
      <trkpt lat="45.36059" lon="5.90007">
        <ele>1728.727714324</ele>
        <time>2015-05-28T15:03:39Z</time>
      </trkpt>
      <trkpt lat="45.36059" lon="5.90007">
        <ele>1728.727714324</ele>
        <time>2015-05-28T15:03:44Z</time>
      </trkpt>
      <trkpt lat="45.3606" lon="5.90002">
        <ele>1728.727714324</ele>
        <time>2015-05-28T15:03:49Z</time>
      </trkpt>
      <trkpt lat="45.36059" lon="5.89997">
        <ele>1734.872332669</ele>
        <time>2015-05-28T15:03:53Z</time>
      </trkpt>
      <trkpt lat="45.36059" lon="5.89991">
        <ele>1734.872332669</ele>
        <time>2015-05-28T15:03:58Z</time>
      </trkpt>
      <trkpt lat="45.36065" lon="5.89989">
        <ele>1740.089578485</ele>
        <time>2015-05-28T15:04:04Z</time>
      </trkpt>
      <trkpt lat="45.3606" lon="5.89983">
        <ele>1740.089578485</ele>
        <time>2015-05-28T15:04:08Z</time>
      </trkpt>
      <trkpt lat="45.36061" lon="5.89984">
        <ele>1740.089578485</ele>
        <time>2015-05-28T15:04:13Z</time>
      </trkpt>
      <trkpt lat="45.36059" lon="5.89987">
        <ele>1744.870006389</ele>
        <time>2015-05-28T15:04:19Z</time>
      </trkpt>
      <trkpt lat="45.3606" lon="5.89987">
        <ele>1744.870006389</ele>
        <time>2015-05-28T15:04:23Z</time>
      </trkpt>
      <trkpt lat="45.36058" lon="5.89987">
        <ele>1744.870006389</ele>
        <time>2015-05-28T15:04:29Z</time>
      </trkpt>
      <trkpt lat="45.36058" lon="5.89985">
        <ele>1744.870006389</ele>
        <time>2015-05-28T15:04:34Z</time>
      </trkpt>
      <trkpt lat="45.36054" lon="5.89984">
        <ele>1744.870006389</ele>
        <time>2015-05-28T15:04:38Z</time>
      </trkpt>
      <trkpt lat="45.36056" lon="5.89976">
        <ele>1750.678375007</ele>
        <time>2015-05-28T15:04:44Z</time>
      </trkpt>
      <trkpt lat="45.36056" lon="5.89971">
        <ele>1750.678375007</ele>
        <time>2015-05-28T15:04:49Z</time>
      </trkpt>
      <trkpt lat="45.36054" lon="5.89966">
        <ele>1750.678375007</ele>
        <time>2015-05-28T15:04:53Z</time>
      </trkpt>
      <trkpt lat="45.36051" lon="5.89962">
        <ele>1755.698761657</ele>
        <time>2015-05-28T15:04:58Z</time>
      </trkpt>
      <trkpt lat="45.36049" lon="5.89957">
        <ele>1755.698761657</ele>
        <time>2015-05-28T15:05:03Z</time>
      </trkpt>
      <trkpt lat="45.36054" lon="5.89952">
        <ele>1760.124552569</ele>
        <time>2015-05-28T15:05:08Z</time>
      </trkpt>
      <trkpt lat="45.36058" lon="5.89948">
        <ele>1760.124552569</ele>
        <time>2015-05-28T15:05:13Z</time>
      </trkpt>
      <trkpt lat="45.3606" lon="5.89946">
        <ele>1760.124552569</ele>
        <time>2015-05-28T15:05:18Z</time>
      </trkpt>
      <trkpt lat="45.3606" lon="5.89945">
        <ele>1760.124552569</ele>
        <time>2015-05-28T15:05:23Z</time>
      </trkpt>
      <trkpt lat="45.3606" lon="5.89945">
        <ele>1760.124552569</ele>
        <time>2015-05-28T15:05:28Z</time>
      </trkpt>
      <trkpt lat="45.3606" lon="5.89945">
        <ele>1760.124552569</ele>
        <time>2015-05-28T15:05:33Z</time>
      </trkpt>
      <trkpt lat="45.3606" lon="5.89945">
        <ele>1760.124552569</ele>
        <time>2015-05-28T15:05:38Z</time>
      </trkpt>
      <trkpt lat="45.3606" lon="5.89945">
        <ele>1760.124552569</ele>
        <time>2015-05-28T15:05:43Z</time>
      </trkpt>
      <trkpt lat="45.36061" lon="5.89945">
        <ele>1760.124552569</ele>
        <time>2015-05-28T15:05:48Z</time>
      </trkpt>
      <trkpt lat="45.36061" lon="5.89945">
        <ele>1760.124552569</ele>
        <time>2015-05-28T15:05:53Z</time>
      </trkpt>
      <trkpt lat="45.36061" lon="5.89945">
        <ele>1763.416300657</ele>
        <time>2015-05-28T15:05:58Z</time>
      </trkpt>
      <trkpt lat="45.36061" lon="5.89945">
        <ele>1763.416300657</ele>
        <time>2015-05-28T15:06:04Z</time>
      </trkpt>
      <trkpt lat="45.36061" lon="5.89945">
        <ele>1763.416300657</ele>
        <time>2015-05-28T15:06:08Z</time>
      </trkpt>
      <trkpt lat="45.36061" lon="5.89945">
        <ele>1763.416300657</ele>
        <time>2015-05-28T15:06:15Z</time>
      </trkpt>
      <trkpt lat="45.36061" lon="5.89945">
        <ele>1763.416300657</ele>
        <time>2015-05-28T15:06:18Z</time>
      </trkpt>
      <trkpt lat="45.36061" lon="5.89945">
        <ele>1763.416300657</ele>
        <time>2015-05-28T15:06:24Z</time>
      </trkpt>
      <trkpt lat="45.36061" lon="5.89945">
        <ele>1763.416300657</ele>
        <time>2015-05-28T15:06:29Z</time>
      </trkpt>
      <trkpt lat="45.36062" lon="5.89944">
        <ele>1763.416300657</ele>
        <time>2015-05-28T15:06:35Z</time>
      </trkpt>
      <trkpt lat="45.36061" lon="5.89943">
        <ele>1763.416300657</ele>
        <time>2015-05-28T15:06:39Z</time>
      </trkpt>
      <trkpt lat="45.36061" lon="5.89941">
        <ele>1763.416300657</ele>
        <time>2015-05-28T15:06:45Z</time>
      </trkpt>
      <trkpt lat="45.36062" lon="5.89941">
        <ele>1763.416300657</ele>
        <time>2015-05-28T15:06:49Z</time>
      </trkpt>
      <trkpt lat="45.36062" lon="5.89941">
        <ele>1763.416300657</ele>
        <time>2015-05-28T15:06:55Z</time>
      </trkpt>
      <trkpt lat="45.36062" lon="5.89941">
        <ele>1763.416300657</ele>
        <time>2015-05-28T15:06:59Z</time>
      </trkpt>
      <trkpt lat="45.36062" lon="5.89941">
        <ele>1763.416300657</ele>
        <time>2015-05-28T15:07:04Z</time>
      </trkpt>
      <trkpt lat="45.36062" lon="5.89941">
        <ele>1763.416300657</ele>
        <time>2015-05-28T15:07:09Z</time>
      </trkpt>
      <trkpt lat="45.36062" lon="5.89941">
        <ele>1763.416300657</ele>
        <time>2015-05-28T15:07:13Z</time>
      </trkpt>
      <trkpt lat="45.36062" lon="5.89941">
        <ele>1763.416300657</ele>
        <time>2015-05-28T15:07:18Z</time>
      </trkpt>
      <trkpt lat="45.36062" lon="5.89941">
        <ele>1763.416300657</ele>
        <time>2015-05-28T15:07:23Z</time>
      </trkpt>
      <trkpt lat="45.36062" lon="5.89941">
        <ele>1763.416300657</ele>
        <time>2015-05-28T15:07:28Z</time>
      </trkpt>
      <trkpt lat="45.36062" lon="5.89941">
        <ele>1763.416300657</ele>
        <time>2015-05-28T15:07:33Z</time>
      </trkpt>
      <trkpt lat="45.36062" lon="5.89941">
        <ele>1763.416300657</ele>
        <time>2015-05-28T15:07:38Z</time>
      </trkpt>
      <trkpt lat="45.36072" lon="5.89938">
        <ele>1766.518739419</ele>
        <time>2015-05-28T15:07:43Z</time>
      </trkpt>
      <trkpt lat="45.36075" lon="5.89935">
        <ele>1766.518739419</ele>
        <time>2015-05-28T15:07:48Z</time>
      </trkpt>
      <trkpt lat="45.3608" lon="5.89937">
        <ele>1770.884434846</ele>
        <time>2015-05-28T15:07:53Z</time>
      </trkpt>
      <trkpt lat="45.36081" lon="5.89941">
        <ele>1770.884434846</ele>
        <time>2015-05-28T15:07:58Z</time>
      </trkpt>
      <trkpt lat="45.36082" lon="5.8994">
        <ele>1770.884434846</ele>
        <time>2015-05-28T15:08:03Z</time>
      </trkpt>
      <trkpt lat="45.36078" lon="5.89938">
        <ele>1770.884434846</ele>
        <time>2015-05-28T15:08:09Z</time>
      </trkpt>
      <trkpt lat="45.36078" lon="5.89938">
        <ele>1770.884434846</ele>
        <time>2015-05-28T15:08:13Z</time>
      </trkpt>
      <trkpt lat="45.36079" lon="5.89939">
        <ele>1770.884434846</ele>
        <time>2015-05-28T15:08:18Z</time>
      </trkpt>
      <trkpt lat="45.36079" lon="5.89939">
        <ele>1770.884434846</ele>
        <time>2015-05-28T15:08:23Z</time>
      </trkpt>
      <trkpt lat="45.36079" lon="5.89939">
        <ele>1770.884434846</ele>
        <time>2015-05-28T15:08:28Z</time>
      </trkpt>
      <trkpt lat="45.3608" lon="5.8994">
        <ele>1770.884434846</ele>
        <time>2015-05-28T15:08:33Z</time>
      </trkpt>
      <trkpt lat="45.3608" lon="5.8994">
        <ele>1770.884434846</ele>
        <time>2015-05-28T15:08:38Z</time>
      </trkpt>
      <trkpt lat="45.3608" lon="5.8994">
        <ele>1770.884434846</ele>
        <time>2015-05-28T15:08:43Z</time>
      </trkpt>
      <trkpt lat="45.36087" lon="5.89942">
        <ele>1776.558956513</ele>
        <time>2015-05-28T15:08:48Z</time>
      </trkpt>
      <trkpt lat="45.36089" lon="5.89949">
        <ele>1776.558956513</ele>
        <time>2015-05-28T15:08:53Z</time>
      </trkpt>
      <trkpt lat="45.36092" lon="5.89952">
        <ele>1776.558956513</ele>
        <time>2015-05-28T15:08:59Z</time>
      </trkpt>
      <trkpt lat="45.36093" lon="5.89952">
        <ele>1783.436996482</ele>
        <time>2015-05-28T15:09:04Z</time>
      </trkpt>
      <trkpt lat="45.36092" lon="5.89951">
        <ele>1783.436996482</ele>
        <time>2015-05-28T15:09:08Z</time>
      </trkpt>
      <trkpt lat="45.36093" lon="5.89951">
        <ele>1783.436996482</ele>
        <time>2015-05-28T15:09:14Z</time>
      </trkpt>
      <trkpt lat="45.36094" lon="5.89949">
        <ele>1783.436996482</ele>
        <time>2015-05-28T15:09:19Z</time>
      </trkpt>
      <trkpt lat="45.36102" lon="5.89946">
        <ele>1789.976753061</ele>
        <time>2015-05-28T15:09:24Z</time>
      </trkpt>
      <trkpt lat="45.36104" lon="5.89947">
        <ele>1789.976753061</ele>
        <time>2015-05-28T15:09:28Z</time>
      </trkpt>
      <trkpt lat="45.36105" lon="5.89945">
        <ele>1789.976753061</ele>
        <time>2015-05-28T15:09:35Z</time>
      </trkpt>
      <trkpt lat="45.36107" lon="5.89946">
        <ele>1789.976753061</ele>
        <time>2015-05-28T15:09:39Z</time>
      </trkpt>
      <trkpt lat="45.36111" lon="5.89944">
        <ele>1797.056681879</ele>
        <time>2015-05-28T15:09:44Z</time>
      </trkpt>
      <trkpt lat="45.36105" lon="5.89944">
        <ele>1797.056681879</ele>
        <time>2015-05-28T15:09:49Z</time>
      </trkpt>
      <trkpt lat="45.36099" lon="5.89947">
        <ele>1803.616030209</ele>
        <time>2015-05-28T15:09:54Z</time>
      </trkpt>
      <trkpt lat="45.3609" lon="5.89947">
        <ele>1803.616030209</ele>
        <time>2015-05-28T15:09:58Z</time>
      </trkpt>
      <trkpt lat="45.3609" lon="5.89948">
        <ele>1809.394278108</ele>
        <time>2015-05-28T15:10:03Z</time>
      </trkpt>
      <trkpt lat="45.36096" lon="5.89944">
        <ele>1809.394278108</ele>
        <time>2015-05-28T15:10:09Z</time>
      </trkpt>
      <trkpt lat="45.36096" lon="5.89945">
        <ele>1809.394278108</ele>
        <time>2015-05-28T15:10:14Z</time>
      </trkpt>
      <trkpt lat="45.36097" lon="5.89944">
        <ele>1814.584869322</ele>
        <time>2015-05-28T15:10:18Z</time>
      </trkpt>
      <trkpt lat="45.36097" lon="5.89944">
        <ele>1814.584869322</ele>
        <time>2015-05-28T15:10:25Z</time>
      </trkpt>
      <trkpt lat="45.36097" lon="5.89944">
        <ele>1814.584869322</ele>
        <time>2015-05-28T15:10:29Z</time>
      </trkpt>
      <trkpt lat="45.36098" lon="5.89944">
        <ele>1814.584869322</ele>
        <time>2015-05-28T15:10:34Z</time>
      </trkpt>
      <trkpt lat="45.36098" lon="5.89944">
        <ele>1814.584869322</ele>
        <time>2015-05-28T15:10:38Z</time>
      </trkpt>
      <trkpt lat="45.36098" lon="5.89944">
        <ele>1814.584869322</ele>
        <time>2015-05-28T15:10:45Z</time>
      </trkpt>
      <trkpt lat="45.3611" lon="5.89947">
        <ele>1818.648432312</ele>
        <time>2015-05-28T15:10:48Z</time>
      </trkpt>
      <trkpt lat="45.36131" lon="5.8997">
        <ele>1822.529787669</ele>
        <time>2015-05-28T15:10:53Z</time>
      </trkpt>
      <trkpt lat="45.36135" lon="5.89978">
        <ele>1822.529787669</ele>
        <time>2015-05-28T15:10:58Z</time>
      </trkpt>
      <trkpt lat="45.36142" lon="5.89981">
        <ele>1825.519923041</ele>
        <time>2015-05-28T15:11:03Z</time>
      </trkpt>
      <trkpt lat="45.36148" lon="5.89982">
        <ele>1825.519923041</ele>
        <time>2015-05-28T15:11:08Z</time>
      </trkpt>
      <trkpt lat="45.36149" lon="5.89993">
        <ele>1827.973455038</ele>
        <time>2015-05-28T15:11:13Z</time>
      </trkpt>
      <trkpt lat="45.36152" lon="5.89994">
        <ele>1827.973455038</ele>
        <time>2015-05-28T15:11:18Z</time>
      </trkpt>
      <trkpt lat="45.36157" lon="5.89997">
        <ele>1829.932477933</ele>
        <time>2015-05-28T15:11:25Z</time>
      </trkpt>
      <trkpt lat="45.36161" lon="5.89992">
        <ele>1829.932477933</ele>
        <time>2015-05-28T15:11:28Z</time>
      </trkpt>
      <trkpt lat="45.36167" lon="5.89993">
        <ele>1831.293488147</ele>
        <time>2015-05-28T15:11:33Z</time>
      </trkpt>
      <trkpt lat="45.36172" lon="5.90001">
        <ele>1831.293488147</ele>
        <time>2015-05-28T15:11:39Z</time>
      </trkpt>
      <trkpt lat="45.36173" lon="5.90006">
        <ele>1832.538896708</ele>
        <time>2015-05-28T15:11:44Z</time>
      </trkpt>
      <trkpt lat="45.36176" lon="5.90008">
        <ele>1832.538896708</ele>
        <time>2015-05-28T15:11:49Z</time>
      </trkpt>
      <trkpt lat="45.36171" lon="5.90013">
        <ele>1832.538896708</ele>
        <time>2015-05-28T15:11:54Z</time>
      </trkpt>
      <trkpt lat="45.36175" lon="5.90014">
        <ele>1832.530934637</ele>
        <time>2015-05-28T15:11:58Z</time>
      </trkpt>
      <trkpt lat="45.36176" lon="5.90015">
        <ele>1832.530934637</ele>
        <time>2015-05-28T15:12:04Z</time>
      </trkpt>
      <trkpt lat="45.36176" lon="5.90015">
        <ele>1832.530934637</ele>
        <time>2015-05-28T15:12:08Z</time>
      </trkpt>
      <trkpt lat="45.36176" lon="5.90015">
        <ele>1832.530934637</ele>
        <time>2015-05-28T15:12:14Z</time>
      </trkpt>
      <trkpt lat="45.36177" lon="5.90015">
        <ele>1832.530934637</ele>
        <time>2015-05-28T15:12:18Z</time>
      </trkpt>
      <trkpt lat="45.36177" lon="5.90015">
        <ele>1832.530934637</ele>
        <time>2015-05-28T15:12:24Z</time>
      </trkpt>
      <trkpt lat="45.36177" lon="5.90015">
        <ele>1832.530934637</ele>
        <time>2015-05-28T15:12:29Z</time>
      </trkpt>
      <trkpt lat="45.36177" lon="5.90015">
        <ele>1832.530934637</ele>
        <time>2015-05-28T15:12:34Z</time>
      </trkpt>
      <trkpt lat="45.36177" lon="5.90015">
        <ele>1832.625991319</ele>
        <time>2015-05-28T15:12:39Z</time>
      </trkpt>
      <trkpt lat="45.36177" lon="5.90015">
        <ele>1832.721048</ele>
        <time>2015-05-28T15:12:45Z</time>
      </trkpt>
      <trkpt lat="45.36177" lon="5.90015">
        <ele>1832.816104682</ele>
        <time>2015-05-28T15:12:49Z</time>
      </trkpt>
      <trkpt lat="45.36177" lon="5.90015">
        <ele>1832.911161364</ele>
        <time>2015-05-28T15:12:54Z</time>
      </trkpt>
      <trkpt lat="45.36177" lon="5.90015">
        <ele>1833.006218046</ele>
        <time>2015-05-28T15:12:59Z</time>
      </trkpt>
      <trkpt lat="45.36186" lon="5.90012">
        <ele>1833.101274728</ele>
        <time>2015-05-28T15:13:04Z</time>
      </trkpt>
      <trkpt lat="45.36186" lon="5.9002">
        <ele>1833.101274728</ele>
        <time>2015-05-28T15:13:09Z</time>
      </trkpt>
      <trkpt lat="45.36186" lon="5.90021">
        <ele>1833.101274728</ele>
        <time>2015-05-28T15:13:14Z</time>
      </trkpt>
      <trkpt lat="45.36191" lon="5.90018">
        <ele>1830.181049392</ele>
        <time>2015-05-28T15:13:19Z</time>
      </trkpt>
      <trkpt lat="45.36193" lon="5.90021">
        <ele>1830.181049392</ele>
        <time>2015-05-28T15:13:24Z</time>
      </trkpt>
      <trkpt lat="45.36194" lon="5.90034">
        <ele>1830.097904839</ele>
        <time>2015-05-28T15:13:29Z</time>
      </trkpt>
      <trkpt lat="45.36195" lon="5.90038">
        <ele>1830.097904839</ele>
        <time>2015-05-28T15:13:33Z</time>
      </trkpt>
      <trkpt lat="45.36196" lon="5.9004">
        <ele>1830.097904839</ele>
        <time>2015-05-28T15:13:38Z</time>
      </trkpt>
      <trkpt lat="45.36197" lon="5.9004">
        <ele>1830.097904839</ele>
        <time>2015-05-28T15:13:43Z</time>
      </trkpt>
      <trkpt lat="45.36197" lon="5.9004">
        <ele>1830.097904839</ele>
        <time>2015-05-28T15:13:48Z</time>
      </trkpt>
      <trkpt lat="45.36197" lon="5.90041">
        <ele>1830.097904839</ele>
        <time>2015-05-28T15:13:53Z</time>
      </trkpt>
      <trkpt lat="45.36197" lon="5.90041">
        <ele>1830.097904839</ele>
        <time>2015-05-28T15:13:58Z</time>
      </trkpt>
      <trkpt lat="45.36197" lon="5.90041">
        <ele>1830.097904839</ele>
        <time>2015-05-28T15:14:03Z</time>
      </trkpt>
      <trkpt lat="45.36197" lon="5.90041">
        <ele>1830.097904839</ele>
        <time>2015-05-28T15:14:08Z</time>
      </trkpt>
      <trkpt lat="45.36203" lon="5.90042">
        <ele>1830.780594059</ele>
        <time>2015-05-28T15:14:13Z</time>
      </trkpt>
      <trkpt lat="45.36216" lon="5.90057">
        <ele>1831.604845051</ele>
        <time>2015-05-28T15:14:19Z</time>
      </trkpt>
      <trkpt lat="45.36224" lon="5.90066">
        <ele>1833.432901833</ele>
        <time>2015-05-28T15:14:24Z</time>
      </trkpt>
      <trkpt lat="45.36233" lon="5.9007">
        <ele>1835.187331849</ele>
        <time>2015-05-28T15:14:29Z</time>
      </trkpt>
      <trkpt lat="45.36241" lon="5.90079">
        <ele>1837.022857206</ele>
        <time>2015-05-28T15:14:34Z</time>
      </trkpt>
      <trkpt lat="45.36244" lon="5.90081">
        <ele>1837.022857206</ele>
        <time>2015-05-28T15:14:38Z</time>
      </trkpt>
      <trkpt lat="45.36247" lon="5.90084">
        <ele>1837.022857206</ele>
        <time>2015-05-28T15:14:43Z</time>
      </trkpt>
      <trkpt lat="45.36253" lon="5.90086">
        <ele>1838.938397074</ele>
        <time>2015-05-28T15:14:48Z</time>
      </trkpt>
      <trkpt lat="45.36256" lon="5.90086">
        <ele>1838.938397074</ele>
        <time>2015-05-28T15:14:53Z</time>
      </trkpt>
      <trkpt lat="45.36269" lon="5.90092">
        <ele>1840.788508627</ele>
        <time>2015-05-28T15:14:58Z</time>
      </trkpt>
      <trkpt lat="45.36262" lon="5.90112">
        <ele>1842.294392929</ele>
        <time>2015-05-28T15:15:03Z</time>
      </trkpt>
      <trkpt lat="45.36268" lon="5.90123">
        <ele>1843.054465676</ele>
        <time>2015-05-28T15:15:08Z</time>
      </trkpt>
      <trkpt lat="45.36272" lon="5.90123">
        <ele>1843.054465676</ele>
        <time>2015-05-28T15:15:13Z</time>
      </trkpt>
      <trkpt lat="45.36277" lon="5.90122">
        <ele>1843.054465676</ele>
        <time>2015-05-28T15:15:18Z</time>
      </trkpt>
      <trkpt lat="45.36276" lon="5.90126">
        <ele>1844.572052737</ele>
        <time>2015-05-28T15:15:24Z</time>
      </trkpt>
      <trkpt lat="45.36278" lon="5.90124">
        <ele>1844.572052737</ele>
        <time>2015-05-28T15:15:29Z</time>
      </trkpt>
      <trkpt lat="45.36276" lon="5.90125">
        <ele>1844.572052737</ele>
        <time>2015-05-28T15:15:33Z</time>
      </trkpt>
      <trkpt lat="45.36276" lon="5.90125">
        <ele>1844.572052737</ele>
        <time>2015-05-28T15:15:38Z</time>
      </trkpt>
      <trkpt lat="45.36276" lon="5.90125">
        <ele>1844.572052737</ele>
        <time>2015-05-28T15:15:43Z</time>
      </trkpt>
      <trkpt lat="45.36283" lon="5.90127">
        <ele>1846.364341982</ele>
        <time>2015-05-28T15:15:48Z</time>
      </trkpt>
      <trkpt lat="45.36284" lon="5.90134">
        <ele>1846.364341982</ele>
        <time>2015-05-28T15:15:54Z</time>
      </trkpt>
      <trkpt lat="45.36282" lon="5.90145">
        <ele>1847.406631362</ele>
        <time>2015-05-28T15:15:58Z</time>
      </trkpt>
      <trkpt lat="45.36292" lon="5.90141">
        <ele>1848.192559971</ele>
        <time>2015-05-28T15:16:03Z</time>
      </trkpt>
      <trkpt lat="45.36291" lon="5.90145">
        <ele>1848.192559971</ele>
        <time>2015-05-28T15:16:08Z</time>
      </trkpt>
      <trkpt lat="45.36289" lon="5.90147">
        <ele>1848.192559971</ele>
        <time>2015-05-28T15:16:13Z</time>
      </trkpt>
      <trkpt lat="45.36288" lon="5.90148">
        <ele>1848.192559971</ele>
        <time>2015-05-28T15:16:18Z</time>
      </trkpt>
      <trkpt lat="45.36288" lon="5.90148">
        <ele>1848.192559971</ele>
        <time>2015-05-28T15:16:23Z</time>
      </trkpt>
      <trkpt lat="45.36288" lon="5.90148">
        <ele>1848.192559971</ele>
        <time>2015-05-28T15:16:28Z</time>
      </trkpt>
      <trkpt lat="45.36288" lon="5.90148">
        <ele>1848.192559971</ele>
        <time>2015-05-28T15:16:34Z</time>
      </trkpt>
      <trkpt lat="45.36287" lon="5.90149">
        <ele>1848.192559971</ele>
        <time>2015-05-28T15:16:38Z</time>
      </trkpt>
      <trkpt lat="45.36287" lon="5.90149">
        <ele>1848.192559971</ele>
        <time>2015-05-28T15:16:43Z</time>
      </trkpt>
      <trkpt lat="45.36287" lon="5.9015">
        <ele>1848.192559971</ele>
        <time>2015-05-28T15:16:48Z</time>
      </trkpt>
      <trkpt lat="45.3629" lon="5.90153">
        <ele>1849.035957945</ele>
        <time>2015-05-28T15:16:53Z</time>
      </trkpt>
      <trkpt lat="45.36303" lon="5.90155">
        <ele>1849.074388499</ele>
        <time>2015-05-28T15:16:58Z</time>
      </trkpt>
      <trkpt lat="45.36298" lon="5.90175">
        <ele>1849.240189298</ele>
        <time>2015-05-28T15:17:03Z</time>
      </trkpt>
      <trkpt lat="45.36294" lon="5.90189">
        <ele>1849.243780563</ele>
        <time>2015-05-28T15:17:08Z</time>
      </trkpt>
      <trkpt lat="45.36308" lon="5.90194">
        <ele>1849.249451424</ele>
        <time>2015-05-28T15:17:13Z</time>
      </trkpt>
      <trkpt lat="45.36306" lon="5.90203">
        <ele>1849.454337816</ele>
        <time>2015-05-28T15:17:18Z</time>
      </trkpt>
      <trkpt lat="45.36293" lon="5.90224">
        <ele>1849.659224207</ele>
        <time>2015-05-28T15:17:23Z</time>
      </trkpt>
      <trkpt lat="45.36288" lon="5.90228">
        <ele>1849.864110599</ele>
        <time>2015-05-28T15:17:28Z</time>
      </trkpt>
      <trkpt lat="45.36286" lon="5.90229">
        <ele>1850.06899699</ele>
        <time>2015-05-28T15:17:33Z</time>
      </trkpt>
      <trkpt lat="45.363" lon="5.90221">
        <ele>1850.273883381</ele>
        <time>2015-05-28T15:17:44Z</time>
      </trkpt>
      <trkpt lat="45.363" lon="5.90221">
        <ele>1850.273883381</ele>
        <time>2015-05-28T15:17:48Z</time>
      </trkpt>
      <trkpt lat="45.36305" lon="5.90217">
        <ele>1850.273883381</ele>
        <time>2015-05-28T15:17:53Z</time>
      </trkpt>
      <trkpt lat="45.36308" lon="5.90214">
        <ele>1851.382564196</ele>
        <time>2015-05-28T15:17:58Z</time>
      </trkpt>
      <trkpt lat="45.36307" lon="5.90215">
        <ele>1851.382564196</ele>
        <time>2015-05-28T15:18:03Z</time>
      </trkpt>
      <trkpt lat="45.36308" lon="5.9022">
        <ele>1851.382564196</ele>
        <time>2015-05-28T15:18:08Z</time>
      </trkpt>
      <trkpt lat="45.36307" lon="5.90223">
        <ele>1851.382564196</ele>
        <time>2015-05-28T15:18:13Z</time>
      </trkpt>
      <trkpt lat="45.36308" lon="5.90222">
        <ele>1851.382564196</ele>
        <time>2015-05-28T15:18:18Z</time>
      </trkpt>
      <trkpt lat="45.36308" lon="5.90222">
        <ele>1851.382564196</ele>
        <time>2015-05-28T15:18:23Z</time>
      </trkpt>
      <trkpt lat="45.36308" lon="5.90222">
        <ele>1851.382564196</ele>
        <time>2015-05-28T15:18:28Z</time>
      </trkpt>
      <trkpt lat="45.36308" lon="5.90222">
        <ele>1851.382564196</ele>
        <time>2015-05-28T15:18:33Z</time>
      </trkpt>
      <trkpt lat="45.36308" lon="5.90222">
        <ele>1851.382564196</ele>
        <time>2015-05-28T15:18:38Z</time>
      </trkpt>
      <trkpt lat="45.36308" lon="5.90222">
        <ele>1851.382564196</ele>
        <time>2015-05-28T15:18:43Z</time>
      </trkpt>
      <trkpt lat="45.36308" lon="5.90222">
        <ele>1851.382564196</ele>
        <time>2015-05-28T15:18:48Z</time>
      </trkpt>
      <trkpt lat="45.36308" lon="5.90222">
        <ele>1851.382564196</ele>
        <time>2015-05-28T15:18:53Z</time>
      </trkpt>
      <trkpt lat="45.36308" lon="5.90222">
        <ele>1851.382564196</ele>
        <time>2015-05-28T15:18:58Z</time>
      </trkpt>
      <trkpt lat="45.36308" lon="5.90222">
        <ele>1851.382564196</ele>
        <time>2015-05-28T15:19:03Z</time>
      </trkpt>
      <trkpt lat="45.36308" lon="5.90222">
        <ele>1851.382564196</ele>
        <time>2015-05-28T15:19:08Z</time>
      </trkpt>
      <trkpt lat="45.36308" lon="5.90222">
        <ele>1851.382564196</ele>
        <time>2015-05-28T15:19:14Z</time>
      </trkpt>
      <trkpt lat="45.36308" lon="5.90222">
        <ele>1851.382564196</ele>
        <time>2015-05-28T15:19:18Z</time>
      </trkpt>
      <trkpt lat="45.36308" lon="5.90222">
        <ele>1851.382564196</ele>
        <time>2015-05-28T15:19:24Z</time>
      </trkpt>
      <trkpt lat="45.36308" lon="5.90222">
        <ele>1851.382564196</ele>
        <time>2015-05-28T15:19:29Z</time>
      </trkpt>
      <trkpt lat="45.36308" lon="5.90222">
        <ele>1851.382564196</ele>
        <time>2015-05-28T15:19:33Z</time>
      </trkpt>
      <trkpt lat="45.36308" lon="5.90222">
        <ele>1851.382564196</ele>
        <time>2015-05-28T15:19:39Z</time>
      </trkpt>
      <trkpt lat="45.36308" lon="5.90222">
        <ele>1851.382564196</ele>
        <time>2015-05-28T15:19:44Z</time>
      </trkpt>
      <trkpt lat="45.36308" lon="5.90222">
        <ele>1851.382564196</ele>
        <time>2015-05-28T15:19:53Z</time>
      </trkpt>
      <trkpt lat="45.36308" lon="5.90222">
        <ele>1851.382564196</ele>
        <time>2015-05-28T15:19:58Z</time>
      </trkpt>
      <trkpt lat="45.36308" lon="5.90222">
        <ele>1851.382564196</ele>
        <time>2015-05-28T15:20:03Z</time>
      </trkpt>
      <trkpt lat="45.36308" lon="5.90222">
        <ele>1851.382564196</ele>
        <time>2015-05-28T15:20:08Z</time>
      </trkpt>
      <trkpt lat="45.36308" lon="5.90222">
        <ele>1851.382564196</ele>
        <time>2015-05-28T15:20:15Z</time>
      </trkpt>
      <trkpt lat="45.36308" lon="5.90222">
        <ele>1851.382564196</ele>
        <time>2015-05-28T15:20:18Z</time>
      </trkpt>
      <trkpt lat="45.36308" lon="5.90222">
        <ele>1851.382564196</ele>
        <time>2015-05-28T15:20:23Z</time>
      </trkpt>
      <trkpt lat="45.36308" lon="5.90222">
        <ele>1851.382564196</ele>
        <time>2015-05-28T15:20:28Z</time>
      </trkpt>
      <trkpt lat="45.36308" lon="5.90222">
        <ele>1851.382564196</ele>
        <time>2015-05-28T15:20:33Z</time>
      </trkpt>
      <trkpt lat="45.36308" lon="5.90222">
        <ele>1851.382564196</ele>
        <time>2015-05-28T15:20:38Z</time>
      </trkpt>
      <trkpt lat="45.36308" lon="5.90222">
        <ele>1851.382564196</ele>
        <time>2015-05-28T15:20:43Z</time>
      </trkpt>
      <trkpt lat="45.36308" lon="5.90222">
        <ele>1851.382564196</ele>
        <time>2015-05-28T15:20:48Z</time>
      </trkpt>
      <trkpt lat="45.36308" lon="5.90222">
        <ele>1851.382564196</ele>
        <time>2015-05-28T15:20:53Z</time>
      </trkpt>
      <trkpt lat="45.36308" lon="5.90222">
        <ele>1851.382564196</ele>
        <time>2015-05-28T15:20:58Z</time>
      </trkpt>
      <trkpt lat="45.36308" lon="5.90222">
        <ele>1851.382564196</ele>
        <time>2015-05-28T15:21:05Z</time>
      </trkpt>
      <trkpt lat="45.36308" lon="5.90222">
        <ele>1851.382564196</ele>
        <time>2015-05-28T15:21:08Z</time>
      </trkpt>
      <trkpt lat="45.36308" lon="5.90222">
        <ele>1851.382564196</ele>
        <time>2015-05-28T15:21:13Z</time>
      </trkpt>
      <trkpt lat="45.36308" lon="5.90222">
        <ele>1851.382564196</ele>
        <time>2015-05-28T15:21:18Z</time>
      </trkpt>
      <trkpt lat="45.36308" lon="5.90222">
        <ele>1851.382564196</ele>
        <time>2015-05-28T15:21:23Z</time>
      </trkpt>
      <trkpt lat="45.36308" lon="5.90222">
        <ele>1851.382564196</ele>
        <time>2015-05-28T15:21:29Z</time>
      </trkpt>
      <trkpt lat="45.36308" lon="5.90222">
        <ele>1851.382564196</ele>
        <time>2015-05-28T15:21:34Z</time>
      </trkpt>
      <trkpt lat="45.36308" lon="5.90222">
        <ele>1851.382564196</ele>
        <time>2015-05-28T15:21:38Z</time>
      </trkpt>
      <trkpt lat="45.36308" lon="5.90222">
        <ele>1851.382564196</ele>
        <time>2015-05-28T15:21:45Z</time>
      </trkpt>
      <trkpt lat="45.36308" lon="5.90222">
        <ele>1851.382564196</ele>
        <time>2015-05-28T15:21:48Z</time>
      </trkpt>
      <trkpt lat="45.36308" lon="5.90222">
        <ele>1851.382564196</ele>
        <time>2015-05-28T15:21:53Z</time>
      </trkpt>
      <trkpt lat="45.36312" lon="5.90221">
        <ele>1852.717964169</ele>
        <time>2015-05-28T15:21:59Z</time>
      </trkpt>
      <trkpt lat="45.36314" lon="5.90207">
        <ele>1852.970131384</ele>
        <time>2015-05-28T15:22:04Z</time>
      </trkpt>
      <trkpt lat="45.36317" lon="5.90202">
        <ele>1852.970131384</ele>
        <time>2015-05-28T15:22:08Z</time>
      </trkpt>
      <trkpt lat="45.36319" lon="5.902">
        <ele>1852.970131384</ele>
        <time>2015-05-28T15:22:13Z</time>
      </trkpt>
      <trkpt lat="45.36318" lon="5.902">
        <ele>1852.970131384</ele>
        <time>2015-05-28T15:22:18Z</time>
      </trkpt>
      <trkpt lat="45.3632" lon="5.902">
        <ele>1852.970131384</ele>
        <time>2015-05-28T15:22:23Z</time>
      </trkpt>
      <trkpt lat="45.3632" lon="5.902">
        <ele>1853.089840021</ele>
        <time>2015-05-28T15:22:29Z</time>
      </trkpt>
      <trkpt lat="45.3632" lon="5.902">
        <ele>1853.089840021</ele>
        <time>2015-05-28T15:22:33Z</time>
      </trkpt>
      <trkpt lat="45.3632" lon="5.902">
        <ele>1853.089840021</ele>
        <time>2015-05-28T15:22:38Z</time>
      </trkpt>
      <trkpt lat="45.36321" lon="5.902">
        <ele>1853.089840021</ele>
        <time>2015-05-28T15:22:44Z</time>
      </trkpt>
      <trkpt lat="45.36325" lon="5.902">
        <ele>1853.089840021</ele>
        <time>2015-05-28T15:22:49Z</time>
      </trkpt>
      <trkpt lat="45.36342" lon="5.90195">
        <ele>1852.084735968</ele>
        <time>2015-05-28T15:22:53Z</time>
      </trkpt>
      <trkpt lat="45.36347" lon="5.90198">
        <ele>1852.084735968</ele>
        <time>2015-05-28T15:22:58Z</time>
      </trkpt>
      <trkpt lat="45.36356" lon="5.90195">
        <ele>1851.199968919</ele>
        <time>2015-05-28T15:23:04Z</time>
      </trkpt>
      <trkpt lat="45.36354" lon="5.9019">
        <ele>1851.199968919</ele>
        <time>2015-05-28T15:23:08Z</time>
      </trkpt>
      <trkpt lat="45.36359" lon="5.90182">
        <ele>1849.840381325</ele>
        <time>2015-05-28T15:23:14Z</time>
      </trkpt>
      <trkpt lat="45.36364" lon="5.90182">
        <ele>1848.48079373</ele>
        <time>2015-05-28T15:23:18Z</time>
      </trkpt>
      <trkpt lat="45.36367" lon="5.90183">
        <ele>1847.121206136</ele>
        <time>2015-05-28T15:23:23Z</time>
      </trkpt>
      <trkpt lat="45.36368" lon="5.90184">
        <ele>1847.121206136</ele>
        <time>2015-05-28T15:23:28Z</time>
      </trkpt>
      <trkpt lat="45.36367" lon="5.90185">
        <ele>1847.121206136</ele>
        <time>2015-05-28T15:23:34Z</time>
      </trkpt>
      <trkpt lat="45.36367" lon="5.90185">
        <ele>1847.121206136</ele>
        <time>2015-05-28T15:23:39Z</time>
      </trkpt>
      <trkpt lat="45.36367" lon="5.90185">
        <ele>1847.121206136</ele>
        <time>2015-05-28T15:23:43Z</time>
      </trkpt>
      <trkpt lat="45.36367" lon="5.90185">
        <ele>1847.121206136</ele>
        <time>2015-05-28T15:23:48Z</time>
      </trkpt>
      <trkpt lat="45.36367" lon="5.90185">
        <ele>1847.121206136</ele>
        <time>2015-05-28T15:23:53Z</time>
      </trkpt>
      <trkpt lat="45.36367" lon="5.90185">
        <ele>1847.121206136</ele>
        <time>2015-05-28T15:23:58Z</time>
      </trkpt>
      <trkpt lat="45.36367" lon="5.90185">
        <ele>1847.121206136</ele>
        <time>2015-05-28T15:24:03Z</time>
      </trkpt>
      <trkpt lat="45.36372" lon="5.90182">
        <ele>1847.121206136</ele>
        <time>2015-05-28T15:24:09Z</time>
      </trkpt>
      <trkpt lat="45.36388" lon="5.9018">
        <ele>1841.109626284</ele>
        <time>2015-05-28T15:24:14Z</time>
      </trkpt>
      <trkpt lat="45.36394" lon="5.90184">
        <ele>1837.436040721</ele>
        <time>2015-05-28T15:24:19Z</time>
      </trkpt>
      <trkpt lat="45.36403" lon="5.90186">
        <ele>1833.762455158</ele>
        <time>2015-05-28T15:24:24Z</time>
      </trkpt>
      <trkpt lat="45.36406" lon="5.90198">
        <ele>1833.762455158</ele>
        <time>2015-05-28T15:24:28Z</time>
      </trkpt>
      <trkpt lat="45.36406" lon="5.90209">
        <ele>1831.833257226</ele>
        <time>2015-05-28T15:24:33Z</time>
      </trkpt>
      <trkpt lat="45.36406" lon="5.90209">
        <ele>1831.833257226</ele>
        <time>2015-05-28T15:24:38Z</time>
      </trkpt>
      <trkpt lat="45.36406" lon="5.90209">
        <ele>1831.833257226</ele>
        <time>2015-05-28T15:24:44Z</time>
      </trkpt>
      <trkpt lat="45.36406" lon="5.90209">
        <ele>1831.833257226</ele>
        <time>2015-05-28T15:24:48Z</time>
      </trkpt>
      <trkpt lat="45.36406" lon="5.90209">
        <ele>1831.833257226</ele>
        <time>2015-05-28T15:24:53Z</time>
      </trkpt>
      <trkpt lat="45.36406" lon="5.90209">
        <ele>1831.833257226</ele>
        <time>2015-05-28T15:24:58Z</time>
      </trkpt>
      <trkpt lat="45.36406" lon="5.90209">
        <ele>1831.833257226</ele>
        <time>2015-05-28T15:25:03Z</time>
      </trkpt>
      <trkpt lat="45.36406" lon="5.90209">
        <ele>1831.833257226</ele>
        <time>2015-05-28T15:25:08Z</time>
      </trkpt>
      <trkpt lat="45.36406" lon="5.90209">
        <ele>1831.833257226</ele>
        <time>2015-05-28T15:25:13Z</time>
      </trkpt>
      <trkpt lat="45.36406" lon="5.90209">
        <ele>1831.833257226</ele>
        <time>2015-05-28T15:25:19Z</time>
      </trkpt>
      <trkpt lat="45.36406" lon="5.90209">
        <ele>1831.809591913</ele>
        <time>2015-05-28T15:25:24Z</time>
      </trkpt>
      <trkpt lat="45.36406" lon="5.90209">
        <ele>1831.7859266</ele>
        <time>2015-05-28T15:25:29Z</time>
      </trkpt>
      <trkpt lat="45.36406" lon="5.90209">
        <ele>1831.762261287</ele>
        <time>2015-05-28T15:25:33Z</time>
      </trkpt>
      <trkpt lat="45.36407" lon="5.9021">
        <ele>1831.738595974</ele>
        <time>2015-05-28T15:26:03Z</time>
      </trkpt>
      <trkpt lat="45.36407" lon="5.90212">
        <ele>1831.714930661</ele>
        <time>2015-05-28T15:26:09Z</time>
      </trkpt>
      <trkpt lat="45.36408" lon="5.90216">
        <ele>1831.691265349</ele>
        <time>2015-05-28T15:26:14Z</time>
      </trkpt>
      <trkpt lat="45.36408" lon="5.90216">
        <ele>1831.667600036</ele>
        <time>2015-05-28T15:26:19Z</time>
      </trkpt>
      <trkpt lat="45.36429" lon="5.90211">
        <ele>1831.643934723</ele>
        <time>2015-05-28T15:26:24Z</time>
      </trkpt>
      <trkpt lat="45.36439" lon="5.90204">
        <ele>1831.62026941</ele>
        <time>2015-05-28T15:26:29Z</time>
      </trkpt>
      <trkpt lat="45.36441" lon="5.90201">
        <ele>1831.62026941</ele>
        <time>2015-05-28T15:26:34Z</time>
      </trkpt>
      <trkpt lat="45.36445" lon="5.90197">
        <ele>1831.62026941</ele>
        <time>2015-05-28T15:26:39Z</time>
      </trkpt>
      <trkpt lat="45.36448" lon="5.90197">
        <ele>1830.120812185</ele>
        <time>2015-05-28T15:26:44Z</time>
      </trkpt>
      <trkpt lat="45.3645" lon="5.90196">
        <ele>1830.120812185</ele>
        <time>2015-05-28T15:26:49Z</time>
      </trkpt>
      <trkpt lat="45.3645" lon="5.90197">
        <ele>1830.120812185</ele>
        <time>2015-05-28T15:26:54Z</time>
      </trkpt>
      <trkpt lat="45.3645" lon="5.90197">
        <ele>1830.120812185</ele>
        <time>2015-05-28T15:26:58Z</time>
      </trkpt>
      <trkpt lat="45.3645" lon="5.90197">
        <ele>1830.120812185</ele>
        <time>2015-05-28T15:27:05Z</time>
      </trkpt>
      <trkpt lat="45.3645" lon="5.90198">
        <ele>1830.120812185</ele>
        <time>2015-05-28T15:27:09Z</time>
      </trkpt>
      <trkpt lat="45.3645" lon="5.90198">
        <ele>1830.120812185</ele>
        <time>2015-05-28T15:27:14Z</time>
      </trkpt>
      <trkpt lat="45.3645" lon="5.90198">
        <ele>1830.120812185</ele>
        <time>2015-05-28T15:27:19Z</time>
      </trkpt>
      <trkpt lat="45.3645" lon="5.90198">
        <ele>1830.120812185</ele>
        <time>2015-05-28T15:27:24Z</time>
      </trkpt>
      <trkpt lat="45.3645" lon="5.90198">
        <ele>1830.120812185</ele>
        <time>2015-05-28T15:27:29Z</time>
      </trkpt>
      <trkpt lat="45.3645" lon="5.90198">
        <ele>1830.120812185</ele>
        <time>2015-05-28T15:27:34Z</time>
      </trkpt>
      <trkpt lat="45.3645" lon="5.90198">
        <ele>1830.120812185</ele>
        <time>2015-05-28T15:27:39Z</time>
      </trkpt>
      <trkpt lat="45.3645" lon="5.90198">
        <ele>1830.120812185</ele>
        <time>2015-05-28T15:27:44Z</time>
      </trkpt>
      <trkpt lat="45.3645" lon="5.90198">
        <ele>1830.120812185</ele>
        <time>2015-05-28T15:27:49Z</time>
      </trkpt>
      <trkpt lat="45.3645" lon="5.90198">
        <ele>1830.120812185</ele>
        <time>2015-05-28T15:27:53Z</time>
      </trkpt>
      <trkpt lat="45.3645" lon="5.90199">
        <ele>1830.120812185</ele>
        <time>2015-05-28T15:27:59Z</time>
      </trkpt>
      <trkpt lat="45.36449" lon="5.90202">
        <ele>1830.120812185</ele>
        <time>2015-05-28T15:28:44Z</time>
      </trkpt>
      <trkpt lat="45.36456" lon="5.90213">
        <ele>1830.054310974</ele>
        <time>2015-05-28T15:28:48Z</time>
      </trkpt>
      <trkpt lat="45.36464" lon="5.90234">
        <ele>1829.987809763</ele>
        <time>2015-05-28T15:28:53Z</time>
      </trkpt>
      <trkpt lat="45.3647" lon="5.90246">
        <ele>1829.921308552</ele>
        <time>2015-05-28T15:28:58Z</time>
      </trkpt>
      <trkpt lat="45.36468" lon="5.9025">
        <ele>1829.854807341</ele>
        <time>2015-05-28T15:29:03Z</time>
      </trkpt>
      <trkpt lat="45.36482" lon="5.90292">
        <ele>1829.78830613</ele>
        <time>2015-05-28T15:29:13Z</time>
      </trkpt>
      <trkpt lat="45.36482" lon="5.90295">
        <ele>1829.72180492</ele>
        <time>2015-05-28T15:29:18Z</time>
      </trkpt>
      <trkpt lat="45.3649" lon="5.90298">
        <ele>1829.655303709</ele>
        <time>2015-05-28T15:29:28Z</time>
      </trkpt>
      <trkpt lat="45.36495" lon="5.90303">
        <ele>1829.588802498</ele>
        <time>2015-05-28T15:29:34Z</time>
      </trkpt>
      <trkpt lat="45.36496" lon="5.90303">
        <ele>1829.522301287</ele>
        <time>2015-05-28T15:29:39Z</time>
      </trkpt>
      <trkpt lat="45.36496" lon="5.90303">
        <ele>1829.455800076</ele>
        <time>2015-05-28T15:29:43Z</time>
      </trkpt>
      <trkpt lat="45.36493" lon="5.90306">
        <ele>1829.455800076</ele>
        <time>2015-05-28T15:29:48Z</time>
      </trkpt>
      <trkpt lat="45.36493" lon="5.90307">
        <ele>1829.455800076</ele>
        <time>2015-05-28T15:29:53Z</time>
      </trkpt>
      <trkpt lat="45.36492" lon="5.90307">
        <ele>1829.455800076</ele>
        <time>2015-05-28T15:29:59Z</time>
      </trkpt>
      <trkpt lat="45.36501" lon="5.90319">
        <ele>1830.578866879</ele>
        <time>2015-05-28T15:30:03Z</time>
      </trkpt>
      <trkpt lat="45.36501" lon="5.90334">
        <ele>1833.215342992</ele>
        <time>2015-05-28T15:30:08Z</time>
      </trkpt>
      <trkpt lat="45.36503" lon="5.90345">
        <ele>1833.215342992</ele>
        <time>2015-05-28T15:30:13Z</time>
      </trkpt>
      <trkpt lat="45.36504" lon="5.90354">
        <ele>1837.970837818</ele>
        <time>2015-05-28T15:30:18Z</time>
      </trkpt>
      <trkpt lat="45.36503" lon="5.90355">
        <ele>1837.970837818</ele>
        <time>2015-05-28T15:30:23Z</time>
      </trkpt>
      <trkpt lat="45.36504" lon="5.90356">
        <ele>1837.970837818</ele>
        <time>2015-05-28T15:30:28Z</time>
      </trkpt>
      <trkpt lat="45.36503" lon="5.90356">
        <ele>1837.970837818</ele>
        <time>2015-05-28T15:30:33Z</time>
      </trkpt>
      <trkpt lat="45.36503" lon="5.90357">
        <ele>1837.970837818</ele>
        <time>2015-05-28T15:30:38Z</time>
      </trkpt>
      <trkpt lat="45.36506" lon="5.90357">
        <ele>1837.970837818</ele>
        <time>2015-05-28T15:30:44Z</time>
      </trkpt>
      <trkpt lat="45.3651" lon="5.90358">
        <ele>1842.950354434</ele>
        <time>2015-05-28T15:30:48Z</time>
      </trkpt>
      <trkpt lat="45.36516" lon="5.90358">
        <ele>1842.950354434</ele>
        <time>2015-05-28T15:30:54Z</time>
      </trkpt>
      <trkpt lat="45.36518" lon="5.90355">
        <ele>1847.982454923</ele>
        <time>2015-05-28T15:30:58Z</time>
      </trkpt>
      <trkpt lat="45.36518" lon="5.90353">
        <ele>1847.982454923</ele>
        <time>2015-05-28T15:31:05Z</time>
      </trkpt>
      <trkpt lat="45.36519" lon="5.90354">
        <ele>1847.982454923</ele>
        <time>2015-05-28T15:31:08Z</time>
      </trkpt>
      <trkpt lat="45.36518" lon="5.90353">
        <ele>1847.982454923</ele>
        <time>2015-05-28T15:31:14Z</time>
      </trkpt>
      <trkpt lat="45.36518" lon="5.90353">
        <ele>1847.982454923</ele>
        <time>2015-05-28T15:31:19Z</time>
      </trkpt>
      <trkpt lat="45.36518" lon="5.90353">
        <ele>1847.982454923</ele>
        <time>2015-05-28T15:31:24Z</time>
      </trkpt>
      <trkpt lat="45.36518" lon="5.90353">
        <ele>1847.982454923</ele>
        <time>2015-05-28T15:31:29Z</time>
      </trkpt>
      <trkpt lat="45.36518" lon="5.90353">
        <ele>1847.982454923</ele>
        <time>2015-05-28T15:31:34Z</time>
      </trkpt>
      <trkpt lat="45.36518" lon="5.90353">
        <ele>1847.982454923</ele>
        <time>2015-05-28T15:31:39Z</time>
      </trkpt>
      <trkpt lat="45.36518" lon="5.90353">
        <ele>1847.982454923</ele>
        <time>2015-05-28T15:31:44Z</time>
      </trkpt>
      <trkpt lat="45.36518" lon="5.90353">
        <ele>1847.982454923</ele>
        <time>2015-05-28T15:31:49Z</time>
      </trkpt>
      <trkpt lat="45.36518" lon="5.90353">
        <ele>1847.982454923</ele>
        <time>2015-05-28T15:31:54Z</time>
      </trkpt>
      <trkpt lat="45.36518" lon="5.90353">
        <ele>1847.982454923</ele>
        <time>2015-05-28T15:32:00Z</time>
      </trkpt>
      <trkpt lat="45.36518" lon="5.90353">
        <ele>1847.982454923</ele>
        <time>2015-05-28T15:32:04Z</time>
      </trkpt>
      <trkpt lat="45.36518" lon="5.90353">
        <ele>1847.982454923</ele>
        <time>2015-05-28T15:32:09Z</time>
      </trkpt>
      <trkpt lat="45.36518" lon="5.90353">
        <ele>1847.982454923</ele>
        <time>2015-05-28T15:32:14Z</time>
      </trkpt>
      <trkpt lat="45.36519" lon="5.90353">
        <ele>1847.982454923</ele>
        <time>2015-05-28T15:34:24Z</time>
      </trkpt>
      <trkpt lat="45.36519" lon="5.90353">
        <ele>1847.982454923</ele>
        <time>2015-05-28T15:34:28Z</time>
      </trkpt>
      <trkpt lat="45.36532" lon="5.90278">
        <ele>1848.296389093</ele>
        <time>2015-05-28T15:34:33Z</time>
      </trkpt>
      <trkpt lat="45.36543" lon="5.90257">
        <ele>1846.834598629</ele>
        <time>2015-05-28T15:34:38Z</time>
      </trkpt>
      <trkpt lat="45.36555" lon="5.90255">
        <ele>1845.175314606</ele>
        <time>2015-05-28T15:34:44Z</time>
      </trkpt>
      <trkpt lat="45.36568" lon="5.90256">
        <ele>1844.06068184</ele>
        <time>2015-05-28T15:34:48Z</time>
      </trkpt>
      <trkpt lat="45.36578" lon="5.90255">
        <ele>1843.958747376</ele>
        <time>2015-05-28T15:34:54Z</time>
      </trkpt>
      <trkpt lat="45.36582" lon="5.90254">
        <ele>1843.856812912</ele>
        <time>2015-05-28T15:35:00Z</time>
      </trkpt>
      <trkpt lat="45.36595" lon="5.90253">
        <ele>1843.754878447</ele>
        <time>2015-05-28T15:35:04Z</time>
      </trkpt>
      <trkpt lat="45.36598" lon="5.90252">
        <ele>1843.652943983</ele>
        <time>2015-05-28T15:35:08Z</time>
      </trkpt>
      <trkpt lat="45.36608" lon="5.90235">
        <ele>1843.551009518</ele>
        <time>2015-05-28T15:35:13Z</time>
      </trkpt>
      <trkpt lat="45.36609" lon="5.90233">
        <ele>1843.449075054</ele>
        <time>2015-05-28T15:35:19Z</time>
      </trkpt>
      <trkpt lat="45.36613" lon="5.90255">
        <ele>1843.34714059</ele>
        <time>2015-05-28T15:35:29Z</time>
      </trkpt>
      <trkpt lat="45.36616" lon="5.90243">
        <ele>1843.245206125</ele>
        <time>2015-05-28T15:35:34Z</time>
      </trkpt>
      <trkpt lat="45.36622" lon="5.90258">
        <ele>1843.143271661</ele>
        <time>2015-05-28T15:35:39Z</time>
      </trkpt>
      <trkpt lat="45.36625" lon="5.90259">
        <ele>1843.041337196</ele>
        <time>2015-05-28T15:35:44Z</time>
      </trkpt>
      <trkpt lat="45.36631" lon="5.90261">
        <ele>1842.939402732</ele>
        <time>2015-05-28T15:35:48Z</time>
      </trkpt>
      <trkpt lat="45.36634" lon="5.9025">
        <ele>1842.837468268</ele>
        <time>2015-05-28T15:35:55Z</time>
      </trkpt>
      <trkpt lat="45.36642" lon="5.90266">
        <ele>1842.735533803</ele>
        <time>2015-05-28T15:35:59Z</time>
      </trkpt>
      <trkpt lat="45.36648" lon="5.90262">
        <ele>1842.735533803</ele>
        <time>2015-05-28T15:36:04Z</time>
      </trkpt>
      <trkpt lat="45.36654" lon="5.90247">
        <ele>1841.365274505</ele>
        <time>2015-05-28T15:36:09Z</time>
      </trkpt>
      <trkpt lat="45.36655" lon="5.90237">
        <ele>1841.365274505</ele>
        <time>2015-05-28T15:36:14Z</time>
      </trkpt>
      <trkpt lat="45.3666" lon="5.90234">
        <ele>1839.40736708</ele>
        <time>2015-05-28T15:36:19Z</time>
      </trkpt>
      <trkpt lat="45.3666" lon="5.90235">
        <ele>1837.449459655</ele>
        <time>2015-05-28T15:36:24Z</time>
      </trkpt>
      <trkpt lat="45.36666" lon="5.90222">
        <ele>1835.49155223</ele>
        <time>2015-05-28T15:36:29Z</time>
      </trkpt>
      <trkpt lat="45.36667" lon="5.90216">
        <ele>1835.49155223</ele>
        <time>2015-05-28T15:36:33Z</time>
      </trkpt>
      <trkpt lat="45.3667" lon="5.90228">
        <ele>1829.786746064</ele>
        <time>2015-05-28T15:36:39Z</time>
      </trkpt>
      <trkpt lat="45.36675" lon="5.9023">
        <ele>1829.786746064</ele>
        <time>2015-05-28T15:36:44Z</time>
      </trkpt>
      <trkpt lat="45.3668" lon="5.90222">
        <ele>1826.70587377</ele>
        <time>2015-05-28T15:36:49Z</time>
      </trkpt>
      <trkpt lat="45.36682" lon="5.90209">
        <ele>1823.328010194</ele>
        <time>2015-05-28T15:36:53Z</time>
      </trkpt>
      <trkpt lat="45.36682" lon="5.9021">
        <ele>1823.328010194</ele>
        <time>2015-05-28T15:36:59Z</time>
      </trkpt>
      <trkpt lat="45.3668" lon="5.90211">
        <ele>1823.328010194</ele>
        <time>2015-05-28T15:37:04Z</time>
      </trkpt>
      <trkpt lat="45.36681" lon="5.9021">
        <ele>1823.328010194</ele>
        <time>2015-05-28T15:37:09Z</time>
      </trkpt>
      <trkpt lat="45.36681" lon="5.90209">
        <ele>1823.328010194</ele>
        <time>2015-05-28T15:37:14Z</time>
      </trkpt>
      <trkpt lat="45.36682" lon="5.90211">
        <ele>1823.328010194</ele>
        <time>2015-05-28T15:37:19Z</time>
      </trkpt>
      <trkpt lat="45.36682" lon="5.90211">
        <ele>1823.328010194</ele>
        <time>2015-05-28T15:37:24Z</time>
      </trkpt>
      <trkpt lat="45.36682" lon="5.90211">
        <ele>1823.328010194</ele>
        <time>2015-05-28T15:37:29Z</time>
      </trkpt>
      <trkpt lat="45.36682" lon="5.90211">
        <ele>1823.328010194</ele>
        <time>2015-05-28T15:37:34Z</time>
      </trkpt>
      <trkpt lat="45.36682" lon="5.90211">
        <ele>1823.328010194</ele>
        <time>2015-05-28T15:37:39Z</time>
      </trkpt>
      <trkpt lat="45.36682" lon="5.90211">
        <ele>1823.328010194</ele>
        <time>2015-05-28T15:37:43Z</time>
      </trkpt>
      <trkpt lat="45.36682" lon="5.90211">
        <ele>1823.328010194</ele>
        <time>2015-05-28T15:37:48Z</time>
      </trkpt>
      <trkpt lat="45.36687" lon="5.90209">
        <ele>1820.694266504</ele>
        <time>2015-05-28T15:37:53Z</time>
      </trkpt>
      <trkpt lat="45.36697" lon="5.90203">
        <ele>1817.317026727</ele>
        <time>2015-05-28T15:37:58Z</time>
      </trkpt>
      <trkpt lat="45.36704" lon="5.90203">
        <ele>1817.317026727</ele>
        <time>2015-05-28T15:38:04Z</time>
      </trkpt>
      <trkpt lat="45.36707" lon="5.90197">
        <ele>1814.846097214</ele>
        <time>2015-05-28T15:38:08Z</time>
      </trkpt>
      <trkpt lat="45.36711" lon="5.90195">
        <ele>1814.846097214</ele>
        <time>2015-05-28T15:38:15Z</time>
      </trkpt>
      <trkpt lat="45.36711" lon="5.90196">
        <ele>1814.846097214</ele>
        <time>2015-05-28T15:38:18Z</time>
      </trkpt>
      <trkpt lat="45.36712" lon="5.90198">
        <ele>1814.846097214</ele>
        <time>2015-05-28T15:38:24Z</time>
      </trkpt>
      <trkpt lat="45.36727" lon="5.90194">
        <ele>1811.636819056</ele>
        <time>2015-05-28T15:38:29Z</time>
      </trkpt>
      <trkpt lat="45.36737" lon="5.90197">
        <ele>1808.472911417</ele>
        <time>2015-05-28T15:38:33Z</time>
      </trkpt>
      <trkpt lat="45.36745" lon="5.90194">
        <ele>1808.472911417</ele>
        <time>2015-05-28T15:38:39Z</time>
      </trkpt>
      <trkpt lat="45.36754" lon="5.90199">
        <ele>1806.6565504</ele>
        <time>2015-05-28T15:38:44Z</time>
      </trkpt>
      <trkpt lat="45.36756" lon="5.90211">
        <ele>1805.372631719</ele>
        <time>2015-05-28T15:38:49Z</time>
      </trkpt>
      <trkpt lat="45.36767" lon="5.90211">
        <ele>1804.008264326</ele>
        <time>2015-05-28T15:38:54Z</time>
      </trkpt>
      <trkpt lat="45.36771" lon="5.90214">
        <ele>1804.008264326</ele>
        <time>2015-05-28T15:38:59Z</time>
      </trkpt>
      <trkpt lat="45.36774" lon="5.90218">
        <ele>1804.008264326</ele>
        <time>2015-05-28T15:39:04Z</time>
      </trkpt>
      <trkpt lat="45.36779" lon="5.90231">
        <ele>1803.004312433</ele>
        <time>2015-05-28T15:39:09Z</time>
      </trkpt>
      <trkpt lat="45.36781" lon="5.90236">
        <ele>1803.004312433</ele>
        <time>2015-05-28T15:39:14Z</time>
      </trkpt>
      <trkpt lat="45.36782" lon="5.90244">
        <ele>1803.056209923</ele>
        <time>2015-05-28T15:39:18Z</time>
      </trkpt>
      <trkpt lat="45.36797" lon="5.90243">
        <ele>1803.652215769</ele>
        <time>2015-05-28T15:39:24Z</time>
      </trkpt>
      <trkpt lat="45.36796" lon="5.90237">
        <ele>1803.652215769</ele>
        <time>2015-05-28T15:39:28Z</time>
      </trkpt>
      <trkpt lat="45.36796" lon="5.90237">
        <ele>1803.652215769</ele>
        <time>2015-05-28T15:39:33Z</time>
      </trkpt>
      <trkpt lat="45.36797" lon="5.90235">
        <ele>1803.652215769</ele>
        <time>2015-05-28T15:39:38Z</time>
      </trkpt>
      <trkpt lat="45.36797" lon="5.90236">
        <ele>1803.652215769</ele>
        <time>2015-05-28T15:39:43Z</time>
      </trkpt>
      <trkpt lat="45.36798" lon="5.90237">
        <ele>1803.652215769</ele>
        <time>2015-05-28T15:39:48Z</time>
      </trkpt>
      <trkpt lat="45.36798" lon="5.90236">
        <ele>1803.652215769</ele>
        <time>2015-05-28T15:39:53Z</time>
      </trkpt>
      <trkpt lat="45.36798" lon="5.90236">
        <ele>1803.652215769</ele>
        <time>2015-05-28T15:39:58Z</time>
      </trkpt>
      <trkpt lat="45.36798" lon="5.90236">
        <ele>1803.652215769</ele>
        <time>2015-05-28T15:40:04Z</time>
      </trkpt>
      <trkpt lat="45.36798" lon="5.90236">
        <ele>1803.652215769</ele>
        <time>2015-05-28T15:40:09Z</time>
      </trkpt>
      <trkpt lat="45.36798" lon="5.90236">
        <ele>1803.652215769</ele>
        <time>2015-05-28T15:40:13Z</time>
      </trkpt>
      <trkpt lat="45.36798" lon="5.90236">
        <ele>1803.652215769</ele>
        <time>2015-05-28T15:40:18Z</time>
      </trkpt>
      <trkpt lat="45.36798" lon="5.90236">
        <ele>1803.652215769</ele>
        <time>2015-05-28T15:40:23Z</time>
      </trkpt>
      <trkpt lat="45.36798" lon="5.90236">
        <ele>1803.652215769</ele>
        <time>2015-05-28T15:40:29Z</time>
      </trkpt>
      <trkpt lat="45.36795" lon="5.9024">
        <ele>1801.578321844</ele>
        <time>2015-05-28T15:40:34Z</time>
      </trkpt>
      <trkpt lat="45.36794" lon="5.90239">
        <ele>1801.578321844</ele>
        <time>2015-05-28T15:40:38Z</time>
      </trkpt>
      <trkpt lat="45.36792" lon="5.90241">
        <ele>1801.578321844</ele>
        <time>2015-05-28T15:40:43Z</time>
      </trkpt>
      <trkpt lat="45.36792" lon="5.9024">
        <ele>1801.578321844</ele>
        <time>2015-05-28T15:40:48Z</time>
      </trkpt>
      <trkpt lat="45.36792" lon="5.9024">
        <ele>1801.578321844</ele>
        <time>2015-05-28T15:40:53Z</time>
      </trkpt>
      <trkpt lat="45.36792" lon="5.9024">
        <ele>1801.578321844</ele>
        <time>2015-05-28T15:40:58Z</time>
      </trkpt>
      <trkpt lat="45.36792" lon="5.9024">
        <ele>1801.578321844</ele>
        <time>2015-05-28T15:41:03Z</time>
      </trkpt>
      <trkpt lat="45.36793" lon="5.9024">
        <ele>1801.578321844</ele>
        <time>2015-05-28T15:41:08Z</time>
      </trkpt>
      <trkpt lat="45.36793" lon="5.9024">
        <ele>1801.578321844</ele>
        <time>2015-05-28T15:41:13Z</time>
      </trkpt>
      <trkpt lat="45.36793" lon="5.9024">
        <ele>1801.578321844</ele>
        <time>2015-05-28T15:41:19Z</time>
      </trkpt>
      <trkpt lat="45.36793" lon="5.9024">
        <ele>1801.578321844</ele>
        <time>2015-05-28T15:41:24Z</time>
      </trkpt>
      <trkpt lat="45.36793" lon="5.9024">
        <ele>1801.578321844</ele>
        <time>2015-05-28T15:41:28Z</time>
      </trkpt>
      <trkpt lat="45.36793" lon="5.9024">
        <ele>1801.578321844</ele>
        <time>2015-05-28T15:41:33Z</time>
      </trkpt>
      <trkpt lat="45.36793" lon="5.9024">
        <ele>1801.578321844</ele>
        <time>2015-05-28T15:41:38Z</time>
      </trkpt>
      <trkpt lat="45.36793" lon="5.9024">
        <ele>1801.578321844</ele>
        <time>2015-05-28T15:41:44Z</time>
      </trkpt>
      <trkpt lat="45.36793" lon="5.9024">
        <ele>1801.578321844</ele>
        <time>2015-05-28T15:41:49Z</time>
      </trkpt>
      <trkpt lat="45.36793" lon="5.9024">
        <ele>1801.578321844</ele>
        <time>2015-05-28T15:41:54Z</time>
      </trkpt>
      <trkpt lat="45.36793" lon="5.9024">
        <ele>1801.578321844</ele>
        <time>2015-05-28T15:41:58Z</time>
      </trkpt>
      <trkpt lat="45.36793" lon="5.9024">
        <ele>1801.578321844</ele>
        <time>2015-05-28T15:42:04Z</time>
      </trkpt>
      <trkpt lat="45.36793" lon="5.9024">
        <ele>1801.578321844</ele>
        <time>2015-05-28T15:42:08Z</time>
      </trkpt>
      <trkpt lat="45.36793" lon="5.9024">
        <ele>1801.578321844</ele>
        <time>2015-05-28T15:42:13Z</time>
      </trkpt>
      <trkpt lat="45.36793" lon="5.90239">
        <ele>1801.578321844</ele>
        <time>2015-05-28T15:42:18Z</time>
      </trkpt>
      <trkpt lat="45.36797" lon="5.90242">
        <ele>1801.578321844</ele>
        <time>2015-05-28T15:42:25Z</time>
      </trkpt>
      <trkpt lat="45.36804" lon="5.90249">
        <ele>1796.890234452</ele>
        <time>2015-05-28T15:42:28Z</time>
      </trkpt>
      <trkpt lat="45.36805" lon="5.90247">
        <ele>1796.890234452</ele>
        <time>2015-05-28T15:42:33Z</time>
      </trkpt>
      <trkpt lat="45.36809" lon="5.90249">
        <ele>1796.890234452</ele>
        <time>2015-05-28T15:42:38Z</time>
      </trkpt>
      <trkpt lat="45.36811" lon="5.9025">
        <ele>1796.890234452</ele>
        <time>2015-05-28T15:42:45Z</time>
      </trkpt>
      <trkpt lat="45.36811" lon="5.90249">
        <ele>1796.890234452</ele>
        <time>2015-05-28T15:42:49Z</time>
      </trkpt>
      <trkpt lat="45.36812" lon="5.9025">
        <ele>1796.890234452</ele>
        <time>2015-05-28T15:42:54Z</time>
      </trkpt>
      <trkpt lat="45.36812" lon="5.9025">
        <ele>1796.890234452</ele>
        <time>2015-05-28T15:42:59Z</time>
      </trkpt>
      <trkpt lat="45.36812" lon="5.9025">
        <ele>1795.411149436</ele>
        <time>2015-05-28T15:43:03Z</time>
      </trkpt>
      <trkpt lat="45.36812" lon="5.9025">
        <ele>1795.411149436</ele>
        <time>2015-05-28T15:43:09Z</time>
      </trkpt>
      <trkpt lat="45.36812" lon="5.9025">
        <ele>1795.411149436</ele>
        <time>2015-05-28T15:43:15Z</time>
      </trkpt>
      <trkpt lat="45.36812" lon="5.90249">
        <ele>1795.411149436</ele>
        <time>2015-05-28T15:43:18Z</time>
      </trkpt>
      <trkpt lat="45.36811" lon="5.90249">
        <ele>1795.411149436</ele>
        <time>2015-05-28T15:43:24Z</time>
      </trkpt>
      <trkpt lat="45.36811" lon="5.90249">
        <ele>1795.411149436</ele>
        <time>2015-05-28T15:43:28Z</time>
      </trkpt>
      <trkpt lat="45.36811" lon="5.90249">
        <ele>1795.411149436</ele>
        <time>2015-05-28T15:43:34Z</time>
      </trkpt>
      <trkpt lat="45.36811" lon="5.90249">
        <ele>1795.411149436</ele>
        <time>2015-05-28T15:43:38Z</time>
      </trkpt>
      <trkpt lat="45.36811" lon="5.90249">
        <ele>1795.411149436</ele>
        <time>2015-05-28T15:43:44Z</time>
      </trkpt>
      <trkpt lat="45.36811" lon="5.90249">
        <ele>1795.411149436</ele>
        <time>2015-05-28T15:43:49Z</time>
      </trkpt>
      <trkpt lat="45.36811" lon="5.90248">
        <ele>1795.411149436</ele>
        <time>2015-05-28T15:43:54Z</time>
      </trkpt>
      <trkpt lat="45.36811" lon="5.90248">
        <ele>1795.411149436</ele>
        <time>2015-05-28T15:43:59Z</time>
      </trkpt>
      <trkpt lat="45.36811" lon="5.90248">
        <ele>1795.411149436</ele>
        <time>2015-05-28T15:44:04Z</time>
      </trkpt>
      <trkpt lat="45.36811" lon="5.90248">
        <ele>1795.411149436</ele>
        <time>2015-05-28T15:44:09Z</time>
      </trkpt>
      <trkpt lat="45.36811" lon="5.90248">
        <ele>1795.411149436</ele>
        <time>2015-05-28T15:44:14Z</time>
      </trkpt>
      <trkpt lat="45.36811" lon="5.90248">
        <ele>1795.411149436</ele>
        <time>2015-05-28T15:44:18Z</time>
      </trkpt>
      <trkpt lat="45.36811" lon="5.90248">
        <ele>1795.411149436</ele>
        <time>2015-05-28T15:44:28Z</time>
      </trkpt>
      <trkpt lat="45.36812" lon="5.90246">
        <ele>1795.411149436</ele>
        <time>2015-05-28T15:44:49Z</time>
      </trkpt>
      <trkpt lat="45.36812" lon="5.90246">
        <ele>1795.411149436</ele>
        <time>2015-05-28T15:44:53Z</time>
      </trkpt>
      <trkpt lat="45.36812" lon="5.90246">
        <ele>1795.411149436</ele>
        <time>2015-05-28T15:44:58Z</time>
      </trkpt>
      <trkpt lat="45.36812" lon="5.90246">
        <ele>1795.411149436</ele>
        <time>2015-05-28T15:45:04Z</time>
      </trkpt>
      <trkpt lat="45.36812" lon="5.90246">
        <ele>1795.411149436</ele>
        <time>2015-05-28T15:45:08Z</time>
      </trkpt>
      <trkpt lat="45.36812" lon="5.90246">
        <ele>1795.411149436</ele>
        <time>2015-05-28T15:45:13Z</time>
      </trkpt>
      <trkpt lat="45.36812" lon="5.90246">
        <ele>1795.411149436</ele>
        <time>2015-05-28T15:45:18Z</time>
      </trkpt>
      <trkpt lat="45.36812" lon="5.90246">
        <ele>1795.411149436</ele>
        <time>2015-05-28T15:45:24Z</time>
      </trkpt>
      <trkpt lat="45.36812" lon="5.90245">
        <ele>1795.411149436</ele>
        <time>2015-05-28T15:45:28Z</time>
      </trkpt>
      <trkpt lat="45.36811" lon="5.90242">
        <ele>1795.411149436</ele>
        <time>2015-05-28T15:45:33Z</time>
      </trkpt>
      <trkpt lat="45.36811" lon="5.90241">
        <ele>1795.411149436</ele>
        <time>2015-05-28T15:45:38Z</time>
      </trkpt>
      <trkpt lat="45.36811" lon="5.90241">
        <ele>1795.411149436</ele>
        <time>2015-05-28T15:45:43Z</time>
      </trkpt>
      <trkpt lat="45.36811" lon="5.9024">
        <ele>1795.411149436</ele>
        <time>2015-05-28T15:45:48Z</time>
      </trkpt>
      <trkpt lat="45.36811" lon="5.90239">
        <ele>1795.411149436</ele>
        <time>2015-05-28T15:45:53Z</time>
      </trkpt>
      <trkpt lat="45.36811" lon="5.90239">
        <ele>1795.411149436</ele>
        <time>2015-05-28T15:45:58Z</time>
      </trkpt>
      <trkpt lat="45.36811" lon="5.90238">
        <ele>1795.411149436</ele>
        <time>2015-05-28T15:46:03Z</time>
      </trkpt>
      <trkpt lat="45.36811" lon="5.90238">
        <ele>1795.411149436</ele>
        <time>2015-05-28T15:46:09Z</time>
      </trkpt>
      <trkpt lat="45.36811" lon="5.90238">
        <ele>1795.411149436</ele>
        <time>2015-05-28T15:46:14Z</time>
      </trkpt>
      <trkpt lat="45.36814" lon="5.90223">
        <ele>1794.168850761</ele>
        <time>2015-05-28T15:46:18Z</time>
      </trkpt>
      <trkpt lat="45.36815" lon="5.90221">
        <ele>1794.168850761</ele>
        <time>2015-05-28T15:46:24Z</time>
      </trkpt>
      <trkpt lat="45.36815" lon="5.90223">
        <ele>1794.168850761</ele>
        <time>2015-05-28T15:46:29Z</time>
      </trkpt>
      <trkpt lat="45.36816" lon="5.90225">
        <ele>1794.168850761</ele>
        <time>2015-05-28T15:46:34Z</time>
      </trkpt>
      <trkpt lat="45.36816" lon="5.90226">
        <ele>1794.168850761</ele>
        <time>2015-05-28T15:46:38Z</time>
      </trkpt>
      <trkpt lat="45.36816" lon="5.90226">
        <ele>1794.168850761</ele>
        <time>2015-05-28T15:46:44Z</time>
      </trkpt>
      <trkpt lat="45.36816" lon="5.90226">
        <ele>1794.168850761</ele>
        <time>2015-05-28T15:46:48Z</time>
      </trkpt>
      <trkpt lat="45.36819" lon="5.9023">
        <ele>1793.002606381</ele>
        <time>2015-05-28T15:46:53Z</time>
      </trkpt>
      <trkpt lat="45.36818" lon="5.9023">
        <ele>1793.002606381</ele>
        <time>2015-05-28T15:46:59Z</time>
      </trkpt>
      <trkpt lat="45.36818" lon="5.90233">
        <ele>1793.002606381</ele>
        <time>2015-05-28T15:47:04Z</time>
      </trkpt>
      <trkpt lat="45.36818" lon="5.90231">
        <ele>1793.002606381</ele>
        <time>2015-05-28T15:47:09Z</time>
      </trkpt>
      <trkpt lat="45.36821" lon="5.90236">
        <ele>1793.002606381</ele>
        <time>2015-05-28T15:47:14Z</time>
      </trkpt>
      <trkpt lat="45.36819" lon="5.90231">
        <ele>1791.618983866</ele>
        <time>2015-05-28T15:47:18Z</time>
      </trkpt>
      <trkpt lat="45.3682" lon="5.90231">
        <ele>1791.618983866</ele>
        <time>2015-05-28T15:47:24Z</time>
      </trkpt>
      <trkpt lat="45.3682" lon="5.90229">
        <ele>1791.618983866</ele>
        <time>2015-05-28T15:47:28Z</time>
      </trkpt>
      <trkpt lat="45.36821" lon="5.90229">
        <ele>1791.618983866</ele>
        <time>2015-05-28T15:47:33Z</time>
      </trkpt>
      <trkpt lat="45.36821" lon="5.90229">
        <ele>1791.618983866</ele>
        <time>2015-05-28T15:47:39Z</time>
      </trkpt>
      <trkpt lat="45.36821" lon="5.90229">
        <ele>1791.618983866</ele>
        <time>2015-05-28T15:47:43Z</time>
      </trkpt>
      <trkpt lat="45.36822" lon="5.90236">
        <ele>1791.618983866</ele>
        <time>2015-05-28T15:47:48Z</time>
      </trkpt>
      <trkpt lat="45.36824" lon="5.90239">
        <ele>1790.467100641</ele>
        <time>2015-05-28T15:47:54Z</time>
      </trkpt>
      <trkpt lat="45.36827" lon="5.90244">
        <ele>1790.467100641</ele>
        <time>2015-05-28T15:47:59Z</time>
      </trkpt>
      <trkpt lat="45.36825" lon="5.90237">
        <ele>1788.953494101</ele>
        <time>2015-05-28T15:48:04Z</time>
      </trkpt>
      <trkpt lat="45.36826" lon="5.90238">
        <ele>1788.953494101</ele>
        <time>2015-05-28T15:48:09Z</time>
      </trkpt>
      <trkpt lat="45.36825" lon="5.9024">
        <ele>1788.953494101</ele>
        <time>2015-05-28T15:48:14Z</time>
      </trkpt>
      <trkpt lat="45.36827" lon="5.90246">
        <ele>1788.953494101</ele>
        <time>2015-05-28T15:48:19Z</time>
      </trkpt>
      <trkpt lat="45.36827" lon="5.90247">
        <ele>1788.953494101</ele>
        <time>2015-05-28T15:48:24Z</time>
      </trkpt>
      <trkpt lat="45.36827" lon="5.90249">
        <ele>1788.834943594</ele>
        <time>2015-05-28T15:48:28Z</time>
      </trkpt>
      <trkpt lat="45.36827" lon="5.9025">
        <ele>1788.834943594</ele>
        <time>2015-05-28T15:48:34Z</time>
      </trkpt>
      <trkpt lat="45.36826" lon="5.90253">
        <ele>1788.834943594</ele>
        <time>2015-05-28T15:48:39Z</time>
      </trkpt>
      <trkpt lat="45.36827" lon="5.90253">
        <ele>1788.834943594</ele>
        <time>2015-05-28T15:48:44Z</time>
      </trkpt>
      <trkpt lat="45.36826" lon="5.90252">
        <ele>1788.834943594</ele>
        <time>2015-05-28T15:48:49Z</time>
      </trkpt>
      <trkpt lat="45.36826" lon="5.90251">
        <ele>1788.834943594</ele>
        <time>2015-05-28T15:48:54Z</time>
      </trkpt>
      <trkpt lat="45.36826" lon="5.90251">
        <ele>1788.834943594</ele>
        <time>2015-05-28T15:48:58Z</time>
      </trkpt>
      <trkpt lat="45.36826" lon="5.90251">
        <ele>1788.834943594</ele>
        <time>2015-05-28T15:49:05Z</time>
      </trkpt>
      <trkpt lat="45.36826" lon="5.90251">
        <ele>1788.834943594</ele>
        <time>2015-05-28T15:49:08Z</time>
      </trkpt>
      <trkpt lat="45.36826" lon="5.90251">
        <ele>1788.834943594</ele>
        <time>2015-05-28T15:49:14Z</time>
      </trkpt>
      <trkpt lat="45.36826" lon="5.90251">
        <ele>1788.834943594</ele>
        <time>2015-05-28T15:49:19Z</time>
      </trkpt>
      <trkpt lat="45.36826" lon="5.90251">
        <ele>1788.834943594</ele>
        <time>2015-05-28T15:49:24Z</time>
      </trkpt>
      <trkpt lat="45.36826" lon="5.90251">
        <ele>1788.834943594</ele>
        <time>2015-05-28T15:49:28Z</time>
      </trkpt>
      <trkpt lat="45.36826" lon="5.90251">
        <ele>1788.834943594</ele>
        <time>2015-05-28T15:49:34Z</time>
      </trkpt>
      <trkpt lat="45.36826" lon="5.90251">
        <ele>1788.834943594</ele>
        <time>2015-05-28T15:49:38Z</time>
      </trkpt>
      <trkpt lat="45.36826" lon="5.90251">
        <ele>1788.834943594</ele>
        <time>2015-05-28T15:49:43Z</time>
      </trkpt>
      <trkpt lat="45.36826" lon="5.90251">
        <ele>1788.834943594</ele>
        <time>2015-05-28T15:49:48Z</time>
      </trkpt>
      <trkpt lat="45.36826" lon="5.90251">
        <ele>1788.834943594</ele>
        <time>2015-05-28T15:49:53Z</time>
      </trkpt>
      <trkpt lat="45.36826" lon="5.90251">
        <ele>1788.834943594</ele>
        <time>2015-05-28T15:49:59Z</time>
      </trkpt>
      <trkpt lat="45.36826" lon="5.90251">
        <ele>1788.834943594</ele>
        <time>2015-05-28T15:50:03Z</time>
      </trkpt>
      <trkpt lat="45.36826" lon="5.90251">
        <ele>1788.834943594</ele>
        <time>2015-05-28T15:50:08Z</time>
      </trkpt>
      <trkpt lat="45.36825" lon="5.90249">
        <ele>1788.834943594</ele>
        <time>2015-05-28T15:50:14Z</time>
      </trkpt>
      <trkpt lat="45.36825" lon="5.90251">
        <ele>1788.276461072</ele>
        <time>2015-05-28T15:50:19Z</time>
      </trkpt>
      <trkpt lat="45.36825" lon="5.90253">
        <ele>1788.276461072</ele>
        <time>2015-05-28T15:50:23Z</time>
      </trkpt>
      <trkpt lat="45.36824" lon="5.90252">
        <ele>1788.276461072</ele>
        <time>2015-05-28T15:50:29Z</time>
      </trkpt>
      <trkpt lat="45.36824" lon="5.90253">
        <ele>1788.276461072</ele>
        <time>2015-05-28T15:50:34Z</time>
      </trkpt>
      <trkpt lat="45.36826" lon="5.90253">
        <ele>1788.276461072</ele>
        <time>2015-05-28T15:50:39Z</time>
      </trkpt>
      <trkpt lat="45.36826" lon="5.90251">
        <ele>1788.276461072</ele>
        <time>2015-05-28T15:50:43Z</time>
      </trkpt>
      <trkpt lat="45.36824" lon="5.9025">
        <ele>1788.276461072</ele>
        <time>2015-05-28T15:50:49Z</time>
      </trkpt>
      <trkpt lat="45.36824" lon="5.9025">
        <ele>1788.276461072</ele>
        <time>2015-05-28T15:50:53Z</time>
      </trkpt>
      <trkpt lat="45.36824" lon="5.9025">
        <ele>1788.276461072</ele>
        <time>2015-05-28T15:50:58Z</time>
      </trkpt>
      <trkpt lat="45.36824" lon="5.9025">
        <ele>1788.276461072</ele>
        <time>2015-05-28T15:51:04Z</time>
      </trkpt>
      <trkpt lat="45.36824" lon="5.9025">
        <ele>1788.276461072</ele>
        <time>2015-05-28T15:51:08Z</time>
      </trkpt>
      <trkpt lat="45.36824" lon="5.9025">
        <ele>1788.276461072</ele>
        <time>2015-05-28T15:51:14Z</time>
      </trkpt>
      <trkpt lat="45.36824" lon="5.9025">
        <ele>1788.276461072</ele>
        <time>2015-05-28T15:51:18Z</time>
      </trkpt>
      <trkpt lat="45.36824" lon="5.9025">
        <ele>1788.276461072</ele>
        <time>2015-05-28T15:51:24Z</time>
      </trkpt>
      <trkpt lat="45.36824" lon="5.9025">
        <ele>1788.276461072</ele>
        <time>2015-05-28T15:51:28Z</time>
      </trkpt>
      <trkpt lat="45.36824" lon="5.9025">
        <ele>1788.276461072</ele>
        <time>2015-05-28T15:51:34Z</time>
      </trkpt>
      <trkpt lat="45.36824" lon="5.9025">
        <ele>1788.276461072</ele>
        <time>2015-05-28T15:51:39Z</time>
      </trkpt>
      <trkpt lat="45.36824" lon="5.9025">
        <ele>1788.276461072</ele>
        <time>2015-05-28T15:51:44Z</time>
      </trkpt>
      <trkpt lat="45.36824" lon="5.9025">
        <ele>1788.276461072</ele>
        <time>2015-05-28T15:51:49Z</time>
      </trkpt>
      <trkpt lat="45.36824" lon="5.9025">
        <ele>1788.276461072</ele>
        <time>2015-05-28T15:51:54Z</time>
      </trkpt>
      <trkpt lat="45.36824" lon="5.9025">
        <ele>1788.276461072</ele>
        <time>2015-05-28T15:51:59Z</time>
      </trkpt>
      <trkpt lat="45.36824" lon="5.9025">
        <ele>1788.276461072</ele>
        <time>2015-05-28T15:52:03Z</time>
      </trkpt>
      <trkpt lat="45.36824" lon="5.9025">
        <ele>1788.276461072</ele>
        <time>2015-05-28T15:52:09Z</time>
      </trkpt>
      <trkpt lat="45.36824" lon="5.9025">
        <ele>1788.276461072</ele>
        <time>2015-05-28T15:52:14Z</time>
      </trkpt>
      <trkpt lat="45.36824" lon="5.9025">
        <ele>1788.276461072</ele>
        <time>2015-05-28T15:52:19Z</time>
      </trkpt>
      <trkpt lat="45.36824" lon="5.9025">
        <ele>1788.276461072</ele>
        <time>2015-05-28T15:52:24Z</time>
      </trkpt>
      <trkpt lat="45.36824" lon="5.9025">
        <ele>1788.276461072</ele>
        <time>2015-05-28T15:52:29Z</time>
      </trkpt>
      <trkpt lat="45.36824" lon="5.9025">
        <ele>1788.276461072</ele>
        <time>2015-05-28T15:52:34Z</time>
      </trkpt>
      <trkpt lat="45.36824" lon="5.9025">
        <ele>1788.276461072</ele>
        <time>2015-05-28T15:52:38Z</time>
      </trkpt>
      <trkpt lat="45.36824" lon="5.9025">
        <ele>1788.276461072</ele>
        <time>2015-05-28T15:52:44Z</time>
      </trkpt>
      <trkpt lat="45.36824" lon="5.9025">
        <ele>1788.276461072</ele>
        <time>2015-05-28T15:52:49Z</time>
      </trkpt>
      <trkpt lat="45.36824" lon="5.9025">
        <ele>1788.276461072</ele>
        <time>2015-05-28T15:52:54Z</time>
      </trkpt>
      <trkpt lat="45.36824" lon="5.9025">
        <ele>1788.276461072</ele>
        <time>2015-05-28T15:52:59Z</time>
      </trkpt>
      <trkpt lat="45.36824" lon="5.9025">
        <ele>1788.276461072</ele>
        <time>2015-05-28T15:53:04Z</time>
      </trkpt>
      <trkpt lat="45.36824" lon="5.9025">
        <ele>1788.276461072</ele>
        <time>2015-05-28T15:53:09Z</time>
      </trkpt>
      <trkpt lat="45.36823" lon="5.90253">
        <ele>1785.146632198</ele>
        <time>2015-05-28T15:53:14Z</time>
      </trkpt>
      <trkpt lat="45.36821" lon="5.90254">
        <ele>1785.146632198</ele>
        <time>2015-05-28T15:53:18Z</time>
      </trkpt>
      <trkpt lat="45.36818" lon="5.90251">
        <ele>1785.146632198</ele>
        <time>2015-05-28T15:53:24Z</time>
      </trkpt>
      <trkpt lat="45.36817" lon="5.90251">
        <ele>1785.146632198</ele>
        <time>2015-05-28T15:53:29Z</time>
      </trkpt>
      <trkpt lat="45.36817" lon="5.9025">
        <ele>1785.146632198</ele>
        <time>2015-05-28T15:53:34Z</time>
      </trkpt>
      <trkpt lat="45.36818" lon="5.90251">
        <ele>1785.146632198</ele>
        <time>2015-05-28T15:53:39Z</time>
      </trkpt>
      <trkpt lat="45.36819" lon="5.90251">
        <ele>1782.233380623</ele>
        <time>2015-05-28T15:53:44Z</time>
      </trkpt>
      <trkpt lat="45.36819" lon="5.90251">
        <ele>1782.233380623</ele>
        <time>2015-05-28T15:53:49Z</time>
      </trkpt>
      <trkpt lat="45.36819" lon="5.90251">
        <ele>1782.233380623</ele>
        <time>2015-05-28T15:53:53Z</time>
      </trkpt>
      <trkpt lat="45.36819" lon="5.90251">
        <ele>1782.233380623</ele>
        <time>2015-05-28T15:53:59Z</time>
      </trkpt>
      <trkpt lat="45.36826" lon="5.90259">
        <ele>1782.233380623</ele>
        <time>2015-05-28T15:54:04Z</time>
      </trkpt>
      <trkpt lat="45.36815" lon="5.90254">
        <ele>1778.372218421</ele>
        <time>2015-05-28T15:54:09Z</time>
      </trkpt>
      <trkpt lat="45.36817" lon="5.90253">
        <ele>1778.372218421</ele>
        <time>2015-05-28T15:54:13Z</time>
      </trkpt>
      <trkpt lat="45.36815" lon="5.90252">
        <ele>1778.372218421</ele>
        <time>2015-05-28T15:54:18Z</time>
      </trkpt>
      <trkpt lat="45.36818" lon="5.90252">
        <ele>1778.372218421</ele>
        <time>2015-05-28T15:54:25Z</time>
      </trkpt>
      <trkpt lat="45.36817" lon="5.90252">
        <ele>1778.372218421</ele>
        <time>2015-05-28T15:54:28Z</time>
      </trkpt>
      <trkpt lat="45.36818" lon="5.90253">
        <ele>1778.372218421</ele>
        <time>2015-05-28T15:54:34Z</time>
      </trkpt>
      <trkpt lat="45.36819" lon="5.90253">
        <ele>1778.372218421</ele>
        <time>2015-05-28T15:54:38Z</time>
      </trkpt>
      <trkpt lat="45.3682" lon="5.90255">
        <ele>1776.810079496</ele>
        <time>2015-05-28T15:54:43Z</time>
      </trkpt>
      <trkpt lat="45.36821" lon="5.90256">
        <ele>1776.810079496</ele>
        <time>2015-05-28T15:54:48Z</time>
      </trkpt>
      <trkpt lat="45.36821" lon="5.90256">
        <ele>1776.810079496</ele>
        <time>2015-05-28T15:54:53Z</time>
      </trkpt>
      <trkpt lat="45.3683" lon="5.90262">
        <ele>1775.360811712</ele>
        <time>2015-05-28T15:54:58Z</time>
      </trkpt>
      <trkpt lat="45.36836" lon="5.90277">
        <ele>1774.160092883</ele>
        <time>2015-05-28T15:55:03Z</time>
      </trkpt>
      <trkpt lat="45.36837" lon="5.90274">
        <ele>1774.160092883</ele>
        <time>2015-05-28T15:55:08Z</time>
      </trkpt>
      <trkpt lat="45.36836" lon="5.90275">
        <ele>1774.160092883</ele>
        <time>2015-05-28T15:55:13Z</time>
      </trkpt>
      <trkpt lat="45.36835" lon="5.90276">
        <ele>1774.160092883</ele>
        <time>2015-05-28T15:55:18Z</time>
      </trkpt>
      <trkpt lat="45.36835" lon="5.90276">
        <ele>1774.160092883</ele>
        <time>2015-05-28T15:55:25Z</time>
      </trkpt>
      <trkpt lat="45.36835" lon="5.90275">
        <ele>1774.160092883</ele>
        <time>2015-05-28T15:55:29Z</time>
      </trkpt>
      <trkpt lat="45.36835" lon="5.90276">
        <ele>1774.160092883</ele>
        <time>2015-05-28T15:55:34Z</time>
      </trkpt>
      <trkpt lat="45.36835" lon="5.90276">
        <ele>1774.160092883</ele>
        <time>2015-05-28T15:55:39Z</time>
      </trkpt>
      <trkpt lat="45.36835" lon="5.90276">
        <ele>1774.160092883</ele>
        <time>2015-05-28T15:55:43Z</time>
      </trkpt>
      <trkpt lat="45.36835" lon="5.90276">
        <ele>1774.160092883</ele>
        <time>2015-05-28T15:55:49Z</time>
      </trkpt>
      <trkpt lat="45.36835" lon="5.90275">
        <ele>1774.160092883</ele>
        <time>2015-05-28T15:55:54Z</time>
      </trkpt>
      <trkpt lat="45.36835" lon="5.90275">
        <ele>1774.160092883</ele>
        <time>2015-05-28T15:55:59Z</time>
      </trkpt>
      <trkpt lat="45.36835" lon="5.90275">
        <ele>1774.160092883</ele>
        <time>2015-05-28T15:56:03Z</time>
      </trkpt>
      <trkpt lat="45.36835" lon="5.90275">
        <ele>1774.160092883</ele>
        <time>2015-05-28T15:56:09Z</time>
      </trkpt>
      <trkpt lat="45.36835" lon="5.90275">
        <ele>1774.160092883</ele>
        <time>2015-05-28T15:56:14Z</time>
      </trkpt>
      <trkpt lat="45.36835" lon="5.90275">
        <ele>1774.160092883</ele>
        <time>2015-05-28T15:56:18Z</time>
      </trkpt>
      <trkpt lat="45.36835" lon="5.90275">
        <ele>1774.160092883</ele>
        <time>2015-05-28T15:56:24Z</time>
      </trkpt>
      <trkpt lat="45.36835" lon="5.90275">
        <ele>1774.160092883</ele>
        <time>2015-05-28T15:56:29Z</time>
      </trkpt>
      <trkpt lat="45.36836" lon="5.90275">
        <ele>1774.160092883</ele>
        <time>2015-05-28T15:56:35Z</time>
      </trkpt>
      <trkpt lat="45.36836" lon="5.90275">
        <ele>1774.160092883</ele>
        <time>2015-05-28T15:56:39Z</time>
      </trkpt>
      <trkpt lat="45.36836" lon="5.90275">
        <ele>1774.160092883</ele>
        <time>2015-05-28T15:56:44Z</time>
      </trkpt>
      <trkpt lat="45.36836" lon="5.90275">
        <ele>1774.160092883</ele>
        <time>2015-05-28T15:56:49Z</time>
      </trkpt>
      <trkpt lat="45.36836" lon="5.90275">
        <ele>1774.160092883</ele>
        <time>2015-05-28T15:56:55Z</time>
      </trkpt>
      <trkpt lat="45.36836" lon="5.90275">
        <ele>1774.160092883</ele>
        <time>2015-05-28T15:56:59Z</time>
      </trkpt>
      <trkpt lat="45.36836" lon="5.90275">
        <ele>1774.160092883</ele>
        <time>2015-05-28T15:57:04Z</time>
      </trkpt>
      <trkpt lat="45.36836" lon="5.90275">
        <ele>1774.160092883</ele>
        <time>2015-05-28T15:57:09Z</time>
      </trkpt>
      <trkpt lat="45.3685" lon="5.90276">
        <ele>1772.035826706</ele>
        <time>2015-05-28T15:57:15Z</time>
      </trkpt>
      <trkpt lat="45.36855" lon="5.90274">
        <ele>1772.035826706</ele>
        <time>2015-05-28T15:57:19Z</time>
      </trkpt>
      <trkpt lat="45.36859" lon="5.90279">
        <ele>1769.489729146</ele>
        <time>2015-05-28T15:57:24Z</time>
      </trkpt>
      <trkpt lat="45.36862" lon="5.9028">
        <ele>1769.489729146</ele>
        <time>2015-05-28T15:57:28Z</time>
      </trkpt>
      <trkpt lat="45.36862" lon="5.9028">
        <ele>1769.489729146</ele>
        <time>2015-05-28T15:57:34Z</time>
      </trkpt>
      <trkpt lat="45.36867" lon="5.90282">
        <ele>1769.489729146</ele>
        <time>2015-05-28T15:57:40Z</time>
      </trkpt>
      <trkpt lat="45.3687" lon="5.90282">
        <ele>1768.140636933</ele>
        <time>2015-05-28T15:57:44Z</time>
      </trkpt>
      <trkpt lat="45.36871" lon="5.90283">
        <ele>1768.140636933</ele>
        <time>2015-05-28T15:57:49Z</time>
      </trkpt>
      <trkpt lat="45.36875" lon="5.90283">
        <ele>1768.140636933</ele>
        <time>2015-05-28T15:57:54Z</time>
      </trkpt>
      <trkpt lat="45.36884" lon="5.90285">
        <ele>1767.035130221</ele>
        <time>2015-05-28T15:57:59Z</time>
      </trkpt>
      <trkpt lat="45.36883" lon="5.90285">
        <ele>1767.035130221</ele>
        <time>2015-05-28T15:58:04Z</time>
      </trkpt>
      <trkpt lat="45.36885" lon="5.90284">
        <ele>1767.035130221</ele>
        <time>2015-05-28T15:58:09Z</time>
      </trkpt>
      <trkpt lat="45.36885" lon="5.90285">
        <ele>1767.035130221</ele>
        <time>2015-05-28T15:58:15Z</time>
      </trkpt>
      <trkpt lat="45.36885" lon="5.90285">
        <ele>1767.035130221</ele>
        <time>2015-05-28T15:58:19Z</time>
      </trkpt>
      <trkpt lat="45.36885" lon="5.90284">
        <ele>1767.035130221</ele>
        <time>2015-05-28T15:58:24Z</time>
      </trkpt>
      <trkpt lat="45.36885" lon="5.90284">
        <ele>1767.035130221</ele>
        <time>2015-05-28T15:58:29Z</time>
      </trkpt>
      <trkpt lat="45.36886" lon="5.90284">
        <ele>1767.035130221</ele>
        <time>2015-05-28T15:58:34Z</time>
      </trkpt>
      <trkpt lat="45.36886" lon="5.90283">
        <ele>1767.035130221</ele>
        <time>2015-05-28T15:58:44Z</time>
      </trkpt>
      <trkpt lat="45.36886" lon="5.90282">
        <ele>1767.035130221</ele>
        <time>2015-05-28T15:58:49Z</time>
      </trkpt>
      <trkpt lat="45.36886" lon="5.90282">
        <ele>1767.035130221</ele>
        <time>2015-05-28T15:58:54Z</time>
      </trkpt>
      <trkpt lat="45.36887" lon="5.90282">
        <ele>1767.035130221</ele>
        <time>2015-05-28T15:58:59Z</time>
      </trkpt>
      <trkpt lat="45.36888" lon="5.90282">
        <ele>1767.035130221</ele>
        <time>2015-05-28T15:59:04Z</time>
      </trkpt>
      <trkpt lat="45.36889" lon="5.90286">
        <ele>1765.577281875</ele>
        <time>2015-05-28T15:59:09Z</time>
      </trkpt>
      <trkpt lat="45.36888" lon="5.9029">
        <ele>1765.577281875</ele>
        <time>2015-05-28T15:59:14Z</time>
      </trkpt>
      <trkpt lat="45.36888" lon="5.90289">
        <ele>1765.577281875</ele>
        <time>2015-05-28T15:59:19Z</time>
      </trkpt>
      <trkpt lat="45.36888" lon="5.9029">
        <ele>1765.577281875</ele>
        <time>2015-05-28T15:59:24Z</time>
      </trkpt>
      <trkpt lat="45.36887" lon="5.90295">
        <ele>1765.577281875</ele>
        <time>2015-05-28T15:59:29Z</time>
      </trkpt>
      <trkpt lat="45.3689" lon="5.90294">
        <ele>1764.224631714</ele>
        <time>2015-05-28T15:59:34Z</time>
      </trkpt>
      <trkpt lat="45.36889" lon="5.90292">
        <ele>1764.224631714</ele>
        <time>2015-05-28T15:59:38Z</time>
      </trkpt>
      <trkpt lat="45.36889" lon="5.90292">
        <ele>1764.224631714</ele>
        <time>2015-05-28T15:59:43Z</time>
      </trkpt>
      <trkpt lat="45.36889" lon="5.90293">
        <ele>1764.224631714</ele>
        <time>2015-05-28T15:59:48Z</time>
      </trkpt>
      <trkpt lat="45.36889" lon="5.90293">
        <ele>1764.224631714</ele>
        <time>2015-05-28T15:59:55Z</time>
      </trkpt>
      <trkpt lat="45.36889" lon="5.90293">
        <ele>1764.224631714</ele>
        <time>2015-05-28T15:59:58Z</time>
      </trkpt>
      <trkpt lat="45.36889" lon="5.90293">
        <ele>1764.224631714</ele>
        <time>2015-05-28T16:00:04Z</time>
      </trkpt>
      <trkpt lat="45.36889" lon="5.90293">
        <ele>1764.224631714</ele>
        <time>2015-05-28T16:00:09Z</time>
      </trkpt>
      <trkpt lat="45.36889" lon="5.90294">
        <ele>1764.224631714</ele>
        <time>2015-05-28T16:00:14Z</time>
      </trkpt>
      <trkpt lat="45.36889" lon="5.90297">
        <ele>1764.224631714</ele>
        <time>2015-05-28T16:00:18Z</time>
      </trkpt>
      <trkpt lat="45.36893" lon="5.9031">
        <ele>1763.544859113</ele>
        <time>2015-05-28T16:00:23Z</time>
      </trkpt>
      <trkpt lat="45.36899" lon="5.90316">
        <ele>1763.544859113</ele>
        <time>2015-05-28T16:00:29Z</time>
      </trkpt>
      <trkpt lat="45.36901" lon="5.90318">
        <ele>1762.476775394</ele>
        <time>2015-05-28T16:00:34Z</time>
      </trkpt>
      <trkpt lat="45.36901" lon="5.90317">
        <ele>1762.476775394</ele>
        <time>2015-05-28T16:00:39Z</time>
      </trkpt>
      <trkpt lat="45.36904" lon="5.90322">
        <ele>1762.476775394</ele>
        <time>2015-05-28T16:00:44Z</time>
      </trkpt>
      <trkpt lat="45.36906" lon="5.90332">
        <ele>1762.343969297</ele>
        <time>2015-05-28T16:00:49Z</time>
      </trkpt>
      <trkpt lat="45.36912" lon="5.90337">
        <ele>1762.343969297</ele>
        <time>2015-05-28T16:00:53Z</time>
      </trkpt>
      <trkpt lat="45.36919" lon="5.90342">
        <ele>1762.064364549</ele>
        <time>2015-05-28T16:00:59Z</time>
      </trkpt>
      <trkpt lat="45.36918" lon="5.90347">
        <ele>1762.064364549</ele>
        <time>2015-05-28T16:01:03Z</time>
      </trkpt>
      <trkpt lat="45.36919" lon="5.90354">
        <ele>1762.064364549</ele>
        <time>2015-05-28T16:01:08Z</time>
      </trkpt>
      <trkpt lat="45.36921" lon="5.9036">
        <ele>1761.932766885</ele>
        <time>2015-05-28T16:01:13Z</time>
      </trkpt>
      <trkpt lat="45.36922" lon="5.90367">
        <ele>1761.932766885</ele>
        <time>2015-05-28T16:01:18Z</time>
      </trkpt>
      <trkpt lat="45.36927" lon="5.90375">
        <ele>1761.357237653</ele>
        <time>2015-05-28T16:01:23Z</time>
      </trkpt>
      <trkpt lat="45.3693" lon="5.9038">
        <ele>1761.357237653</ele>
        <time>2015-05-28T16:01:28Z</time>
      </trkpt>
      <trkpt lat="45.3693" lon="5.90382">
        <ele>1761.357237653</ele>
        <time>2015-05-28T16:01:34Z</time>
      </trkpt>
      <trkpt lat="45.36931" lon="5.90385">
        <ele>1761.357237653</ele>
        <time>2015-05-28T16:01:39Z</time>
      </trkpt>
      <trkpt lat="45.36929" lon="5.9039">
        <ele>1760.078794988</ele>
        <time>2015-05-28T16:01:44Z</time>
      </trkpt>
      <trkpt lat="45.36927" lon="5.9039">
        <ele>1760.078794988</ele>
        <time>2015-05-28T16:01:49Z</time>
      </trkpt>
      <trkpt lat="45.36927" lon="5.9039">
        <ele>1760.078794988</ele>
        <time>2015-05-28T16:01:53Z</time>
      </trkpt>
      <trkpt lat="45.36927" lon="5.9039">
        <ele>1760.078794988</ele>
        <time>2015-05-28T16:01:58Z</time>
      </trkpt>
      <trkpt lat="45.36926" lon="5.90396">
        <ele>1760.078794988</ele>
        <time>2015-05-28T16:02:04Z</time>
      </trkpt>
      <trkpt lat="45.36924" lon="5.90398">
        <ele>1759.588803443</ele>
        <time>2015-05-28T16:02:09Z</time>
      </trkpt>
      <trkpt lat="45.36924" lon="5.904">
        <ele>1759.588803443</ele>
        <time>2015-05-28T16:02:14Z</time>
      </trkpt>
      <trkpt lat="45.36924" lon="5.90398">
        <ele>1759.588803443</ele>
        <time>2015-05-28T16:02:19Z</time>
      </trkpt>
      <trkpt lat="45.36924" lon="5.90396">
        <ele>1759.588803443</ele>
        <time>2015-05-28T16:02:24Z</time>
      </trkpt>
      <trkpt lat="45.36923" lon="5.90397">
        <ele>1759.588803443</ele>
        <time>2015-05-28T16:02:29Z</time>
      </trkpt>
      <trkpt lat="45.36923" lon="5.90398">
        <ele>1759.588803443</ele>
        <time>2015-05-28T16:02:34Z</time>
      </trkpt>
      <trkpt lat="45.36922" lon="5.904">
        <ele>1759.588803443</ele>
        <time>2015-05-28T16:02:39Z</time>
      </trkpt>
      <trkpt lat="45.36921" lon="5.90408">
        <ele>1759.681663403</ele>
        <time>2015-05-28T16:02:44Z</time>
      </trkpt>
      <trkpt lat="45.3692" lon="5.90408">
        <ele>1759.681663403</ele>
        <time>2015-05-28T16:02:48Z</time>
      </trkpt>
      <trkpt lat="45.36918" lon="5.90407">
        <ele>1759.681663403</ele>
        <time>2015-05-28T16:02:53Z</time>
      </trkpt>
      <trkpt lat="45.36921" lon="5.90407">
        <ele>1759.681663403</ele>
        <time>2015-05-28T16:02:58Z</time>
      </trkpt>
      <trkpt lat="45.36921" lon="5.90407">
        <ele>1759.681663403</ele>
        <time>2015-05-28T16:03:03Z</time>
      </trkpt>
      <trkpt lat="45.36921" lon="5.90407">
        <ele>1759.681663403</ele>
        <time>2015-05-28T16:03:08Z</time>
      </trkpt>
      <trkpt lat="45.36921" lon="5.90407">
        <ele>1759.681663403</ele>
        <time>2015-05-28T16:03:13Z</time>
      </trkpt>
      <trkpt lat="45.3692" lon="5.90408">
        <ele>1759.681663403</ele>
        <time>2015-05-28T16:03:18Z</time>
      </trkpt>
      <trkpt lat="45.36921" lon="5.9041">
        <ele>1759.681663403</ele>
        <time>2015-05-28T16:03:23Z</time>
      </trkpt>
      <trkpt lat="45.3692" lon="5.90413">
        <ele>1759.444721247</ele>
        <time>2015-05-28T16:03:29Z</time>
      </trkpt>
      <trkpt lat="45.3692" lon="5.90415">
        <ele>1759.444721247</ele>
        <time>2015-05-28T16:03:34Z</time>
      </trkpt>
      <trkpt lat="45.36917" lon="5.90415">
        <ele>1759.444721247</ele>
        <time>2015-05-28T16:03:38Z</time>
      </trkpt>
      <trkpt lat="45.36915" lon="5.90409">
        <ele>1758.609777884</ele>
        <time>2015-05-28T16:03:44Z</time>
      </trkpt>
      <trkpt lat="45.36911" lon="5.90407">
        <ele>1758.609777884</ele>
        <time>2015-05-28T16:03:48Z</time>
      </trkpt>
      <trkpt lat="45.36907" lon="5.90401">
        <ele>1757.506507425</ele>
        <time>2015-05-28T16:03:53Z</time>
      </trkpt>
      <trkpt lat="45.36901" lon="5.90397">
        <ele>1757.506507425</ele>
        <time>2015-05-28T16:03:59Z</time>
      </trkpt>
      <trkpt lat="45.369" lon="5.90398">
        <ele>1757.506507425</ele>
        <time>2015-05-28T16:04:04Z</time>
      </trkpt>
      <trkpt lat="45.36899" lon="5.90394">
        <ele>1757.161730791</ele>
        <time>2015-05-28T16:04:08Z</time>
      </trkpt>
      <trkpt lat="45.36897" lon="5.90396">
        <ele>1757.161730791</ele>
        <time>2015-05-28T16:04:14Z</time>
      </trkpt>
      <trkpt lat="45.36894" lon="5.90396">
        <ele>1757.161730791</ele>
        <time>2015-05-28T16:04:18Z</time>
      </trkpt>
      <trkpt lat="45.36893" lon="5.90396">
        <ele>1757.161730791</ele>
        <time>2015-05-28T16:04:23Z</time>
      </trkpt>
      <trkpt lat="45.36893" lon="5.90396">
        <ele>1757.161730791</ele>
        <time>2015-05-28T16:04:30Z</time>
      </trkpt>
      <trkpt lat="45.36892" lon="5.90394">
        <ele>1757.161730791</ele>
        <time>2015-05-28T16:04:48Z</time>
      </trkpt>
      <trkpt lat="45.36892" lon="5.90393">
        <ele>1757.37188382</ele>
        <time>2015-05-28T16:04:53Z</time>
      </trkpt>
      <trkpt lat="45.36892" lon="5.90393">
        <ele>1757.37188382</ele>
        <time>2015-05-28T16:04:59Z</time>
      </trkpt>
      <trkpt lat="45.36892" lon="5.90393">
        <ele>1757.37188382</ele>
        <time>2015-05-28T16:05:03Z</time>
      </trkpt>
      <trkpt lat="45.36892" lon="5.90399">
        <ele>1757.37188382</ele>
        <time>2015-05-28T16:05:08Z</time>
      </trkpt>
      <trkpt lat="45.36892" lon="5.90398">
        <ele>1757.37188382</ele>
        <time>2015-05-28T16:05:13Z</time>
      </trkpt>
      <trkpt lat="45.3689" lon="5.904">
        <ele>1757.37188382</ele>
        <time>2015-05-28T16:05:18Z</time>
      </trkpt>
      <trkpt lat="45.36888" lon="5.90399">
        <ele>1757.514533525</ele>
        <time>2015-05-28T16:05:24Z</time>
      </trkpt>
      <trkpt lat="45.36887" lon="5.904">
        <ele>1757.514533525</ele>
        <time>2015-05-28T16:05:29Z</time>
      </trkpt>
      <trkpt lat="45.36886" lon="5.90401">
        <ele>1757.514533525</ele>
        <time>2015-05-28T16:05:34Z</time>
      </trkpt>
      <trkpt lat="45.36886" lon="5.90401">
        <ele>1757.514533525</ele>
        <time>2015-05-28T16:05:39Z</time>
      </trkpt>
      <trkpt lat="45.36886" lon="5.90401">
        <ele>1757.514533525</ele>
        <time>2015-05-28T16:05:44Z</time>
      </trkpt>
      <trkpt lat="45.36886" lon="5.90401">
        <ele>1757.514533525</ele>
        <time>2015-05-28T16:05:49Z</time>
      </trkpt>
      <trkpt lat="45.36886" lon="5.90401">
        <ele>1757.514533525</ele>
        <time>2015-05-28T16:05:54Z</time>
      </trkpt>
      <trkpt lat="45.36886" lon="5.90401">
        <ele>1757.514533525</ele>
        <time>2015-05-28T16:05:58Z</time>
      </trkpt>
      <trkpt lat="45.36886" lon="5.90401">
        <ele>1757.514533525</ele>
        <time>2015-05-28T16:06:03Z</time>
      </trkpt>
      <trkpt lat="45.36886" lon="5.90401">
        <ele>1757.514533525</ele>
        <time>2015-05-28T16:06:08Z</time>
      </trkpt>
      <trkpt lat="45.36886" lon="5.90401">
        <ele>1757.514533525</ele>
        <time>2015-05-28T16:06:13Z</time>
      </trkpt>
      <trkpt lat="45.36886" lon="5.90401">
        <ele>1757.514533525</ele>
        <time>2015-05-28T16:06:18Z</time>
      </trkpt>
      <trkpt lat="45.36887" lon="5.90401">
        <ele>1757.514533525</ele>
        <time>2015-05-28T16:06:23Z</time>
      </trkpt>
      <trkpt lat="45.36887" lon="5.90401">
        <ele>1757.514533525</ele>
        <time>2015-05-28T16:06:29Z</time>
      </trkpt>
      <trkpt lat="45.36887" lon="5.90401">
        <ele>1757.514533525</ele>
        <time>2015-05-28T16:06:35Z</time>
      </trkpt>
      <trkpt lat="45.36887" lon="5.90401">
        <ele>1757.514533525</ele>
        <time>2015-05-28T16:06:39Z</time>
      </trkpt>
      <trkpt lat="45.36887" lon="5.90401">
        <ele>1757.514533525</ele>
        <time>2015-05-28T16:06:43Z</time>
      </trkpt>
      <trkpt lat="45.36887" lon="5.90401">
        <ele>1757.514533525</ele>
        <time>2015-05-28T16:06:48Z</time>
      </trkpt>
      <trkpt lat="45.36887" lon="5.90401">
        <ele>1757.514533525</ele>
        <time>2015-05-28T16:06:53Z</time>
      </trkpt>
      <trkpt lat="45.36887" lon="5.90401">
        <ele>1757.514533525</ele>
        <time>2015-05-28T16:06:58Z</time>
      </trkpt>
      <trkpt lat="45.36887" lon="5.90401">
        <ele>1757.514533525</ele>
        <time>2015-05-28T16:07:03Z</time>
      </trkpt>
      <trkpt lat="45.36887" lon="5.90401">
        <ele>1757.514533525</ele>
        <time>2015-05-28T16:07:08Z</time>
      </trkpt>
      <trkpt lat="45.36887" lon="5.90401">
        <ele>1757.514533525</ele>
        <time>2015-05-28T16:07:14Z</time>
      </trkpt>
      <trkpt lat="45.36887" lon="5.90401">
        <ele>1757.514533525</ele>
        <time>2015-05-28T16:07:19Z</time>
      </trkpt>
      <trkpt lat="45.36887" lon="5.90401">
        <ele>1757.514533525</ele>
        <time>2015-05-28T16:07:24Z</time>
      </trkpt>
      <trkpt lat="45.36887" lon="5.90401">
        <ele>1757.514533525</ele>
        <time>2015-05-28T16:07:29Z</time>
      </trkpt>
      <trkpt lat="45.36887" lon="5.90401">
        <ele>1757.514533525</ele>
        <time>2015-05-28T16:07:35Z</time>
      </trkpt>
      <trkpt lat="45.36887" lon="5.90401">
        <ele>1757.514533525</ele>
        <time>2015-05-28T16:07:38Z</time>
      </trkpt>
      <trkpt lat="45.36887" lon="5.90401">
        <ele>1757.514533525</ele>
        <time>2015-05-28T16:07:44Z</time>
      </trkpt>
      <trkpt lat="45.36887" lon="5.90401">
        <ele>1757.514533525</ele>
        <time>2015-05-28T16:07:48Z</time>
      </trkpt>
      <trkpt lat="45.36887" lon="5.90401">
        <ele>1757.514533525</ele>
        <time>2015-05-28T16:07:53Z</time>
      </trkpt>
      <trkpt lat="45.36887" lon="5.90401">
        <ele>1757.514533525</ele>
        <time>2015-05-28T16:07:59Z</time>
      </trkpt>
      <trkpt lat="45.36887" lon="5.90401">
        <ele>1757.514533525</ele>
        <time>2015-05-28T16:08:03Z</time>
      </trkpt>
      <trkpt lat="45.36887" lon="5.90401">
        <ele>1757.514533525</ele>
        <time>2015-05-28T16:08:08Z</time>
      </trkpt>
      <trkpt lat="45.36887" lon="5.90401">
        <ele>1757.514533525</ele>
        <time>2015-05-28T16:08:13Z</time>
      </trkpt>
      <trkpt lat="45.36888" lon="5.904">
        <ele>1757.514533525</ele>
        <time>2015-05-28T16:08:18Z</time>
      </trkpt>
      <trkpt lat="45.36889" lon="5.904">
        <ele>1757.514533525</ele>
        <time>2015-05-28T16:08:24Z</time>
      </trkpt>
      <trkpt lat="45.36889" lon="5.904">
        <ele>1751.48690272</ele>
        <time>2015-05-28T16:08:29Z</time>
      </trkpt>
      <trkpt lat="45.36889" lon="5.904">
        <ele>1745.459271915</ele>
        <time>2015-05-28T16:08:34Z</time>
      </trkpt>
      <trkpt lat="45.36803" lon="5.90369">
        <ele>1739.43164111</ele>
        <time>2015-05-28T16:09:04Z</time>
      </trkpt>
      <trkpt lat="45.36813" lon="5.90378">
        <ele>1739.074723791</ele>
        <time>2015-05-28T16:09:09Z</time>
      </trkpt>
      <trkpt lat="45.36834" lon="5.90391">
        <ele>1738.717806473</ele>
        <time>2015-05-28T16:09:14Z</time>
      </trkpt>
      <trkpt lat="45.36868" lon="5.9041">
        <ele>1738.360889154</ele>
        <time>2015-05-28T16:09:19Z</time>
      </trkpt>
      <trkpt lat="45.36885" lon="5.90415">
        <ele>1738.003971836</ele>
        <time>2015-05-28T16:09:23Z</time>
      </trkpt>
      <trkpt lat="45.36885" lon="5.90412">
        <ele>1737.647054518</ele>
        <time>2015-05-28T16:09:29Z</time>
      </trkpt>
      <trkpt lat="45.36888" lon="5.90415">
        <ele>1737.290137199</ele>
        <time>2015-05-28T16:09:33Z</time>
      </trkpt>
      <trkpt lat="45.36907" lon="5.90416">
        <ele>1736.933219881</ele>
        <time>2015-05-28T16:09:43Z</time>
      </trkpt>
      <trkpt lat="45.369" lon="5.90419">
        <ele>1736.735107844</ele>
        <time>2015-05-28T16:09:48Z</time>
      </trkpt>
      <trkpt lat="45.36869" lon="5.90401">
        <ele>1736.536995808</ele>
        <time>2015-05-28T16:09:53Z</time>
      </trkpt>
      <trkpt lat="45.36909" lon="5.90417">
        <ele>1736.338883771</ele>
        <time>2015-05-28T16:10:23Z</time>
      </trkpt>
      <trkpt lat="45.36906" lon="5.90416">
        <ele>1736.140771735</ele>
        <time>2015-05-28T16:10:29Z</time>
      </trkpt>
      <trkpt lat="45.36904" lon="5.90415">
        <ele>1735.942659698</ele>
        <time>2015-05-28T16:10:34Z</time>
      </trkpt>
      <trkpt lat="45.36904" lon="5.90415">
        <ele>1735.744547661</ele>
        <time>2015-05-28T16:10:38Z</time>
      </trkpt>
      <trkpt lat="45.36904" lon="5.90415">
        <ele>1735.546435625</ele>
        <time>2015-05-28T16:10:43Z</time>
      </trkpt>
      <trkpt lat="45.36911" lon="5.90418">
        <ele>1735.348323588</ele>
        <time>2015-05-28T16:10:48Z</time>
      </trkpt>
      <trkpt lat="45.36913" lon="5.90419">
        <ele>1735.150211552</ele>
        <time>2015-05-28T16:10:53Z</time>
      </trkpt>
      <trkpt lat="45.36916" lon="5.9042">
        <ele>1734.952099515</ele>
        <time>2015-05-28T16:11:03Z</time>
      </trkpt>
      <trkpt lat="45.3692" lon="5.90421">
        <ele>1734.753987479</ele>
        <time>2015-05-28T16:11:08Z</time>
      </trkpt>
      <trkpt lat="45.3692" lon="5.90421">
        <ele>1734.753987479</ele>
        <time>2015-05-28T16:11:18Z</time>
      </trkpt>
      <trkpt lat="45.3692" lon="5.90421">
        <ele>1734.753987479</ele>
        <time>2015-05-28T16:11:23Z</time>
      </trkpt>
      <trkpt lat="45.3692" lon="5.90421">
        <ele>1734.753987479</ele>
        <time>2015-05-28T16:11:28Z</time>
      </trkpt>
      <trkpt lat="45.3692" lon="5.90421">
        <ele>1734.753987479</ele>
        <time>2015-05-28T16:11:33Z</time>
      </trkpt>
      <trkpt lat="45.36921" lon="5.90421">
        <ele>1734.753987479</ele>
        <time>2015-05-28T16:11:38Z</time>
      </trkpt>
      <trkpt lat="45.36921" lon="5.90421">
        <ele>1734.753987479</ele>
        <time>2015-05-28T16:11:43Z</time>
      </trkpt>
      <trkpt lat="45.36921" lon="5.90421">
        <ele>1734.753987479</ele>
        <time>2015-05-28T16:11:48Z</time>
      </trkpt>
      <trkpt lat="45.36921" lon="5.90421">
        <ele>1734.753987479</ele>
        <time>2015-05-28T16:11:54Z</time>
      </trkpt>
      <trkpt lat="45.36922" lon="5.90421">
        <ele>1734.753987479</ele>
        <time>2015-05-28T16:12:00Z</time>
      </trkpt>
      <trkpt lat="45.36922" lon="5.90422">
        <ele>1734.753987479</ele>
        <time>2015-05-28T16:12:04Z</time>
      </trkpt>
      <trkpt lat="45.36923" lon="5.90422">
        <ele>1734.753987479</ele>
        <time>2015-05-28T16:12:10Z</time>
      </trkpt>
      <trkpt lat="45.36924" lon="5.90422">
        <ele>1734.753987479</ele>
        <time>2015-05-28T16:12:14Z</time>
      </trkpt>
      <trkpt lat="45.36924" lon="5.90422">
        <ele>1734.753987479</ele>
        <time>2015-05-28T16:12:19Z</time>
      </trkpt>
      <trkpt lat="45.36924" lon="5.90422">
        <ele>1734.753987479</ele>
        <time>2015-05-28T16:12:24Z</time>
      </trkpt>
      <trkpt lat="45.36924" lon="5.90423">
        <ele>1734.753987479</ele>
        <time>2015-05-28T16:12:29Z</time>
      </trkpt>
      <trkpt lat="45.36925" lon="5.90423">
        <ele>1734.753987479</ele>
        <time>2015-05-28T16:12:34Z</time>
      </trkpt>
      <trkpt lat="45.36925" lon="5.90423">
        <ele>1734.753987479</ele>
        <time>2015-05-28T16:12:39Z</time>
      </trkpt>
      <trkpt lat="45.36925" lon="5.90423">
        <ele>1734.753987479</ele>
        <time>2015-05-28T16:12:44Z</time>
      </trkpt>
      <trkpt lat="45.36925" lon="5.90423">
        <ele>1734.753987479</ele>
        <time>2015-05-28T16:12:49Z</time>
      </trkpt>
      <trkpt lat="45.36925" lon="5.90423">
        <ele>1734.753987479</ele>
        <time>2015-05-28T16:12:54Z</time>
      </trkpt>
      <trkpt lat="45.36926" lon="5.90423">
        <ele>1734.753987479</ele>
        <time>2015-05-28T16:12:58Z</time>
      </trkpt>
      <trkpt lat="45.36926" lon="5.90423">
        <ele>1734.753987479</ele>
        <time>2015-05-28T16:13:04Z</time>
      </trkpt>
      <trkpt lat="45.36925" lon="5.90423">
        <ele>1734.753987479</ele>
        <time>2015-05-28T16:13:09Z</time>
      </trkpt>
      <trkpt lat="45.36926" lon="5.90423">
        <ele>1734.753987479</ele>
        <time>2015-05-28T16:13:13Z</time>
      </trkpt>
      <trkpt lat="45.36926" lon="5.90423">
        <ele>1734.753987479</ele>
        <time>2015-05-28T16:13:18Z</time>
      </trkpt>
      <trkpt lat="45.36926" lon="5.90423">
        <ele>1734.753987479</ele>
        <time>2015-05-28T16:13:24Z</time>
      </trkpt>
      <trkpt lat="45.36926" lon="5.90423">
        <ele>1734.753987479</ele>
        <time>2015-05-28T16:13:30Z</time>
      </trkpt>
      <trkpt lat="45.36926" lon="5.90423">
        <ele>1734.753987479</ele>
        <time>2015-05-28T16:13:34Z</time>
      </trkpt>
      <trkpt lat="45.36926" lon="5.90423">
        <ele>1734.753987479</ele>
        <time>2015-05-28T16:13:38Z</time>
      </trkpt>
      <trkpt lat="45.36926" lon="5.90423">
        <ele>1734.753987479</ele>
        <time>2015-05-28T16:13:44Z</time>
      </trkpt>
      <trkpt lat="45.36926" lon="5.90423">
        <ele>1734.753987479</ele>
        <time>2015-05-28T16:13:50Z</time>
      </trkpt>
      <trkpt lat="45.36926" lon="5.90423">
        <ele>1734.753987479</ele>
        <time>2015-05-28T16:13:54Z</time>
      </trkpt>
      <trkpt lat="45.36926" lon="5.90423">
        <ele>1734.753987479</ele>
        <time>2015-05-28T16:13:58Z</time>
      </trkpt>
      <trkpt lat="45.36926" lon="5.90423">
        <ele>1734.753987479</ele>
        <time>2015-05-28T16:14:05Z</time>
      </trkpt>
      <trkpt lat="45.36926" lon="5.90423">
        <ele>1734.753987479</ele>
        <time>2015-05-28T16:14:09Z</time>
      </trkpt>
      <trkpt lat="45.36926" lon="5.90423">
        <ele>1734.753987479</ele>
        <time>2015-05-28T16:14:14Z</time>
      </trkpt>
      <trkpt lat="45.36926" lon="5.90423">
        <ele>1734.753987479</ele>
        <time>2015-05-28T16:14:19Z</time>
      </trkpt>
      <trkpt lat="45.36926" lon="5.90423">
        <ele>1734.753987479</ele>
        <time>2015-05-28T16:14:23Z</time>
      </trkpt>
      <trkpt lat="45.36926" lon="5.90423">
        <ele>1734.753987479</ele>
        <time>2015-05-28T16:14:28Z</time>
      </trkpt>
      <trkpt lat="45.36926" lon="5.90423">
        <ele>1734.499657755</ele>
        <time>2015-05-28T16:14:33Z</time>
      </trkpt>
      <trkpt lat="45.36926" lon="5.90423">
        <ele>1734.245328031</ele>
        <time>2015-05-28T16:15:03Z</time>
      </trkpt>
      <trkpt lat="45.36928" lon="5.90424">
        <ele>1733.990998306</ele>
        <time>2015-05-28T16:15:08Z</time>
      </trkpt>
      <trkpt lat="45.36928" lon="5.90425">
        <ele>1733.736668582</ele>
        <time>2015-05-28T16:15:14Z</time>
      </trkpt>
      <trkpt lat="45.36929" lon="5.90425">
        <ele>1733.736668582</ele>
        <time>2015-05-28T16:15:19Z</time>
      </trkpt>
      <trkpt lat="45.36929" lon="5.90425">
        <ele>1733.736668582</ele>
        <time>2015-05-28T16:15:23Z</time>
      </trkpt>
      <trkpt lat="45.36928" lon="5.90425">
        <ele>1733.736668582</ele>
        <time>2015-05-28T16:15:28Z</time>
      </trkpt>
      <trkpt lat="45.36928" lon="5.90425">
        <ele>1733.736668582</ele>
        <time>2015-05-28T16:15:33Z</time>
      </trkpt>
      <trkpt lat="45.36929" lon="5.90425">
        <ele>1733.736668582</ele>
        <time>2015-05-28T16:15:38Z</time>
      </trkpt>
      <trkpt lat="45.36929" lon="5.90425">
        <ele>1733.736668582</ele>
        <time>2015-05-28T16:15:43Z</time>
      </trkpt>
      <trkpt lat="45.36929" lon="5.90425">
        <ele>1733.736668582</ele>
        <time>2015-05-28T16:15:48Z</time>
      </trkpt>
      <trkpt lat="45.36929" lon="5.90425">
        <ele>1733.736668582</ele>
        <time>2015-05-28T16:15:54Z</time>
      </trkpt>
      <trkpt lat="45.36929" lon="5.90425">
        <ele>1733.736668582</ele>
        <time>2015-05-28T16:15:59Z</time>
      </trkpt>
      <trkpt lat="45.36929" lon="5.90425">
        <ele>1733.736668582</ele>
        <time>2015-05-28T16:16:03Z</time>
      </trkpt>
      <trkpt lat="45.36929" lon="5.90425">
        <ele>1733.736668582</ele>
        <time>2015-05-28T16:16:08Z</time>
      </trkpt>
      <trkpt lat="45.36929" lon="5.90425">
        <ele>1733.736668582</ele>
        <time>2015-05-28T16:16:13Z</time>
      </trkpt>
      <trkpt lat="45.36929" lon="5.90425">
        <ele>1733.736668582</ele>
        <time>2015-05-28T16:16:18Z</time>
      </trkpt>
      <trkpt lat="45.36929" lon="5.90425">
        <ele>1733.736668582</ele>
        <time>2015-05-28T16:16:23Z</time>
      </trkpt>
      <trkpt lat="45.36929" lon="5.90425">
        <ele>1733.736668582</ele>
        <time>2015-05-28T16:16:29Z</time>
      </trkpt>
      <trkpt lat="45.36929" lon="5.90425">
        <ele>1733.736668582</ele>
        <time>2015-05-28T16:16:34Z</time>
      </trkpt>
      <trkpt lat="45.36929" lon="5.90425">
        <ele>1733.736668582</ele>
        <time>2015-05-28T16:16:38Z</time>
      </trkpt>
      <trkpt lat="45.36929" lon="5.90425">
        <ele>1733.736668582</ele>
        <time>2015-05-28T16:16:43Z</time>
      </trkpt>
      <trkpt lat="45.36929" lon="5.90425">
        <ele>1733.736668582</ele>
        <time>2015-05-28T16:16:49Z</time>
      </trkpt>
      <trkpt lat="45.3693" lon="5.90425">
        <ele>1733.736668582</ele>
        <time>2015-05-28T16:16:53Z</time>
      </trkpt>
      <trkpt lat="45.3693" lon="5.90425">
        <ele>1733.736668582</ele>
        <time>2015-05-28T16:16:59Z</time>
      </trkpt>
      <trkpt lat="45.3693" lon="5.90426">
        <ele>1733.736668582</ele>
        <time>2015-05-28T16:17:03Z</time>
      </trkpt>
      <trkpt lat="45.3693" lon="5.90426">
        <ele>1733.736668582</ele>
        <time>2015-05-28T16:17:08Z</time>
      </trkpt>
      <trkpt lat="45.36931" lon="5.90426">
        <ele>1733.736668582</ele>
        <time>2015-05-28T16:17:15Z</time>
      </trkpt>
      <trkpt lat="45.36931" lon="5.90426">
        <ele>1733.736668582</ele>
        <time>2015-05-28T16:17:19Z</time>
      </trkpt>
      <trkpt lat="45.36931" lon="5.90426">
        <ele>1733.736668582</ele>
        <time>2015-05-28T16:17:25Z</time>
      </trkpt>
      <trkpt lat="45.36931" lon="5.90426">
        <ele>1733.736668582</ele>
        <time>2015-05-28T16:17:28Z</time>
      </trkpt>
      <trkpt lat="45.36931" lon="5.90426">
        <ele>1733.736668582</ele>
        <time>2015-05-28T16:17:34Z</time>
      </trkpt>
      <trkpt lat="45.36931" lon="5.90426">
        <ele>1733.736668582</ele>
        <time>2015-05-28T16:17:38Z</time>
      </trkpt>
      <trkpt lat="45.3693" lon="5.90426">
        <ele>1733.736668582</ele>
        <time>2015-05-28T16:17:45Z</time>
      </trkpt>
      <trkpt lat="45.3693" lon="5.90425">
        <ele>1733.736668582</ele>
        <time>2015-05-28T16:17:48Z</time>
      </trkpt>
      <trkpt lat="45.36929" lon="5.90425">
        <ele>1733.736668582</ele>
        <time>2015-05-28T16:17:54Z</time>
      </trkpt>
      <trkpt lat="45.36929" lon="5.90425">
        <ele>1733.736668582</ele>
        <time>2015-05-28T16:17:58Z</time>
      </trkpt>
      <trkpt lat="45.36929" lon="5.90425">
        <ele>1733.736668582</ele>
        <time>2015-05-28T16:18:04Z</time>
      </trkpt>
      <trkpt lat="45.36928" lon="5.90425">
        <ele>1733.736668582</ele>
        <time>2015-05-28T16:18:09Z</time>
      </trkpt>
      <trkpt lat="45.36928" lon="5.90425">
        <ele>1733.736668582</ele>
        <time>2015-05-28T16:18:15Z</time>
      </trkpt>
      <trkpt lat="45.36928" lon="5.90425">
        <ele>1733.736668582</ele>
        <time>2015-05-28T16:18:18Z</time>
      </trkpt>
      <trkpt lat="45.36928" lon="5.90425">
        <ele>1733.736668582</ele>
        <time>2015-05-28T16:18:24Z</time>
      </trkpt>
      <trkpt lat="45.36928" lon="5.90425">
        <ele>1733.736668582</ele>
        <time>2015-05-28T16:18:29Z</time>
      </trkpt>
      <trkpt lat="45.36928" lon="5.90425">
        <ele>1733.736668582</ele>
        <time>2015-05-28T16:18:34Z</time>
      </trkpt>
      <trkpt lat="45.36928" lon="5.90425">
        <ele>1733.736668582</ele>
        <time>2015-05-28T16:18:39Z</time>
      </trkpt>
      <trkpt lat="45.36928" lon="5.90425">
        <ele>1733.736668582</ele>
        <time>2015-05-28T16:18:44Z</time>
      </trkpt>
      <trkpt lat="45.36928" lon="5.90425">
        <ele>1733.736668582</ele>
        <time>2015-05-28T16:18:48Z</time>
      </trkpt>
      <trkpt lat="45.36928" lon="5.90424">
        <ele>1733.310077402</ele>
        <time>2015-05-28T16:18:53Z</time>
      </trkpt>
      <trkpt lat="45.36927" lon="5.90424">
        <ele>1732.883486222</ele>
        <time>2015-05-28T16:18:58Z</time>
      </trkpt>
      <trkpt lat="45.36927" lon="5.90424">
        <ele>1732.456895041</ele>
        <time>2015-05-28T16:19:03Z</time>
      </trkpt>
      <trkpt lat="45.36927" lon="5.90424">
        <ele>1732.030303861</ele>
        <time>2015-05-28T16:19:08Z</time>
      </trkpt>
      <trkpt lat="45.36927" lon="5.90424">
        <ele>1731.60371268</ele>
        <time>2015-05-28T16:19:13Z</time>
      </trkpt>
      <trkpt lat="45.36927" lon="5.90424">
        <ele>1731.1771215</ele>
        <time>2015-05-28T16:19:18Z</time>
      </trkpt>
      <trkpt lat="45.36914" lon="5.90417">
        <ele>1730.750530319</ele>
        <time>2015-05-28T16:19:23Z</time>
      </trkpt>
      <trkpt lat="45.36908" lon="5.90414">
        <ele>1730.323939139</ele>
        <time>2015-05-28T16:19:28Z</time>
      </trkpt>
      <trkpt lat="45.36907" lon="5.90415">
        <ele>1729.897347958</ele>
        <time>2015-05-28T16:19:33Z</time>
      </trkpt>
      <trkpt lat="45.36892" lon="5.90401">
        <ele>1729.470756778</ele>
        <time>2015-05-28T16:20:18Z</time>
      </trkpt>
      <trkpt lat="45.3689" lon="5.90402">
        <ele>1729.470756778</ele>
        <time>2015-05-28T16:20:23Z</time>
      </trkpt>
      <trkpt lat="45.3689" lon="5.904">
        <ele>1728.350029911</ele>
        <time>2015-05-28T16:20:28Z</time>
      </trkpt>
      <trkpt lat="45.36885" lon="5.9039">
        <ele>1727.229303044</ele>
        <time>2015-05-28T16:20:33Z</time>
      </trkpt>
      <trkpt lat="45.36887" lon="5.90378">
        <ele>1726.108576177</ele>
        <time>2015-05-28T16:20:38Z</time>
      </trkpt>
      <trkpt lat="45.36884" lon="5.9037">
        <ele>1724.98784931</ele>
        <time>2015-05-28T16:20:43Z</time>
      </trkpt>
      <trkpt lat="45.36883" lon="5.90351">
        <ele>1723.867122443</ele>
        <time>2015-05-28T16:20:48Z</time>
      </trkpt>
      <trkpt lat="45.36877" lon="5.90347">
        <ele>1722.746395576</ele>
        <time>2015-05-28T16:20:53Z</time>
      </trkpt>
      <trkpt lat="45.36867" lon="5.90327">
        <ele>1721.625668708</ele>
        <time>2015-05-28T16:20:58Z</time>
      </trkpt>
      <trkpt lat="45.36855" lon="5.90308">
        <ele>1722.18613874</ele>
        <time>2015-05-28T16:21:04Z</time>
      </trkpt>
      <trkpt lat="45.36859" lon="5.90278">
        <ele>1722.746608771</ele>
        <time>2015-05-28T16:21:13Z</time>
      </trkpt>
      <trkpt lat="45.3686" lon="5.90251">
        <ele>1723.307078802</ele>
        <time>2015-05-28T16:21:19Z</time>
      </trkpt>
      <trkpt lat="45.36859" lon="5.90248">
        <ele>1723.867548833</ele>
        <time>2015-05-28T16:21:24Z</time>
      </trkpt>
      <trkpt lat="45.36857" lon="5.90257">
        <ele>1724.428018864</ele>
        <time>2015-05-28T16:21:29Z</time>
      </trkpt>
      <trkpt lat="45.36827" lon="5.9031">
        <ele>1724.988488895</ele>
        <time>2015-05-28T16:21:34Z</time>
      </trkpt>
      <trkpt lat="45.36814" lon="5.90332">
        <ele>1725.548958927</ele>
        <time>2015-05-28T16:21:39Z</time>
      </trkpt>
      <trkpt lat="45.36812" lon="5.90335">
        <ele>1726.109428958</ele>
        <time>2015-05-28T16:21:44Z</time>
      </trkpt>
      <trkpt lat="45.36811" lon="5.90337">
        <ele>1726.669898989</ele>
        <time>2015-05-28T16:21:49Z</time>
      </trkpt>
      <trkpt lat="45.3681" lon="5.90338">
        <ele>1727.23036902</ele>
        <time>2015-05-28T16:21:54Z</time>
      </trkpt>
      <trkpt lat="45.3681" lon="5.90339">
        <ele>1727.790839051</ele>
        <time>2015-05-28T16:21:59Z</time>
      </trkpt>
      <trkpt lat="45.36814" lon="5.90342">
        <ele>1728.351309082</ele>
        <time>2015-05-28T16:22:04Z</time>
      </trkpt>
      <trkpt lat="45.36827" lon="5.90355">
        <ele>1734.574805374</ele>
        <time>2015-05-28T16:22:08Z</time>
      </trkpt>
      <trkpt lat="45.36833" lon="5.90361">
        <ele>1734.574805374</ele>
        <time>2015-05-28T16:22:14Z</time>
      </trkpt>
      <trkpt lat="45.36846" lon="5.90369">
        <ele>1739.446029295</ele>
        <time>2015-05-28T16:22:19Z</time>
      </trkpt>
      <trkpt lat="45.36845" lon="5.90378">
        <ele>1739.446029295</ele>
        <time>2015-05-28T16:22:24Z</time>
      </trkpt>
      <trkpt lat="45.36848" lon="5.90381">
        <ele>1744.486897285</ele>
        <time>2015-05-28T16:22:28Z</time>
      </trkpt>
      <trkpt lat="45.3685" lon="5.90382">
        <ele>1744.486897285</ele>
        <time>2015-05-28T16:22:34Z</time>
      </trkpt>
      <trkpt lat="45.3685" lon="5.90383">
        <ele>1744.486897285</ele>
        <time>2015-05-28T16:22:39Z</time>
      </trkpt>
      <trkpt lat="45.36851" lon="5.90382">
        <ele>1744.486897285</ele>
        <time>2015-05-28T16:22:44Z</time>
      </trkpt>
      <trkpt lat="45.36854" lon="5.90381">
        <ele>1744.486897285</ele>
        <time>2015-05-28T16:22:48Z</time>
      </trkpt>
      <trkpt lat="45.3686" lon="5.90377">
        <ele>1747.216127995</ele>
        <time>2015-05-28T16:22:54Z</time>
      </trkpt>
      <trkpt lat="45.36865" lon="5.90383">
        <ele>1747.216127995</ele>
        <time>2015-05-28T16:22:59Z</time>
      </trkpt>
      <trkpt lat="45.3688" lon="5.90378">
        <ele>1746.638317242</ele>
        <time>2015-05-28T16:23:04Z</time>
      </trkpt>
      <trkpt lat="45.36892" lon="5.90378">
        <ele>1745.443381947</ele>
        <time>2015-05-28T16:23:09Z</time>
      </trkpt>
      <trkpt lat="45.36901" lon="5.90381">
        <ele>1744.107967088</ele>
        <time>2015-05-28T16:23:14Z</time>
      </trkpt>
      <trkpt lat="45.36909" lon="5.90384">
        <ele>1744.107967088</ele>
        <time>2015-05-28T16:23:18Z</time>
      </trkpt>
      <trkpt lat="45.36912" lon="5.90388">
        <ele>1743.074248641</ele>
        <time>2015-05-28T16:23:23Z</time>
      </trkpt>
      <trkpt lat="45.36914" lon="5.90389">
        <ele>1743.074248641</ele>
        <time>2015-05-28T16:23:28Z</time>
      </trkpt>
      <trkpt lat="45.36916" lon="5.9039">
        <ele>1743.074248641</ele>
        <time>2015-05-28T16:23:34Z</time>
      </trkpt>
      <trkpt lat="45.36917" lon="5.9039">
        <ele>1743.074248641</ele>
        <time>2015-05-28T16:23:38Z</time>
      </trkpt>
      <trkpt lat="45.36917" lon="5.90391">
        <ele>1743.074248641</ele>
        <time>2015-05-28T16:23:44Z</time>
      </trkpt>
      <trkpt lat="45.36918" lon="5.90391">
        <ele>1743.074248641</ele>
        <time>2015-05-28T16:23:49Z</time>
      </trkpt>
      <trkpt lat="45.36918" lon="5.90391">
        <ele>1743.074248641</ele>
        <time>2015-05-28T16:23:54Z</time>
      </trkpt>
      <trkpt lat="45.36918" lon="5.9039">
        <ele>1743.074248641</ele>
        <time>2015-05-28T16:23:59Z</time>
      </trkpt>
      <trkpt lat="45.36918" lon="5.9039">
        <ele>1743.074248641</ele>
        <time>2015-05-28T16:24:04Z</time>
      </trkpt>
      <trkpt lat="45.36921" lon="5.90383">
        <ele>1743.039441461</ele>
        <time>2015-05-28T16:24:09Z</time>
      </trkpt>
      <trkpt lat="45.36923" lon="5.90379">
        <ele>1743.039441461</ele>
        <time>2015-05-28T16:24:14Z</time>
      </trkpt>
      <trkpt lat="45.3692" lon="5.90371">
        <ele>1743.493992343</ele>
        <time>2015-05-28T16:24:19Z</time>
      </trkpt>
      <trkpt lat="45.36921" lon="5.90361">
        <ele>1743.493992343</ele>
        <time>2015-05-28T16:24:24Z</time>
      </trkpt>
      <trkpt lat="45.36918" lon="5.90362">
        <ele>1744.685103044</ele>
        <time>2015-05-28T16:24:29Z</time>
      </trkpt>
      <trkpt lat="45.36916" lon="5.9036">
        <ele>1744.685103044</ele>
        <time>2015-05-28T16:24:34Z</time>
      </trkpt>
      <trkpt lat="45.36913" lon="5.9035">
        <ele>1747.12811862</ele>
        <time>2015-05-28T16:24:39Z</time>
      </trkpt>
      <trkpt lat="45.36909" lon="5.90342">
        <ele>1747.12811862</ele>
        <time>2015-05-28T16:24:44Z</time>
      </trkpt>
      <trkpt lat="45.36906" lon="5.90338">
        <ele>1749.71194988</ele>
        <time>2015-05-28T16:24:49Z</time>
      </trkpt>
      <trkpt lat="45.36907" lon="5.90332">
        <ele>1749.71194988</ele>
        <time>2015-05-28T16:24:54Z</time>
      </trkpt>
      <trkpt lat="45.36902" lon="5.90332">
        <ele>1752.271571544</ele>
        <time>2015-05-28T16:24:59Z</time>
      </trkpt>
      <trkpt lat="45.36897" lon="5.90325">
        <ele>1752.271571544</ele>
        <time>2015-05-28T16:25:04Z</time>
      </trkpt>
      <trkpt lat="45.36892" lon="5.90318">
        <ele>1754.942560042</ele>
        <time>2015-05-28T16:25:09Z</time>
      </trkpt>
      <trkpt lat="45.36888" lon="5.90313">
        <ele>1754.942560042</ele>
        <time>2015-05-28T16:25:14Z</time>
      </trkpt>
      <trkpt lat="45.36887" lon="5.90308">
        <ele>1754.942560042</ele>
        <time>2015-05-28T16:25:19Z</time>
      </trkpt>
      <trkpt lat="45.36884" lon="5.90304">
        <ele>1757.994537701</ele>
        <time>2015-05-28T16:25:24Z</time>
      </trkpt>
      <trkpt lat="45.36884" lon="5.90301">
        <ele>1757.994537701</ele>
        <time>2015-05-28T16:25:29Z</time>
      </trkpt>
      <trkpt lat="45.36882" lon="5.90302">
        <ele>1757.994537701</ele>
        <time>2015-05-28T16:25:34Z</time>
      </trkpt>
      <trkpt lat="45.36881" lon="5.90304">
        <ele>1757.994537701</ele>
        <time>2015-05-28T16:25:39Z</time>
      </trkpt>
      <trkpt lat="45.36881" lon="5.90303">
        <ele>1757.994537701</ele>
        <time>2015-05-28T16:25:44Z</time>
      </trkpt>
      <trkpt lat="45.36881" lon="5.90303">
        <ele>1757.994537701</ele>
        <time>2015-05-28T16:25:49Z</time>
      </trkpt>
      <trkpt lat="45.36881" lon="5.90303">
        <ele>1757.994537701</ele>
        <time>2015-05-28T16:25:54Z</time>
      </trkpt>
      <trkpt lat="45.36881" lon="5.90304">
        <ele>1757.994537701</ele>
        <time>2015-05-28T16:25:59Z</time>
      </trkpt>
      <trkpt lat="45.36881" lon="5.90304">
        <ele>1757.994537701</ele>
        <time>2015-05-28T16:26:04Z</time>
      </trkpt>
      <trkpt lat="45.36881" lon="5.90304">
        <ele>1757.994537701</ele>
        <time>2015-05-28T16:26:09Z</time>
      </trkpt>
      <trkpt lat="45.36881" lon="5.90304">
        <ele>1757.994537701</ele>
        <time>2015-05-28T16:26:14Z</time>
      </trkpt>
      <trkpt lat="45.36881" lon="5.90304">
        <ele>1757.994537701</ele>
        <time>2015-05-28T16:26:19Z</time>
      </trkpt>
      <trkpt lat="45.36881" lon="5.90304">
        <ele>1757.994537701</ele>
        <time>2015-05-28T16:26:24Z</time>
      </trkpt>
      <trkpt lat="45.36881" lon="5.90304">
        <ele>1757.994537701</ele>
        <time>2015-05-28T16:26:29Z</time>
      </trkpt>
      <trkpt lat="45.36881" lon="5.90304">
        <ele>1757.994537701</ele>
        <time>2015-05-28T16:26:33Z</time>
      </trkpt>
      <trkpt lat="45.36881" lon="5.90304">
        <ele>1757.994537701</ele>
        <time>2015-05-28T16:26:39Z</time>
      </trkpt>
      <trkpt lat="45.36881" lon="5.90304">
        <ele>1757.994537701</ele>
        <time>2015-05-28T16:26:43Z</time>
      </trkpt>
      <trkpt lat="45.36881" lon="5.90304">
        <ele>1757.994537701</ele>
        <time>2015-05-28T16:26:49Z</time>
      </trkpt>
      <trkpt lat="45.36881" lon="5.90304">
        <ele>1757.994537701</ele>
        <time>2015-05-28T16:26:53Z</time>
      </trkpt>
      <trkpt lat="45.36884" lon="5.90298">
        <ele>1761.820587403</ele>
        <time>2015-05-28T16:26:59Z</time>
      </trkpt>
      <trkpt lat="45.36884" lon="5.90292">
        <ele>1761.820587403</ele>
        <time>2015-05-28T16:27:04Z</time>
      </trkpt>
      <trkpt lat="45.36885" lon="5.90292">
        <ele>1761.820587403</ele>
        <time>2015-05-28T16:27:08Z</time>
      </trkpt>
      <trkpt lat="45.36887" lon="5.90292">
        <ele>1761.820587403</ele>
        <time>2015-05-28T16:27:14Z</time>
      </trkpt>
      <trkpt lat="45.36886" lon="5.90292">
        <ele>1761.820587403</ele>
        <time>2015-05-28T16:27:19Z</time>
      </trkpt>
      <trkpt lat="45.36886" lon="5.90292">
        <ele>1761.820587403</ele>
        <time>2015-05-28T16:27:24Z</time>
      </trkpt>
      <trkpt lat="45.36886" lon="5.90292">
        <ele>1761.820587403</ele>
        <time>2015-05-28T16:27:29Z</time>
      </trkpt>
      <trkpt lat="45.36887" lon="5.90292">
        <ele>1761.820587403</ele>
        <time>2015-05-28T16:27:34Z</time>
      </trkpt>
      <trkpt lat="45.36887" lon="5.90292">
        <ele>1761.820587403</ele>
        <time>2015-05-28T16:27:39Z</time>
      </trkpt>
      <trkpt lat="45.36885" lon="5.90291">
        <ele>1761.820587403</ele>
        <time>2015-05-28T16:27:44Z</time>
      </trkpt>
      <trkpt lat="45.36884" lon="5.90291">
        <ele>1764.477206591</ele>
        <time>2015-05-28T16:27:48Z</time>
      </trkpt>
      <trkpt lat="45.36884" lon="5.90285">
        <ele>1764.477206591</ele>
        <time>2015-05-28T16:27:54Z</time>
      </trkpt>
      <trkpt lat="45.36884" lon="5.90283">
        <ele>1764.477206591</ele>
        <time>2015-05-28T16:27:59Z</time>
      </trkpt>
      <trkpt lat="45.36884" lon="5.90284">
        <ele>1764.477206591</ele>
        <time>2015-05-28T16:28:04Z</time>
      </trkpt>
      <trkpt lat="45.36877" lon="5.90284">
        <ele>1765.094425464</ele>
        <time>2015-05-28T16:28:08Z</time>
      </trkpt>
      <trkpt lat="45.36867" lon="5.90308">
        <ele>1765.711644337</ele>
        <time>2015-05-28T16:28:14Z</time>
      </trkpt>
      <trkpt lat="45.3686" lon="5.90298">
        <ele>1766.32886321</ele>
        <time>2015-05-28T16:28:19Z</time>
      </trkpt>
      <trkpt lat="45.36853" lon="5.90316">
        <ele>1766.647055079</ele>
        <time>2015-05-28T16:28:24Z</time>
      </trkpt>
      <trkpt lat="45.36852" lon="5.9031">
        <ele>1766.965246948</ele>
        <time>2015-05-28T16:28:29Z</time>
      </trkpt>
      <trkpt lat="45.36852" lon="5.90281">
        <ele>1767.283438816</ele>
        <time>2015-05-28T16:28:34Z</time>
      </trkpt>
      <trkpt lat="45.36845" lon="5.90273">
        <ele>1768.987699474</ele>
        <time>2015-05-28T16:28:39Z</time>
      </trkpt>
      <trkpt lat="45.36846" lon="5.90266">
        <ele>1768.987699474</ele>
        <time>2015-05-28T16:28:44Z</time>
      </trkpt>
      <trkpt lat="45.36837" lon="5.90265">
        <ele>1770.227490924</ele>
        <time>2015-05-28T16:28:48Z</time>
      </trkpt>
      <trkpt lat="45.36836" lon="5.90258">
        <ele>1770.227490924</ele>
        <time>2015-05-28T16:28:54Z</time>
      </trkpt>
      <trkpt lat="45.36829" lon="5.90258">
        <ele>1772.18519402</ele>
        <time>2015-05-28T16:28:59Z</time>
      </trkpt>
      <trkpt lat="45.36829" lon="5.90259">
        <ele>1772.18519402</ele>
        <time>2015-05-28T16:29:04Z</time>
      </trkpt>
      <trkpt lat="45.36828" lon="5.90259">
        <ele>1772.18519402</ele>
        <time>2015-05-28T16:29:08Z</time>
      </trkpt>
      <trkpt lat="45.36828" lon="5.90259">
        <ele>1772.18519402</ele>
        <time>2015-05-28T16:29:14Z</time>
      </trkpt>
      <trkpt lat="45.36828" lon="5.90259">
        <ele>1772.18519402</ele>
        <time>2015-05-28T16:29:19Z</time>
      </trkpt>
      <trkpt lat="45.36828" lon="5.90259">
        <ele>1772.18519402</ele>
        <time>2015-05-28T16:29:24Z</time>
      </trkpt>
      <trkpt lat="45.36828" lon="5.90259">
        <ele>1772.18519402</ele>
        <time>2015-05-28T16:29:28Z</time>
      </trkpt>
      <trkpt lat="45.36828" lon="5.90259">
        <ele>1772.18519402</ele>
        <time>2015-05-28T16:29:34Z</time>
      </trkpt>
      <trkpt lat="45.36828" lon="5.90259">
        <ele>1772.18519402</ele>
        <time>2015-05-28T16:29:39Z</time>
      </trkpt>
      <trkpt lat="45.36828" lon="5.90259">
        <ele>1772.18519402</ele>
        <time>2015-05-28T16:29:44Z</time>
      </trkpt>
      <trkpt lat="45.36828" lon="5.90259">
        <ele>1772.18519402</ele>
        <time>2015-05-28T16:29:49Z</time>
      </trkpt>
      <trkpt lat="45.36828" lon="5.90259">
        <ele>1772.18519402</ele>
        <time>2015-05-28T16:29:54Z</time>
      </trkpt>
      <trkpt lat="45.36825" lon="5.90254">
        <ele>1772.18519402</ele>
        <time>2015-05-28T16:29:59Z</time>
      </trkpt>
      <trkpt lat="45.3682" lon="5.90243">
        <ele>1774.801689643</ele>
        <time>2015-05-28T16:30:03Z</time>
      </trkpt>
      <trkpt lat="45.36818" lon="5.90238">
        <ele>1774.801689643</ele>
        <time>2015-05-28T16:30:09Z</time>
      </trkpt>
      <trkpt lat="45.36816" lon="5.90237">
        <ele>1774.801689643</ele>
        <time>2015-05-28T16:30:13Z</time>
      </trkpt>
      <trkpt lat="45.36819" lon="5.90237">
        <ele>1774.801689643</ele>
        <time>2015-05-28T16:30:18Z</time>
      </trkpt>
      <trkpt lat="45.36819" lon="5.90237">
        <ele>1774.801689643</ele>
        <time>2015-05-28T16:30:24Z</time>
      </trkpt>
      <trkpt lat="45.3682" lon="5.90237">
        <ele>1777.876503078</ele>
        <time>2015-05-28T16:30:29Z</time>
      </trkpt>
      <trkpt lat="45.3682" lon="5.90238">
        <ele>1777.876503078</ele>
        <time>2015-05-28T16:30:34Z</time>
      </trkpt>
      <trkpt lat="45.3682" lon="5.90238">
        <ele>1777.876503078</ele>
        <time>2015-05-28T16:30:39Z</time>
      </trkpt>
      <trkpt lat="45.3682" lon="5.90238">
        <ele>1777.876503078</ele>
        <time>2015-05-28T16:30:44Z</time>
      </trkpt>
      <trkpt lat="45.3682" lon="5.90238">
        <ele>1777.876503078</ele>
        <time>2015-05-28T16:30:49Z</time>
      </trkpt>
      <trkpt lat="45.3682" lon="5.90238">
        <ele>1777.876503078</ele>
        <time>2015-05-28T16:30:54Z</time>
      </trkpt>
      <trkpt lat="45.3682" lon="5.90238">
        <ele>1777.876503078</ele>
        <time>2015-05-28T16:30:59Z</time>
      </trkpt>
      <trkpt lat="45.3682" lon="5.90238">
        <ele>1777.876503078</ele>
        <time>2015-05-28T16:31:04Z</time>
      </trkpt>
      <trkpt lat="45.36821" lon="5.90238">
        <ele>1777.876503078</ele>
        <time>2015-05-28T16:31:09Z</time>
      </trkpt>
      <trkpt lat="45.36821" lon="5.90238">
        <ele>1777.876503078</ele>
        <time>2015-05-28T16:31:14Z</time>
      </trkpt>
      <trkpt lat="45.36821" lon="5.90238">
        <ele>1777.876503078</ele>
        <time>2015-05-28T16:31:19Z</time>
      </trkpt>
      <trkpt lat="45.36821" lon="5.90238">
        <ele>1777.876503078</ele>
        <time>2015-05-28T16:31:24Z</time>
      </trkpt>
      <trkpt lat="45.36821" lon="5.90238">
        <ele>1777.876503078</ele>
        <time>2015-05-28T16:31:29Z</time>
      </trkpt>
      <trkpt lat="45.36821" lon="5.90238">
        <ele>1777.876503078</ele>
        <time>2015-05-28T16:31:35Z</time>
      </trkpt>
      <trkpt lat="45.36821" lon="5.90238">
        <ele>1777.876503078</ele>
        <time>2015-05-28T16:31:39Z</time>
      </trkpt>
      <trkpt lat="45.36821" lon="5.90238">
        <ele>1777.876503078</ele>
        <time>2015-05-28T16:31:44Z</time>
      </trkpt>
      <trkpt lat="45.36821" lon="5.90238">
        <ele>1779.765850867</ele>
        <time>2015-05-28T16:31:49Z</time>
      </trkpt>
      <trkpt lat="45.36822" lon="5.90195">
        <ele>1781.655198655</ele>
        <time>2015-05-28T16:32:04Z</time>
      </trkpt>
      <trkpt lat="45.36828" lon="5.90205">
        <ele>1785.643042901</ele>
        <time>2015-05-28T16:32:09Z</time>
      </trkpt>
      <trkpt lat="45.36835" lon="5.90214">
        <ele>1790.678341722</ele>
        <time>2015-05-28T16:32:14Z</time>
      </trkpt>
      <trkpt lat="45.36842" lon="5.90224">
        <ele>1796.094066199</ele>
        <time>2015-05-28T16:32:19Z</time>
      </trkpt>
      <trkpt lat="45.36845" lon="5.90231">
        <ele>1796.094066199</ele>
        <time>2015-05-28T16:32:24Z</time>
      </trkpt>
      <trkpt lat="45.36851" lon="5.9023">
        <ele>1801.847877757</ele>
        <time>2015-05-28T16:32:29Z</time>
      </trkpt>
      <trkpt lat="45.36855" lon="5.90236">
        <ele>1801.847877757</ele>
        <time>2015-05-28T16:32:33Z</time>
      </trkpt>
      <trkpt lat="45.36855" lon="5.90239">
        <ele>1801.847877757</ele>
        <time>2015-05-28T16:32:38Z</time>
      </trkpt>
      <trkpt lat="45.36854" lon="5.90246">
        <ele>1807.611708575</ele>
        <time>2015-05-28T16:32:43Z</time>
      </trkpt>
      <trkpt lat="45.36854" lon="5.90245">
        <ele>1807.611708575</ele>
        <time>2015-05-28T16:32:48Z</time>
      </trkpt>
      <trkpt lat="45.36855" lon="5.90245">
        <ele>1807.611708575</ele>
        <time>2015-05-28T16:32:53Z</time>
      </trkpt>
      <trkpt lat="45.36856" lon="5.90246">
        <ele>1807.611708575</ele>
        <time>2015-05-28T16:32:59Z</time>
      </trkpt>
      <trkpt lat="45.36861" lon="5.90242">
        <ele>1807.611708575</ele>
        <time>2015-05-28T16:33:04Z</time>
      </trkpt>
      <trkpt lat="45.36867" lon="5.90243">
        <ele>1812.937800359</ele>
        <time>2015-05-28T16:33:09Z</time>
      </trkpt>
      <trkpt lat="45.36873" lon="5.90236">
        <ele>1812.937800359</ele>
        <time>2015-05-28T16:33:14Z</time>
      </trkpt>
      <trkpt lat="45.36877" lon="5.90241">
        <ele>1818.133435585</ele>
        <time>2015-05-28T16:33:19Z</time>
      </trkpt>
      <trkpt lat="45.36883" lon="5.90242">
        <ele>1818.133435585</ele>
        <time>2015-05-28T16:33:24Z</time>
      </trkpt>
      <trkpt lat="45.3689" lon="5.90231">
        <ele>1822.33117659</ele>
        <time>2015-05-28T16:33:28Z</time>
      </trkpt>
      <trkpt lat="45.36895" lon="5.90225">
        <ele>1822.33117659</ele>
        <time>2015-05-28T16:33:33Z</time>
      </trkpt>
      <trkpt lat="45.369" lon="5.90234">
        <ele>1826.459823123</ele>
        <time>2015-05-28T16:33:38Z</time>
      </trkpt>
      <trkpt lat="45.36901" lon="5.90229">
        <ele>1827.619685863</ele>
        <time>2015-05-28T16:33:45Z</time>
      </trkpt>
      <trkpt lat="45.36901" lon="5.90228">
        <ele>1828.779548602</ele>
        <time>2015-05-28T16:33:49Z</time>
      </trkpt>
      <trkpt lat="45.36901" lon="5.90234">
        <ele>1829.939411342</ele>
        <time>2015-05-28T16:33:54Z</time>
      </trkpt>
      <trkpt lat="45.36901" lon="5.90239">
        <ele>1829.939411342</ele>
        <time>2015-05-28T16:33:59Z</time>
      </trkpt>
      <trkpt lat="45.36901" lon="5.90241">
        <ele>1829.939411342</ele>
        <time>2015-05-28T16:34:04Z</time>
      </trkpt>
      <trkpt lat="45.36901" lon="5.90244">
        <ele>1829.939411342</ele>
        <time>2015-05-28T16:34:09Z</time>
      </trkpt>
      <trkpt lat="45.36901" lon="5.90247">
        <ele>1832.811225316</ele>
        <time>2015-05-28T16:34:15Z</time>
      </trkpt>
      <trkpt lat="45.36904" lon="5.90265">
        <ele>1836.124369845</ele>
        <time>2015-05-28T16:34:19Z</time>
      </trkpt>
      <trkpt lat="45.36913" lon="5.90267">
        <ele>1836.124369845</ele>
        <time>2015-05-28T16:34:24Z</time>
      </trkpt>
      <trkpt lat="45.36919" lon="5.9027">
        <ele>1838.400112812</ele>
        <time>2015-05-28T16:34:29Z</time>
      </trkpt>
      <trkpt lat="45.36921" lon="5.90271">
        <ele>1838.400112812</ele>
        <time>2015-05-28T16:34:34Z</time>
      </trkpt>
      <trkpt lat="45.36921" lon="5.90272">
        <ele>1838.400112812</ele>
        <time>2015-05-28T16:34:39Z</time>
      </trkpt>
      <trkpt lat="45.36922" lon="5.90274">
        <ele>1838.400112812</ele>
        <time>2015-05-28T16:34:44Z</time>
      </trkpt>
      <trkpt lat="45.36922" lon="5.90274">
        <ele>1838.400112812</ele>
        <time>2015-05-28T16:34:49Z</time>
      </trkpt>
      <trkpt lat="45.36928" lon="5.90288">
        <ele>1840.14504557</ele>
        <time>2015-05-28T16:34:55Z</time>
      </trkpt>
      <trkpt lat="45.36936" lon="5.90304">
        <ele>1841.398022702</ele>
        <time>2015-05-28T16:34:59Z</time>
      </trkpt>
      <trkpt lat="45.3694" lon="5.90308">
        <ele>1841.398022702</ele>
        <time>2015-05-28T16:35:04Z</time>
      </trkpt>
      <trkpt lat="45.36941" lon="5.90309">
        <ele>1841.398022702</ele>
        <time>2015-05-28T16:35:09Z</time>
      </trkpt>
      <trkpt lat="45.36943" lon="5.90317">
        <ele>1842.917280063</ele>
        <time>2015-05-28T16:35:15Z</time>
      </trkpt>
      <trkpt lat="45.36947" lon="5.90317">
        <ele>1842.917280063</ele>
        <time>2015-05-28T16:35:19Z</time>
      </trkpt>
      <trkpt lat="45.36946" lon="5.90317">
        <ele>1842.917280063</ele>
        <time>2015-05-28T16:35:24Z</time>
      </trkpt>
      <trkpt lat="45.36947" lon="5.90318">
        <ele>1842.917280063</ele>
        <time>2015-05-28T16:35:29Z</time>
      </trkpt>
      <trkpt lat="45.36947" lon="5.90318">
        <ele>1842.917280063</ele>
        <time>2015-05-28T16:35:34Z</time>
      </trkpt>
      <trkpt lat="45.36947" lon="5.90318">
        <ele>1842.917280063</ele>
        <time>2015-05-28T16:35:39Z</time>
      </trkpt>
      <trkpt lat="45.36947" lon="5.90318">
        <ele>1842.917280063</ele>
        <time>2015-05-28T16:35:44Z</time>
      </trkpt>
      <trkpt lat="45.36947" lon="5.90318">
        <ele>1842.917280063</ele>
        <time>2015-05-28T16:35:49Z</time>
      </trkpt>
      <trkpt lat="45.36947" lon="5.90318">
        <ele>1842.917280063</ele>
        <time>2015-05-28T16:35:54Z</time>
      </trkpt>
      <trkpt lat="45.36947" lon="5.90318">
        <ele>1842.917280063</ele>
        <time>2015-05-28T16:35:59Z</time>
      </trkpt>
      <trkpt lat="45.36947" lon="5.90318">
        <ele>1842.917280063</ele>
        <time>2015-05-28T16:36:04Z</time>
      </trkpt>
      <trkpt lat="45.36947" lon="5.90318">
        <ele>1842.917280063</ele>
        <time>2015-05-28T16:36:09Z</time>
      </trkpt>
      <trkpt lat="45.36953" lon="5.90315">
        <ele>1844.540215404</ele>
        <time>2015-05-28T16:36:14Z</time>
      </trkpt>
      <trkpt lat="45.36958" lon="5.90311">
        <ele>1844.540215404</ele>
        <time>2015-05-28T16:36:19Z</time>
      </trkpt>
      <trkpt lat="45.36966" lon="5.90319">
        <ele>1846.54846577</ele>
        <time>2015-05-28T16:36:24Z</time>
      </trkpt>
      <trkpt lat="45.36966" lon="5.90324">
        <ele>1846.54846577</ele>
        <time>2015-05-28T16:36:29Z</time>
      </trkpt>
      <trkpt lat="45.36968" lon="5.9032">
        <ele>1846.54846577</ele>
        <time>2015-05-28T16:36:34Z</time>
      </trkpt>
      <trkpt lat="45.3697" lon="5.90319">
        <ele>1848.625683966</ele>
        <time>2015-05-28T16:36:38Z</time>
      </trkpt>
      <trkpt lat="45.36971" lon="5.90319">
        <ele>1849.243382153</ele>
        <time>2015-05-28T16:36:45Z</time>
      </trkpt>
      <trkpt lat="45.36971" lon="5.90321">
        <ele>1849.86108034</ele>
        <time>2015-05-28T16:36:55Z</time>
      </trkpt>
      <trkpt lat="45.3697" lon="5.90332">
        <ele>1850.478778528</ele>
        <time>2015-05-28T16:36:59Z</time>
      </trkpt>
      <trkpt lat="45.3697" lon="5.90333">
        <ele>1850.478778528</ele>
        <time>2015-05-28T16:37:04Z</time>
      </trkpt>
      <trkpt lat="45.3697" lon="5.90333">
        <ele>1850.478778528</ele>
        <time>2015-05-28T16:37:09Z</time>
      </trkpt>
      <trkpt lat="45.36971" lon="5.90335">
        <ele>1850.478778528</ele>
        <time>2015-05-28T16:37:15Z</time>
      </trkpt>
      <trkpt lat="45.36973" lon="5.90337">
        <ele>1850.478778528</ele>
        <time>2015-05-28T16:37:19Z</time>
      </trkpt>
      <trkpt lat="45.36985" lon="5.90338">
        <ele>1852.269342877</ele>
        <time>2015-05-28T16:37:24Z</time>
      </trkpt>
      <trkpt lat="45.36983" lon="5.90351">
        <ele>1853.859227651</ele>
        <time>2015-05-28T16:37:29Z</time>
      </trkpt>
      <trkpt lat="45.36984" lon="5.90355">
        <ele>1853.859227651</ele>
        <time>2015-05-28T16:37:35Z</time>
      </trkpt>
      <trkpt lat="45.36987" lon="5.90355">
        <ele>1853.859227651</ele>
        <time>2015-05-28T16:37:39Z</time>
      </trkpt>
      <trkpt lat="45.36988" lon="5.90356">
        <ele>1853.859227651</ele>
        <time>2015-05-28T16:37:44Z</time>
      </trkpt>
      <trkpt lat="45.36988" lon="5.90357">
        <ele>1853.859227651</ele>
        <time>2015-05-28T16:37:49Z</time>
      </trkpt>
      <trkpt lat="45.36992" lon="5.90355">
        <ele>1854.400594297</ele>
        <time>2015-05-28T16:37:54Z</time>
      </trkpt>
      <trkpt lat="45.36997" lon="5.9035">
        <ele>1854.400594297</ele>
        <time>2015-05-28T16:37:59Z</time>
      </trkpt>
      <trkpt lat="45.37008" lon="5.90352">
        <ele>1852.246290376</ele>
        <time>2015-05-28T16:38:04Z</time>
      </trkpt>
      <trkpt lat="45.3701" lon="5.90364">
        <ele>1852.246290376</ele>
        <time>2015-05-28T16:38:09Z</time>
      </trkpt>
      <trkpt lat="45.37017" lon="5.90371">
        <ele>1851.498162337</ele>
        <time>2015-05-28T16:38:14Z</time>
      </trkpt>
      <trkpt lat="45.37019" lon="5.90374">
        <ele>1851.498162337</ele>
        <time>2015-05-28T16:38:19Z</time>
      </trkpt>
      <trkpt lat="45.3702" lon="5.90376">
        <ele>1851.498162337</ele>
        <time>2015-05-28T16:38:24Z</time>
      </trkpt>
      <trkpt lat="45.3702" lon="5.90376">
        <ele>1851.498162337</ele>
        <time>2015-05-28T16:38:29Z</time>
      </trkpt>
      <trkpt lat="45.3702" lon="5.90377">
        <ele>1851.498162337</ele>
        <time>2015-05-28T16:38:34Z</time>
      </trkpt>
      <trkpt lat="45.3702" lon="5.90377">
        <ele>1851.498162337</ele>
        <time>2015-05-28T16:38:39Z</time>
      </trkpt>
      <trkpt lat="45.3702" lon="5.90377">
        <ele>1851.498162337</ele>
        <time>2015-05-28T16:38:44Z</time>
      </trkpt>
      <trkpt lat="45.3702" lon="5.90377">
        <ele>1851.498162337</ele>
        <time>2015-05-28T16:38:49Z</time>
      </trkpt>
      <trkpt lat="45.37023" lon="5.90376">
        <ele>1851.498162337</ele>
        <time>2015-05-28T16:38:55Z</time>
      </trkpt>
      <trkpt lat="45.3703" lon="5.90376">
        <ele>1850.188415603</ele>
        <time>2015-05-28T16:38:59Z</time>
      </trkpt>
      <trkpt lat="45.37031" lon="5.90379">
        <ele>1850.188415603</ele>
        <time>2015-05-28T16:39:04Z</time>
      </trkpt>
      <trkpt lat="45.37032" lon="5.9038">
        <ele>1850.188415603</ele>
        <time>2015-05-28T16:39:09Z</time>
      </trkpt>
      <trkpt lat="45.37032" lon="5.90381">
        <ele>1850.188415603</ele>
        <time>2015-05-28T16:39:14Z</time>
      </trkpt>
      <trkpt lat="45.37032" lon="5.90382">
        <ele>1850.188415603</ele>
        <time>2015-05-28T16:39:19Z</time>
      </trkpt>
      <trkpt lat="45.37034" lon="5.90392">
        <ele>1849.665865598</ele>
        <time>2015-05-28T16:39:24Z</time>
      </trkpt>
      <trkpt lat="45.3704" lon="5.90395">
        <ele>1849.665865598</ele>
        <time>2015-05-28T16:39:29Z</time>
      </trkpt>
      <trkpt lat="45.37043" lon="5.90413">
        <ele>1849.881040541</ele>
        <time>2015-05-28T16:39:34Z</time>
      </trkpt>
      <trkpt lat="45.37049" lon="5.9042">
        <ele>1849.881040541</ele>
        <time>2015-05-28T16:39:39Z</time>
      </trkpt>
      <trkpt lat="45.37056" lon="5.90424">
        <ele>1850.065456941</ele>
        <time>2015-05-28T16:39:44Z</time>
      </trkpt>
      <trkpt lat="45.37059" lon="5.90428">
        <ele>1850.065456941</ele>
        <time>2015-05-28T16:39:49Z</time>
      </trkpt>
      <trkpt lat="45.37065" lon="5.9044">
        <ele>1850.660018446</ele>
        <time>2015-05-28T16:39:55Z</time>
      </trkpt>
      <trkpt lat="45.37066" lon="5.90441">
        <ele>1850.660018446</ele>
        <time>2015-05-28T16:39:59Z</time>
      </trkpt>
      <trkpt lat="45.37068" lon="5.9044">
        <ele>1850.660018446</ele>
        <time>2015-05-28T16:40:04Z</time>
      </trkpt>
      <trkpt lat="45.37068" lon="5.90442">
        <ele>1850.660018446</ele>
        <time>2015-05-28T16:40:09Z</time>
      </trkpt>
      <trkpt lat="45.37068" lon="5.90441">
        <ele>1850.660018446</ele>
        <time>2015-05-28T16:40:14Z</time>
      </trkpt>
      <trkpt lat="45.37068" lon="5.90441">
        <ele>1850.660018446</ele>
        <time>2015-05-28T16:40:19Z</time>
      </trkpt>
      <trkpt lat="45.37068" lon="5.90442">
        <ele>1850.660018446</ele>
        <time>2015-05-28T16:40:24Z</time>
      </trkpt>
      <trkpt lat="45.37068" lon="5.90442">
        <ele>1850.660018446</ele>
        <time>2015-05-28T16:40:29Z</time>
      </trkpt>
      <trkpt lat="45.37069" lon="5.90442">
        <ele>1850.660018446</ele>
        <time>2015-05-28T16:40:34Z</time>
      </trkpt>
      <trkpt lat="45.37068" lon="5.90448">
        <ele>1849.622140485</ele>
        <time>2015-05-28T16:40:39Z</time>
      </trkpt>
      <trkpt lat="45.37071" lon="5.90452">
        <ele>1849.622140485</ele>
        <time>2015-05-28T16:40:44Z</time>
      </trkpt>
      <trkpt lat="45.37074" lon="5.90454">
        <ele>1849.622140485</ele>
        <time>2015-05-28T16:40:49Z</time>
      </trkpt>
      <trkpt lat="45.37073" lon="5.90458">
        <ele>1848.954790601</ele>
        <time>2015-05-28T16:40:55Z</time>
      </trkpt>
      <trkpt lat="45.37078" lon="5.90468">
        <ele>1848.954790601</ele>
        <time>2015-05-28T16:40:59Z</time>
      </trkpt>
      <trkpt lat="45.37078" lon="5.90472">
        <ele>1848.783333806</ele>
        <time>2015-05-28T16:41:04Z</time>
      </trkpt>
      <trkpt lat="45.37083" lon="5.90472">
        <ele>1848.783333806</ele>
        <time>2015-05-28T16:41:09Z</time>
      </trkpt>
      <trkpt lat="45.3708" lon="5.90472">
        <ele>1848.783333806</ele>
        <time>2015-05-28T16:41:14Z</time>
      </trkpt>
      <trkpt lat="45.37083" lon="5.90472">
        <ele>1848.35775893</ele>
        <time>2015-05-28T16:41:19Z</time>
      </trkpt>
      <trkpt lat="45.37083" lon="5.90473">
        <ele>1848.35775893</ele>
        <time>2015-05-28T16:41:24Z</time>
      </trkpt>
      <trkpt lat="45.37076" lon="5.90465">
        <ele>1848.35775893</ele>
        <time>2015-05-28T16:41:29Z</time>
      </trkpt>
      <trkpt lat="45.37073" lon="5.90467">
        <ele>1847.560182507</ele>
        <time>2015-05-28T16:41:34Z</time>
      </trkpt>
      <trkpt lat="45.37071" lon="5.90467">
        <ele>1847.560182507</ele>
        <time>2015-05-28T16:41:39Z</time>
      </trkpt>
      <trkpt lat="45.37071" lon="5.90468">
        <ele>1847.560182507</ele>
        <time>2015-05-28T16:41:44Z</time>
      </trkpt>
      <trkpt lat="45.3707" lon="5.90468">
        <ele>1847.560182507</ele>
        <time>2015-05-28T16:41:49Z</time>
      </trkpt>
      <trkpt lat="45.37069" lon="5.90468">
        <ele>1847.560182507</ele>
        <time>2015-05-28T16:41:54Z</time>
      </trkpt>
      <trkpt lat="45.3707" lon="5.90467">
        <ele>1847.560182507</ele>
        <time>2015-05-28T16:41:59Z</time>
      </trkpt>
      <trkpt lat="45.37069" lon="5.90466">
        <ele>1847.560182507</ele>
        <time>2015-05-28T16:42:04Z</time>
      </trkpt>
      <trkpt lat="45.37069" lon="5.90459">
        <ele>1847.867509535</ele>
        <time>2015-05-28T16:42:09Z</time>
      </trkpt>
      <trkpt lat="45.37071" lon="5.90455">
        <ele>1847.867509535</ele>
        <time>2015-05-28T16:42:15Z</time>
      </trkpt>
      <trkpt lat="45.3707" lon="5.90452">
        <ele>1847.867509535</ele>
        <time>2015-05-28T16:42:19Z</time>
      </trkpt>
      <trkpt lat="45.3707" lon="5.90451">
        <ele>1847.867509535</ele>
        <time>2015-05-28T16:42:24Z</time>
      </trkpt>
      <trkpt lat="45.3707" lon="5.9045">
        <ele>1847.867509535</ele>
        <time>2015-05-28T16:42:29Z</time>
      </trkpt>
      <trkpt lat="45.3707" lon="5.9045">
        <ele>1847.867509535</ele>
        <time>2015-05-28T16:42:33Z</time>
      </trkpt>
      <trkpt lat="45.3707" lon="5.9045">
        <ele>1847.867509535</ele>
        <time>2015-05-28T16:42:40Z</time>
      </trkpt>
      <trkpt lat="45.3707" lon="5.9045">
        <ele>1847.867509535</ele>
        <time>2015-05-28T16:42:44Z</time>
      </trkpt>
      <trkpt lat="45.3707" lon="5.9045">
        <ele>1847.867509535</ele>
        <time>2015-05-28T16:42:49Z</time>
      </trkpt>
      <trkpt lat="45.3707" lon="5.9045">
        <ele>1847.867509535</ele>
        <time>2015-05-28T16:42:54Z</time>
      </trkpt>
      <trkpt lat="45.3707" lon="5.9045">
        <ele>1847.867509535</ele>
        <time>2015-05-28T16:42:59Z</time>
      </trkpt>
      <trkpt lat="45.3707" lon="5.9045">
        <ele>1847.867509535</ele>
        <time>2015-05-28T16:43:04Z</time>
      </trkpt>
      <trkpt lat="45.37077" lon="5.90434">
        <ele>1848.050903922</ele>
        <time>2015-05-28T16:43:09Z</time>
      </trkpt>
      <trkpt lat="45.37083" lon="5.9043">
        <ele>1848.050903922</ele>
        <time>2015-05-28T16:43:14Z</time>
      </trkpt>
      <trkpt lat="45.37094" lon="5.90421">
        <ele>1847.260211424</ele>
        <time>2015-05-28T16:43:19Z</time>
      </trkpt>
      <trkpt lat="45.37102" lon="5.90412">
        <ele>1845.863184356</ele>
        <time>2015-05-28T16:43:24Z</time>
      </trkpt>
      <trkpt lat="45.37105" lon="5.90412">
        <ele>1845.863184356</ele>
        <time>2015-05-28T16:43:29Z</time>
      </trkpt>
      <trkpt lat="45.37109" lon="5.90411">
        <ele>1845.53096421</ele>
        <time>2015-05-28T16:43:35Z</time>
      </trkpt>
      <trkpt lat="45.37101" lon="5.90423">
        <ele>1845.198744065</ele>
        <time>2015-05-28T16:43:39Z</time>
      </trkpt>
      <trkpt lat="45.37103" lon="5.90407">
        <ele>1844.866523919</ele>
        <time>2015-05-28T16:43:44Z</time>
      </trkpt>
      <trkpt lat="45.37116" lon="5.90406">
        <ele>1844.534303773</ele>
        <time>2015-05-28T16:43:49Z</time>
      </trkpt>
      <trkpt lat="45.3712" lon="5.90401">
        <ele>1844.202083628</ele>
        <time>2015-05-28T16:43:54Z</time>
      </trkpt>
      <trkpt lat="45.37114" lon="5.90397">
        <ele>1844.202083628</ele>
        <time>2015-05-28T16:43:59Z</time>
      </trkpt>
      <trkpt lat="45.37118" lon="5.90401">
        <ele>1842.594578614</ele>
        <time>2015-05-28T16:44:04Z</time>
      </trkpt>
      <trkpt lat="45.37114" lon="5.90402">
        <ele>1842.576738907</ele>
        <time>2015-05-28T16:44:09Z</time>
      </trkpt>
      <trkpt lat="45.37115" lon="5.90405">
        <ele>1842.558899201</ele>
        <time>2015-05-28T16:44:14Z</time>
      </trkpt>
      <trkpt lat="45.37112" lon="5.90402">
        <ele>1842.541059495</ele>
        <time>2015-05-28T16:44:19Z</time>
      </trkpt>
      <trkpt lat="45.3712" lon="5.90416">
        <ele>1842.523219788</ele>
        <time>2015-05-28T16:44:24Z</time>
      </trkpt>
      <trkpt lat="45.37136" lon="5.9041">
        <ele>1842.505380082</ele>
        <time>2015-05-28T16:44:29Z</time>
      </trkpt>
      <trkpt lat="45.37136" lon="5.90398">
        <ele>1842.487540375</ele>
        <time>2015-05-28T16:44:34Z</time>
      </trkpt>
      <trkpt lat="45.37135" lon="5.90374">
        <ele>1842.381290762</ele>
        <time>2015-05-28T16:44:39Z</time>
      </trkpt>
      <trkpt lat="45.37137" lon="5.9036">
        <ele>1842.275041149</ele>
        <time>2015-05-28T16:44:44Z</time>
      </trkpt>
      <trkpt lat="45.37138" lon="5.90356">
        <ele>1842.168791536</ele>
        <time>2015-05-28T16:44:49Z</time>
      </trkpt>
      <trkpt lat="45.37141" lon="5.90367">
        <ele>1842.062541923</ele>
        <time>2015-05-28T16:45:04Z</time>
      </trkpt>
      <trkpt lat="45.37142" lon="5.90376">
        <ele>1841.95629231</ele>
        <time>2015-05-28T16:45:09Z</time>
      </trkpt>
      <trkpt lat="45.37142" lon="5.90376">
        <ele>1841.850042697</ele>
        <time>2015-05-28T16:45:14Z</time>
      </trkpt>
      <trkpt lat="45.37142" lon="5.90376">
        <ele>1841.743793084</ele>
        <time>2015-05-28T16:45:19Z</time>
      </trkpt>
      <trkpt lat="45.37142" lon="5.90376">
        <ele>1841.637543471</ele>
        <time>2015-05-28T16:45:24Z</time>
      </trkpt>
      <trkpt lat="45.37142" lon="5.90377">
        <ele>1841.531293858</ele>
        <time>2015-05-28T16:45:29Z</time>
      </trkpt>
      <trkpt lat="45.37142" lon="5.90377">
        <ele>1841.425044244</ele>
        <time>2015-05-28T16:45:33Z</time>
      </trkpt>
      <trkpt lat="45.37142" lon="5.90378">
        <ele>1841.318794631</ele>
        <time>2015-05-28T16:45:39Z</time>
      </trkpt>
      <trkpt lat="45.37142" lon="5.90378">
        <ele>1841.212545018</ele>
        <time>2015-05-28T16:45:44Z</time>
      </trkpt>
      <trkpt lat="45.37142" lon="5.90378">
        <ele>1841.106295405</ele>
        <time>2015-05-28T16:45:48Z</time>
      </trkpt>
      <trkpt lat="45.37142" lon="5.90379">
        <ele>1841.000045792</ele>
        <time>2015-05-28T16:45:54Z</time>
      </trkpt>
      <trkpt lat="45.37145" lon="5.90382">
        <ele>1840.893796179</ele>
        <time>2015-05-28T16:45:59Z</time>
      </trkpt>
      <trkpt lat="45.37155" lon="5.90376">
        <ele>1840.474326286</ele>
        <time>2015-05-28T16:46:04Z</time>
      </trkpt>
      <trkpt lat="45.37159" lon="5.90375">
        <ele>1840.054856393</ele>
        <time>2015-05-28T16:46:09Z</time>
      </trkpt>
      <trkpt lat="45.37149" lon="5.90384">
        <ele>1839.6353865</ele>
        <time>2015-05-28T16:46:14Z</time>
      </trkpt>
      <trkpt lat="45.37146" lon="5.90396">
        <ele>1839.215916607</ele>
        <time>2015-05-28T16:46:19Z</time>
      </trkpt>
      <trkpt lat="45.37147" lon="5.90407">
        <ele>1838.796446714</ele>
        <time>2015-05-28T16:46:24Z</time>
      </trkpt>
      <trkpt lat="45.37147" lon="5.90405">
        <ele>1838.796446714</ele>
        <time>2015-05-28T16:46:29Z</time>
      </trkpt>
      <trkpt lat="45.37143" lon="5.90409">
        <ele>1838.796446714</ele>
        <time>2015-05-28T16:46:35Z</time>
      </trkpt>
      <trkpt lat="45.3714" lon="5.90414">
        <ele>1837.395778001</ele>
        <time>2015-05-28T16:46:39Z</time>
      </trkpt>
      <trkpt lat="45.3714" lon="5.90416">
        <ele>1837.395778001</ele>
        <time>2015-05-28T16:46:44Z</time>
      </trkpt>
      <trkpt lat="45.37139" lon="5.9041">
        <ele>1837.395778001</ele>
        <time>2015-05-28T16:46:49Z</time>
      </trkpt>
      <trkpt lat="45.37136" lon="5.90409">
        <ele>1836.85856965</ele>
        <time>2015-05-28T16:46:54Z</time>
      </trkpt>
      <trkpt lat="45.37135" lon="5.90409">
        <ele>1836.321361299</ele>
        <time>2015-05-28T16:46:59Z</time>
      </trkpt>
      <trkpt lat="45.37135" lon="5.90425">
        <ele>1835.784152948</ele>
        <time>2015-05-28T16:47:04Z</time>
      </trkpt>
      <trkpt lat="45.37135" lon="5.90424">
        <ele>1834.613962251</ele>
        <time>2015-05-28T16:47:09Z</time>
      </trkpt>
      <trkpt lat="45.37139" lon="5.90395">
        <ele>1833.443771554</ele>
        <time>2015-05-28T16:47:49Z</time>
      </trkpt>
      <trkpt lat="45.3714" lon="5.90402">
        <ele>1832.273580857</ele>
        <time>2015-05-28T16:47:54Z</time>
      </trkpt>
      <trkpt lat="45.37137" lon="5.90402">
        <ele>1831.103390161</ele>
        <time>2015-05-28T16:47:59Z</time>
      </trkpt>
      <trkpt lat="45.37137" lon="5.90426">
        <ele>1825.325163412</ele>
        <time>2015-05-28T16:48:04Z</time>
      </trkpt>
      <trkpt lat="45.37134" lon="5.90413">
        <ele>1819.702647338</ele>
        <time>2015-05-28T16:48:09Z</time>
      </trkpt>
      <trkpt lat="45.37135" lon="5.90416">
        <ele>1819.702647338</ele>
        <time>2015-05-28T16:48:14Z</time>
      </trkpt>
      <trkpt lat="45.37132" lon="5.90413">
        <ele>1819.702647338</ele>
        <time>2015-05-28T16:48:19Z</time>
      </trkpt>
      <trkpt lat="45.37132" lon="5.90426">
        <ele>1813.522752293</ele>
        <time>2015-05-28T16:48:24Z</time>
      </trkpt>
      <trkpt lat="45.37135" lon="5.90441">
        <ele>1807.567089424</ele>
        <time>2015-05-28T16:48:29Z</time>
      </trkpt>
      <trkpt lat="45.37134" lon="5.90433">
        <ele>1807.567089424</ele>
        <time>2015-05-28T16:48:34Z</time>
      </trkpt>
      <trkpt lat="45.37134" lon="5.90435">
        <ele>1807.567089424</ele>
        <time>2015-05-28T16:48:39Z</time>
      </trkpt>
      <trkpt lat="45.37133" lon="5.90441">
        <ele>1802.991171176</ele>
        <time>2015-05-28T16:48:44Z</time>
      </trkpt>
      <trkpt lat="45.37131" lon="5.90434">
        <ele>1801.800859348</ele>
        <time>2015-05-28T16:48:49Z</time>
      </trkpt>
      <trkpt lat="45.37131" lon="5.90435">
        <ele>1800.61054752</ele>
        <time>2015-05-28T16:48:54Z</time>
      </trkpt>
      <trkpt lat="45.37123" lon="5.9039">
        <ele>1799.420235691</ele>
        <time>2015-05-28T16:48:58Z</time>
      </trkpt>
      <trkpt lat="45.37119" lon="5.90375">
        <ele>1796.647919899</ele>
        <time>2015-05-28T16:49:04Z</time>
      </trkpt>
      <trkpt lat="45.3712" lon="5.90371">
        <ele>1796.647919899</ele>
        <time>2015-05-28T16:49:09Z</time>
      </trkpt>
      <trkpt lat="45.3712" lon="5.90372">
        <ele>1796.647919899</ele>
        <time>2015-05-28T16:49:13Z</time>
      </trkpt>
      <trkpt lat="45.37122" lon="5.90375">
        <ele>1796.284693172</ele>
        <time>2015-05-28T16:49:18Z</time>
      </trkpt>
      <trkpt lat="45.37123" lon="5.90378">
        <ele>1795.921466445</ele>
        <time>2015-05-28T16:49:25Z</time>
      </trkpt>
      <trkpt lat="45.37123" lon="5.90378">
        <ele>1795.921466445</ele>
        <time>2015-05-28T16:49:29Z</time>
      </trkpt>
      <trkpt lat="45.37123" lon="5.90378">
        <ele>1795.921466445</ele>
        <time>2015-05-28T16:49:34Z</time>
      </trkpt>
      <trkpt lat="45.37123" lon="5.90378">
        <ele>1795.921466445</ele>
        <time>2015-05-28T16:49:39Z</time>
      </trkpt>
      <trkpt lat="45.37123" lon="5.90378">
        <ele>1795.921466445</ele>
        <time>2015-05-28T16:49:44Z</time>
      </trkpt>
      <trkpt lat="45.37123" lon="5.90378">
        <ele>1795.921466445</ele>
        <time>2015-05-28T16:49:49Z</time>
      </trkpt>
      <trkpt lat="45.37127" lon="5.90382">
        <ele>1795.779253512</ele>
        <time>2015-05-28T16:49:53Z</time>
      </trkpt>
      <trkpt lat="45.37131" lon="5.90391">
        <ele>1795.63704058</ele>
        <time>2015-05-28T16:50:13Z</time>
      </trkpt>
      <trkpt lat="45.37131" lon="5.90392">
        <ele>1795.494827647</ele>
        <time>2015-05-28T16:50:23Z</time>
      </trkpt>
      <trkpt lat="45.37131" lon="5.90392">
        <ele>1795.352614714</ele>
        <time>2015-05-28T16:50:28Z</time>
      </trkpt>
      <trkpt lat="45.37131" lon="5.90392">
        <ele>1795.210401782</ele>
        <time>2015-05-28T16:50:33Z</time>
      </trkpt>
      <trkpt lat="45.37131" lon="5.90392">
        <ele>1795.068188849</ele>
        <time>2015-05-28T16:50:38Z</time>
      </trkpt>
      <trkpt lat="45.37132" lon="5.90393">
        <ele>1794.925975917</ele>
        <time>2015-05-28T16:50:53Z</time>
      </trkpt>
      <trkpt lat="45.37132" lon="5.90393">
        <ele>1794.783762984</ele>
        <time>2015-05-28T16:50:58Z</time>
      </trkpt>
      <trkpt lat="45.37132" lon="5.90393">
        <ele>1794.641550051</ele>
        <time>2015-05-28T16:51:18Z</time>
      </trkpt>
      <trkpt lat="45.37132" lon="5.90393">
        <ele>1794.499337119</ele>
        <time>2015-05-28T16:51:23Z</time>
      </trkpt>
      <trkpt lat="45.37132" lon="5.90393">
        <ele>1794.499337119</ele>
        <time>2015-05-28T16:51:28Z</time>
      </trkpt>
      <trkpt lat="45.37132" lon="5.90394">
        <ele>1794.499337119</ele>
        <time>2015-05-28T16:51:33Z</time>
      </trkpt>
      <trkpt lat="45.37132" lon="5.90394">
        <ele>1794.499337119</ele>
        <time>2015-05-28T16:51:43Z</time>
      </trkpt>
      <trkpt lat="45.37132" lon="5.90394">
        <ele>1794.499337119</ele>
        <time>2015-05-28T16:51:48Z</time>
      </trkpt>
      <trkpt lat="45.37132" lon="5.90394">
        <ele>1794.499337119</ele>
        <time>2015-05-28T16:51:53Z</time>
      </trkpt>
      <trkpt lat="45.37132" lon="5.90395">
        <ele>1794.499337119</ele>
        <time>2015-05-28T16:52:18Z</time>
      </trkpt>
      <trkpt lat="45.37132" lon="5.90395">
        <ele>1794.499337119</ele>
        <time>2015-05-28T16:52:23Z</time>
      </trkpt>
      <trkpt lat="45.37132" lon="5.90395">
        <ele>1794.499337119</ele>
        <time>2015-05-28T16:52:28Z</time>
      </trkpt>
      <trkpt lat="45.37133" lon="5.90395">
        <ele>1794.499337119</ele>
        <time>2015-05-28T16:52:38Z</time>
      </trkpt>
      <trkpt lat="45.37133" lon="5.90397">
        <ele>1794.499337119</ele>
        <time>2015-05-28T16:52:44Z</time>
      </trkpt>
      <trkpt lat="45.37133" lon="5.90394">
        <ele>1794.499337119</ele>
        <time>2015-05-28T16:52:49Z</time>
      </trkpt>
      <trkpt lat="45.37133" lon="5.90394">
        <ele>1794.499337119</ele>
        <time>2015-05-28T16:52:54Z</time>
      </trkpt>
      <trkpt lat="45.37133" lon="5.90394">
        <ele>1794.499337119</ele>
        <time>2015-05-28T16:52:59Z</time>
      </trkpt>
      <trkpt lat="45.37133" lon="5.90394">
        <ele>1794.499337119</ele>
        <time>2015-05-28T16:53:04Z</time>
      </trkpt>
      <trkpt lat="45.37133" lon="5.90394">
        <ele>1794.499337119</ele>
        <time>2015-05-28T16:53:09Z</time>
      </trkpt>
      <trkpt lat="45.37133" lon="5.90394">
        <ele>1794.499337119</ele>
        <time>2015-05-28T16:53:14Z</time>
      </trkpt>
      <trkpt lat="45.37133" lon="5.90394">
        <ele>1794.499337119</ele>
        <time>2015-05-28T16:53:19Z</time>
      </trkpt>
      <trkpt lat="45.37133" lon="5.90394">
        <ele>1794.499337119</ele>
        <time>2015-05-28T16:53:25Z</time>
      </trkpt>
      <trkpt lat="45.37133" lon="5.90394">
        <ele>1794.499337119</ele>
        <time>2015-05-28T16:53:29Z</time>
      </trkpt>
      <trkpt lat="45.37133" lon="5.90394">
        <ele>1794.499337119</ele>
        <time>2015-05-28T16:53:34Z</time>
      </trkpt>
      <trkpt lat="45.37133" lon="5.90394">
        <ele>1794.499337119</ele>
        <time>2015-05-28T16:53:39Z</time>
      </trkpt>
      <trkpt lat="45.37133" lon="5.90395">
        <ele>1794.499337119</ele>
        <time>2015-05-28T16:53:45Z</time>
      </trkpt>
      <trkpt lat="45.37133" lon="5.90395">
        <ele>1794.499337119</ele>
        <time>2015-05-28T16:53:49Z</time>
      </trkpt>
      <trkpt lat="45.37133" lon="5.90395">
        <ele>1794.499337119</ele>
        <time>2015-05-28T16:53:54Z</time>
      </trkpt>
      <trkpt lat="45.37133" lon="5.90395">
        <ele>1794.499337119</ele>
        <time>2015-05-28T16:53:58Z</time>
      </trkpt>
      <trkpt lat="45.37133" lon="5.90394">
        <ele>1794.499337119</ele>
        <time>2015-05-28T16:54:04Z</time>
      </trkpt>
      <trkpt lat="45.37133" lon="5.90394">
        <ele>1794.499337119</ele>
        <time>2015-05-28T16:54:09Z</time>
      </trkpt>
      <trkpt lat="45.37133" lon="5.90394">
        <ele>1794.499337119</ele>
        <time>2015-05-28T16:54:14Z</time>
      </trkpt>
      <trkpt lat="45.37133" lon="5.90393">
        <ele>1794.499337119</ele>
        <time>2015-05-28T16:54:19Z</time>
      </trkpt>
      <trkpt lat="45.37133" lon="5.90394">
        <ele>1794.499337119</ele>
        <time>2015-05-28T16:54:24Z</time>
      </trkpt>
      <trkpt lat="45.37133" lon="5.90394">
        <ele>1794.499337119</ele>
        <time>2015-05-28T16:54:29Z</time>
      </trkpt>
      <trkpt lat="45.37133" lon="5.90394">
        <ele>1794.499337119</ele>
        <time>2015-05-28T16:54:34Z</time>
      </trkpt>
      <trkpt lat="45.37133" lon="5.90394">
        <ele>1794.499337119</ele>
        <time>2015-05-28T16:54:39Z</time>
      </trkpt>
      <trkpt lat="45.37133" lon="5.90394">
        <ele>1794.499337119</ele>
        <time>2015-05-28T16:54:44Z</time>
      </trkpt>
      <trkpt lat="45.37134" lon="5.90394">
        <ele>1794.499337119</ele>
        <time>2015-05-28T16:54:49Z</time>
      </trkpt>
      <trkpt lat="45.37134" lon="5.90394">
        <ele>1794.499337119</ele>
        <time>2015-05-28T16:54:54Z</time>
      </trkpt>
      <trkpt lat="45.37134" lon="5.90395">
        <ele>1794.499337119</ele>
        <time>2015-05-28T16:54:59Z</time>
      </trkpt>
      <trkpt lat="45.37134" lon="5.90395">
        <ele>1794.499337119</ele>
        <time>2015-05-28T16:55:05Z</time>
      </trkpt>
      <trkpt lat="45.37134" lon="5.90395">
        <ele>1794.499337119</ele>
        <time>2015-05-28T16:55:09Z</time>
      </trkpt>
      <trkpt lat="45.37134" lon="5.90394">
        <ele>1794.499337119</ele>
        <time>2015-05-28T16:55:14Z</time>
      </trkpt>
      <trkpt lat="45.37134" lon="5.90394">
        <ele>1794.499337119</ele>
        <time>2015-05-28T16:55:19Z</time>
      </trkpt>
      <trkpt lat="45.37134" lon="5.90394">
        <ele>1794.499337119</ele>
        <time>2015-05-28T16:55:25Z</time>
      </trkpt>
      <trkpt lat="45.37134" lon="5.90394">
        <ele>1794.499337119</ele>
        <time>2015-05-28T16:55:29Z</time>
      </trkpt>
      <trkpt lat="45.37134" lon="5.90394">
        <ele>1794.499337119</ele>
        <time>2015-05-28T16:55:34Z</time>
      </trkpt>
      <trkpt lat="45.37144" lon="5.90381">
        <ele>1792.725154884</ele>
        <time>2015-05-28T16:55:38Z</time>
      </trkpt>
      <trkpt lat="45.37147" lon="5.90376">
        <ele>1792.725154884</ele>
        <time>2015-05-28T16:55:44Z</time>
      </trkpt>
      <trkpt lat="45.37147" lon="5.90378">
        <ele>1792.725154884</ele>
        <time>2015-05-28T16:55:48Z</time>
      </trkpt>
      <trkpt lat="45.37146" lon="5.90379">
        <ele>1792.725154884</ele>
        <time>2015-05-28T16:55:54Z</time>
      </trkpt>
      <trkpt lat="45.37146" lon="5.90379">
        <ele>1792.725154884</ele>
        <time>2015-05-28T16:55:58Z</time>
      </trkpt>
      <trkpt lat="45.37146" lon="5.90379">
        <ele>1792.725154884</ele>
        <time>2015-05-28T16:56:04Z</time>
      </trkpt>
      <trkpt lat="45.37146" lon="5.90384">
        <ele>1792.214901542</ele>
        <time>2015-05-28T16:56:09Z</time>
      </trkpt>
      <trkpt lat="45.37141" lon="5.90392">
        <ele>1792.214901542</ele>
        <time>2015-05-28T16:56:14Z</time>
      </trkpt>
      <trkpt lat="45.37137" lon="5.90392">
        <ele>1793.309051352</ele>
        <time>2015-05-28T16:56:19Z</time>
      </trkpt>
      <trkpt lat="45.37142" lon="5.90397">
        <ele>1793.309051352</ele>
        <time>2015-05-28T16:56:25Z</time>
      </trkpt>
      <trkpt lat="45.37143" lon="5.90396">
        <ele>1793.309051352</ele>
        <time>2015-05-28T16:56:29Z</time>
      </trkpt>
      <trkpt lat="45.37143" lon="5.90397">
        <ele>1793.309051352</ele>
        <time>2015-05-28T16:56:35Z</time>
      </trkpt>
      <trkpt lat="45.37143" lon="5.90397">
        <ele>1793.309051352</ele>
        <time>2015-05-28T16:56:39Z</time>
      </trkpt>
      <trkpt lat="45.37136" lon="5.90397">
        <ele>1793.868338421</ele>
        <time>2015-05-28T16:56:44Z</time>
      </trkpt>
      <trkpt lat="45.37137" lon="5.90399">
        <ele>1793.868338421</ele>
        <time>2015-05-28T16:56:49Z</time>
      </trkpt>
      <trkpt lat="45.37134" lon="5.90399">
        <ele>1793.868338421</ele>
        <time>2015-05-28T16:56:54Z</time>
      </trkpt>
      <trkpt lat="45.37132" lon="5.90399">
        <ele>1793.868338421</ele>
        <time>2015-05-28T16:56:59Z</time>
      </trkpt>
      <trkpt lat="45.37133" lon="5.904">
        <ele>1793.868338421</ele>
        <time>2015-05-28T16:57:05Z</time>
      </trkpt>
      <trkpt lat="45.37133" lon="5.904">
        <ele>1793.868338421</ele>
        <time>2015-05-28T16:57:09Z</time>
      </trkpt>
      <trkpt lat="45.37133" lon="5.904">
        <ele>1793.868338421</ele>
        <time>2015-05-28T16:57:14Z</time>
      </trkpt>
      <trkpt lat="45.37133" lon="5.904">
        <ele>1793.868338421</ele>
        <time>2015-05-28T16:57:19Z</time>
      </trkpt>
      <trkpt lat="45.37134" lon="5.904">
        <ele>1793.868338421</ele>
        <time>2015-05-28T16:57:24Z</time>
      </trkpt>
      <trkpt lat="45.37134" lon="5.904">
        <ele>1793.868338421</ele>
        <time>2015-05-28T16:57:29Z</time>
      </trkpt>
      <trkpt lat="45.37134" lon="5.904">
        <ele>1793.868338421</ele>
        <time>2015-05-28T16:57:34Z</time>
      </trkpt>
      <trkpt lat="45.37134" lon="5.904">
        <ele>1793.868338421</ele>
        <time>2015-05-28T16:57:39Z</time>
      </trkpt>
      <trkpt lat="45.37134" lon="5.904">
        <ele>1793.868338421</ele>
        <time>2015-05-28T16:57:45Z</time>
      </trkpt>
      <trkpt lat="45.37134" lon="5.904">
        <ele>1793.868338421</ele>
        <time>2015-05-28T16:57:49Z</time>
      </trkpt>
      <trkpt lat="45.37134" lon="5.904">
        <ele>1793.868338421</ele>
        <time>2015-05-28T16:57:54Z</time>
      </trkpt>
      <trkpt lat="45.37134" lon="5.904">
        <ele>1793.868338421</ele>
        <time>2015-05-28T16:57:59Z</time>
      </trkpt>
      <trkpt lat="45.37134" lon="5.90401">
        <ele>1794.505837906</ele>
        <time>2015-05-28T16:58:04Z</time>
      </trkpt>
      <trkpt lat="45.37134" lon="5.90401">
        <ele>1794.505837906</ele>
        <time>2015-05-28T16:58:09Z</time>
      </trkpt>
      <trkpt lat="45.37134" lon="5.90401">
        <ele>1794.505837906</ele>
        <time>2015-05-28T16:58:14Z</time>
      </trkpt>
      <trkpt lat="45.37134" lon="5.90401">
        <ele>1794.505837906</ele>
        <time>2015-05-28T16:58:19Z</time>
      </trkpt>
      <trkpt lat="45.37135" lon="5.90401">
        <ele>1794.505837906</ele>
        <time>2015-05-28T16:58:25Z</time>
      </trkpt>
      <trkpt lat="45.37135" lon="5.90402">
        <ele>1794.505837906</ele>
        <time>2015-05-28T16:58:29Z</time>
      </trkpt>
      <trkpt lat="45.37135" lon="5.90402">
        <ele>1794.505837906</ele>
        <time>2015-05-28T16:58:34Z</time>
      </trkpt>
      <trkpt lat="45.37135" lon="5.90402">
        <ele>1794.505837906</ele>
        <time>2015-05-28T16:58:39Z</time>
      </trkpt>
      <trkpt lat="45.37135" lon="5.90402">
        <ele>1794.505837906</ele>
        <time>2015-05-28T16:58:44Z</time>
      </trkpt>
      <trkpt lat="45.37135" lon="5.90402">
        <ele>1794.505837906</ele>
        <time>2015-05-28T16:58:49Z</time>
      </trkpt>
      <trkpt lat="45.37135" lon="5.90402">
        <ele>1794.505837906</ele>
        <time>2015-05-28T16:58:54Z</time>
      </trkpt>
      <trkpt lat="45.37135" lon="5.90402">
        <ele>1794.505837906</ele>
        <time>2015-05-28T16:58:59Z</time>
      </trkpt>
      <trkpt lat="45.37135" lon="5.90402">
        <ele>1794.505837906</ele>
        <time>2015-05-28T16:59:04Z</time>
      </trkpt>
      <trkpt lat="45.37135" lon="5.90402">
        <ele>1794.505837906</ele>
        <time>2015-05-28T16:59:09Z</time>
      </trkpt>
      <trkpt lat="45.37135" lon="5.90402">
        <ele>1794.505837906</ele>
        <time>2015-05-28T16:59:13Z</time>
      </trkpt>
      <trkpt lat="45.37135" lon="5.90403">
        <ele>1794.505837906</ele>
        <time>2015-05-28T16:59:19Z</time>
      </trkpt>
      <trkpt lat="45.37136" lon="5.90403">
        <ele>1794.505837906</ele>
        <time>2015-05-28T16:59:24Z</time>
      </trkpt>
      <trkpt lat="45.37136" lon="5.90403">
        <ele>1794.505837906</ele>
        <time>2015-05-28T16:59:29Z</time>
      </trkpt>
      <trkpt lat="45.37136" lon="5.90403">
        <ele>1794.505837906</ele>
        <time>2015-05-28T16:59:34Z</time>
      </trkpt>
      <trkpt lat="45.37136" lon="5.90403">
        <ele>1794.505837906</ele>
        <time>2015-05-28T16:59:39Z</time>
      </trkpt>
      <trkpt lat="45.37136" lon="5.90403">
        <ele>1794.505837906</ele>
        <time>2015-05-28T16:59:45Z</time>
      </trkpt>
      <trkpt lat="45.37135" lon="5.90403">
        <ele>1794.505837906</ele>
        <time>2015-05-28T16:59:49Z</time>
      </trkpt>
      <trkpt lat="45.37135" lon="5.90403">
        <ele>1794.505837906</ele>
        <time>2015-05-28T16:59:54Z</time>
      </trkpt>
      <trkpt lat="45.37135" lon="5.90403">
        <ele>1794.505837906</ele>
        <time>2015-05-28T16:59:59Z</time>
      </trkpt>
      <trkpt lat="45.37135" lon="5.90403">
        <ele>1794.505837906</ele>
        <time>2015-05-28T17:00:04Z</time>
      </trkpt>
      <trkpt lat="45.37136" lon="5.90403">
        <ele>1794.505837906</ele>
        <time>2015-05-28T17:00:09Z</time>
      </trkpt>
      <trkpt lat="45.37136" lon="5.90403">
        <ele>1794.505837906</ele>
        <time>2015-05-28T17:00:14Z</time>
      </trkpt>
      <trkpt lat="45.37136" lon="5.90403">
        <ele>1794.505837906</ele>
        <time>2015-05-28T17:00:19Z</time>
      </trkpt>
      <trkpt lat="45.37136" lon="5.90403">
        <ele>1794.505837906</ele>
        <time>2015-05-28T17:00:24Z</time>
      </trkpt>
      <trkpt lat="45.37136" lon="5.90403">
        <ele>1794.505837906</ele>
        <time>2015-05-28T17:00:29Z</time>
      </trkpt>
      <trkpt lat="45.37136" lon="5.90403">
        <ele>1794.505837906</ele>
        <time>2015-05-28T17:00:34Z</time>
      </trkpt>
      <trkpt lat="45.37136" lon="5.90403">
        <ele>1794.505837906</ele>
        <time>2015-05-28T17:00:39Z</time>
      </trkpt>
      <trkpt lat="45.37136" lon="5.90403">
        <ele>1794.505837906</ele>
        <time>2015-05-28T17:00:45Z</time>
      </trkpt>
      <trkpt lat="45.37136" lon="5.90403">
        <ele>1794.505837906</ele>
        <time>2015-05-28T17:00:49Z</time>
      </trkpt>
      <trkpt lat="45.37136" lon="5.90403">
        <ele>1794.505837906</ele>
        <time>2015-05-28T17:00:54Z</time>
      </trkpt>
      <trkpt lat="45.37135" lon="5.90403">
        <ele>1794.505837906</ele>
        <time>2015-05-28T17:00:59Z</time>
      </trkpt>
      <trkpt lat="45.37135" lon="5.90403">
        <ele>1794.505837906</ele>
        <time>2015-05-28T17:01:04Z</time>
      </trkpt>
      <trkpt lat="45.37135" lon="5.90403">
        <ele>1794.505837906</ele>
        <time>2015-05-28T17:01:09Z</time>
      </trkpt>
      <trkpt lat="45.37135" lon="5.90403">
        <ele>1794.505837906</ele>
        <time>2015-05-28T17:01:14Z</time>
      </trkpt>
      <trkpt lat="45.37135" lon="5.90403">
        <ele>1794.505837906</ele>
        <time>2015-05-28T17:01:19Z</time>
      </trkpt>
      <trkpt lat="45.37135" lon="5.90403">
        <ele>1794.505837906</ele>
        <time>2015-05-28T17:01:24Z</time>
      </trkpt>
      <trkpt lat="45.37135" lon="5.90403">
        <ele>1794.505837906</ele>
        <time>2015-05-28T17:01:29Z</time>
      </trkpt>
      <trkpt lat="45.37135" lon="5.90403">
        <ele>1794.505837906</ele>
        <time>2015-05-28T17:01:34Z</time>
      </trkpt>
      <trkpt lat="45.37135" lon="5.90403">
        <ele>1794.505837906</ele>
        <time>2015-05-28T17:01:39Z</time>
      </trkpt>
      <trkpt lat="45.37135" lon="5.90403">
        <ele>1794.505837906</ele>
        <time>2015-05-28T17:01:44Z</time>
      </trkpt>
      <trkpt lat="45.37135" lon="5.90403">
        <ele>1794.505837906</ele>
        <time>2015-05-28T17:01:49Z</time>
      </trkpt>
      <trkpt lat="45.37135" lon="5.90403">
        <ele>1794.505837906</ele>
        <time>2015-05-28T17:01:54Z</time>
      </trkpt>
      <trkpt lat="45.37135" lon="5.90403">
        <ele>1794.505837906</ele>
        <time>2015-05-28T17:01:59Z</time>
      </trkpt>
      <trkpt lat="45.37135" lon="5.90403">
        <ele>1794.505837906</ele>
        <time>2015-05-28T17:02:04Z</time>
      </trkpt>
      <trkpt lat="45.37135" lon="5.90403">
        <ele>1794.505837906</ele>
        <time>2015-05-28T17:02:09Z</time>
      </trkpt>
      <trkpt lat="45.37135" lon="5.90403">
        <ele>1794.505837906</ele>
        <time>2015-05-28T17:02:14Z</time>
      </trkpt>
      <trkpt lat="45.37135" lon="5.90403">
        <ele>1794.505837906</ele>
        <time>2015-05-28T17:02:19Z</time>
      </trkpt>
      <trkpt lat="45.37135" lon="5.90403">
        <ele>1794.505837906</ele>
        <time>2015-05-28T17:02:24Z</time>
      </trkpt>
      <trkpt lat="45.37135" lon="5.90403">
        <ele>1794.505837906</ele>
        <time>2015-05-28T17:02:28Z</time>
      </trkpt>
      <trkpt lat="45.37135" lon="5.90403">
        <ele>1794.505837906</ele>
        <time>2015-05-28T17:02:34Z</time>
      </trkpt>
      <trkpt lat="45.37135" lon="5.90403">
        <ele>1794.505837906</ele>
        <time>2015-05-28T17:02:38Z</time>
      </trkpt>
      <trkpt lat="45.37135" lon="5.90403">
        <ele>1794.505837906</ele>
        <time>2015-05-28T17:02:44Z</time>
      </trkpt>
      <trkpt lat="45.37135" lon="5.90403">
        <ele>1794.505837906</ele>
        <time>2015-05-28T17:02:49Z</time>
      </trkpt>
      <trkpt lat="45.37135" lon="5.90403">
        <ele>1794.505837906</ele>
        <time>2015-05-28T17:02:53Z</time>
      </trkpt>
      <trkpt lat="45.37135" lon="5.90403">
        <ele>1794.505837906</ele>
        <time>2015-05-28T17:02:58Z</time>
      </trkpt>
      <trkpt lat="45.37135" lon="5.90403">
        <ele>1794.505837906</ele>
        <time>2015-05-28T17:03:03Z</time>
      </trkpt>
      <trkpt lat="45.37135" lon="5.90403">
        <ele>1794.505837906</ele>
        <time>2015-05-28T17:03:10Z</time>
      </trkpt>
      <trkpt lat="45.37135" lon="5.90403">
        <ele>1794.505837906</ele>
        <time>2015-05-28T17:03:14Z</time>
      </trkpt>
      <trkpt lat="45.37135" lon="5.90403">
        <ele>1794.505837906</ele>
        <time>2015-05-28T17:03:19Z</time>
      </trkpt>
      <trkpt lat="45.37135" lon="5.90404">
        <ele>1794.505837906</ele>
        <time>2015-05-28T17:03:24Z</time>
      </trkpt>
      <trkpt lat="45.37135" lon="5.90404">
        <ele>1794.505837906</ele>
        <time>2015-05-28T17:03:29Z</time>
      </trkpt>
      <trkpt lat="45.37135" lon="5.90404">
        <ele>1794.505837906</ele>
        <time>2015-05-28T17:03:34Z</time>
      </trkpt>
      <trkpt lat="45.37135" lon="5.90404">
        <ele>1794.505837906</ele>
        <time>2015-05-28T17:03:39Z</time>
      </trkpt>
      <trkpt lat="45.37134" lon="5.90404">
        <ele>1794.505837906</ele>
        <time>2015-05-28T17:03:44Z</time>
      </trkpt>
      <trkpt lat="45.37134" lon="5.90413">
        <ele>1795.500869612</ele>
        <time>2015-05-28T17:03:49Z</time>
      </trkpt>
      <trkpt lat="45.37136" lon="5.90416">
        <ele>1795.500869612</ele>
        <time>2015-05-28T17:03:54Z</time>
      </trkpt>
      <trkpt lat="45.37134" lon="5.90416">
        <ele>1795.500869612</ele>
        <time>2015-05-28T17:03:59Z</time>
      </trkpt>
      <trkpt lat="45.37135" lon="5.90418">
        <ele>1795.500869612</ele>
        <time>2015-05-28T17:04:04Z</time>
      </trkpt>
      <trkpt lat="45.37135" lon="5.90418">
        <ele>1795.507092704</ele>
        <time>2015-05-28T17:04:09Z</time>
      </trkpt>
      <trkpt lat="45.37126" lon="5.90417">
        <ele>1795.513315796</ele>
        <time>2015-05-28T17:04:14Z</time>
      </trkpt>
      <trkpt lat="45.37125" lon="5.90424">
        <ele>1795.519538888</ele>
        <time>2015-05-28T17:04:19Z</time>
      </trkpt>
      <trkpt lat="45.37134" lon="5.90426">
        <ele>1795.525761979</ele>
        <time>2015-05-28T17:04:24Z</time>
      </trkpt>
      <trkpt lat="45.37134" lon="5.90428">
        <ele>1795.525761979</ele>
        <time>2015-05-28T17:04:29Z</time>
      </trkpt>
      <trkpt lat="45.37134" lon="5.90428">
        <ele>1795.525761979</ele>
        <time>2015-05-28T17:04:34Z</time>
      </trkpt>
      <trkpt lat="45.37134" lon="5.90428">
        <ele>1795.525761979</ele>
        <time>2015-05-28T17:04:39Z</time>
      </trkpt>
      <trkpt lat="45.37134" lon="5.90428">
        <ele>1795.525761979</ele>
        <time>2015-05-28T17:04:45Z</time>
      </trkpt>
      <trkpt lat="45.37134" lon="5.90428">
        <ele>1795.525761979</ele>
        <time>2015-05-28T17:04:49Z</time>
      </trkpt>
      <trkpt lat="45.37133" lon="5.90428">
        <ele>1795.525761979</ele>
        <time>2015-05-28T17:04:53Z</time>
      </trkpt>
      <trkpt lat="45.37133" lon="5.90428">
        <ele>1795.525761979</ele>
        <time>2015-05-28T17:04:59Z</time>
      </trkpt>
      <trkpt lat="45.37133" lon="5.90428">
        <ele>1795.525761979</ele>
        <time>2015-05-28T17:05:09Z</time>
      </trkpt>
      <trkpt lat="45.37133" lon="5.90428">
        <ele>1795.525761979</ele>
        <time>2015-05-28T17:05:14Z</time>
      </trkpt>
      <trkpt lat="45.37133" lon="5.90428">
        <ele>1795.525761979</ele>
        <time>2015-05-28T17:05:19Z</time>
      </trkpt>
      <trkpt lat="45.37133" lon="5.90429">
        <ele>1795.525761979</ele>
        <time>2015-05-28T17:05:24Z</time>
      </trkpt>
      <trkpt lat="45.37135" lon="5.90435">
        <ele>1795.525761979</ele>
        <time>2015-05-28T17:05:29Z</time>
      </trkpt>
      <trkpt lat="45.37137" lon="5.90435">
        <ele>1795.525761979</ele>
        <time>2015-05-28T17:05:34Z</time>
      </trkpt>
      <trkpt lat="45.37145" lon="5.9044">
        <ele>1794.655484173</ele>
        <time>2015-05-28T17:05:39Z</time>
      </trkpt>
      <trkpt lat="45.3714" lon="5.90436">
        <ele>1793.785206366</ele>
        <time>2015-05-28T17:05:44Z</time>
      </trkpt>
      <trkpt lat="45.37142" lon="5.90434">
        <ele>1793.785206366</ele>
        <time>2015-05-28T17:05:49Z</time>
      </trkpt>
      <trkpt lat="45.37142" lon="5.90432">
        <ele>1793.785206366</ele>
        <time>2015-05-28T17:05:54Z</time>
      </trkpt>
      <trkpt lat="45.37142" lon="5.90432">
        <ele>1793.785206366</ele>
        <time>2015-05-28T17:05:59Z</time>
      </trkpt>
      <trkpt lat="45.37142" lon="5.90432">
        <ele>1793.785206366</ele>
        <time>2015-05-28T17:06:04Z</time>
      </trkpt>
      <trkpt lat="45.37142" lon="5.90432">
        <ele>1793.785206366</ele>
        <time>2015-05-28T17:06:08Z</time>
      </trkpt>
      <trkpt lat="45.37141" lon="5.90433">
        <ele>1793.785206366</ele>
        <time>2015-05-28T17:06:13Z</time>
      </trkpt>
      <trkpt lat="45.3712" lon="5.9044">
        <ele>1790.411731752</ele>
        <time>2015-05-28T17:06:18Z</time>
      </trkpt>
      <trkpt lat="45.37121" lon="5.90441">
        <ele>1790.411731752</ele>
        <time>2015-05-28T17:06:24Z</time>
      </trkpt>
      <trkpt lat="45.37121" lon="5.90442">
        <ele>1790.411731752</ele>
        <time>2015-05-28T17:06:29Z</time>
      </trkpt>
      <trkpt lat="45.37123" lon="5.90439">
        <ele>1790.411731752</ele>
        <time>2015-05-28T17:06:34Z</time>
      </trkpt>
      <trkpt lat="45.3712" lon="5.90439">
        <ele>1790.411731752</ele>
        <time>2015-05-28T17:06:39Z</time>
      </trkpt>
      <trkpt lat="45.37119" lon="5.90438">
        <ele>1784.235511411</ele>
        <time>2015-05-28T17:06:44Z</time>
      </trkpt>
      <trkpt lat="45.37119" lon="5.90438">
        <ele>1784.235511411</ele>
        <time>2015-05-28T17:06:49Z</time>
      </trkpt>
      <trkpt lat="45.37119" lon="5.90438">
        <ele>1784.235511411</ele>
        <time>2015-05-28T17:06:54Z</time>
      </trkpt>
      <trkpt lat="45.37119" lon="5.90438">
        <ele>1784.235511411</ele>
        <time>2015-05-28T17:06:59Z</time>
      </trkpt>
      <trkpt lat="45.37119" lon="5.90438">
        <ele>1784.235511411</ele>
        <time>2015-05-28T17:07:04Z</time>
      </trkpt>
      <trkpt lat="45.37119" lon="5.90438">
        <ele>1784.235511411</ele>
        <time>2015-05-28T17:07:09Z</time>
      </trkpt>
      <trkpt lat="45.37119" lon="5.90438">
        <ele>1784.235511411</ele>
        <time>2015-05-28T17:07:14Z</time>
      </trkpt>
      <trkpt lat="45.37119" lon="5.90438">
        <ele>1784.235511411</ele>
        <time>2015-05-28T17:07:19Z</time>
      </trkpt>
      <trkpt lat="45.37119" lon="5.90438">
        <ele>1784.235511411</ele>
        <time>2015-05-28T17:07:24Z</time>
      </trkpt>
      <trkpt lat="45.37119" lon="5.90438">
        <ele>1784.235511411</ele>
        <time>2015-05-28T17:07:29Z</time>
      </trkpt>
      <trkpt lat="45.37119" lon="5.90438">
        <ele>1784.235511411</ele>
        <time>2015-05-28T17:07:34Z</time>
      </trkpt>
      <trkpt lat="45.3712" lon="5.90439">
        <ele>1784.235511411</ele>
        <time>2015-05-28T17:07:39Z</time>
      </trkpt>
      <trkpt lat="45.3712" lon="5.90439">
        <ele>1784.235511411</ele>
        <time>2015-05-28T17:07:45Z</time>
      </trkpt>
      <trkpt lat="45.3712" lon="5.90439">
        <ele>1784.235511411</ele>
        <time>2015-05-28T17:07:49Z</time>
      </trkpt>
      <trkpt lat="45.37117" lon="5.90445">
        <ele>1784.235511411</ele>
        <time>2015-05-28T17:07:54Z</time>
      </trkpt>
      <trkpt lat="45.37112" lon="5.90447">
        <ele>1778.791866687</ele>
        <time>2015-05-28T17:07:59Z</time>
      </trkpt>
      <trkpt lat="45.37131" lon="5.90451">
        <ele>1773.463137936</ele>
        <time>2015-05-28T17:08:04Z</time>
      </trkpt>
      <trkpt lat="45.37128" lon="5.90447">
        <ele>1773.463137936</ele>
        <time>2015-05-28T17:08:09Z</time>
      </trkpt>
      <trkpt lat="45.37132" lon="5.90445">
        <ele>1773.463137936</ele>
        <time>2015-05-28T17:08:14Z</time>
      </trkpt>
      <trkpt lat="45.37126" lon="5.90444">
        <ele>1767.964696813</ele>
        <time>2015-05-28T17:08:19Z</time>
      </trkpt>
      <trkpt lat="45.37126" lon="5.90444">
        <ele>1767.964696813</ele>
        <time>2015-05-28T17:08:25Z</time>
      </trkpt>
      <trkpt lat="45.37127" lon="5.90444">
        <ele>1767.964696813</ele>
        <time>2015-05-28T17:08:29Z</time>
      </trkpt>
      <trkpt lat="45.37127" lon="5.90444">
        <ele>1767.964696813</ele>
        <time>2015-05-28T17:08:34Z</time>
      </trkpt>
      <trkpt lat="45.37127" lon="5.90444">
        <ele>1767.964696813</ele>
        <time>2015-05-28T17:08:39Z</time>
      </trkpt>
      <trkpt lat="45.37127" lon="5.90444">
        <ele>1767.964696813</ele>
        <time>2015-05-28T17:08:44Z</time>
      </trkpt>
      <trkpt lat="45.37127" lon="5.90444">
        <ele>1767.964696813</ele>
        <time>2015-05-28T17:08:49Z</time>
      </trkpt>
      <trkpt lat="45.37127" lon="5.90444">
        <ele>1767.964696813</ele>
        <time>2015-05-28T17:08:54Z</time>
      </trkpt>
      <trkpt lat="45.37127" lon="5.90444">
        <ele>1767.964696813</ele>
        <time>2015-05-28T17:08:59Z</time>
      </trkpt>
      <trkpt lat="45.37127" lon="5.90444">
        <ele>1767.964696813</ele>
        <time>2015-05-28T17:09:04Z</time>
      </trkpt>
      <trkpt lat="45.37127" lon="5.90444">
        <ele>1767.964696813</ele>
        <time>2015-05-28T17:09:09Z</time>
      </trkpt>
      <trkpt lat="45.37127" lon="5.90444">
        <ele>1767.964696813</ele>
        <time>2015-05-28T17:09:14Z</time>
      </trkpt>
      <trkpt lat="45.37127" lon="5.90444">
        <ele>1767.964696813</ele>
        <time>2015-05-28T17:09:19Z</time>
      </trkpt>
      <trkpt lat="45.37127" lon="5.90444">
        <ele>1767.964696813</ele>
        <time>2015-05-28T17:09:23Z</time>
      </trkpt>
      <trkpt lat="45.37127" lon="5.90444">
        <ele>1767.964696813</ele>
        <time>2015-05-28T17:09:29Z</time>
      </trkpt>
      <trkpt lat="45.37126" lon="5.90444">
        <ele>1767.964696813</ele>
        <time>2015-05-28T17:09:34Z</time>
      </trkpt>
      <trkpt lat="45.37126" lon="5.90444">
        <ele>1767.964696813</ele>
        <time>2015-05-28T17:09:38Z</time>
      </trkpt>
      <trkpt lat="45.37126" lon="5.90444">
        <ele>1767.964696813</ele>
        <time>2015-05-28T17:09:44Z</time>
      </trkpt>
      <trkpt lat="45.37126" lon="5.90444">
        <ele>1767.964696813</ele>
        <time>2015-05-28T17:09:48Z</time>
      </trkpt>
      <trkpt lat="45.37126" lon="5.90444">
        <ele>1767.964696813</ele>
        <time>2015-05-28T17:09:53Z</time>
      </trkpt>
      <trkpt lat="45.37126" lon="5.90444">
        <ele>1767.964696813</ele>
        <time>2015-05-28T17:09:59Z</time>
      </trkpt>
      <trkpt lat="45.37126" lon="5.90444">
        <ele>1767.964696813</ele>
        <time>2015-05-28T17:10:04Z</time>
      </trkpt>
      <trkpt lat="45.37126" lon="5.90444">
        <ele>1767.964696813</ele>
        <time>2015-05-28T17:10:09Z</time>
      </trkpt>
      <trkpt lat="45.37126" lon="5.90444">
        <ele>1767.964696813</ele>
        <time>2015-05-28T17:10:14Z</time>
      </trkpt>
      <trkpt lat="45.37126" lon="5.90444">
        <ele>1767.964696813</ele>
        <time>2015-05-28T17:10:19Z</time>
      </trkpt>
      <trkpt lat="45.37126" lon="5.90444">
        <ele>1767.964696813</ele>
        <time>2015-05-28T17:10:24Z</time>
      </trkpt>
      <trkpt lat="45.37126" lon="5.90444">
        <ele>1767.964696813</ele>
        <time>2015-05-28T17:10:29Z</time>
      </trkpt>
      <trkpt lat="45.37126" lon="5.90445">
        <ele>1767.964696813</ele>
        <time>2015-05-28T17:10:34Z</time>
      </trkpt>
      <trkpt lat="45.37126" lon="5.90445">
        <ele>1767.964696813</ele>
        <time>2015-05-28T17:10:39Z</time>
      </trkpt>
      <trkpt lat="45.37126" lon="5.90445">
        <ele>1767.964696813</ele>
        <time>2015-05-28T17:10:43Z</time>
      </trkpt>
      <trkpt lat="45.37126" lon="5.90445">
        <ele>1767.964696813</ele>
        <time>2015-05-28T17:10:48Z</time>
      </trkpt>
      <trkpt lat="45.37126" lon="5.90445">
        <ele>1767.964696813</ele>
        <time>2015-05-28T17:10:53Z</time>
      </trkpt>
      <trkpt lat="45.37126" lon="5.90445">
        <ele>1767.964696813</ele>
        <time>2015-05-28T17:10:58Z</time>
      </trkpt>
      <trkpt lat="45.37126" lon="5.90445">
        <ele>1767.964696813</ele>
        <time>2015-05-28T17:11:03Z</time>
      </trkpt>
      <trkpt lat="45.37126" lon="5.90445">
        <ele>1767.964696813</ele>
        <time>2015-05-28T17:11:09Z</time>
      </trkpt>
      <trkpt lat="45.37126" lon="5.90445">
        <ele>1767.964696813</ele>
        <time>2015-05-28T17:11:14Z</time>
      </trkpt>
      <trkpt lat="45.37126" lon="5.90445">
        <ele>1767.964696813</ele>
        <time>2015-05-28T17:11:19Z</time>
      </trkpt>
      <trkpt lat="45.37126" lon="5.90445">
        <ele>1767.964696813</ele>
        <time>2015-05-28T17:11:24Z</time>
      </trkpt>
      <trkpt lat="45.37126" lon="5.90445">
        <ele>1767.964696813</ele>
        <time>2015-05-28T17:11:29Z</time>
      </trkpt>
      <trkpt lat="45.37126" lon="5.90445">
        <ele>1767.964696813</ele>
        <time>2015-05-28T17:11:34Z</time>
      </trkpt>
      <trkpt lat="45.37126" lon="5.90445">
        <ele>1767.964696813</ele>
        <time>2015-05-28T17:11:39Z</time>
      </trkpt>
      <trkpt lat="45.37126" lon="5.90445">
        <ele>1767.964696813</ele>
        <time>2015-05-28T17:11:44Z</time>
      </trkpt>
      <trkpt lat="45.37126" lon="5.90445">
        <ele>1767.964696813</ele>
        <time>2015-05-28T17:11:49Z</time>
      </trkpt>
      <trkpt lat="45.37126" lon="5.90445">
        <ele>1767.964696813</ele>
        <time>2015-05-28T17:11:54Z</time>
      </trkpt>
      <trkpt lat="45.37126" lon="5.90445">
        <ele>1767.964696813</ele>
        <time>2015-05-28T17:11:59Z</time>
      </trkpt>
      <trkpt lat="45.37116" lon="5.90449">
        <ele>1762.89770596</ele>
        <time>2015-05-28T17:12:04Z</time>
      </trkpt>
      <trkpt lat="45.37111" lon="5.90449">
        <ele>1762.89770596</ele>
        <time>2015-05-28T17:12:09Z</time>
      </trkpt>
      <trkpt lat="45.37107" lon="5.9045">
        <ele>1762.89770596</ele>
        <time>2015-05-28T17:12:14Z</time>
      </trkpt>
      <trkpt lat="45.37111" lon="5.90452">
        <ele>1757.520679403</ele>
        <time>2015-05-28T17:12:19Z</time>
      </trkpt>
      <trkpt lat="45.37111" lon="5.90452">
        <ele>1757.520679403</ele>
        <time>2015-05-28T17:12:24Z</time>
      </trkpt>
      <trkpt lat="45.37115" lon="5.90453">
        <ele>1757.520679403</ele>
        <time>2015-05-28T17:12:29Z</time>
      </trkpt>
      <trkpt lat="45.37119" lon="5.90454">
        <ele>1757.520679403</ele>
        <time>2015-05-28T17:12:34Z</time>
      </trkpt>
      <trkpt lat="45.37104" lon="5.90457">
        <ele>1752.732403523</ele>
        <time>2015-05-28T17:12:39Z</time>
      </trkpt>
      <trkpt lat="45.3711" lon="5.90461">
        <ele>1752.732403523</ele>
        <time>2015-05-28T17:12:44Z</time>
      </trkpt>
      <trkpt lat="45.37108" lon="5.9046">
        <ele>1752.197978434</ele>
        <time>2015-05-28T17:12:49Z</time>
      </trkpt>
      <trkpt lat="45.3711" lon="5.9046">
        <ele>1751.663553344</ele>
        <time>2015-05-28T17:12:54Z</time>
      </trkpt>
      <trkpt lat="45.37111" lon="5.9046">
        <ele>1751.129128255</ele>
        <time>2015-05-28T17:12:58Z</time>
      </trkpt>
      <trkpt lat="45.37111" lon="5.9046">
        <ele>1750.594703165</ele>
        <time>2015-05-28T17:13:04Z</time>
      </trkpt>
      <trkpt lat="45.37111" lon="5.9046">
        <ele>1750.060278076</ele>
        <time>2015-05-28T17:13:09Z</time>
      </trkpt>
      <trkpt lat="45.37111" lon="5.9046">
        <ele>1749.525852986</ele>
        <time>2015-05-28T17:13:13Z</time>
      </trkpt>
      <trkpt lat="45.37111" lon="5.9046">
        <ele>1748.991427897</ele>
        <time>2015-05-28T17:13:18Z</time>
      </trkpt>
      <trkpt lat="45.37111" lon="5.9046">
        <ele>1748.457002808</ele>
        <time>2015-05-28T17:13:23Z</time>
      </trkpt>
      <trkpt lat="45.37111" lon="5.9046">
        <ele>1747.922577718</ele>
        <time>2015-05-28T17:13:30Z</time>
      </trkpt>
      <trkpt lat="45.37111" lon="5.9046">
        <ele>1747.922577718</ele>
        <time>2015-05-28T17:13:34Z</time>
      </trkpt>
      <trkpt lat="45.37111" lon="5.9046">
        <ele>1747.922577718</ele>
        <time>2015-05-28T17:13:39Z</time>
      </trkpt>
      <trkpt lat="45.37111" lon="5.90461">
        <ele>1747.922577718</ele>
        <time>2015-05-28T17:13:44Z</time>
      </trkpt>
      <trkpt lat="45.37111" lon="5.90461">
        <ele>1747.922577718</ele>
        <time>2015-05-28T17:13:49Z</time>
      </trkpt>
      <trkpt lat="45.37111" lon="5.90461">
        <ele>1747.922577718</ele>
        <time>2015-05-28T17:13:54Z</time>
      </trkpt>
      <trkpt lat="45.37111" lon="5.90461">
        <ele>1747.922577718</ele>
        <time>2015-05-28T17:13:59Z</time>
      </trkpt>
      <trkpt lat="45.37111" lon="5.90461">
        <ele>1747.922577718</ele>
        <time>2015-05-28T17:14:04Z</time>
      </trkpt>
      <trkpt lat="45.37111" lon="5.90461">
        <ele>1747.922577718</ele>
        <time>2015-05-28T17:14:09Z</time>
      </trkpt>
      <trkpt lat="45.37111" lon="5.90461">
        <ele>1747.922577718</ele>
        <time>2015-05-28T17:14:14Z</time>
      </trkpt>
      <trkpt lat="45.37111" lon="5.90461">
        <ele>1747.922577718</ele>
        <time>2015-05-28T17:14:19Z</time>
      </trkpt>
      <trkpt lat="45.37111" lon="5.90461">
        <ele>1747.922577718</ele>
        <time>2015-05-28T17:14:24Z</time>
      </trkpt>
      <trkpt lat="45.37112" lon="5.9046">
        <ele>1747.922577718</ele>
        <time>2015-05-28T17:14:29Z</time>
      </trkpt>
      <trkpt lat="45.37112" lon="5.9046">
        <ele>1747.922577718</ele>
        <time>2015-05-28T17:14:34Z</time>
      </trkpt>
      <trkpt lat="45.37115" lon="5.90458">
        <ele>1747.922577718</ele>
        <time>2015-05-28T17:14:39Z</time>
      </trkpt>
      <trkpt lat="45.37128" lon="5.90464">
        <ele>1743.246043634</ele>
        <time>2015-05-28T17:14:44Z</time>
      </trkpt>
      <trkpt lat="45.37122" lon="5.90463">
        <ele>1743.246043634</ele>
        <time>2015-05-28T17:14:49Z</time>
      </trkpt>
      <trkpt lat="45.37119" lon="5.9046">
        <ele>1738.845583898</ele>
        <time>2015-05-28T17:14:54Z</time>
      </trkpt>
      <trkpt lat="45.37116" lon="5.9046">
        <ele>1738.845583898</ele>
        <time>2015-05-28T17:14:59Z</time>
      </trkpt>
      <trkpt lat="45.37116" lon="5.9046">
        <ele>1738.845583898</ele>
        <time>2015-05-28T17:15:03Z</time>
      </trkpt>
      <trkpt lat="45.37116" lon="5.9046">
        <ele>1738.845583898</ele>
        <time>2015-05-28T17:15:08Z</time>
      </trkpt>
      <trkpt lat="45.37115" lon="5.90461">
        <ele>1738.845583898</ele>
        <time>2015-05-28T17:15:14Z</time>
      </trkpt>
      <trkpt lat="45.37124" lon="5.9046">
        <ele>1734.70829521</ele>
        <time>2015-05-28T17:15:19Z</time>
      </trkpt>
      <trkpt lat="45.37129" lon="5.90463">
        <ele>1734.70829521</ele>
        <time>2015-05-28T17:15:24Z</time>
      </trkpt>
      <trkpt lat="45.3713" lon="5.90464">
        <ele>1734.70829521</ele>
        <time>2015-05-28T17:15:28Z</time>
      </trkpt>
      <trkpt lat="45.37126" lon="5.90459">
        <ele>1730.532951044</ele>
        <time>2015-05-28T17:15:35Z</time>
      </trkpt>
      <trkpt lat="45.37126" lon="5.90458">
        <ele>1730.532951044</ele>
        <time>2015-05-28T17:15:38Z</time>
      </trkpt>
      <trkpt lat="45.37127" lon="5.90458">
        <ele>1730.532951044</ele>
        <time>2015-05-28T17:15:44Z</time>
      </trkpt>
      <trkpt lat="45.37128" lon="5.90459">
        <ele>1730.532951044</ele>
        <time>2015-05-28T17:15:49Z</time>
      </trkpt>
      <trkpt lat="45.37128" lon="5.90459">
        <ele>1730.532951044</ele>
        <time>2015-05-28T17:15:54Z</time>
      </trkpt>
      <trkpt lat="45.37128" lon="5.90459">
        <ele>1730.532951044</ele>
        <time>2015-05-28T17:15:59Z</time>
      </trkpt>
      <trkpt lat="45.37128" lon="5.90459">
        <ele>1730.532951044</ele>
        <time>2015-05-28T17:16:04Z</time>
      </trkpt>
      <trkpt lat="45.37128" lon="5.90459">
        <ele>1730.532951044</ele>
        <time>2015-05-28T17:16:09Z</time>
      </trkpt>
      <trkpt lat="45.37128" lon="5.90459">
        <ele>1730.532951044</ele>
        <time>2015-05-28T17:16:14Z</time>
      </trkpt>
      <trkpt lat="45.37146" lon="5.90466">
        <ele>1726.184363081</ele>
        <time>2015-05-28T17:16:19Z</time>
      </trkpt>
      <trkpt lat="45.3714" lon="5.90471">
        <ele>1726.184363081</ele>
        <time>2015-05-28T17:16:24Z</time>
      </trkpt>
      <trkpt lat="45.37142" lon="5.90467">
        <ele>1722.258012934</ele>
        <time>2015-05-28T17:16:29Z</time>
      </trkpt>
      <trkpt lat="45.37144" lon="5.90468">
        <ele>1722.258012934</ele>
        <time>2015-05-28T17:16:34Z</time>
      </trkpt>
      <trkpt lat="45.37144" lon="5.90468">
        <ele>1722.258012934</ele>
        <time>2015-05-28T17:16:39Z</time>
      </trkpt>
      <trkpt lat="45.37144" lon="5.90468">
        <ele>1722.258012934</ele>
        <time>2015-05-28T17:16:44Z</time>
      </trkpt>
      <trkpt lat="45.37143" lon="5.90468">
        <ele>1722.258012934</ele>
        <time>2015-05-28T17:16:49Z</time>
      </trkpt>
      <trkpt lat="45.37146" lon="5.9047">
        <ele>1722.258012934</ele>
        <time>2015-05-28T17:16:54Z</time>
      </trkpt>
      <trkpt lat="45.37148" lon="5.90475">
        <ele>1722.258012934</ele>
        <time>2015-05-28T17:16:59Z</time>
      </trkpt>
      <trkpt lat="45.37143" lon="5.90475">
        <ele>1719.015936013</ele>
        <time>2015-05-28T17:17:04Z</time>
      </trkpt>
      <trkpt lat="45.37141" lon="5.90476">
        <ele>1719.015936013</ele>
        <time>2015-05-28T17:17:09Z</time>
      </trkpt>
      <trkpt lat="45.37146" lon="5.90479">
        <ele>1719.015936013</ele>
        <time>2015-05-28T17:17:14Z</time>
      </trkpt>
      <trkpt lat="45.37145" lon="5.90479">
        <ele>1719.015936013</ele>
        <time>2015-05-28T17:17:18Z</time>
      </trkpt>
      <trkpt lat="45.37148" lon="5.90481">
        <ele>1715.83404549</ele>
        <time>2015-05-28T17:17:24Z</time>
      </trkpt>
      <trkpt lat="45.37139" lon="5.90483">
        <ele>1713.718879989</ele>
        <time>2015-05-28T17:17:29Z</time>
      </trkpt>
      <trkpt lat="45.37139" lon="5.90484">
        <ele>1713.718879989</ele>
        <time>2015-05-28T17:17:34Z</time>
      </trkpt>
      <trkpt lat="45.3714" lon="5.90485">
        <ele>1713.718879989</ele>
        <time>2015-05-28T17:17:38Z</time>
      </trkpt>
      <trkpt lat="45.37139" lon="5.90485">
        <ele>1713.718879989</ele>
        <time>2015-05-28T17:17:43Z</time>
      </trkpt>
      <trkpt lat="45.37139" lon="5.90485">
        <ele>1713.718879989</ele>
        <time>2015-05-28T17:17:48Z</time>
      </trkpt>
      <trkpt lat="45.37139" lon="5.90485">
        <ele>1713.718879989</ele>
        <time>2015-05-28T17:17:53Z</time>
      </trkpt>
      <trkpt lat="45.37135" lon="5.90485">
        <ele>1713.718879989</ele>
        <time>2015-05-28T17:17:59Z</time>
      </trkpt>
      <trkpt lat="45.37136" lon="5.90486">
        <ele>1713.718879989</ele>
        <time>2015-05-28T17:18:04Z</time>
      </trkpt>
      <trkpt lat="45.37137" lon="5.90486">
        <ele>1712.735123712</ele>
        <time>2015-05-28T17:18:08Z</time>
      </trkpt>
      <trkpt lat="45.37137" lon="5.90486">
        <ele>1712.735123712</ele>
        <time>2015-05-28T17:18:13Z</time>
      </trkpt>
      <trkpt lat="45.37137" lon="5.90486">
        <ele>1712.735123712</ele>
        <time>2015-05-28T17:18:19Z</time>
      </trkpt>
      <trkpt lat="45.37138" lon="5.90486">
        <ele>1712.735123712</ele>
        <time>2015-05-28T17:18:24Z</time>
      </trkpt>
      <trkpt lat="45.37139" lon="5.90486">
        <ele>1712.735123712</ele>
        <time>2015-05-28T17:18:29Z</time>
      </trkpt>
      <trkpt lat="45.37139" lon="5.90487">
        <ele>1712.735123712</ele>
        <time>2015-05-28T17:18:34Z</time>
      </trkpt>
      <trkpt lat="45.37139" lon="5.90486">
        <ele>1712.735123712</ele>
        <time>2015-05-28T17:18:39Z</time>
      </trkpt>
      <trkpt lat="45.37137" lon="5.90489">
        <ele>1712.735123712</ele>
        <time>2015-05-28T17:18:43Z</time>
      </trkpt>
      <trkpt lat="45.37131" lon="5.90488">
        <ele>1712.362858964</ele>
        <time>2015-05-28T17:18:48Z</time>
      </trkpt>
      <trkpt lat="45.3713" lon="5.90489">
        <ele>1712.362858964</ele>
        <time>2015-05-28T17:18:54Z</time>
      </trkpt>
      <trkpt lat="45.3713" lon="5.90488">
        <ele>1712.362858964</ele>
        <time>2015-05-28T17:18:58Z</time>
      </trkpt>
      <trkpt lat="45.37131" lon="5.90489">
        <ele>1712.362858964</ele>
        <time>2015-05-28T17:19:04Z</time>
      </trkpt>
      <trkpt lat="45.37131" lon="5.90489">
        <ele>1712.362858964</ele>
        <time>2015-05-28T17:19:08Z</time>
      </trkpt>
      <trkpt lat="45.37131" lon="5.90489">
        <ele>1712.362858964</ele>
        <time>2015-05-28T17:19:13Z</time>
      </trkpt>
      <trkpt lat="45.37131" lon="5.90489">
        <ele>1712.362858964</ele>
        <time>2015-05-28T17:19:18Z</time>
      </trkpt>
      <trkpt lat="45.37131" lon="5.90489">
        <ele>1712.362858964</ele>
        <time>2015-05-28T17:19:23Z</time>
      </trkpt>
      <trkpt lat="45.37131" lon="5.9049">
        <ele>1712.362858964</ele>
        <time>2015-05-28T17:19:29Z</time>
      </trkpt>
      <trkpt lat="45.37131" lon="5.90489">
        <ele>1712.362858964</ele>
        <time>2015-05-28T17:19:34Z</time>
      </trkpt>
      <trkpt lat="45.37131" lon="5.9049">
        <ele>1712.362858964</ele>
        <time>2015-05-28T17:19:39Z</time>
      </trkpt>
      <trkpt lat="45.37131" lon="5.9049">
        <ele>1712.362858964</ele>
        <time>2015-05-28T17:19:44Z</time>
      </trkpt>
      <trkpt lat="45.37131" lon="5.9049">
        <ele>1712.362858964</ele>
        <time>2015-05-28T17:19:49Z</time>
      </trkpt>
      <trkpt lat="45.37132" lon="5.9049">
        <ele>1712.362858964</ele>
        <time>2015-05-28T17:19:54Z</time>
      </trkpt>
      <trkpt lat="45.37132" lon="5.9049">
        <ele>1712.362858964</ele>
        <time>2015-05-28T17:19:59Z</time>
      </trkpt>
      <trkpt lat="45.37133" lon="5.90494">
        <ele>1712.362858964</ele>
        <time>2015-05-28T17:20:04Z</time>
      </trkpt>
      <trkpt lat="45.37137" lon="5.90495">
        <ele>1713.703667502</ele>
        <time>2015-05-28T17:20:09Z</time>
      </trkpt>
      <trkpt lat="45.37137" lon="5.90496">
        <ele>1713.703667502</ele>
        <time>2015-05-28T17:20:14Z</time>
      </trkpt>
      <trkpt lat="45.37139" lon="5.90496">
        <ele>1713.703667502</ele>
        <time>2015-05-28T17:20:19Z</time>
      </trkpt>
      <trkpt lat="45.37139" lon="5.90498">
        <ele>1713.703667502</ele>
        <time>2015-05-28T17:20:25Z</time>
      </trkpt>
      <trkpt lat="45.37138" lon="5.905">
        <ele>1713.703667502</ele>
        <time>2015-05-28T17:20:29Z</time>
      </trkpt>
      <trkpt lat="45.37139" lon="5.90501">
        <ele>1713.703667502</ele>
        <time>2015-05-28T17:20:34Z</time>
      </trkpt>
      <trkpt lat="45.37139" lon="5.90502">
        <ele>1713.703667502</ele>
        <time>2015-05-28T17:20:39Z</time>
      </trkpt>
      <trkpt lat="45.37139" lon="5.90502">
        <ele>1713.703667502</ele>
        <time>2015-05-28T17:20:44Z</time>
      </trkpt>
      <trkpt lat="45.3714" lon="5.90504">
        <ele>1713.703667502</ele>
        <time>2015-05-28T17:20:49Z</time>
      </trkpt>
      <trkpt lat="45.37141" lon="5.90504">
        <ele>1717.340909866</ele>
        <time>2015-05-28T17:20:54Z</time>
      </trkpt>
      <trkpt lat="45.3714" lon="5.90505">
        <ele>1717.340909866</ele>
        <time>2015-05-28T17:20:59Z</time>
      </trkpt>
      <trkpt lat="45.37129" lon="5.90518">
        <ele>1720.49398004</ele>
        <time>2015-05-28T17:21:04Z</time>
      </trkpt>
      <trkpt lat="45.37127" lon="5.90518">
        <ele>1720.49398004</ele>
        <time>2015-05-28T17:21:09Z</time>
      </trkpt>
      <trkpt lat="45.37127" lon="5.90518">
        <ele>1720.49398004</ele>
        <time>2015-05-28T17:21:13Z</time>
      </trkpt>
      <trkpt lat="45.37126" lon="5.90518">
        <ele>1720.49398004</ele>
        <time>2015-05-28T17:21:18Z</time>
      </trkpt>
      <trkpt lat="45.37126" lon="5.90518">
        <ele>1720.49398004</ele>
        <time>2015-05-28T17:21:23Z</time>
      </trkpt>
      <trkpt lat="45.37126" lon="5.90518">
        <ele>1720.49398004</ele>
        <time>2015-05-28T17:21:53Z</time>
      </trkpt>
      <trkpt lat="45.37126" lon="5.90518">
        <ele>1720.49398004</ele>
        <time>2015-05-28T17:21:59Z</time>
      </trkpt>
      <trkpt lat="45.37126" lon="5.90518">
        <ele>1720.49398004</ele>
        <time>2015-05-28T17:22:04Z</time>
      </trkpt>
      <trkpt lat="45.37126" lon="5.90518">
        <ele>1720.49398004</ele>
        <time>2015-05-28T17:22:09Z</time>
      </trkpt>
      <trkpt lat="45.37126" lon="5.90518">
        <ele>1720.49398004</ele>
        <time>2015-05-28T17:22:14Z</time>
      </trkpt>
      <trkpt lat="45.37126" lon="5.90518">
        <ele>1720.49398004</ele>
        <time>2015-05-28T17:22:19Z</time>
      </trkpt>
      <trkpt lat="45.37126" lon="5.90516">
        <ele>1720.49398004</ele>
        <time>2015-05-28T17:22:23Z</time>
      </trkpt>
      <trkpt lat="45.37138" lon="5.90509">
        <ele>1722.317160785</ele>
        <time>2015-05-28T17:22:28Z</time>
      </trkpt>
      <trkpt lat="45.37116" lon="5.90516">
        <ele>1724.048132165</ele>
        <time>2015-05-28T17:22:33Z</time>
      </trkpt>
      <trkpt lat="45.37118" lon="5.90517">
        <ele>1724.048132165</ele>
        <time>2015-05-28T17:22:38Z</time>
      </trkpt>
      <trkpt lat="45.37117" lon="5.90517">
        <ele>1724.048132165</ele>
        <time>2015-05-28T17:22:43Z</time>
      </trkpt>
      <trkpt lat="45.3711" lon="5.90521">
        <ele>1724.403538734</ele>
        <time>2015-05-28T17:22:48Z</time>
      </trkpt>
      <trkpt lat="45.37109" lon="5.90517">
        <ele>1724.758945303</ele>
        <time>2015-05-28T17:22:53Z</time>
      </trkpt>
      <trkpt lat="45.37118" lon="5.90474">
        <ele>1725.114351871</ele>
        <time>2015-05-28T17:23:18Z</time>
      </trkpt>
      <trkpt lat="45.37117" lon="5.90476">
        <ele>1725.46975844</ele>
        <time>2015-05-28T17:23:23Z</time>
      </trkpt>
      <trkpt lat="45.37133" lon="5.90481">
        <ele>1725.825165008</ele>
        <time>2015-05-28T17:23:28Z</time>
      </trkpt>
      <trkpt lat="45.37146" lon="5.9048">
        <ele>1726.623420275</ele>
        <time>2015-05-28T17:23:33Z</time>
      </trkpt>
      <trkpt lat="45.37134" lon="5.90478">
        <ele>1726.649073017</ele>
        <time>2015-05-28T17:23:38Z</time>
      </trkpt>
      <trkpt lat="45.37113" lon="5.9049">
        <ele>1726.372255233</ele>
        <time>2015-05-28T17:23:43Z</time>
      </trkpt>
      <trkpt lat="45.37124" lon="5.90478">
        <ele>1726.095437449</ele>
        <time>2015-05-28T17:23:48Z</time>
      </trkpt>
      <trkpt lat="45.37119" lon="5.90494">
        <ele>1726.296276085</ele>
        <time>2015-05-28T17:23:53Z</time>
      </trkpt>
      <trkpt lat="45.37134" lon="5.90495">
        <ele>1725.459068421</ele>
        <time>2015-05-28T17:23:58Z</time>
      </trkpt>
      <trkpt lat="45.37126" lon="5.90504">
        <ele>1724.664148595</ele>
        <time>2015-05-28T17:24:03Z</time>
      </trkpt>
      <trkpt lat="45.37128" lon="5.90502">
        <ele>1724.664148595</ele>
        <time>2015-05-28T17:24:08Z</time>
      </trkpt>
      <trkpt lat="45.37106" lon="5.90505">
        <ele>1723.759639973</ele>
        <time>2015-05-28T17:24:13Z</time>
      </trkpt>
      <trkpt lat="45.37102" lon="5.9051">
        <ele>1723.759639973</ele>
        <time>2015-05-28T17:24:18Z</time>
      </trkpt>
      <trkpt lat="45.37106" lon="5.90504">
        <ele>1723.037624826</ele>
        <time>2015-05-28T17:24:23Z</time>
      </trkpt>
      <trkpt lat="45.37114" lon="5.90497">
        <ele>1722.62426912</ele>
        <time>2015-05-28T17:24:28Z</time>
      </trkpt>
      <trkpt lat="45.37117" lon="5.90502">
        <ele>1722.62426912</ele>
        <time>2015-05-28T17:24:33Z</time>
      </trkpt>
      <trkpt lat="45.37114" lon="5.90501">
        <ele>1722.62426912</ele>
        <time>2015-05-28T17:24:38Z</time>
      </trkpt>
      <trkpt lat="45.37112" lon="5.90501">
        <ele>1722.203436149</ele>
        <time>2015-05-28T17:24:45Z</time>
      </trkpt>
      <trkpt lat="45.37112" lon="5.90501">
        <ele>1722.203436149</ele>
        <time>2015-05-28T17:24:49Z</time>
      </trkpt>
      <trkpt lat="45.37112" lon="5.90501">
        <ele>1722.203436149</ele>
        <time>2015-05-28T17:24:54Z</time>
      </trkpt>
      <trkpt lat="45.37112" lon="5.90501">
        <ele>1722.203436149</ele>
        <time>2015-05-28T17:24:59Z</time>
      </trkpt>
      <trkpt lat="45.37112" lon="5.90501">
        <ele>1722.203436149</ele>
        <time>2015-05-28T17:25:04Z</time>
      </trkpt>
      <trkpt lat="45.37112" lon="5.90501">
        <ele>1722.203436149</ele>
        <time>2015-05-28T17:25:09Z</time>
      </trkpt>
      <trkpt lat="45.37112" lon="5.90501">
        <ele>1722.203436149</ele>
        <time>2015-05-28T17:25:14Z</time>
      </trkpt>
      <trkpt lat="45.37112" lon="5.90501">
        <ele>1722.203436149</ele>
        <time>2015-05-28T17:25:19Z</time>
      </trkpt>
      <trkpt lat="45.37112" lon="5.90501">
        <ele>1722.203436149</ele>
        <time>2015-05-28T17:25:24Z</time>
      </trkpt>
      <trkpt lat="45.37112" lon="5.90501">
        <ele>1722.203436149</ele>
        <time>2015-05-28T17:25:29Z</time>
      </trkpt>
      <trkpt lat="45.37112" lon="5.90501">
        <ele>1722.203436149</ele>
        <time>2015-05-28T17:25:33Z</time>
      </trkpt>
      <trkpt lat="45.37112" lon="5.90501">
        <ele>1722.203436149</ele>
        <time>2015-05-28T17:25:39Z</time>
      </trkpt>
      <trkpt lat="45.37112" lon="5.90501">
        <ele>1722.203436149</ele>
        <time>2015-05-28T17:25:43Z</time>
      </trkpt>
      <trkpt lat="45.37112" lon="5.90501">
        <ele>1722.203436149</ele>
        <time>2015-05-28T17:25:49Z</time>
      </trkpt>
      <trkpt lat="45.37112" lon="5.90501">
        <ele>1722.203436149</ele>
        <time>2015-05-28T17:25:54Z</time>
      </trkpt>
      <trkpt lat="45.37112" lon="5.90501">
        <ele>1722.203436149</ele>
        <time>2015-05-28T17:25:58Z</time>
      </trkpt>
      <trkpt lat="45.37112" lon="5.90501">
        <ele>1722.203436149</ele>
        <time>2015-05-28T17:26:05Z</time>
      </trkpt>
      <trkpt lat="45.37112" lon="5.905">
        <ele>1722.203436149</ele>
        <time>2015-05-28T17:26:09Z</time>
      </trkpt>
      <trkpt lat="45.37112" lon="5.905">
        <ele>1722.203436149</ele>
        <time>2015-05-28T17:26:14Z</time>
      </trkpt>
      <trkpt lat="45.37112" lon="5.905">
        <ele>1722.203436149</ele>
        <time>2015-05-28T17:26:20Z</time>
      </trkpt>
      <trkpt lat="45.37117" lon="5.90491">
        <ele>1722.203436149</ele>
        <time>2015-05-28T17:26:24Z</time>
      </trkpt>
      <trkpt lat="45.37118" lon="5.90482">
        <ele>1722.63529099</ele>
        <time>2015-05-28T17:26:29Z</time>
      </trkpt>
      <trkpt lat="45.37123" lon="5.90473">
        <ele>1722.63529099</ele>
        <time>2015-05-28T17:26:34Z</time>
      </trkpt>
      <trkpt lat="45.37121" lon="5.90471">
        <ele>1723.561703927</ele>
        <time>2015-05-28T17:26:39Z</time>
      </trkpt>
      <trkpt lat="45.37122" lon="5.90471">
        <ele>1723.561703927</ele>
        <time>2015-05-28T17:26:44Z</time>
      </trkpt>
      <trkpt lat="45.37119" lon="5.9047">
        <ele>1723.561703927</ele>
        <time>2015-05-28T17:26:49Z</time>
      </trkpt>
      <trkpt lat="45.37118" lon="5.9047">
        <ele>1723.561703927</ele>
        <time>2015-05-28T17:26:54Z</time>
      </trkpt>
      <trkpt lat="45.3712" lon="5.90469">
        <ele>1723.561703927</ele>
        <time>2015-05-28T17:26:59Z</time>
      </trkpt>
      <trkpt lat="45.3712" lon="5.90469">
        <ele>1725.081981619</ele>
        <time>2015-05-28T17:27:04Z</time>
      </trkpt>
      <trkpt lat="45.37127" lon="5.90467">
        <ele>1725.081981619</ele>
        <time>2015-05-28T17:27:09Z</time>
      </trkpt>
      <trkpt lat="45.37133" lon="5.90469">
        <ele>1727.142552543</ele>
        <time>2015-05-28T17:27:14Z</time>
      </trkpt>
      <trkpt lat="45.37125" lon="5.90469">
        <ele>1727.944489205</ele>
        <time>2015-05-28T17:27:19Z</time>
      </trkpt>
      <trkpt lat="45.37123" lon="5.90468">
        <ele>1728.746425866</ele>
        <time>2015-05-28T17:27:24Z</time>
      </trkpt>
      <trkpt lat="45.37127" lon="5.9047">
        <ele>1729.548362528</ele>
        <time>2015-05-28T17:27:29Z</time>
      </trkpt>
      <trkpt lat="45.3713" lon="5.90471">
        <ele>1729.548362528</ele>
        <time>2015-05-28T17:27:34Z</time>
      </trkpt>
      <trkpt lat="45.37132" lon="5.90471">
        <ele>1729.548362528</ele>
        <time>2015-05-28T17:27:39Z</time>
      </trkpt>
      <trkpt lat="45.37132" lon="5.90471">
        <ele>1729.548362528</ele>
        <time>2015-05-28T17:27:44Z</time>
      </trkpt>
      <trkpt lat="45.37132" lon="5.90471">
        <ele>1729.548362528</ele>
        <time>2015-05-28T17:27:49Z</time>
      </trkpt>
      <trkpt lat="45.37132" lon="5.90471">
        <ele>1729.548362528</ele>
        <time>2015-05-28T17:27:54Z</time>
      </trkpt>
      <trkpt lat="45.37132" lon="5.90471">
        <ele>1729.548362528</ele>
        <time>2015-05-28T17:28:00Z</time>
      </trkpt>
      <trkpt lat="45.37132" lon="5.90471">
        <ele>1729.548362528</ele>
        <time>2015-05-28T17:28:04Z</time>
      </trkpt>
      <trkpt lat="45.37132" lon="5.90471">
        <ele>1729.548362528</ele>
        <time>2015-05-28T17:28:09Z</time>
      </trkpt>
      <trkpt lat="45.37132" lon="5.90471">
        <ele>1729.548362528</ele>
        <time>2015-05-28T17:28:14Z</time>
      </trkpt>
      <trkpt lat="45.37132" lon="5.90471">
        <ele>1729.548362528</ele>
        <time>2015-05-28T17:28:19Z</time>
      </trkpt>
      <trkpt lat="45.37132" lon="5.90471">
        <ele>1729.548362528</ele>
        <time>2015-05-28T17:28:24Z</time>
      </trkpt>
      <trkpt lat="45.37132" lon="5.90471">
        <ele>1729.548362528</ele>
        <time>2015-05-28T17:28:29Z</time>
      </trkpt>
      <trkpt lat="45.37135" lon="5.90472">
        <ele>1729.548362528</ele>
        <time>2015-05-28T17:28:34Z</time>
      </trkpt>
      <trkpt lat="45.37138" lon="5.90476">
        <ele>1732.406166035</ele>
        <time>2015-05-28T17:28:39Z</time>
      </trkpt>
      <trkpt lat="45.37127" lon="5.90465">
        <ele>1734.372738995</ele>
        <time>2015-05-28T17:28:44Z</time>
      </trkpt>
      <trkpt lat="45.37126" lon="5.90465">
        <ele>1734.372738995</ele>
        <time>2015-05-28T17:28:49Z</time>
      </trkpt>
      <trkpt lat="45.37123" lon="5.90462">
        <ele>1734.372738995</ele>
        <time>2015-05-28T17:28:54Z</time>
      </trkpt>
      <trkpt lat="45.37124" lon="5.90463">
        <ele>1734.372738995</ele>
        <time>2015-05-28T17:28:59Z</time>
      </trkpt>
      <trkpt lat="45.37125" lon="5.90463">
        <ele>1734.372738995</ele>
        <time>2015-05-28T17:29:04Z</time>
      </trkpt>
      <trkpt lat="45.37124" lon="5.90463">
        <ele>1734.372738995</ele>
        <time>2015-05-28T17:29:09Z</time>
      </trkpt>
      <trkpt lat="45.37124" lon="5.90463">
        <ele>1734.372738995</ele>
        <time>2015-05-28T17:29:13Z</time>
      </trkpt>
      <trkpt lat="45.37124" lon="5.90463">
        <ele>1734.372738995</ele>
        <time>2015-05-28T17:29:19Z</time>
      </trkpt>
      <trkpt lat="45.37125" lon="5.90463">
        <ele>1734.372738995</ele>
        <time>2015-05-28T17:29:23Z</time>
      </trkpt>
      <trkpt lat="45.37125" lon="5.90463">
        <ele>1734.372738995</ele>
        <time>2015-05-28T17:29:29Z</time>
      </trkpt>
      <trkpt lat="45.37125" lon="5.90463">
        <ele>1734.372738995</ele>
        <time>2015-05-28T17:29:33Z</time>
      </trkpt>
      <trkpt lat="45.37127" lon="5.90466">
        <ele>1734.372738995</ele>
        <time>2015-05-28T17:29:40Z</time>
      </trkpt>
      <trkpt lat="45.37129" lon="5.90467">
        <ele>1736.36795686</ele>
        <time>2015-05-28T17:29:44Z</time>
      </trkpt>
      <trkpt lat="45.37129" lon="5.90467">
        <ele>1736.36795686</ele>
        <time>2015-05-28T17:29:49Z</time>
      </trkpt>
      <trkpt lat="45.37129" lon="5.90467">
        <ele>1736.36795686</ele>
        <time>2015-05-28T17:29:53Z</time>
      </trkpt>
      <trkpt lat="45.37129" lon="5.90467">
        <ele>1736.36795686</ele>
        <time>2015-05-28T17:30:00Z</time>
      </trkpt>
      <trkpt lat="45.37129" lon="5.90467">
        <ele>1736.36795686</ele>
        <time>2015-05-28T17:30:04Z</time>
      </trkpt>
      <trkpt lat="45.37129" lon="5.90467">
        <ele>1736.36795686</ele>
        <time>2015-05-28T17:30:09Z</time>
      </trkpt>
      <trkpt lat="45.37129" lon="5.90467">
        <ele>1736.36795686</ele>
        <time>2015-05-28T17:30:14Z</time>
      </trkpt>
      <trkpt lat="45.37129" lon="5.90467">
        <ele>1736.36795686</ele>
        <time>2015-05-28T17:30:20Z</time>
      </trkpt>
      <trkpt lat="45.37129" lon="5.90467">
        <ele>1736.36795686</ele>
        <time>2015-05-28T17:30:24Z</time>
      </trkpt>
      <trkpt lat="45.37129" lon="5.90468">
        <ele>1736.36795686</ele>
        <time>2015-05-28T17:30:29Z</time>
      </trkpt>
      <trkpt lat="45.37129" lon="5.90468">
        <ele>1736.36795686</ele>
        <time>2015-05-28T17:30:34Z</time>
      </trkpt>
      <trkpt lat="45.37129" lon="5.90468">
        <ele>1736.36795686</ele>
        <time>2015-05-28T17:30:39Z</time>
      </trkpt>
      <trkpt lat="45.37129" lon="5.90468">
        <ele>1736.36795686</ele>
        <time>2015-05-28T17:30:44Z</time>
      </trkpt>
      <trkpt lat="45.37124" lon="5.90463">
        <ele>1736.36795686</ele>
        <time>2015-05-28T17:30:49Z</time>
      </trkpt>
      <trkpt lat="45.37122" lon="5.90464">
        <ele>1738.091424548</ele>
        <time>2015-05-28T17:30:54Z</time>
      </trkpt>
      <trkpt lat="45.37116" lon="5.90464">
        <ele>1738.091424548</ele>
        <time>2015-05-28T17:31:00Z</time>
      </trkpt>
      <trkpt lat="45.37117" lon="5.90464">
        <ele>1738.091424548</ele>
        <time>2015-05-28T17:31:04Z</time>
      </trkpt>
      <trkpt lat="45.37121" lon="5.90462">
        <ele>1738.833523577</ele>
        <time>2015-05-28T17:31:09Z</time>
      </trkpt>
      <trkpt lat="45.37121" lon="5.90462">
        <ele>1738.833523577</ele>
        <time>2015-05-28T17:31:14Z</time>
      </trkpt>
      <trkpt lat="45.37121" lon="5.90462">
        <ele>1738.833523577</ele>
        <time>2015-05-28T17:31:19Z</time>
      </trkpt>
      <trkpt lat="45.37122" lon="5.90462">
        <ele>1738.833523577</ele>
        <time>2015-05-28T17:31:24Z</time>
      </trkpt>
      <trkpt lat="45.37122" lon="5.90462">
        <ele>1738.833523577</ele>
        <time>2015-05-28T17:31:29Z</time>
      </trkpt>
      <trkpt lat="45.37122" lon="5.90462">
        <ele>1738.833523577</ele>
        <time>2015-05-28T17:31:34Z</time>
      </trkpt>
      <trkpt lat="45.37122" lon="5.90462">
        <ele>1738.833523577</ele>
        <time>2015-05-28T17:31:39Z</time>
      </trkpt>
      <trkpt lat="45.37124" lon="5.90465">
        <ele>1738.833523577</ele>
        <time>2015-05-28T17:31:44Z</time>
      </trkpt>
      <trkpt lat="45.37126" lon="5.90467">
        <ele>1738.833523577</ele>
        <time>2015-05-28T17:31:49Z</time>
      </trkpt>
      <trkpt lat="45.37127" lon="5.90466">
        <ele>1738.833523577</ele>
        <time>2015-05-28T17:31:54Z</time>
      </trkpt>
      <trkpt lat="45.37128" lon="5.90467">
        <ele>1738.833523577</ele>
        <time>2015-05-28T17:31:59Z</time>
      </trkpt>
      <trkpt lat="45.37128" lon="5.90468">
        <ele>1738.833523577</ele>
        <time>2015-05-28T17:32:04Z</time>
      </trkpt>
      <trkpt lat="45.37128" lon="5.90468">
        <ele>1739.236801216</ele>
        <time>2015-05-28T17:32:09Z</time>
      </trkpt>
      <trkpt lat="45.37128" lon="5.90468">
        <ele>1739.236801216</ele>
        <time>2015-05-28T17:32:14Z</time>
      </trkpt>
      <trkpt lat="45.37128" lon="5.90468">
        <ele>1739.236801216</ele>
        <time>2015-05-28T17:32:19Z</time>
      </trkpt>
      <trkpt lat="45.37128" lon="5.90468">
        <ele>1739.236801216</ele>
        <time>2015-05-28T17:32:24Z</time>
      </trkpt>
      <trkpt lat="45.37127" lon="5.90472">
        <ele>1739.236801216</ele>
        <time>2015-05-28T17:32:29Z</time>
      </trkpt>
      <trkpt lat="45.37129" lon="5.90478">
        <ele>1739.236801216</ele>
        <time>2015-05-28T17:32:34Z</time>
      </trkpt>
      <trkpt lat="45.37125" lon="5.90479">
        <ele>1737.592054998</ele>
        <time>2015-05-28T17:32:39Z</time>
      </trkpt>
      <trkpt lat="45.37133" lon="5.90484">
        <ele>1737.592054998</ele>
        <time>2015-05-28T17:32:44Z</time>
      </trkpt>
      <trkpt lat="45.37129" lon="5.90483">
        <ele>1735.347987053</ele>
        <time>2015-05-28T17:32:49Z</time>
      </trkpt>
      <trkpt lat="45.37129" lon="5.90483">
        <ele>1735.347987053</ele>
        <time>2015-05-28T17:32:54Z</time>
      </trkpt>
      <trkpt lat="45.3713" lon="5.90484">
        <ele>1735.347987053</ele>
        <time>2015-05-28T17:32:59Z</time>
      </trkpt>
      <trkpt lat="45.3713" lon="5.90484">
        <ele>1735.347987053</ele>
        <time>2015-05-28T17:33:04Z</time>
      </trkpt>
      <trkpt lat="45.3713" lon="5.90484">
        <ele>1735.347987053</ele>
        <time>2015-05-28T17:33:09Z</time>
      </trkpt>
      <trkpt lat="45.3713" lon="5.90484">
        <ele>1735.347987053</ele>
        <time>2015-05-28T17:33:14Z</time>
      </trkpt>
      <trkpt lat="45.3713" lon="5.90484">
        <ele>1735.347987053</ele>
        <time>2015-05-28T17:33:19Z</time>
      </trkpt>
      <trkpt lat="45.3713" lon="5.90484">
        <ele>1735.347987053</ele>
        <time>2015-05-28T17:33:23Z</time>
      </trkpt>
      <trkpt lat="45.37125" lon="5.90483">
        <ele>1735.347987053</ele>
        <time>2015-05-28T17:33:29Z</time>
      </trkpt>
      <trkpt lat="45.37127" lon="5.9048">
        <ele>1732.263584723</ele>
        <time>2015-05-28T17:33:33Z</time>
      </trkpt>
      <trkpt lat="45.37129" lon="5.90479">
        <ele>1732.263584723</ele>
        <time>2015-05-28T17:33:39Z</time>
      </trkpt>
      <trkpt lat="45.37131" lon="5.9048">
        <ele>1732.263584723</ele>
        <time>2015-05-28T17:33:44Z</time>
      </trkpt>
      <trkpt lat="45.37131" lon="5.9048">
        <ele>1732.263584723</ele>
        <time>2015-05-28T17:33:48Z</time>
      </trkpt>
      <trkpt lat="45.37131" lon="5.9048">
        <ele>1732.263584723</ele>
        <time>2015-05-28T17:33:54Z</time>
      </trkpt>
      <trkpt lat="45.37131" lon="5.9048">
        <ele>1732.263584723</ele>
        <time>2015-05-28T17:33:59Z</time>
      </trkpt>
      <trkpt lat="45.37131" lon="5.9048">
        <ele>1732.263584723</ele>
        <time>2015-05-28T17:34:14Z</time>
      </trkpt>
      <trkpt lat="45.37131" lon="5.90481">
        <ele>1732.263584723</ele>
        <time>2015-05-28T17:34:19Z</time>
      </trkpt>
      <trkpt lat="45.37131" lon="5.90481">
        <ele>1732.263584723</ele>
        <time>2015-05-28T17:34:24Z</time>
      </trkpt>
      <trkpt lat="45.37131" lon="5.90481">
        <ele>1732.263584723</ele>
        <time>2015-05-28T17:34:29Z</time>
      </trkpt>
      <trkpt lat="45.37131" lon="5.90481">
        <ele>1732.263584723</ele>
        <time>2015-05-28T17:34:34Z</time>
      </trkpt>
      <trkpt lat="45.37131" lon="5.90481">
        <ele>1732.263584723</ele>
        <time>2015-05-28T17:34:40Z</time>
      </trkpt>
      <trkpt lat="45.37131" lon="5.90481">
        <ele>1732.263584723</ele>
        <time>2015-05-28T17:34:44Z</time>
      </trkpt>
      <trkpt lat="45.37131" lon="5.90481">
        <ele>1732.263584723</ele>
        <time>2015-05-28T17:34:49Z</time>
      </trkpt>
      <trkpt lat="45.37131" lon="5.90481">
        <ele>1732.263584723</ele>
        <time>2015-05-28T17:34:54Z</time>
      </trkpt>
      <trkpt lat="45.37131" lon="5.90481">
        <ele>1732.263584723</ele>
        <time>2015-05-28T17:34:59Z</time>
      </trkpt>
      <trkpt lat="45.37131" lon="5.90481">
        <ele>1732.263584723</ele>
        <time>2015-05-28T17:35:04Z</time>
      </trkpt>
      <trkpt lat="45.37131" lon="5.90481">
        <ele>1732.263584723</ele>
        <time>2015-05-28T17:35:09Z</time>
      </trkpt>
      <trkpt lat="45.37131" lon="5.90481">
        <ele>1732.263584723</ele>
        <time>2015-05-28T17:35:14Z</time>
      </trkpt>
      <trkpt lat="45.37131" lon="5.90481">
        <ele>1732.263584723</ele>
        <time>2015-05-28T17:35:19Z</time>
      </trkpt>
      <trkpt lat="45.37131" lon="5.90482">
        <ele>1732.263584723</ele>
        <time>2015-05-28T17:35:24Z</time>
      </trkpt>
      <trkpt lat="45.37131" lon="5.90482">
        <ele>1732.263584723</ele>
        <time>2015-05-28T17:35:29Z</time>
      </trkpt>
      <trkpt lat="45.37131" lon="5.90482">
        <ele>1732.263584723</ele>
        <time>2015-05-28T17:35:34Z</time>
      </trkpt>
      <trkpt lat="45.37132" lon="5.90483">
        <ele>1732.263584723</ele>
        <time>2015-05-28T17:35:39Z</time>
      </trkpt>
      <trkpt lat="45.37132" lon="5.90485">
        <ele>1732.263584723</ele>
        <time>2015-05-28T17:35:44Z</time>
      </trkpt>
      <trkpt lat="45.37132" lon="5.90489">
        <ele>1729.271008144</ele>
        <time>2015-05-28T17:35:49Z</time>
      </trkpt>
      <trkpt lat="45.37133" lon="5.90491">
        <ele>1729.271008144</ele>
        <time>2015-05-28T17:35:54Z</time>
      </trkpt>
      <trkpt lat="45.37133" lon="5.90496">
        <ele>1729.271008144</ele>
        <time>2015-05-28T17:35:59Z</time>
      </trkpt>
      <trkpt lat="45.37135" lon="5.90497">
        <ele>1729.271008144</ele>
        <time>2015-05-28T17:36:03Z</time>
      </trkpt>
      <trkpt lat="45.37137" lon="5.90501">
        <ele>1726.801542347</ele>
        <time>2015-05-28T17:36:09Z</time>
      </trkpt>
      <trkpt lat="45.37138" lon="5.90499">
        <ele>1726.801542347</ele>
        <time>2015-05-28T17:36:14Z</time>
      </trkpt>
      <trkpt lat="45.37137" lon="5.90498">
        <ele>1726.801542347</ele>
        <time>2015-05-28T17:36:19Z</time>
      </trkpt>
      <trkpt lat="45.37136" lon="5.90498">
        <ele>1726.801542347</ele>
        <time>2015-05-28T17:36:24Z</time>
      </trkpt>
      <trkpt lat="45.37136" lon="5.90497">
        <ele>1726.801542347</ele>
        <time>2015-05-28T17:36:29Z</time>
      </trkpt>
      <trkpt lat="45.37136" lon="5.90497">
        <ele>1726.801542347</ele>
        <time>2015-05-28T17:36:34Z</time>
      </trkpt>
      <trkpt lat="45.37136" lon="5.90497">
        <ele>1726.801542347</ele>
        <time>2015-05-28T17:36:39Z</time>
      </trkpt>
      <trkpt lat="45.37136" lon="5.90497">
        <ele>1726.801542347</ele>
        <time>2015-05-28T17:36:44Z</time>
      </trkpt>
      <trkpt lat="45.37136" lon="5.90497">
        <ele>1726.801542347</ele>
        <time>2015-05-28T17:36:49Z</time>
      </trkpt>
      <trkpt lat="45.37136" lon="5.90497">
        <ele>1726.801542347</ele>
        <time>2015-05-28T17:36:54Z</time>
      </trkpt>
      <trkpt lat="45.37136" lon="5.90497">
        <ele>1726.801542347</ele>
        <time>2015-05-28T17:37:00Z</time>
      </trkpt>
      <trkpt lat="45.37136" lon="5.90497">
        <ele>1726.801542347</ele>
        <time>2015-05-28T17:37:04Z</time>
      </trkpt>
      <trkpt lat="45.37135" lon="5.90499">
        <ele>1726.801542347</ele>
        <time>2015-05-28T17:37:09Z</time>
      </trkpt>
      <trkpt lat="45.37136" lon="5.90499">
        <ele>1726.801542347</ele>
        <time>2015-05-28T17:37:14Z</time>
      </trkpt>
      <trkpt lat="45.37135" lon="5.90503">
        <ele>1726.801542347</ele>
        <time>2015-05-28T17:37:20Z</time>
      </trkpt>
      <trkpt lat="45.37134" lon="5.90505">
        <ele>1723.524150028</ele>
        <time>2015-05-28T17:37:24Z</time>
      </trkpt>
      <trkpt lat="45.37134" lon="5.9051">
        <ele>1723.524150028</ele>
        <time>2015-05-28T17:37:29Z</time>
      </trkpt>
      <trkpt lat="45.37135" lon="5.90513">
        <ele>1723.524150028</ele>
        <time>2015-05-28T17:37:33Z</time>
      </trkpt>
      <trkpt lat="45.37134" lon="5.90514">
        <ele>1723.524150028</ele>
        <time>2015-05-28T17:37:40Z</time>
      </trkpt>
      <trkpt lat="45.37134" lon="5.9051">
        <ele>1720.657859277</ele>
        <time>2015-05-28T17:37:44Z</time>
      </trkpt>
      <trkpt lat="45.37134" lon="5.90507">
        <ele>1720.657859277</ele>
        <time>2015-05-28T17:37:49Z</time>
      </trkpt>
      <trkpt lat="45.37133" lon="5.90505">
        <ele>1720.657859277</ele>
        <time>2015-05-28T17:37:54Z</time>
      </trkpt>
      <trkpt lat="45.37132" lon="5.90503">
        <ele>1720.657859277</ele>
        <time>2015-05-28T17:38:00Z</time>
      </trkpt>
      <trkpt lat="45.37132" lon="5.90506">
        <ele>1720.657859277</ele>
        <time>2015-05-28T17:38:04Z</time>
      </trkpt>
      <trkpt lat="45.37131" lon="5.9051">
        <ele>1717.45765462</ele>
        <time>2015-05-28T17:38:09Z</time>
      </trkpt>
      <trkpt lat="45.3713" lon="5.90511">
        <ele>1717.45765462</ele>
        <time>2015-05-28T17:38:13Z</time>
      </trkpt>
      <trkpt lat="45.3713" lon="5.90514">
        <ele>1717.45765462</ele>
        <time>2015-05-28T17:38:19Z</time>
      </trkpt>
      <trkpt lat="45.3713" lon="5.90513">
        <ele>1717.45765462</ele>
        <time>2015-05-28T17:38:23Z</time>
      </trkpt>
      <trkpt lat="45.3713" lon="5.90511">
        <ele>1717.45765462</ele>
        <time>2015-05-28T17:38:29Z</time>
      </trkpt>
      <trkpt lat="45.37132" lon="5.90514">
        <ele>1717.45765462</ele>
        <time>2015-05-28T17:38:34Z</time>
      </trkpt>
      <trkpt lat="45.37133" lon="5.90513">
        <ele>1714.2430412</ele>
        <time>2015-05-28T17:38:38Z</time>
      </trkpt>
      <trkpt lat="45.37133" lon="5.90519">
        <ele>1714.2430412</ele>
        <time>2015-05-28T17:38:45Z</time>
      </trkpt>
      <trkpt lat="45.37134" lon="5.90515">
        <ele>1714.2430412</ele>
        <time>2015-05-28T17:38:49Z</time>
      </trkpt>
      <trkpt lat="45.37134" lon="5.90514">
        <ele>1714.2430412</ele>
        <time>2015-05-28T17:38:54Z</time>
      </trkpt>
      <trkpt lat="45.37132" lon="5.90508">
        <ele>1710.589588827</ele>
        <time>2015-05-28T17:38:59Z</time>
      </trkpt>
      <trkpt lat="45.37132" lon="5.90506">
        <ele>1710.589588827</ele>
        <time>2015-05-28T17:39:04Z</time>
      </trkpt>
      <trkpt lat="45.37132" lon="5.90506">
        <ele>1710.589588827</ele>
        <time>2015-05-28T17:39:09Z</time>
      </trkpt>
      <trkpt lat="45.37132" lon="5.90505">
        <ele>1710.589588827</ele>
        <time>2015-05-28T17:39:14Z</time>
      </trkpt>
      <trkpt lat="45.37132" lon="5.90505">
        <ele>1710.589588827</ele>
        <time>2015-05-28T17:39:19Z</time>
      </trkpt>
      <trkpt lat="45.37133" lon="5.90506">
        <ele>1710.589588827</ele>
        <time>2015-05-28T17:39:24Z</time>
      </trkpt>
      <trkpt lat="45.37133" lon="5.90506">
        <ele>1710.589588827</ele>
        <time>2015-05-28T17:39:29Z</time>
      </trkpt>
      <trkpt lat="45.37133" lon="5.90506">
        <ele>1710.589588827</ele>
        <time>2015-05-28T17:39:34Z</time>
      </trkpt>
      <trkpt lat="45.37133" lon="5.90506">
        <ele>1710.589588827</ele>
        <time>2015-05-28T17:39:40Z</time>
      </trkpt>
      <trkpt lat="45.37133" lon="5.90506">
        <ele>1710.589588827</ele>
        <time>2015-05-28T17:39:44Z</time>
      </trkpt>
      <trkpt lat="45.37133" lon="5.90506">
        <ele>1710.589588827</ele>
        <time>2015-05-28T17:39:49Z</time>
      </trkpt>
      <trkpt lat="45.37133" lon="5.90506">
        <ele>1710.589588827</ele>
        <time>2015-05-28T17:39:54Z</time>
      </trkpt>
      <trkpt lat="45.37133" lon="5.90506">
        <ele>1710.589588827</ele>
        <time>2015-05-28T17:40:00Z</time>
      </trkpt>
      <trkpt lat="45.37133" lon="5.90506">
        <ele>1710.589588827</ele>
        <time>2015-05-28T17:40:04Z</time>
      </trkpt>
      <trkpt lat="45.37133" lon="5.90506">
        <ele>1710.589588827</ele>
        <time>2015-05-28T17:40:09Z</time>
      </trkpt>
      <trkpt lat="45.37133" lon="5.90506">
        <ele>1710.589588827</ele>
        <time>2015-05-28T17:40:14Z</time>
      </trkpt>
      <trkpt lat="45.37133" lon="5.90506">
        <ele>1710.589588827</ele>
        <time>2015-05-28T17:40:20Z</time>
      </trkpt>
      <trkpt lat="45.37133" lon="5.90506">
        <ele>1710.589588827</ele>
        <time>2015-05-28T17:40:24Z</time>
      </trkpt>
      <trkpt lat="45.37133" lon="5.90506">
        <ele>1710.589588827</ele>
        <time>2015-05-28T17:40:29Z</time>
      </trkpt>
      <trkpt lat="45.37133" lon="5.90506">
        <ele>1710.589588827</ele>
        <time>2015-05-28T17:40:34Z</time>
      </trkpt>
      <trkpt lat="45.37133" lon="5.90506">
        <ele>1710.589588827</ele>
        <time>2015-05-28T17:40:40Z</time>
      </trkpt>
      <trkpt lat="45.37133" lon="5.90506">
        <ele>1710.589588827</ele>
        <time>2015-05-28T17:40:44Z</time>
      </trkpt>
      <trkpt lat="45.37133" lon="5.90506">
        <ele>1710.589588827</ele>
        <time>2015-05-28T17:40:49Z</time>
      </trkpt>
      <trkpt lat="45.37133" lon="5.90506">
        <ele>1710.589588827</ele>
        <time>2015-05-28T17:40:54Z</time>
      </trkpt>
      <trkpt lat="45.37133" lon="5.90506">
        <ele>1710.589588827</ele>
        <time>2015-05-28T17:40:59Z</time>
      </trkpt>
      <trkpt lat="45.37133" lon="5.90506">
        <ele>1710.589588827</ele>
        <time>2015-05-28T17:41:04Z</time>
      </trkpt>
      <trkpt lat="45.37133" lon="5.90506">
        <ele>1710.589588827</ele>
        <time>2015-05-28T17:41:09Z</time>
      </trkpt>
      <trkpt lat="45.37133" lon="5.90506">
        <ele>1710.589588827</ele>
        <time>2015-05-28T17:41:14Z</time>
      </trkpt>
      <trkpt lat="45.37133" lon="5.90506">
        <ele>1710.589588827</ele>
        <time>2015-05-28T17:41:19Z</time>
      </trkpt>
      <trkpt lat="45.37133" lon="5.90506">
        <ele>1710.589588827</ele>
        <time>2015-05-28T17:41:24Z</time>
      </trkpt>
      <trkpt lat="45.37133" lon="5.90506">
        <ele>1710.589588827</ele>
        <time>2015-05-28T17:41:29Z</time>
      </trkpt>
      <trkpt lat="45.37133" lon="5.90506">
        <ele>1710.589588827</ele>
        <time>2015-05-28T17:41:34Z</time>
      </trkpt>
      <trkpt lat="45.37133" lon="5.90506">
        <ele>1710.589588827</ele>
        <time>2015-05-28T17:41:40Z</time>
      </trkpt>
      <trkpt lat="45.37133" lon="5.90506">
        <ele>1710.589588827</ele>
        <time>2015-05-28T17:41:44Z</time>
      </trkpt>
      <trkpt lat="45.37133" lon="5.90506">
        <ele>1710.589588827</ele>
        <time>2015-05-28T17:41:49Z</time>
      </trkpt>
      <trkpt lat="45.37133" lon="5.90506">
        <ele>1710.589588827</ele>
        <time>2015-05-28T17:41:54Z</time>
      </trkpt>
      <trkpt lat="45.37133" lon="5.90506">
        <ele>1710.589588827</ele>
        <time>2015-05-28T17:41:58Z</time>
      </trkpt>
      <trkpt lat="45.37133" lon="5.90505">
        <ele>1710.589588827</ele>
        <time>2015-05-28T17:42:04Z</time>
      </trkpt>
      <trkpt lat="45.37133" lon="5.90505">
        <ele>1710.589588827</ele>
        <time>2015-05-28T17:42:08Z</time>
      </trkpt>
      <trkpt lat="45.37133" lon="5.90505">
        <ele>1710.589588827</ele>
        <time>2015-05-28T17:42:13Z</time>
      </trkpt>
      <trkpt lat="45.37133" lon="5.90505">
        <ele>1710.589588827</ele>
        <time>2015-05-28T17:42:19Z</time>
      </trkpt>
      <trkpt lat="45.37133" lon="5.90505">
        <ele>1710.589588827</ele>
        <time>2015-05-28T17:42:23Z</time>
      </trkpt>
      <trkpt lat="45.37133" lon="5.90505">
        <ele>1710.589588827</ele>
        <time>2015-05-28T17:42:29Z</time>
      </trkpt>
      <trkpt lat="45.37133" lon="5.90505">
        <ele>1710.589588827</ele>
        <time>2015-05-28T17:42:34Z</time>
      </trkpt>
      <trkpt lat="45.37133" lon="5.90505">
        <ele>1710.589588827</ele>
        <time>2015-05-28T17:42:39Z</time>
      </trkpt>
      <trkpt lat="45.37133" lon="5.90505">
        <ele>1710.589588827</ele>
        <time>2015-05-28T17:42:44Z</time>
      </trkpt>
      <trkpt lat="45.37133" lon="5.90505">
        <ele>1710.589588827</ele>
        <time>2015-05-28T17:42:49Z</time>
      </trkpt>
      <trkpt lat="45.37133" lon="5.90505">
        <ele>1710.589588827</ele>
        <time>2015-05-28T17:42:53Z</time>
      </trkpt>
      <trkpt lat="45.37133" lon="5.90505">
        <ele>1710.589588827</ele>
        <time>2015-05-28T17:42:59Z</time>
      </trkpt>
      <trkpt lat="45.37133" lon="5.90505">
        <ele>1710.589588827</ele>
        <time>2015-05-28T17:43:04Z</time>
      </trkpt>
      <trkpt lat="45.37133" lon="5.90505">
        <ele>1710.589588827</ele>
        <time>2015-05-28T17:43:09Z</time>
      </trkpt>
      <trkpt lat="45.37133" lon="5.90505">
        <ele>1710.589588827</ele>
        <time>2015-05-28T17:43:14Z</time>
      </trkpt>
      <trkpt lat="45.37133" lon="5.90505">
        <ele>1710.589588827</ele>
        <time>2015-05-28T17:43:19Z</time>
      </trkpt>
      <trkpt lat="45.37133" lon="5.90505">
        <ele>1710.589588827</ele>
        <time>2015-05-28T17:43:24Z</time>
      </trkpt>
      <trkpt lat="45.37133" lon="5.90505">
        <ele>1710.589588827</ele>
        <time>2015-05-28T17:43:29Z</time>
      </trkpt>
      <trkpt lat="45.37133" lon="5.90505">
        <ele>1710.589588827</ele>
        <time>2015-05-28T17:43:34Z</time>
      </trkpt>
      <trkpt lat="45.37133" lon="5.90505">
        <ele>1710.589588827</ele>
        <time>2015-05-28T17:43:39Z</time>
      </trkpt>
      <trkpt lat="45.37133" lon="5.90505">
        <ele>1710.589588827</ele>
        <time>2015-05-28T17:43:44Z</time>
      </trkpt>
      <trkpt lat="45.37133" lon="5.90505">
        <ele>1710.589588827</ele>
        <time>2015-05-28T17:43:49Z</time>
      </trkpt>
      <trkpt lat="45.37134" lon="5.90506">
        <ele>1710.589588827</ele>
        <time>2015-05-28T17:43:53Z</time>
      </trkpt>
      <trkpt lat="45.37133" lon="5.90508">
        <ele>1710.589588827</ele>
        <time>2015-05-28T17:43:59Z</time>
      </trkpt>
      <trkpt lat="45.37131" lon="5.90508">
        <ele>1710.589588827</ele>
        <time>2015-05-28T17:44:04Z</time>
      </trkpt>
      <trkpt lat="45.3713" lon="5.9051">
        <ele>1706.68174631</ele>
        <time>2015-05-28T17:44:09Z</time>
      </trkpt>
      <trkpt lat="45.3713" lon="5.90511">
        <ele>1706.68174631</ele>
        <time>2015-05-28T17:44:14Z</time>
      </trkpt>
      <trkpt lat="45.3713" lon="5.90512">
        <ele>1706.68174631</ele>
        <time>2015-05-28T17:44:19Z</time>
      </trkpt>
      <trkpt lat="45.37129" lon="5.90508">
        <ele>1706.68174631</ele>
        <time>2015-05-28T17:44:23Z</time>
      </trkpt>
      <trkpt lat="45.37128" lon="5.90512">
        <ele>1706.68174631</ele>
        <time>2015-05-28T17:44:29Z</time>
      </trkpt>
      <trkpt lat="45.37129" lon="5.90515">
        <ele>1706.68174631</ele>
        <time>2015-05-28T17:44:34Z</time>
      </trkpt>
      <trkpt lat="45.37129" lon="5.90519">
        <ele>1702.547014196</ele>
        <time>2015-05-28T17:44:39Z</time>
      </trkpt>
      <trkpt lat="45.3713" lon="5.9052">
        <ele>1702.547014196</ele>
        <time>2015-05-28T17:44:44Z</time>
      </trkpt>
      <trkpt lat="45.37132" lon="5.90526">
        <ele>1702.547014196</ele>
        <time>2015-05-28T17:44:48Z</time>
      </trkpt>
      <trkpt lat="45.37133" lon="5.90527">
        <ele>1702.547014196</ele>
        <time>2015-05-28T17:44:54Z</time>
      </trkpt>
      <trkpt lat="45.37132" lon="5.90526">
        <ele>1702.547014196</ele>
        <time>2015-05-28T17:44:59Z</time>
      </trkpt>
      <trkpt lat="45.37132" lon="5.90526">
        <ele>1702.547014196</ele>
        <time>2015-05-28T17:45:04Z</time>
      </trkpt>
      <trkpt lat="45.37133" lon="5.90527">
        <ele>1702.547014196</ele>
        <time>2015-05-28T17:45:09Z</time>
      </trkpt>
      <trkpt lat="45.37133" lon="5.90528">
        <ele>1702.547014196</ele>
        <time>2015-05-28T17:45:14Z</time>
      </trkpt>
      <trkpt lat="45.37132" lon="5.90529">
        <ele>1698.643816197</ele>
        <time>2015-05-28T17:45:20Z</time>
      </trkpt>
      <trkpt lat="45.37132" lon="5.9053">
        <ele>1698.643816197</ele>
        <time>2015-05-28T17:45:24Z</time>
      </trkpt>
      <trkpt lat="45.37132" lon="5.9053">
        <ele>1698.643816197</ele>
        <time>2015-05-28T17:45:29Z</time>
      </trkpt>
      <trkpt lat="45.37134" lon="5.90528">
        <ele>1698.643816197</ele>
        <time>2015-05-28T17:45:34Z</time>
      </trkpt>
      <trkpt lat="45.37133" lon="5.90529">
        <ele>1698.643816197</ele>
        <time>2015-05-28T17:45:39Z</time>
      </trkpt>
      <trkpt lat="45.37134" lon="5.9053">
        <ele>1698.643816197</ele>
        <time>2015-05-28T17:45:44Z</time>
      </trkpt>
      <trkpt lat="45.37134" lon="5.9053">
        <ele>1698.643816197</ele>
        <time>2015-05-28T17:45:49Z</time>
      </trkpt>
      <trkpt lat="45.37134" lon="5.9053">
        <ele>1698.643816197</ele>
        <time>2015-05-28T17:45:54Z</time>
      </trkpt>
      <trkpt lat="45.37135" lon="5.90531">
        <ele>1698.643816197</ele>
        <time>2015-05-28T17:45:59Z</time>
      </trkpt>
      <trkpt lat="45.37135" lon="5.90533">
        <ele>1698.643816197</ele>
        <time>2015-05-28T17:46:04Z</time>
      </trkpt>
      <trkpt lat="45.37136" lon="5.90535">
        <ele>1693.378640945</ele>
        <time>2015-05-28T17:46:09Z</time>
      </trkpt>
      <trkpt lat="45.37135" lon="5.90534">
        <ele>1693.378640945</ele>
        <time>2015-05-28T17:46:13Z</time>
      </trkpt>
      <trkpt lat="45.37134" lon="5.90535">
        <ele>1693.378640945</ele>
        <time>2015-05-28T17:46:18Z</time>
      </trkpt>
      <trkpt lat="45.37134" lon="5.90535">
        <ele>1693.378640945</ele>
        <time>2015-05-28T17:46:23Z</time>
      </trkpt>
      <trkpt lat="45.37133" lon="5.90536">
        <ele>1693.378640945</ele>
        <time>2015-05-28T17:46:29Z</time>
      </trkpt>
      <trkpt lat="45.37133" lon="5.90537">
        <ele>1693.378640945</ele>
        <time>2015-05-28T17:46:34Z</time>
      </trkpt>
      <trkpt lat="45.37135" lon="5.90541">
        <ele>1693.378640945</ele>
        <time>2015-05-28T17:46:39Z</time>
      </trkpt>
      <trkpt lat="45.37135" lon="5.90541">
        <ele>1693.378640945</ele>
        <time>2015-05-28T17:46:44Z</time>
      </trkpt>
      <trkpt lat="45.37136" lon="5.90543">
        <ele>1693.378640945</ele>
        <time>2015-05-28T17:46:49Z</time>
      </trkpt>
      <trkpt lat="45.37136" lon="5.90544">
        <ele>1687.440441913</ele>
        <time>2015-05-28T17:46:53Z</time>
      </trkpt>
      <trkpt lat="45.37134" lon="5.90545">
        <ele>1687.440441913</ele>
        <time>2015-05-28T17:46:58Z</time>
      </trkpt>
      <trkpt lat="45.37134" lon="5.90549">
        <ele>1687.440441913</ele>
        <time>2015-05-28T17:47:05Z</time>
      </trkpt>
      <trkpt lat="45.37133" lon="5.90553">
        <ele>1687.440441913</ele>
        <time>2015-05-28T17:47:09Z</time>
      </trkpt>
      <trkpt lat="45.37132" lon="5.90551">
        <ele>1681.469339326</ele>
        <time>2015-05-28T17:47:14Z</time>
      </trkpt>
      <trkpt lat="45.37135" lon="5.90558">
        <ele>1681.469339326</ele>
        <time>2015-05-28T17:47:19Z</time>
      </trkpt>
      <trkpt lat="45.37135" lon="5.90563">
        <ele>1676.778939162</ele>
        <time>2015-05-28T17:47:24Z</time>
      </trkpt>
      <trkpt lat="45.37133" lon="5.90563">
        <ele>1676.778939162</ele>
        <time>2015-05-28T17:47:29Z</time>
      </trkpt>
      <trkpt lat="45.37133" lon="5.90563">
        <ele>1676.778939162</ele>
        <time>2015-05-28T17:47:34Z</time>
      </trkpt>
      <trkpt lat="45.37133" lon="5.90562">
        <ele>1676.778939162</ele>
        <time>2015-05-28T17:47:39Z</time>
      </trkpt>
      <trkpt lat="45.37133" lon="5.90563">
        <ele>1676.778939162</ele>
        <time>2015-05-28T17:47:44Z</time>
      </trkpt>
      <trkpt lat="45.37133" lon="5.90563">
        <ele>1676.778939162</ele>
        <time>2015-05-28T17:47:49Z</time>
      </trkpt>
      <trkpt lat="45.37133" lon="5.90563">
        <ele>1676.778939162</ele>
        <time>2015-05-28T17:47:54Z</time>
      </trkpt>
      <trkpt lat="45.37133" lon="5.90563">
        <ele>1676.778939162</ele>
        <time>2015-05-28T17:48:00Z</time>
      </trkpt>
      <trkpt lat="45.37133" lon="5.90563">
        <ele>1676.778939162</ele>
        <time>2015-05-28T17:48:04Z</time>
      </trkpt>
      <trkpt lat="45.37134" lon="5.90561">
        <ele>1676.778939162</ele>
        <time>2015-05-28T17:48:09Z</time>
      </trkpt>
      <trkpt lat="45.37134" lon="5.90562">
        <ele>1676.778939162</ele>
        <time>2015-05-28T17:48:14Z</time>
      </trkpt>
      <trkpt lat="45.37135" lon="5.90563">
        <ele>1676.778939162</ele>
        <time>2015-05-28T17:48:19Z</time>
      </trkpt>
      <trkpt lat="45.37136" lon="5.90564">
        <ele>1676.778939162</ele>
        <time>2015-05-28T17:48:24Z</time>
      </trkpt>
      <trkpt lat="45.37136" lon="5.90564">
        <ele>1676.778939162</ele>
        <time>2015-05-28T17:48:29Z</time>
      </trkpt>
      <trkpt lat="45.37134" lon="5.90565">
        <ele>1671.123921395</ele>
        <time>2015-05-28T17:48:34Z</time>
      </trkpt>
      <trkpt lat="45.37135" lon="5.90564">
        <ele>1671.123921395</ele>
        <time>2015-05-28T17:48:39Z</time>
      </trkpt>
      <trkpt lat="45.37136" lon="5.90567">
        <ele>1671.123921395</ele>
        <time>2015-05-28T17:48:44Z</time>
      </trkpt>
      <trkpt lat="45.37136" lon="5.90567">
        <ele>1671.123921395</ele>
        <time>2015-05-28T17:48:49Z</time>
      </trkpt>
      <trkpt lat="45.37136" lon="5.90568">
        <ele>1671.123921395</ele>
        <time>2015-05-28T17:48:54Z</time>
      </trkpt>
      <trkpt lat="45.37136" lon="5.90567">
        <ele>1671.123921395</ele>
        <time>2015-05-28T17:48:59Z</time>
      </trkpt>
      <trkpt lat="45.37136" lon="5.90567">
        <ele>1671.123921395</ele>
        <time>2015-05-28T17:49:04Z</time>
      </trkpt>
      <trkpt lat="45.37136" lon="5.90568">
        <ele>1671.123921395</ele>
        <time>2015-05-28T17:49:09Z</time>
      </trkpt>
      <trkpt lat="45.37135" lon="5.90568">
        <ele>1671.123921395</ele>
        <time>2015-05-28T17:49:14Z</time>
      </trkpt>
      <trkpt lat="45.37135" lon="5.90568">
        <ele>1671.123921395</ele>
        <time>2015-05-28T17:49:19Z</time>
      </trkpt>
      <trkpt lat="45.37135" lon="5.90568">
        <ele>1671.123921395</ele>
        <time>2015-05-28T17:49:24Z</time>
      </trkpt>
      <trkpt lat="45.37135" lon="5.90568">
        <ele>1671.123921395</ele>
        <time>2015-05-28T17:49:29Z</time>
      </trkpt>
      <trkpt lat="45.37135" lon="5.90568">
        <ele>1671.123921395</ele>
        <time>2015-05-28T17:49:34Z</time>
      </trkpt>
      <trkpt lat="45.37135" lon="5.90568">
        <ele>1671.123921395</ele>
        <time>2015-05-28T17:49:39Z</time>
      </trkpt>
      <trkpt lat="45.37135" lon="5.90569">
        <ele>1671.123921395</ele>
        <time>2015-05-28T17:49:44Z</time>
      </trkpt>
      <trkpt lat="45.37133" lon="5.90566">
        <ele>1671.123921395</ele>
        <time>2015-05-28T17:49:49Z</time>
      </trkpt>
      <trkpt lat="45.37134" lon="5.90571">
        <ele>1665.74097477</ele>
        <time>2015-05-28T17:49:54Z</time>
      </trkpt>
      <trkpt lat="45.37138" lon="5.90572">
        <ele>1665.74097477</ele>
        <time>2015-05-28T17:49:58Z</time>
      </trkpt>
      <trkpt lat="45.37139" lon="5.90574">
        <ele>1665.74097477</ele>
        <time>2015-05-28T17:50:04Z</time>
      </trkpt>
      <trkpt lat="45.37142" lon="5.90575">
        <ele>1665.74097477</ele>
        <time>2015-05-28T17:50:09Z</time>
      </trkpt>
      <trkpt lat="45.37145" lon="5.9058">
        <ele>1660.189739223</ele>
        <time>2015-05-28T17:50:13Z</time>
      </trkpt>
      <trkpt lat="45.37143" lon="5.90575">
        <ele>1660.189739223</ele>
        <time>2015-05-28T17:50:19Z</time>
      </trkpt>
      <trkpt lat="45.37143" lon="5.90576">
        <ele>1660.189739223</ele>
        <time>2015-05-28T17:50:23Z</time>
      </trkpt>
      <trkpt lat="45.37141" lon="5.9058">
        <ele>1660.189739223</ele>
        <time>2015-05-28T17:50:29Z</time>
      </trkpt>
      <trkpt lat="45.37142" lon="5.90579">
        <ele>1660.189739223</ele>
        <time>2015-05-28T17:50:34Z</time>
      </trkpt>
      <trkpt lat="45.37143" lon="5.9058">
        <ele>1654.062438252</ele>
        <time>2015-05-28T17:50:39Z</time>
      </trkpt>
      <trkpt lat="45.37143" lon="5.90581">
        <ele>1654.062438252</ele>
        <time>2015-05-28T17:50:44Z</time>
      </trkpt>
      <trkpt lat="45.37143" lon="5.9058">
        <ele>1654.062438252</ele>
        <time>2015-05-28T17:50:49Z</time>
      </trkpt>
      <trkpt lat="45.37143" lon="5.9058">
        <ele>1654.062438252</ele>
        <time>2015-05-28T17:50:54Z</time>
      </trkpt>
      <trkpt lat="45.37143" lon="5.9058">
        <ele>1654.062438252</ele>
        <time>2015-05-28T17:51:00Z</time>
      </trkpt>
      <trkpt lat="45.37143" lon="5.9058">
        <ele>1654.062438252</ele>
        <time>2015-05-28T17:51:04Z</time>
      </trkpt>
      <trkpt lat="45.37143" lon="5.90581">
        <ele>1654.062438252</ele>
        <time>2015-05-28T17:51:09Z</time>
      </trkpt>
      <trkpt lat="45.37143" lon="5.90583">
        <ele>1654.062438252</ele>
        <time>2015-05-28T17:51:14Z</time>
      </trkpt>
      <trkpt lat="45.37143" lon="5.90585">
        <ele>1654.062438252</ele>
        <time>2015-05-28T17:51:19Z</time>
      </trkpt>
      <trkpt lat="45.37143" lon="5.90589">
        <ele>1654.062438252</ele>
        <time>2015-05-28T17:51:24Z</time>
      </trkpt>
      <trkpt lat="45.37143" lon="5.9059">
        <ele>1654.062438252</ele>
        <time>2015-05-28T17:51:29Z</time>
      </trkpt>
      <trkpt lat="45.37143" lon="5.9059">
        <ele>1654.062438252</ele>
        <time>2015-05-28T17:51:34Z</time>
      </trkpt>
      <trkpt lat="45.37138" lon="5.90595">
        <ele>1648.423721396</ele>
        <time>2015-05-28T17:51:40Z</time>
      </trkpt>
      <trkpt lat="45.37133" lon="5.90599">
        <ele>1648.423721396</ele>
        <time>2015-05-28T17:51:44Z</time>
      </trkpt>
      <trkpt lat="45.37132" lon="5.90602">
        <ele>1648.423721396</ele>
        <time>2015-05-28T17:51:48Z</time>
      </trkpt>
      <trkpt lat="45.37131" lon="5.90607">
        <ele>1643.105495805</ele>
        <time>2015-05-28T17:51:53Z</time>
      </trkpt>
      <trkpt lat="45.37133" lon="5.90609">
        <ele>1643.105495805</ele>
        <time>2015-05-28T17:51:59Z</time>
      </trkpt>
      <trkpt lat="45.37125" lon="5.90609">
        <ele>1638.094940336</ele>
        <time>2015-05-28T17:52:04Z</time>
      </trkpt>
      <trkpt lat="45.37124" lon="5.90609">
        <ele>1638.094940336</ele>
        <time>2015-05-28T17:52:09Z</time>
      </trkpt>
      <trkpt lat="45.37124" lon="5.90608">
        <ele>1638.094940336</ele>
        <time>2015-05-28T17:52:14Z</time>
      </trkpt>
      <trkpt lat="45.37125" lon="5.90608">
        <ele>1638.094940336</ele>
        <time>2015-05-28T17:52:20Z</time>
      </trkpt>
      <trkpt lat="45.37122" lon="5.90608">
        <ele>1638.094940336</ele>
        <time>2015-05-28T17:52:24Z</time>
      </trkpt>
      <trkpt lat="45.37123" lon="5.90607">
        <ele>1638.094940336</ele>
        <time>2015-05-28T17:52:29Z</time>
      </trkpt>
      <trkpt lat="45.37123" lon="5.90608">
        <ele>1638.094940336</ele>
        <time>2015-05-28T17:52:34Z</time>
      </trkpt>
      <trkpt lat="45.37124" lon="5.90606">
        <ele>1638.094940336</ele>
        <time>2015-05-28T17:52:39Z</time>
      </trkpt>
      <trkpt lat="45.37124" lon="5.90606">
        <ele>1638.094940336</ele>
        <time>2015-05-28T17:52:44Z</time>
      </trkpt>
      <trkpt lat="45.37125" lon="5.90603">
        <ele>1632.9466792</ele>
        <time>2015-05-28T17:52:49Z</time>
      </trkpt>
      <trkpt lat="45.37127" lon="5.90601">
        <ele>1632.9466792</ele>
        <time>2015-05-28T17:52:54Z</time>
      </trkpt>
      <trkpt lat="45.37128" lon="5.90608">
        <ele>1632.9466792</ele>
        <time>2015-05-28T17:53:00Z</time>
      </trkpt>
      <trkpt lat="45.37127" lon="5.90614">
        <ele>1628.112799676</ele>
        <time>2015-05-28T17:53:04Z</time>
      </trkpt>
      <trkpt lat="45.37126" lon="5.90615">
        <ele>1628.112799676</ele>
        <time>2015-05-28T17:53:09Z</time>
      </trkpt>
      <trkpt lat="45.37126" lon="5.9062">
        <ele>1628.112799676</ele>
        <time>2015-05-28T17:53:14Z</time>
      </trkpt>
      <trkpt lat="45.37127" lon="5.90622">
        <ele>1628.112799676</ele>
        <time>2015-05-28T17:53:19Z</time>
      </trkpt>
      <trkpt lat="45.37127" lon="5.90623">
        <ele>1628.112799676</ele>
        <time>2015-05-28T17:53:24Z</time>
      </trkpt>
      <trkpt lat="45.37127" lon="5.90622">
        <ele>1628.112799676</ele>
        <time>2015-05-28T17:53:29Z</time>
      </trkpt>
      <trkpt lat="45.37126" lon="5.90626">
        <ele>1623.578652061</ele>
        <time>2015-05-28T17:53:33Z</time>
      </trkpt>
      <trkpt lat="45.37127" lon="5.90626">
        <ele>1623.578652061</ele>
        <time>2015-05-28T17:53:39Z</time>
      </trkpt>
      <trkpt lat="45.37127" lon="5.90626">
        <ele>1623.578652061</ele>
        <time>2015-05-28T17:53:43Z</time>
      </trkpt>
      <trkpt lat="45.37123" lon="5.90626">
        <ele>1623.578652061</ele>
        <time>2015-05-28T17:53:49Z</time>
      </trkpt>
      <trkpt lat="45.37123" lon="5.90624">
        <ele>1623.578652061</ele>
        <time>2015-05-28T17:53:54Z</time>
      </trkpt>
      <trkpt lat="45.37123" lon="5.90624">
        <ele>1623.578652061</ele>
        <time>2015-05-28T17:53:59Z</time>
      </trkpt>
      <trkpt lat="45.37123" lon="5.90624">
        <ele>1623.578652061</ele>
        <time>2015-05-28T17:54:04Z</time>
      </trkpt>
      <trkpt lat="45.37123" lon="5.90624">
        <ele>1623.578652061</ele>
        <time>2015-05-28T17:54:09Z</time>
      </trkpt>
      <trkpt lat="45.37123" lon="5.90623">
        <ele>1623.578652061</ele>
        <time>2015-05-28T17:54:14Z</time>
      </trkpt>
      <trkpt lat="45.37124" lon="5.90623">
        <ele>1623.578652061</ele>
        <time>2015-05-28T17:54:19Z</time>
      </trkpt>
      <trkpt lat="45.37124" lon="5.90623">
        <ele>1623.578652061</ele>
        <time>2015-05-28T17:54:24Z</time>
      </trkpt>
      <trkpt lat="45.37124" lon="5.90623">
        <ele>1623.578652061</ele>
        <time>2015-05-28T17:54:29Z</time>
      </trkpt>
      <trkpt lat="45.37124" lon="5.90623">
        <ele>1623.578652061</ele>
        <time>2015-05-28T17:54:34Z</time>
      </trkpt>
      <trkpt lat="45.37123" lon="5.90625">
        <ele>1623.578652061</ele>
        <time>2015-05-28T17:54:40Z</time>
      </trkpt>
      <trkpt lat="45.37124" lon="5.90626">
        <ele>1623.578652061</ele>
        <time>2015-05-28T17:54:44Z</time>
      </trkpt>
      <trkpt lat="45.37125" lon="5.90627">
        <ele>1618.464840738</ele>
        <time>2015-05-28T17:54:49Z</time>
      </trkpt>
      <trkpt lat="45.37125" lon="5.90628">
        <ele>1618.464840738</ele>
        <time>2015-05-28T17:54:54Z</time>
      </trkpt>
      <trkpt lat="45.37124" lon="5.90632">
        <ele>1618.464840738</ele>
        <time>2015-05-28T17:54:59Z</time>
      </trkpt>
      <trkpt lat="45.37124" lon="5.90632">
        <ele>1618.464840738</ele>
        <time>2015-05-28T17:55:04Z</time>
      </trkpt>
      <trkpt lat="45.37123" lon="5.90633">
        <ele>1618.464840738</ele>
        <time>2015-05-28T17:55:09Z</time>
      </trkpt>
      <trkpt lat="45.37124" lon="5.90633">
        <ele>1618.464840738</ele>
        <time>2015-05-28T17:55:14Z</time>
      </trkpt>
      <trkpt lat="45.37124" lon="5.90633">
        <ele>1618.464840738</ele>
        <time>2015-05-28T17:55:18Z</time>
      </trkpt>
      <trkpt lat="45.37124" lon="5.90633">
        <ele>1618.464840738</ele>
        <time>2015-05-28T17:55:23Z</time>
      </trkpt>
      <trkpt lat="45.37124" lon="5.90633">
        <ele>1618.464840738</ele>
        <time>2015-05-28T17:55:28Z</time>
      </trkpt>
      <trkpt lat="45.37124" lon="5.90633">
        <ele>1618.464840738</ele>
        <time>2015-05-28T17:55:33Z</time>
      </trkpt>
      <trkpt lat="45.37124" lon="5.90633">
        <ele>1618.464840738</ele>
        <time>2015-05-28T17:55:39Z</time>
      </trkpt>
      <trkpt lat="45.37125" lon="5.90633">
        <ele>1618.464840738</ele>
        <time>2015-05-28T17:55:44Z</time>
      </trkpt>
      <trkpt lat="45.37125" lon="5.90635">
        <ele>1618.464840738</ele>
        <time>2015-05-28T17:55:49Z</time>
      </trkpt>
      <trkpt lat="45.37125" lon="5.90635">
        <ele>1618.464840738</ele>
        <time>2015-05-28T17:55:53Z</time>
      </trkpt>
      <trkpt lat="45.37125" lon="5.90635">
        <ele>1618.464840738</ele>
        <time>2015-05-28T17:55:59Z</time>
      </trkpt>
      <trkpt lat="45.37125" lon="5.90637">
        <ele>1611.957878131</ele>
        <time>2015-05-28T17:56:03Z</time>
      </trkpt>
      <trkpt lat="45.37122" lon="5.90638">
        <ele>1611.957878131</ele>
        <time>2015-05-28T17:56:09Z</time>
      </trkpt>
      <trkpt lat="45.37123" lon="5.90642">
        <ele>1611.957878131</ele>
        <time>2015-05-28T17:56:13Z</time>
      </trkpt>
      <trkpt lat="45.37116" lon="5.90646">
        <ele>1605.757511046</ele>
        <time>2015-05-28T17:56:19Z</time>
      </trkpt>
      <trkpt lat="45.37115" lon="5.90646">
        <ele>1605.757511046</ele>
        <time>2015-05-28T17:56:24Z</time>
      </trkpt>
      <trkpt lat="45.37111" lon="5.90648">
        <ele>1605.757511046</ele>
        <time>2015-05-28T17:56:29Z</time>
      </trkpt>
      <trkpt lat="45.37106" lon="5.90647">
        <ele>1599.419879339</ele>
        <time>2015-05-28T17:56:33Z</time>
      </trkpt>
      <trkpt lat="45.37107" lon="5.90649">
        <ele>1599.419879339</ele>
        <time>2015-05-28T17:56:39Z</time>
      </trkpt>
      <trkpt lat="45.37106" lon="5.9065">
        <ele>1599.419879339</ele>
        <time>2015-05-28T17:56:44Z</time>
      </trkpt>
      <trkpt lat="45.37106" lon="5.9065">
        <ele>1599.419879339</ele>
        <time>2015-05-28T17:56:48Z</time>
      </trkpt>
      <trkpt lat="45.37106" lon="5.9065">
        <ele>1599.419879339</ele>
        <time>2015-05-28T17:56:53Z</time>
      </trkpt>
      <trkpt lat="45.37105" lon="5.90649">
        <ele>1599.419879339</ele>
        <time>2015-05-28T17:56:58Z</time>
      </trkpt>
      <trkpt lat="45.37105" lon="5.90651">
        <ele>1599.419879339</ele>
        <time>2015-05-28T17:57:03Z</time>
      </trkpt>
      <trkpt lat="45.37107" lon="5.9065">
        <ele>1599.419879339</ele>
        <time>2015-05-28T17:57:08Z</time>
      </trkpt>
      <trkpt lat="45.37108" lon="5.9065">
        <ele>1593.11022242</ele>
        <time>2015-05-28T17:57:13Z</time>
      </trkpt>
      <trkpt lat="45.37106" lon="5.90651">
        <ele>1593.11022242</ele>
        <time>2015-05-28T17:57:18Z</time>
      </trkpt>
      <trkpt lat="45.37103" lon="5.90647">
        <ele>1593.11022242</ele>
        <time>2015-05-28T17:57:25Z</time>
      </trkpt>
      <trkpt lat="45.37101" lon="5.90648">
        <ele>1593.11022242</ele>
        <time>2015-05-28T17:57:29Z</time>
      </trkpt>
      <trkpt lat="45.37101" lon="5.90648">
        <ele>1586.404773906</ele>
        <time>2015-05-28T17:57:34Z</time>
      </trkpt>
      <trkpt lat="45.37099" lon="5.90647">
        <ele>1586.404773906</ele>
        <time>2015-05-28T17:57:39Z</time>
      </trkpt>
      <trkpt lat="45.3709" lon="5.90646">
        <ele>1580.929214548</ele>
        <time>2015-05-28T17:57:44Z</time>
      </trkpt>
      <trkpt lat="45.37086" lon="5.90644">
        <ele>1580.929214548</ele>
        <time>2015-05-28T17:57:49Z</time>
      </trkpt>
      <trkpt lat="45.37082" lon="5.90644">
        <ele>1580.929214548</ele>
        <time>2015-05-28T17:57:54Z</time>
      </trkpt>
      <trkpt lat="45.37078" lon="5.90647">
        <ele>1576.312557783</ele>
        <time>2015-05-28T17:57:59Z</time>
      </trkpt>
      <trkpt lat="45.37073" lon="5.90646">
        <ele>1576.312557783</ele>
        <time>2015-05-28T17:58:04Z</time>
      </trkpt>
      <trkpt lat="45.3707" lon="5.90647">
        <ele>1576.312557783</ele>
        <time>2015-05-28T17:58:09Z</time>
      </trkpt>
      <trkpt lat="45.37065" lon="5.90649">
        <ele>1572.064201943</ele>
        <time>2015-05-28T17:58:14Z</time>
      </trkpt>
      <trkpt lat="45.37063" lon="5.90648">
        <ele>1572.064201943</ele>
        <time>2015-05-28T17:58:19Z</time>
      </trkpt>
      <trkpt lat="45.37059" lon="5.90648">
        <ele>1572.064201943</ele>
        <time>2015-05-28T17:58:24Z</time>
      </trkpt>
      <trkpt lat="45.37057" lon="5.90649">
        <ele>1572.064201943</ele>
        <time>2015-05-28T17:58:29Z</time>
      </trkpt>
      <trkpt lat="45.37056" lon="5.9065">
        <ele>1572.064201943</ele>
        <time>2015-05-28T17:58:34Z</time>
      </trkpt>
      <trkpt lat="45.37054" lon="5.90651">
        <ele>1566.863544335</ele>
        <time>2015-05-28T17:58:39Z</time>
      </trkpt>
      <trkpt lat="45.37055" lon="5.9065">
        <ele>1559.6953125</ele>
      </trkpt>
      <trkpt lat="45.37039" lon="5.90643">
        <ele>1561.5859375</ele>
      </trkpt>
      <trkpt lat="45.37022" lon="5.90633">
        <ele>1565.5703125</ele>
      </trkpt>
      <trkpt lat="45.37002" lon="5.90629">
        <ele>1564.625</ele>
      </trkpt>
      <trkpt lat="45.3698" lon="5.90622">
        <ele>1564.203125</ele>
      </trkpt>
      <trkpt lat="45.36963" lon="5.90617">
        <ele>1563.16015625</ele>
      </trkpt>
      <trkpt lat="45.36941" lon="5.90604">
        <ele>1565.625</ele>
      </trkpt>
      <trkpt lat="45.36927" lon="5.90595">
        <ele>1567.35546875</ele>
      </trkpt>
      <trkpt lat="45.36913" lon="5.90587">
        <ele>1568.3359375</ele>
      </trkpt>
      <trkpt lat="45.36899" lon="5.9059">
        <ele>1563.1875</ele>
      </trkpt>
      <trkpt lat="45.36884" lon="5.90578">
        <ele>1568.6796875</ele>
      </trkpt>
      <trkpt lat="45.3686" lon="5.90565">
        <ele>1573.046875</ele>
      </trkpt>
      <trkpt lat="45.36836" lon="5.90554">
        <ele>1573.7890625</ele>
      </trkpt>
      <trkpt lat="45.36819" lon="5.90549">
        <ele>1572.51953125</ele>
      </trkpt>
      <trkpt lat="45.368" lon="5.9054">
        <ele>1572.8203125</ele>
      </trkpt>
      <trkpt lat="45.36801" lon="5.9054">
        <ele>1518</ele>
        <time>2015-08-07T10:48:05Z</time>
      </trkpt>
      <trkpt lat="45.36795" lon="5.9055">
        <ele>1561.367551098</ele>
        <time>2015-08-07T10:48:10Z</time>
      </trkpt>
      <trkpt lat="45.36796" lon="5.90546">
        <ele>1561.367551098</ele>
        <time>2015-08-07T10:48:15Z</time>
      </trkpt>
      <trkpt lat="45.36795" lon="5.90546">
        <ele>1561.367551098</ele>
        <time>2015-08-07T10:48:25Z</time>
      </trkpt>
      <trkpt lat="45.36795" lon="5.90546">
        <ele>1561.367551098</ele>
        <time>2015-08-07T10:48:30Z</time>
      </trkpt>
      <trkpt lat="45.36797" lon="5.90548">
        <ele>1561.367551098</ele>
        <time>2015-08-07T10:48:40Z</time>
      </trkpt>
      <trkpt lat="45.36798" lon="5.90551">
        <ele>1561.367551098</ele>
        <time>2015-08-07T10:48:45Z</time>
      </trkpt>
      <trkpt lat="45.36798" lon="5.9055">
        <ele>1561.367551098</ele>
        <time>2015-08-07T10:48:50Z</time>
      </trkpt>
      <trkpt lat="45.36798" lon="5.9055">
        <ele>1561.367551098</ele>
        <time>2015-08-07T10:48:55Z</time>
      </trkpt>
      <trkpt lat="45.36799" lon="5.90551">
        <ele>1575.896816235</ele>
        <time>2015-08-07T10:49:00Z</time>
      </trkpt>
      <trkpt lat="45.36799" lon="5.90552">
        <ele>1575.896816235</ele>
        <time>2015-08-07T10:49:05Z</time>
      </trkpt>
      <trkpt lat="45.368" lon="5.90554">
        <ele>1575.896816235</ele>
        <time>2015-08-07T10:49:20Z</time>
      </trkpt>
      <trkpt lat="45.36798" lon="5.90553">
        <ele>1575.896816235</ele>
        <time>2015-08-07T10:49:25Z</time>
      </trkpt>
      <trkpt lat="45.3679" lon="5.90551">
        <ele>1565.477319936</ele>
        <time>2015-08-07T10:49:35Z</time>
      </trkpt>
      <trkpt lat="45.36786" lon="5.90553">
        <ele>1565.477319936</ele>
        <time>2015-08-07T10:49:40Z</time>
      </trkpt>
      <trkpt lat="45.36777" lon="5.9056">
        <ele>1530.201177583</ele>
        <time>2015-08-07T10:49:55Z</time>
      </trkpt>
      <trkpt lat="45.36773" lon="5.90561">
        <ele>1530.201177583</ele>
        <time>2015-08-07T10:50:00Z</time>
      </trkpt>
      <trkpt lat="45.36766" lon="5.90565">
        <ele>1541.303632666</ele>
        <time>2015-08-07T10:50:10Z</time>
      </trkpt>
      <trkpt lat="45.36764" lon="5.90566">
        <ele>1541.303632666</ele>
        <time>2015-08-07T10:50:15Z</time>
      </trkpt>
      <trkpt lat="45.36758" lon="5.90568">
        <ele>1541.303632666</ele>
        <time>2015-08-07T10:50:25Z</time>
      </trkpt>
      <trkpt lat="45.36757" lon="5.90575">
        <ele>1555.639893726</ele>
        <time>2015-08-07T10:50:30Z</time>
      </trkpt>
      <trkpt lat="45.3676" lon="5.90583">
        <ele>1555.639893726</ele>
        <time>2015-08-07T10:50:40Z</time>
      </trkpt>
      <trkpt lat="45.3676" lon="5.90587">
        <ele>1568.610608922</ele>
        <time>2015-08-07T10:50:45Z</time>
      </trkpt>
      <trkpt lat="45.3676" lon="5.90595">
        <ele>1568.610608922</ele>
        <time>2015-08-07T10:50:55Z</time>
      </trkpt>
      <trkpt lat="45.36759" lon="5.90598">
        <ele>1568.610608922</ele>
        <time>2015-08-07T10:51:00Z</time>
      </trkpt>
      <trkpt lat="45.36756" lon="5.90602">
        <ele>1578.097970455</ele>
        <time>2015-08-07T10:51:10Z</time>
      </trkpt>
      <trkpt lat="45.36754" lon="5.90602">
        <ele>1578.097970455</ele>
        <time>2015-08-07T10:51:15Z</time>
      </trkpt>
      <trkpt lat="45.36757" lon="5.90608">
        <ele>1578.097970455</ele>
        <time>2015-08-07T10:51:25Z</time>
      </trkpt>
      <trkpt lat="45.36758" lon="5.90611">
        <ele>1581.87413546</ele>
        <time>2015-08-07T10:51:30Z</time>
      </trkpt>
      <trkpt lat="45.36759" lon="5.9063">
        <ele>1586.643143365</ele>
        <time>2015-08-07T10:51:45Z</time>
      </trkpt>
      <trkpt lat="45.36758" lon="5.90635">
        <ele>1586.643143365</ele>
        <time>2015-08-07T10:51:50Z</time>
      </trkpt>
      <trkpt lat="45.36756" lon="5.90641">
        <ele>1586.643143365</ele>
        <time>2015-08-07T10:52:00Z</time>
      </trkpt>
      <trkpt lat="45.36754" lon="5.90642">
        <ele>1588.929046092</ele>
        <time>2015-08-07T10:52:05Z</time>
      </trkpt>
      <trkpt lat="45.36747" lon="5.90653">
        <ele>1589.628994151</ele>
        <time>2015-08-07T10:52:15Z</time>
      </trkpt>
      <trkpt lat="45.36744" lon="5.90656">
        <ele>1589.628994151</ele>
        <time>2015-08-07T10:52:20Z</time>
      </trkpt>
      <trkpt lat="45.36744" lon="5.90663">
        <ele>1589.628994151</ele>
        <time>2015-08-07T10:52:30Z</time>
      </trkpt>
      <trkpt lat="45.36743" lon="5.90669">
        <ele>1588.281397792</ele>
        <time>2015-08-07T10:52:35Z</time>
      </trkpt>
      <trkpt lat="45.36739" lon="5.90679">
        <ele>1588.281397792</ele>
        <time>2015-08-07T10:52:45Z</time>
      </trkpt>
      <trkpt lat="45.36738" lon="5.90684">
        <ele>1586.173107195</ele>
        <time>2015-08-07T10:52:50Z</time>
      </trkpt>
      <trkpt lat="45.36738" lon="5.90689">
        <ele>1586.173107195</ele>
        <time>2015-08-07T10:53:00Z</time>
      </trkpt>
      <trkpt lat="45.36739" lon="5.90692">
        <ele>1586.173107195</ele>
        <time>2015-08-07T10:53:05Z</time>
      </trkpt>
      <trkpt lat="45.36742" lon="5.907">
        <ele>1582.16642164</ele>
        <time>2015-08-07T10:53:10Z</time>
      </trkpt>
      <trkpt lat="45.36741" lon="5.90705">
        <ele>1582.16642164</ele>
        <time>2015-08-07T10:53:15Z</time>
      </trkpt>
      <trkpt lat="45.36739" lon="5.90712">
        <ele>1582.16642164</ele>
        <time>2015-08-07T10:53:20Z</time>
      </trkpt>
      <trkpt lat="45.36735" lon="5.90715">
        <ele>1577.560218233</ele>
        <time>2015-08-07T10:53:25Z</time>
      </trkpt>
      <trkpt lat="45.36735" lon="5.90719">
        <ele>1577.560218233</ele>
        <time>2015-08-07T10:53:30Z</time>
      </trkpt>
      <trkpt lat="45.3673" lon="5.90725">
        <ele>1571.712902914</ele>
        <time>2015-08-07T10:53:40Z</time>
      </trkpt>
      <trkpt lat="45.36725" lon="5.90729">
        <ele>1571.712902914</ele>
        <time>2015-08-07T10:53:45Z</time>
      </trkpt>
      <trkpt lat="45.36715" lon="5.90737">
        <ele>1565.182084521</ele>
        <time>2015-08-07T10:53:55Z</time>
      </trkpt>
      <trkpt lat="45.36707" lon="5.90742">
        <ele>1565.182084521</ele>
        <time>2015-08-07T10:54:00Z</time>
      </trkpt>
      <trkpt lat="45.36705" lon="5.90742">
        <ele>1558.606472956</ele>
        <time>2015-08-07T10:54:10Z</time>
      </trkpt>
      <trkpt lat="45.36705" lon="5.90742">
        <ele>1558.606472956</ele>
        <time>2015-08-07T10:54:15Z</time>
      </trkpt>
      <trkpt lat="45.36705" lon="5.90742">
        <ele>1558.606472956</ele>
        <time>2015-08-07T10:54:30Z</time>
      </trkpt>
      <trkpt lat="45.36705" lon="5.90743">
        <ele>1558.606472956</ele>
        <time>2015-08-07T10:54:35Z</time>
      </trkpt>
      <trkpt lat="45.36705" lon="5.90743">
        <ele>1558.606472956</ele>
        <time>2015-08-07T10:54:45Z</time>
      </trkpt>
      <trkpt lat="45.36705" lon="5.90743">
        <ele>1558.606472956</ele>
        <time>2015-08-07T10:54:50Z</time>
      </trkpt>
      <trkpt lat="45.36705" lon="5.90743">
        <ele>1558.606472956</ele>
        <time>2015-08-07T10:55:00Z</time>
      </trkpt>
      <trkpt lat="45.36703" lon="5.90743">
        <ele>1558.606472956</ele>
        <time>2015-08-07T10:55:05Z</time>
      </trkpt>
      <trkpt lat="45.36691" lon="5.90745">
        <ele>1552.213972083</ele>
        <time>2015-08-07T10:55:15Z</time>
      </trkpt>
      <trkpt lat="45.3669" lon="5.90745">
        <ele>1552.213972083</ele>
        <time>2015-08-07T10:55:20Z</time>
      </trkpt>
      <trkpt lat="45.3669" lon="5.90745">
        <ele>1552.213972083</ele>
        <time>2015-08-07T10:55:30Z</time>
      </trkpt>
      <trkpt lat="45.3669" lon="5.90745">
        <ele>1552.213972083</ele>
        <time>2015-08-07T10:55:35Z</time>
      </trkpt>
      <trkpt lat="45.36689" lon="5.90745">
        <ele>1552.213972083</ele>
        <time>2015-08-07T10:55:45Z</time>
      </trkpt>
      <trkpt lat="45.36685" lon="5.90753">
        <ele>1552.213972083</ele>
        <time>2015-08-07T10:55:50Z</time>
      </trkpt>
      <trkpt lat="45.36685" lon="5.90756">
        <ele>1545.2596995</ele>
        <time>2015-08-07T10:56:00Z</time>
      </trkpt>
      <trkpt lat="45.36684" lon="5.9076">
        <ele>1545.2596995</ele>
        <time>2015-08-07T10:56:05Z</time>
      </trkpt>
      <trkpt lat="45.36677" lon="5.9077">
        <ele>1537.997691978</ele>
        <time>2015-08-07T10:56:15Z</time>
      </trkpt>
      <trkpt lat="45.36666" lon="5.90788">
        <ele>1530.939691579</ele>
        <time>2015-08-07T10:56:20Z</time>
      </trkpt>
      <trkpt lat="45.36661" lon="5.90786">
        <ele>1530.939691579</ele>
        <time>2015-08-07T10:56:30Z</time>
      </trkpt>
      <trkpt lat="45.36659" lon="5.90793">
        <ele>1524.080689146</ele>
        <time>2015-08-07T10:56:35Z</time>
      </trkpt>
      <trkpt lat="45.36657" lon="5.90793">
        <ele>1524.080689146</ele>
        <time>2015-08-07T10:56:45Z</time>
      </trkpt>
      <trkpt lat="45.36657" lon="5.90793">
        <ele>1524.080689146</ele>
        <time>2015-08-07T10:56:50Z</time>
      </trkpt>
      <trkpt lat="45.36657" lon="5.90793">
        <ele>1524.080689146</ele>
        <time>2015-08-07T10:57:00Z</time>
      </trkpt>
      <trkpt lat="45.36663" lon="5.90795">
        <ele>1517.409648517</ele>
        <time>2015-08-07T10:57:05Z</time>
      </trkpt>
      <trkpt lat="45.36675" lon="5.90803">
        <ele>1510.624333634</ele>
        <time>2015-08-07T10:57:15Z</time>
      </trkpt>
      <trkpt lat="45.36676" lon="5.90806">
        <ele>1510.624333634</ele>
        <time>2015-08-07T10:57:20Z</time>
      </trkpt>
      <trkpt lat="45.36684" lon="5.90812">
        <ele>1503.168696633</ele>
        <time>2015-08-07T10:57:30Z</time>
      </trkpt>
      <trkpt lat="45.36687" lon="5.90817">
        <ele>1503.168696633</ele>
        <time>2015-08-07T10:57:35Z</time>
      </trkpt>
      <trkpt lat="45.36711" lon="5.90842">
        <ele>1495.954650024</ele>
        <time>2015-08-07T10:57:50Z</time>
      </trkpt>
      <trkpt lat="45.36719" lon="5.90842">
        <ele>1495.954650024</ele>
        <time>2015-08-07T10:57:55Z</time>
      </trkpt>
      <trkpt lat="45.3673" lon="5.90848">
        <ele>1488.678735346</ele>
        <time>2015-08-07T10:58:05Z</time>
      </trkpt>
      <trkpt lat="45.3674" lon="5.90855">
        <ele>1482.042679691</ele>
        <time>2015-08-07T10:58:10Z</time>
      </trkpt>
      <trkpt lat="45.3675" lon="5.90867">
        <ele>1475.716238428</ele>
        <time>2015-08-07T10:58:20Z</time>
      </trkpt>
      <trkpt lat="45.36754" lon="5.90865">
        <ele>1475.716238428</ele>
        <time>2015-08-07T10:58:25Z</time>
      </trkpt>
      <trkpt lat="45.36765" lon="5.90862">
        <ele>1469.954842089</ele>
        <time>2015-08-07T10:58:35Z</time>
      </trkpt>
      <trkpt lat="45.3677" lon="5.90862">
        <ele>1469.954842089</ele>
        <time>2015-08-07T10:58:40Z</time>
      </trkpt>
      <trkpt lat="45.36786" lon="5.90856">
        <ele>1464.026938285</ele>
        <time>2015-08-07T10:58:50Z</time>
      </trkpt>
      <trkpt lat="45.36792" lon="5.90858">
        <ele>1464.026938285</ele>
        <time>2015-08-07T10:58:55Z</time>
      </trkpt>
      <trkpt lat="45.36804" lon="5.90862">
        <ele>1458.505884719</ele>
        <time>2015-08-07T10:59:05Z</time>
      </trkpt>
      <trkpt lat="45.36811" lon="5.90863">
        <ele>1458.505884719</ele>
        <time>2015-08-07T10:59:10Z</time>
      </trkpt>
      <trkpt lat="45.36821" lon="5.90871">
        <ele>1452.116732917</ele>
        <time>2015-08-07T10:59:20Z</time>
      </trkpt>
      <trkpt lat="45.36825" lon="5.90873">
        <ele>1452.116732917</ele>
        <time>2015-08-07T10:59:25Z</time>
      </trkpt>
      <trkpt lat="45.36831" lon="5.90883">
        <ele>1445.203866574</ele>
        <time>2015-08-07T10:59:35Z</time>
      </trkpt>
      <trkpt lat="45.36838" lon="5.90883">
        <ele>1445.203866574</ele>
        <time>2015-08-07T10:59:40Z</time>
      </trkpt>
      <trkpt lat="45.36846" lon="5.90894">
        <ele>1438.657199618</ele>
        <time>2015-08-07T10:59:50Z</time>
      </trkpt>
      <trkpt lat="45.3685" lon="5.90899">
        <ele>1438.657199618</ele>
        <time>2015-08-07T10:59:55Z</time>
      </trkpt>
      <trkpt lat="45.36866" lon="5.9091">
        <ele>1432.895207041</ele>
        <time>2015-08-07T11:00:05Z</time>
      </trkpt>
      <trkpt lat="45.3687" lon="5.90909">
        <ele>1432.895207041</ele>
        <time>2015-08-07T11:00:10Z</time>
      </trkpt>
      <trkpt lat="45.36876" lon="5.90917">
        <ele>1426.887582875</ele>
        <time>2015-08-07T11:00:20Z</time>
      </trkpt>
      <trkpt lat="45.36884" lon="5.90918">
        <ele>1426.887582875</ele>
        <time>2015-08-07T11:00:25Z</time>
      </trkpt>
      <trkpt lat="45.36896" lon="5.90932">
        <ele>1421.381516016</ele>
        <time>2015-08-07T11:00:40Z</time>
      </trkpt>
      <trkpt lat="45.36899" lon="5.90934">
        <ele>1421.381516016</ele>
        <time>2015-08-07T11:00:45Z</time>
      </trkpt>
      <trkpt lat="45.36909" lon="5.90946">
        <ele>1415.204195428</ele>
        <time>2015-08-07T11:00:55Z</time>
      </trkpt>
      <trkpt lat="45.36918" lon="5.90952">
        <ele>1409.72088192</ele>
        <time>2015-08-07T11:01:00Z</time>
      </trkpt>
      <trkpt lat="45.36919" lon="5.90953">
        <ele>1409.72088192</ele>
        <time>2015-08-07T11:01:10Z</time>
      </trkpt>
      <trkpt lat="45.3692" lon="5.90954">
        <ele>1409.72088192</ele>
        <time>2015-08-07T11:01:15Z</time>
      </trkpt>
      <trkpt lat="45.36932" lon="5.90971">
        <ele>1404.02412424</ele>
        <time>2015-08-07T11:01:25Z</time>
      </trkpt>
      <trkpt lat="45.36937" lon="5.90975">
        <ele>1404.02412424</ele>
        <time>2015-08-07T11:01:30Z</time>
      </trkpt>
      <trkpt lat="45.36946" lon="5.90984">
        <ele>1398.434558257</ele>
        <time>2015-08-07T11:01:40Z</time>
      </trkpt>
      <trkpt lat="45.36951" lon="5.90984">
        <ele>1398.434558257</ele>
        <time>2015-08-07T11:01:45Z</time>
      </trkpt>
      <trkpt lat="45.36957" lon="5.90997">
        <ele>1392.957454072</ele>
        <time>2015-08-07T11:01:55Z</time>
      </trkpt>
      <trkpt lat="45.36956" lon="5.90995">
        <ele>1392.957454072</ele>
        <time>2015-08-07T11:02:00Z</time>
      </trkpt>
      <trkpt lat="45.36941" lon="5.91004">
        <ele>1387.894251287</ele>
        <time>2015-08-07T11:02:10Z</time>
      </trkpt>
      <trkpt lat="45.36936" lon="5.91003">
        <ele>1387.894251287</ele>
        <time>2015-08-07T11:02:15Z</time>
      </trkpt>
      <trkpt lat="45.36924" lon="5.91009">
        <ele>1383.525062219</ele>
        <time>2015-08-07T11:02:25Z</time>
      </trkpt>
      <trkpt lat="45.36906" lon="5.91012">
        <ele>1379.357119745</ele>
        <time>2015-08-07T11:02:32Z</time>
      </trkpt>
      <trkpt lat="45.36901" lon="5.91014">
        <ele>1379.357119745</ele>
        <time>2015-08-07T11:02:40Z</time>
      </trkpt>
      <trkpt lat="45.36895" lon="5.91022">
        <ele>1375.679885942</ele>
        <time>2015-08-07T11:02:45Z</time>
      </trkpt>
      <trkpt lat="45.36883" lon="5.91028">
        <ele>1372.609124822</ele>
        <time>2015-08-07T11:02:55Z</time>
      </trkpt>
      <trkpt lat="45.36877" lon="5.91024">
        <ele>1372.609124822</ele>
        <time>2015-08-07T11:03:00Z</time>
      </trkpt>
      <trkpt lat="45.36864" lon="5.91025">
        <ele>1370.248590419</ele>
        <time>2015-08-07T11:03:10Z</time>
      </trkpt>
      <trkpt lat="45.36857" lon="5.9102">
        <ele>1370.248590419</ele>
        <time>2015-08-07T11:03:16Z</time>
      </trkpt>
      <trkpt lat="45.36849" lon="5.91023">
        <ele>1366.274858771</ele>
        <time>2015-08-07T11:03:25Z</time>
      </trkpt>
      <trkpt lat="45.36843" lon="5.91025">
        <ele>1366.274858771</ele>
        <time>2015-08-07T11:03:30Z</time>
      </trkpt>
      <trkpt lat="45.36832" lon="5.91024">
        <ele>1363.075902561</ele>
        <time>2015-08-07T11:03:40Z</time>
      </trkpt>
      <trkpt lat="45.36826" lon="5.91023">
        <ele>1363.075902561</ele>
        <time>2015-08-07T11:03:45Z</time>
      </trkpt>
      <trkpt lat="45.36812" lon="5.91024">
        <ele>1360.438591277</ele>
        <time>2015-08-07T11:03:55Z</time>
      </trkpt>
      <trkpt lat="45.36804" lon="5.9102">
        <ele>1360.438591277</ele>
        <time>2015-08-07T11:04:00Z</time>
      </trkpt>
      <trkpt lat="45.36782" lon="5.91018">
        <ele>1356.204213495</ele>
        <time>2015-08-07T11:04:16Z</time>
      </trkpt>
      <trkpt lat="45.36778" lon="5.91019">
        <ele>1356.204213495</ele>
        <time>2015-08-07T11:04:20Z</time>
      </trkpt>
      <trkpt lat="45.36765" lon="5.91015">
        <ele>1352.608795105</ele>
        <time>2015-08-07T11:04:30Z</time>
      </trkpt>
      <trkpt lat="45.36755" lon="5.91017">
        <ele>1349.600359323</ele>
        <time>2015-08-07T11:04:35Z</time>
      </trkpt>
      <trkpt lat="45.36744" lon="5.91027">
        <ele>1346.978825922</ele>
        <time>2015-08-07T11:04:45Z</time>
      </trkpt>
      <trkpt lat="45.36736" lon="5.91034">
        <ele>1345.606883987</ele>
        <time>2015-08-07T11:04:50Z</time>
      </trkpt>
      <trkpt lat="45.36726" lon="5.91038">
        <ele>1343.583448057</ele>
        <time>2015-08-07T11:05:00Z</time>
      </trkpt>
      <trkpt lat="45.36717" lon="5.9104">
        <ele>1341.701406893</ele>
        <time>2015-08-07T11:05:05Z</time>
      </trkpt>
      <trkpt lat="45.36704" lon="5.91035">
        <ele>1340.538120149</ele>
        <time>2015-08-07T11:05:16Z</time>
      </trkpt>
      <trkpt lat="45.36694" lon="5.91042">
        <ele>1339.879436336</ele>
        <time>2015-08-07T11:05:20Z</time>
      </trkpt>
      <trkpt lat="45.36681" lon="5.9104">
        <ele>1338.641074494</ele>
        <time>2015-08-07T11:05:31Z</time>
      </trkpt>
      <trkpt lat="45.36677" lon="5.91037">
        <ele>1338.641074494</ele>
        <time>2015-08-07T11:05:35Z</time>
      </trkpt>
      <trkpt lat="45.36665" lon="5.91039">
        <ele>1337.011150057</ele>
        <time>2015-08-07T11:05:45Z</time>
      </trkpt>
      <trkpt lat="45.36658" lon="5.91047">
        <ele>1337.011150057</ele>
        <time>2015-08-07T11:05:50Z</time>
      </trkpt>
      <trkpt lat="45.36645" lon="5.91051">
        <ele>1335.310280091</ele>
        <time>2015-08-07T11:06:00Z</time>
      </trkpt>
      <trkpt lat="45.36638" lon="5.91047">
        <ele>1335.310280091</ele>
        <time>2015-08-07T11:06:06Z</time>
      </trkpt>
      <trkpt lat="45.36625" lon="5.91039">
        <ele>1333.685901215</ele>
        <time>2015-08-07T11:06:16Z</time>
      </trkpt>
      <trkpt lat="45.3662" lon="5.91037">
        <ele>1333.685901215</ele>
        <time>2015-08-07T11:06:20Z</time>
      </trkpt>
      <trkpt lat="45.36596" lon="5.91037">
        <ele>1330.808457755</ele>
        <time>2015-08-07T11:06:36Z</time>
      </trkpt>
      <trkpt lat="45.36585" lon="5.91031">
        <ele>1327.799219184</ele>
        <time>2015-08-07T11:06:40Z</time>
      </trkpt>
      <trkpt lat="45.36575" lon="5.91035">
        <ele>1326.12608129</ele>
        <time>2015-08-07T11:06:50Z</time>
      </trkpt>
      <trkpt lat="45.36566" lon="5.91033">
        <ele>1326.12608129</ele>
        <time>2015-08-07T11:06:55Z</time>
      </trkpt>
      <trkpt lat="45.36554" lon="5.91032">
        <ele>1324.80495185</ele>
        <time>2015-08-07T11:07:07Z</time>
      </trkpt>
      <trkpt lat="45.36548" lon="5.91034">
        <ele>1324.80495185</ele>
        <time>2015-08-07T11:07:10Z</time>
      </trkpt>
      <trkpt lat="45.36538" lon="5.91033">
        <ele>1323.511744365</ele>
        <time>2015-08-07T11:07:20Z</time>
      </trkpt>
      <trkpt lat="45.36533" lon="5.91033">
        <ele>1323.511744365</ele>
        <time>2015-08-07T11:07:25Z</time>
      </trkpt>
      <trkpt lat="45.36533" lon="5.91032">
        <ele>1323.511744365</ele>
        <time>2015-08-07T11:07:31Z</time>
      </trkpt>
      <trkpt lat="45.36533" lon="5.91031">
        <ele>1323.511744365</ele>
        <time>2015-08-07T11:07:40Z</time>
      </trkpt>
      <trkpt lat="45.36519" lon="5.91025">
        <ele>1322.238600669</ele>
        <time>2015-08-07T11:07:46Z</time>
      </trkpt>
      <trkpt lat="45.36513" lon="5.91025">
        <ele>1322.238600669</ele>
        <time>2015-08-07T11:07:50Z</time>
      </trkpt>
      <trkpt lat="45.36508" lon="5.9102">
        <ele>1321.268354095</ele>
        <time>2015-08-07T11:07:55Z</time>
      </trkpt>
      <trkpt lat="45.36506" lon="5.91015">
        <ele>1321.268354095</ele>
        <time>2015-08-07T11:08:00Z</time>
      </trkpt>
      <trkpt lat="45.36503" lon="5.91008">
        <ele>1319.846944269</ele>
        <time>2015-08-07T11:08:05Z</time>
      </trkpt>
      <trkpt lat="45.365" lon="5.91002">
        <ele>1319.846944269</ele>
        <time>2015-08-07T11:08:10Z</time>
      </trkpt>
      <trkpt lat="45.36496" lon="5.90998">
        <ele>1318.293138394</ele>
        <time>2015-08-07T11:08:15Z</time>
      </trkpt>
      <trkpt lat="45.36493" lon="5.90994">
        <ele>1318.293138394</ele>
        <time>2015-08-07T11:08:20Z</time>
      </trkpt>
      <trkpt lat="45.36482" lon="5.90998">
        <ele>1317.479898266</ele>
        <time>2015-08-07T11:08:30Z</time>
      </trkpt>
      <trkpt lat="45.36476" lon="5.91005">
        <ele>1317.479898266</ele>
        <time>2015-08-07T11:08:35Z</time>
      </trkpt>
      <trkpt lat="45.36462" lon="5.91008">
        <ele>1317.055571757</ele>
        <time>2015-08-07T11:08:45Z</time>
      </trkpt>
      <trkpt lat="45.36455" lon="5.91014">
        <ele>1317.055571757</ele>
        <time>2015-08-07T11:08:50Z</time>
      </trkpt>
      <trkpt lat="45.36438" lon="5.91032">
        <ele>1317.561066451</ele>
        <time>2015-08-07T11:09:00Z</time>
      </trkpt>
      <trkpt lat="45.36432" lon="5.91035">
        <ele>1317.561066451</ele>
        <time>2015-08-07T11:09:05Z</time>
      </trkpt>
      <trkpt lat="45.36426" lon="5.91049">
        <ele>1317.040172409</ele>
        <time>2015-08-07T11:09:15Z</time>
      </trkpt>
      <trkpt lat="45.36425" lon="5.91059">
        <ele>1317.040172409</ele>
        <time>2015-08-07T11:09:21Z</time>
      </trkpt>
      <trkpt lat="45.36414" lon="5.91075">
        <ele>1316.428296037</ele>
        <time>2015-08-07T11:09:30Z</time>
      </trkpt>
      <trkpt lat="45.36397" lon="5.91089">
        <ele>1315.292727563</ele>
        <time>2015-08-07T11:09:46Z</time>
      </trkpt>
      <trkpt lat="45.36394" lon="5.9109">
        <ele>1315.292727563</ele>
        <time>2015-08-07T11:09:50Z</time>
      </trkpt>
      <trkpt lat="45.36376" lon="5.91097">
        <ele>1315.397877776</ele>
        <time>2015-08-07T11:10:00Z</time>
      </trkpt>
      <trkpt lat="45.36368" lon="5.91097">
        <ele>1315.397877776</ele>
        <time>2015-08-07T11:10:06Z</time>
      </trkpt>
      <trkpt lat="45.36356" lon="5.91101">
        <ele>1315.057345638</ele>
        <time>2015-08-07T11:10:16Z</time>
      </trkpt>
      <trkpt lat="45.36352" lon="5.91103">
        <ele>1315.057345638</ele>
        <time>2015-08-07T11:10:20Z</time>
      </trkpt>
      <trkpt lat="45.36333" lon="5.91111">
        <ele>1313.8645214</ele>
        <time>2015-08-07T11:10:30Z</time>
      </trkpt>
      <trkpt lat="45.36331" lon="5.91109">
        <ele>1313.8645214</ele>
        <time>2015-08-07T11:10:37Z</time>
      </trkpt>
      <trkpt lat="45.3632" lon="5.91107">
        <ele>1312.310312192</ele>
        <time>2015-08-07T11:10:46Z</time>
      </trkpt>
      <trkpt lat="45.36316" lon="5.91107">
        <ele>1312.310312192</ele>
        <time>2015-08-07T11:10:50Z</time>
      </trkpt>
      <trkpt lat="45.3631" lon="5.91107">
        <ele>1309.697169658</ele>
        <time>2015-08-07T11:10:55Z</time>
      </trkpt>
      <trkpt lat="45.36299" lon="5.91116">
        <ele>1307.544574998</ele>
        <time>2015-08-07T11:11:05Z</time>
      </trkpt>
      <trkpt lat="45.36271" lon="5.91118">
        <ele>1305.817481171</ele>
        <time>2015-08-07T11:11:20Z</time>
      </trkpt>
      <trkpt lat="45.36266" lon="5.91117">
        <ele>1305.817481171</ele>
        <time>2015-08-07T11:11:25Z</time>
      </trkpt>
      <trkpt lat="45.36253" lon="5.91118">
        <ele>1303.905694984</ele>
        <time>2015-08-07T11:11:35Z</time>
      </trkpt>
      <trkpt lat="45.36249" lon="5.91119">
        <ele>1303.905694984</ele>
        <time>2015-08-07T11:11:40Z</time>
      </trkpt>
      <trkpt lat="45.36233" lon="5.91118">
        <ele>1301.244478595</ele>
        <time>2015-08-07T11:11:51Z</time>
      </trkpt>
      <trkpt lat="45.36227" lon="5.9112">
        <ele>1301.244478595</ele>
        <time>2015-08-07T11:11:55Z</time>
      </trkpt>
      <trkpt lat="45.3621" lon="5.91122">
        <ele>1298.610585522</ele>
        <time>2015-08-07T11:12:05Z</time>
      </trkpt>
      <trkpt lat="45.36204" lon="5.91119">
        <ele>1298.610585522</ele>
        <time>2015-08-07T11:12:11Z</time>
      </trkpt>
      <trkpt lat="45.36192" lon="5.91119">
        <ele>1295.42600368</ele>
        <time>2015-08-07T11:12:21Z</time>
      </trkpt>
      <trkpt lat="45.36184" lon="5.91121">
        <ele>1295.42600368</ele>
        <time>2015-08-07T11:12:26Z</time>
      </trkpt>
      <trkpt lat="45.36175" lon="5.91129">
        <ele>1292.022103235</ele>
        <time>2015-08-07T11:12:35Z</time>
      </trkpt>
      <trkpt lat="45.36171" lon="5.91128">
        <ele>1292.022103235</ele>
        <time>2015-08-07T11:12:40Z</time>
      </trkpt>
      <trkpt lat="45.36162" lon="5.91122">
        <ele>1288.129795554</ele>
        <time>2015-08-07T11:12:52Z</time>
      </trkpt>
      <trkpt lat="45.36158" lon="5.91121">
        <ele>1288.129795554</ele>
        <time>2015-08-07T11:12:56Z</time>
      </trkpt>
      <trkpt lat="45.36155" lon="5.91123">
        <ele>1288.129795554</ele>
        <time>2015-08-07T11:13:05Z</time>
      </trkpt>
      <trkpt lat="45.36155" lon="5.91124">
        <ele>1288.129795554</ele>
        <time>2015-08-07T11:13:10Z</time>
      </trkpt>
      <trkpt lat="45.36155" lon="5.91131">
        <ele>1284.510841454</ele>
        <time>2015-08-07T11:13:21Z</time>
      </trkpt>
      <trkpt lat="45.36155" lon="5.91131">
        <ele>1284.510841454</ele>
        <time>2015-08-07T11:13:27Z</time>
      </trkpt>
      <trkpt lat="45.36153" lon="5.91133">
        <ele>1284.510841454</ele>
        <time>2015-08-07T11:13:36Z</time>
      </trkpt>
      <trkpt lat="45.36153" lon="5.91133">
        <ele>1284.510841454</ele>
        <time>2015-08-07T11:13:41Z</time>
      </trkpt>
      <trkpt lat="45.36148" lon="5.91136">
        <ele>1284.510841454</ele>
        <time>2015-08-07T11:13:45Z</time>
      </trkpt>
      <trkpt lat="45.36139" lon="5.91137">
        <ele>1280.860752423</ele>
        <time>2015-08-07T11:13:56Z</time>
      </trkpt>
      <trkpt lat="45.36132" lon="5.91139">
        <ele>1280.860752423</ele>
        <time>2015-08-07T11:14:00Z</time>
      </trkpt>
      <trkpt lat="45.36122" lon="5.91133">
        <ele>1276.897534487</ele>
        <time>2015-08-07T11:14:10Z</time>
      </trkpt>
      <trkpt lat="45.36117" lon="5.9113">
        <ele>1276.897534487</ele>
        <time>2015-08-07T11:14:15Z</time>
      </trkpt>
      <trkpt lat="45.36108" lon="5.9113">
        <ele>1272.505073537</ele>
        <time>2015-08-07T11:14:25Z</time>
      </trkpt>
      <trkpt lat="45.36105" lon="5.91131">
        <ele>1272.505073537</ele>
        <time>2015-08-07T11:14:30Z</time>
      </trkpt>
      <trkpt lat="45.36089" lon="5.91136">
        <ele>1269.452199563</ele>
        <time>2015-08-07T11:14:40Z</time>
      </trkpt>
      <trkpt lat="45.36082" lon="5.91133">
        <ele>1269.452199563</ele>
        <time>2015-08-07T11:14:45Z</time>
      </trkpt>
      <trkpt lat="45.36072" lon="5.91132">
        <ele>1265.190855817</ele>
        <time>2015-08-07T11:14:55Z</time>
      </trkpt>
      <trkpt lat="45.36062" lon="5.91132">
        <ele>1261.258299089</ele>
        <time>2015-08-07T11:15:00Z</time>
      </trkpt>
      <trkpt lat="45.36047" lon="5.91139">
        <ele>1258.068068481</ele>
        <time>2015-08-07T11:15:11Z</time>
      </trkpt>
      <trkpt lat="45.36041" lon="5.91145">
        <ele>1258.068068481</ele>
        <time>2015-08-07T11:15:15Z</time>
      </trkpt>
      <trkpt lat="45.36036" lon="5.9114">
        <ele>1254.991482736</ele>
        <time>2015-08-07T11:15:26Z</time>
      </trkpt>
      <trkpt lat="45.36034" lon="5.9114">
        <ele>1254.991482736</ele>
        <time>2015-08-07T11:15:30Z</time>
      </trkpt>
      <trkpt lat="45.36034" lon="5.9114">
        <ele>1254.991482736</ele>
        <time>2015-08-07T11:15:42Z</time>
      </trkpt>
      <trkpt lat="45.36031" lon="5.91142">
        <ele>1254.991482736</ele>
        <time>2015-08-07T11:15:45Z</time>
      </trkpt>
      <trkpt lat="45.36021" lon="5.91146">
        <ele>1252.166920012</ele>
        <time>2015-08-07T11:15:50Z</time>
      </trkpt>
      <trkpt lat="45.35996" lon="5.91157">
        <ele>1250.154479235</ele>
        <time>2015-08-07T11:16:00Z</time>
      </trkpt>
      <trkpt lat="45.35987" lon="5.91163">
        <ele>1248.605365202</ele>
        <time>2015-08-07T11:16:05Z</time>
      </trkpt>
      <trkpt lat="45.35987" lon="5.91162">
        <ele>1248.605365202</ele>
        <time>2015-08-07T11:16:15Z</time>
      </trkpt>
      <trkpt lat="45.35985" lon="5.91162">
        <ele>1248.605365202</ele>
        <time>2015-08-07T11:16:20Z</time>
      </trkpt>
      <trkpt lat="45.35985" lon="5.91162">
        <ele>1248.605365202</ele>
        <time>2015-08-07T11:16:30Z</time>
      </trkpt>
      <trkpt lat="45.35982" lon="5.91163">
        <ele>1248.605365202</ele>
        <time>2015-08-07T11:16:35Z</time>
      </trkpt>
      <trkpt lat="45.35967" lon="5.91172">
        <ele>1246.329867309</ele>
        <time>2015-08-07T11:16:45Z</time>
      </trkpt>
      <trkpt lat="45.35959" lon="5.91175">
        <ele>1246.329867309</ele>
        <time>2015-08-07T11:16:50Z</time>
      </trkpt>
      <trkpt lat="45.35951" lon="5.91177">
        <ele>1242.37213255</ele>
        <time>2015-08-07T11:17:00Z</time>
      </trkpt>
      <trkpt lat="45.35943" lon="5.91178">
        <ele>1242.37213255</ele>
        <time>2015-08-07T11:17:05Z</time>
      </trkpt>
      <trkpt lat="45.35925" lon="5.91194">
        <ele>1237.293373667</ele>
        <time>2015-08-07T11:17:20Z</time>
      </trkpt>
      <trkpt lat="45.3592" lon="5.912">
        <ele>1237.293373667</ele>
        <time>2015-08-07T11:17:25Z</time>
      </trkpt>
      <trkpt lat="45.35913" lon="5.9121">
        <ele>1232.337488449</ele>
        <time>2015-08-07T11:17:36Z</time>
      </trkpt>
      <trkpt lat="45.35908" lon="5.91214">
        <ele>1232.337488449</ele>
        <time>2015-08-07T11:17:40Z</time>
      </trkpt>
      <trkpt lat="45.35902" lon="5.91219">
        <ele>1226.493604867</ele>
        <time>2015-08-07T11:17:52Z</time>
      </trkpt>
      <trkpt lat="45.35898" lon="5.91222">
        <ele>1226.493604867</ele>
        <time>2015-08-07T11:17:55Z</time>
      </trkpt>
      <trkpt lat="45.35889" lon="5.91228">
        <ele>1220.990324084</ele>
        <time>2015-08-07T11:18:01Z</time>
      </trkpt>
      <trkpt lat="45.35887" lon="5.91228">
        <ele>1220.990324084</ele>
        <time>2015-08-07T11:18:05Z</time>
      </trkpt>
      <trkpt lat="45.35879" lon="5.91235">
        <ele>1216.243852764</ele>
        <time>2015-08-07T11:18:11Z</time>
      </trkpt>
      <trkpt lat="45.35871" lon="5.91244">
        <ele>1211.772547475</ele>
        <time>2015-08-07T11:18:20Z</time>
      </trkpt>
      <trkpt lat="45.35866" lon="5.91249">
        <ele>1211.772547475</ele>
        <time>2015-08-07T11:18:25Z</time>
      </trkpt>
      <trkpt lat="45.35854" lon="5.91252">
        <ele>1207.561796264</ele>
        <time>2015-08-07T11:18:37Z</time>
      </trkpt>
      <trkpt lat="45.35851" lon="5.91254">
        <ele>1207.561796264</ele>
        <time>2015-08-07T11:18:40Z</time>
      </trkpt>
      <trkpt lat="45.3585" lon="5.91256">
        <ele>1207.561796264</ele>
        <time>2015-08-07T11:18:51Z</time>
      </trkpt>
      <trkpt lat="45.35843" lon="5.91262">
        <ele>1203.597197304</ele>
        <time>2015-08-07T11:18:55Z</time>
      </trkpt>
      <trkpt lat="45.35828" lon="5.91271">
        <ele>1199.14386639</ele>
        <time>2015-08-07T11:19:05Z</time>
      </trkpt>
      <trkpt lat="45.35823" lon="5.91282">
        <ele>1195.396017722</ele>
        <time>2015-08-07T11:19:10Z</time>
      </trkpt>
      <trkpt lat="45.35809" lon="5.91302">
        <ele>1192.016534742</ele>
        <time>2015-08-07T11:19:22Z</time>
      </trkpt>
      <trkpt lat="45.35806" lon="5.91304">
        <ele>1192.016534742</ele>
        <time>2015-08-07T11:19:26Z</time>
      </trkpt>
      <trkpt lat="45.35792" lon="5.91308">
        <ele>1188.259544175</ele>
        <time>2015-08-07T11:19:35Z</time>
      </trkpt>
      <trkpt lat="45.35787" lon="5.91308">
        <ele>1188.259544175</ele>
        <time>2015-08-07T11:19:40Z</time>
      </trkpt>
      <trkpt lat="45.3577" lon="5.91314">
        <ele>1184.299707507</ele>
        <time>2015-08-07T11:19:50Z</time>
      </trkpt>
      <trkpt lat="45.35764" lon="5.9132">
        <ele>1184.299707507</ele>
        <time>2015-08-07T11:19:55Z</time>
      </trkpt>
      <trkpt lat="45.3576" lon="5.91324">
        <ele>1180.73163444</ele>
        <time>2015-08-07T11:20:05Z</time>
      </trkpt>
      <trkpt lat="45.35751" lon="5.91328">
        <ele>1177.384375273</ele>
        <time>2015-08-07T11:20:10Z</time>
      </trkpt>
      <trkpt lat="45.3573" lon="5.9133">
        <ele>1173.666444332</ele>
        <time>2015-08-07T11:20:25Z</time>
      </trkpt>
      <trkpt lat="45.35728" lon="5.91338">
        <ele>1173.666444332</ele>
        <time>2015-08-07T11:20:30Z</time>
      </trkpt>
      <trkpt lat="45.35725" lon="5.91334">
        <ele>1170.327796637</ele>
        <time>2015-08-07T11:20:40Z</time>
      </trkpt>
      <trkpt lat="45.35724" lon="5.91333">
        <ele>1170.327796637</ele>
        <time>2015-08-07T11:20:45Z</time>
      </trkpt>
      <trkpt lat="45.35723" lon="5.91348">
        <ele>1166.909155032</ele>
        <time>2015-08-07T11:20:55Z</time>
      </trkpt>
      <trkpt lat="45.35722" lon="5.91355">
        <ele>1166.909155032</ele>
        <time>2015-08-07T11:21:00Z</time>
      </trkpt>
      <trkpt lat="45.35717" lon="5.91369">
        <ele>1162.985102151</ele>
        <time>2015-08-07T11:21:12Z</time>
      </trkpt>
      <trkpt lat="45.35715" lon="5.91375">
        <ele>1162.985102151</ele>
        <time>2015-08-07T11:21:15Z</time>
      </trkpt>
      <trkpt lat="45.35713" lon="5.91387">
        <ele>1159.315691454</ele>
        <time>2015-08-07T11:21:20Z</time>
      </trkpt>
      <trkpt lat="45.35707" lon="5.91402">
        <ele>1155.883739704</ele>
        <time>2015-08-07T11:21:33Z</time>
      </trkpt>
      <trkpt lat="45.35702" lon="5.91414">
        <ele>1152.528443568</ele>
        <time>2015-08-07T11:21:35Z</time>
      </trkpt>
      <trkpt lat="45.35699" lon="5.91424">
        <ele>1152.528443568</ele>
        <time>2015-08-07T11:21:45Z</time>
      </trkpt>
      <trkpt lat="45.35699" lon="5.91432">
        <ele>1148.37993453</ele>
        <time>2015-08-07T11:21:50Z</time>
      </trkpt>
      <trkpt lat="45.357" lon="5.91433">
        <ele>1148.37993453</ele>
        <time>2015-08-07T11:22:00Z</time>
      </trkpt>
      <trkpt lat="45.35701" lon="5.91438">
        <ele>1148.37993453</ele>
        <time>2015-08-07T11:22:05Z</time>
      </trkpt>
      <trkpt lat="45.35702" lon="5.91457">
        <ele>1138.743325142</ele>
        <time>2015-08-07T11:22:16Z</time>
      </trkpt>
      <trkpt lat="45.35702" lon="5.91464">
        <ele>1138.743325142</ele>
        <time>2015-08-07T11:22:20Z</time>
      </trkpt>
      <trkpt lat="45.35705" lon="5.91488">
        <ele>1134.415710255</ele>
        <time>2015-08-07T11:22:30Z</time>
      </trkpt>
      <trkpt lat="45.35705" lon="5.91498">
        <ele>1134.415710255</ele>
        <time>2015-08-07T11:22:35Z</time>
      </trkpt>
      <trkpt lat="45.35692" lon="5.91524">
        <ele>1131.407105168</ele>
        <time>2015-08-07T11:22:50Z</time>
      </trkpt>
      <trkpt lat="45.35686" lon="5.91526">
        <ele>1131.407105168</ele>
        <time>2015-08-07T11:22:55Z</time>
      </trkpt>
      <trkpt lat="45.35675" lon="5.91533">
        <ele>1127.02558288</ele>
        <time>2015-08-07T11:23:05Z</time>
      </trkpt>
      <trkpt lat="45.35672" lon="5.91542">
        <ele>1127.02558288</ele>
        <time>2015-08-07T11:23:10Z</time>
      </trkpt>
      <trkpt lat="45.35662" lon="5.91563">
        <ele>1122.671729114</ele>
        <time>2015-08-07T11:23:20Z</time>
      </trkpt>
      <trkpt lat="45.35657" lon="5.91569">
        <ele>1122.671729114</ele>
        <time>2015-08-07T11:23:25Z</time>
      </trkpt>
      <trkpt lat="45.35651" lon="5.91579">
        <ele>1118.201911004</ele>
        <time>2015-08-07T11:23:35Z</time>
      </trkpt>
      <trkpt lat="45.35649" lon="5.91582">
        <ele>1118.201911004</ele>
        <time>2015-08-07T11:23:40Z</time>
      </trkpt>
      <trkpt lat="45.35644" lon="5.91599">
        <ele>1114.059703922</ele>
        <time>2015-08-07T11:23:50Z</time>
      </trkpt>
      <trkpt lat="45.35641" lon="5.91609">
        <ele>1114.059703922</ele>
        <time>2015-08-07T11:23:55Z</time>
      </trkpt>
      <trkpt lat="45.35632" lon="5.91626">
        <ele>1109.646263124</ele>
        <time>2015-08-07T11:24:05Z</time>
      </trkpt>
      <trkpt lat="45.35628" lon="5.91633">
        <ele>1109.646263124</ele>
        <time>2015-08-07T11:24:10Z</time>
      </trkpt>
      <trkpt lat="45.35619" lon="5.91645">
        <ele>1104.983831251</ele>
        <time>2015-08-07T11:24:20Z</time>
      </trkpt>
      <trkpt lat="45.3562" lon="5.91648">
        <ele>1104.983831251</ele>
        <time>2015-08-07T11:24:25Z</time>
      </trkpt>
      <trkpt lat="45.35622" lon="5.9165">
        <ele>1104.983831251</ele>
        <time>2015-08-07T11:24:35Z</time>
      </trkpt>
      <trkpt lat="45.35625" lon="5.91653">
        <ele>1104.983831251</ele>
        <time>2015-08-07T11:24:40Z</time>
      </trkpt>
      <trkpt lat="45.35619" lon="5.91666">
        <ele>1100.525942588</ele>
        <time>2015-08-07T11:24:50Z</time>
      </trkpt>
      <trkpt lat="45.35614" lon="5.91677">
        <ele>1096.403899368</ele>
        <time>2015-08-07T11:24:55Z</time>
      </trkpt>
      <trkpt lat="45.35604" lon="5.91699">
        <ele>1092.594190699</ele>
        <time>2015-08-07T11:25:05Z</time>
      </trkpt>
      <trkpt lat="45.35599" lon="5.91712">
        <ele>1089.362280462</ele>
        <time>2015-08-07T11:25:10Z</time>
      </trkpt>
      <trkpt lat="45.35592" lon="5.91719">
        <ele>1089.362280462</ele>
        <time>2015-08-07T11:25:20Z</time>
      </trkpt>
      <trkpt lat="45.35589" lon="5.91722">
        <ele>1085.655378372</ele>
        <time>2015-08-07T11:25:25Z</time>
      </trkpt>
      <trkpt lat="45.35582" lon="5.91734">
        <ele>1081.652193509</ele>
        <time>2015-08-07T11:25:40Z</time>
      </trkpt>
      <trkpt lat="45.35578" lon="5.91741">
        <ele>1081.652193509</ele>
        <time>2015-08-07T11:25:45Z</time>
      </trkpt>
      <trkpt lat="45.35574" lon="5.91746">
        <ele>1078.095515654</ele>
        <time>2015-08-07T11:25:55Z</time>
      </trkpt>
      <trkpt lat="45.3557" lon="5.91749">
        <ele>1078.095515654</ele>
        <time>2015-08-07T11:26:00Z</time>
      </trkpt>
      <trkpt lat="45.35566" lon="5.91755">
        <ele>1074.951667765</ele>
        <time>2015-08-07T11:26:11Z</time>
      </trkpt>
      <trkpt lat="45.35565" lon="5.91759">
        <ele>1074.951667765</ele>
        <time>2015-08-07T11:26:15Z</time>
      </trkpt>
      <trkpt lat="45.3556" lon="5.91768">
        <ele>1071.899994249</ele>
        <time>2015-08-07T11:26:25Z</time>
      </trkpt>
      <trkpt lat="45.3556" lon="5.91771">
        <ele>1071.899994249</ele>
        <time>2015-08-07T11:26:30Z</time>
      </trkpt>
      <trkpt lat="45.3556" lon="5.91791">
        <ele>1068.787196599</ele>
        <time>2015-08-07T11:26:40Z</time>
      </trkpt>
      <trkpt lat="45.35566" lon="5.91798">
        <ele>1068.787196599</ele>
        <time>2015-08-07T11:26:45Z</time>
      </trkpt>
      <trkpt lat="45.35575" lon="5.91815">
        <ele>1066.768396201</ele>
        <time>2015-08-07T11:26:55Z</time>
      </trkpt>
      <trkpt lat="45.35577" lon="5.91821">
        <ele>1066.768396201</ele>
        <time>2015-08-07T11:27:00Z</time>
      </trkpt>
      <trkpt lat="45.35583" lon="5.91837">
        <ele>1065.469614454</ele>
        <time>2015-08-07T11:27:10Z</time>
      </trkpt>
      <trkpt lat="45.35586" lon="5.91847">
        <ele>1065.469614454</ele>
        <time>2015-08-07T11:27:16Z</time>
      </trkpt>
      <trkpt lat="45.35588" lon="5.91858">
        <ele>1064.398202373</ele>
        <time>2015-08-07T11:27:27Z</time>
      </trkpt>
      <trkpt lat="45.35595" lon="5.9187">
        <ele>1063.961759233</ele>
        <time>2015-08-07T11:27:30Z</time>
      </trkpt>
      <trkpt lat="45.35597" lon="5.91878">
        <ele>1063.961759233</ele>
        <time>2015-08-07T11:27:40Z</time>
      </trkpt>
      <trkpt lat="45.35598" lon="5.91887">
        <ele>1062.950942163</ele>
        <time>2015-08-07T11:27:46Z</time>
      </trkpt>
      <trkpt lat="45.35604" lon="5.91904">
        <ele>1062.264509186</ele>
        <time>2015-08-07T11:28:00Z</time>
      </trkpt>
      <trkpt lat="45.35599" lon="5.91907">
        <ele>1062.264509186</ele>
        <time>2015-08-07T11:28:16Z</time>
      </trkpt>
      <trkpt lat="45.35599" lon="5.91904">
        <ele>1062.264509186</ele>
        <time>2015-08-07T11:28:20Z</time>
      </trkpt>
      <trkpt lat="45.356" lon="5.91905">
        <ele>1062.264509186</ele>
        <time>2015-08-07T11:28:30Z</time>
      </trkpt>
      <trkpt lat="45.356" lon="5.91905">
        <ele>1062.264509186</ele>
        <time>2015-08-07T11:28:35Z</time>
      </trkpt>
      <trkpt lat="45.356" lon="5.91905">
        <ele>1062.264509186</ele>
        <time>2015-08-07T11:28:46Z</time>
      </trkpt>
      <trkpt lat="45.356" lon="5.91905">
        <ele>1060.860886912</ele>
        <time>2015-08-07T11:28:50Z</time>
      </trkpt>
      <trkpt lat="45.35601" lon="5.91907">
        <ele>1060.860886912</ele>
        <time>2015-08-07T11:29:00Z</time>
      </trkpt>
      <trkpt lat="45.35601" lon="5.91907">
        <ele>1060.860886912</ele>
        <time>2015-08-07T11:29:05Z</time>
      </trkpt>
      <trkpt lat="45.35601" lon="5.91907">
        <ele>1060.860886912</ele>
        <time>2015-08-07T11:29:15Z</time>
      </trkpt>
      <trkpt lat="45.35601" lon="5.91907">
        <ele>1060.860886912</ele>
        <time>2015-08-07T11:29:20Z</time>
      </trkpt>
      <trkpt lat="45.35602" lon="5.91906">
        <ele>1060.860886912</ele>
        <time>2015-08-07T11:29:30Z</time>
      </trkpt>
      <trkpt lat="45.35602" lon="5.91906">
        <ele>1060.860886912</ele>
        <time>2015-08-07T11:29:35Z</time>
      </trkpt>
      <trkpt lat="45.35602" lon="5.91906">
        <ele>1060.860886912</ele>
        <time>2015-08-07T11:29:45Z</time>
      </trkpt>
      <trkpt lat="45.356" lon="5.91906">
        <ele>1060.860886912</ele>
        <time>2015-08-07T11:30:00Z</time>
      </trkpt>
      <trkpt lat="45.35599" lon="5.91906">
        <ele>1060.860886912</ele>
        <time>2015-08-07T11:30:05Z</time>
      </trkpt>
      <trkpt lat="45.356" lon="5.91907">
        <ele>1060.860886912</ele>
        <time>2015-08-07T11:30:16Z</time>
      </trkpt>
      <trkpt lat="45.356" lon="5.91907">
        <ele>1060.860886912</ele>
        <time>2015-08-07T11:30:20Z</time>
      </trkpt>
      <trkpt lat="45.356" lon="5.91908">
        <ele>1060.860886912</ele>
        <time>2015-08-07T11:30:30Z</time>
      </trkpt>
      <trkpt lat="45.35597" lon="5.91909">
        <ele>1059.506485988</ele>
        <time>2015-08-07T11:30:35Z</time>
      </trkpt>
      <trkpt lat="45.35596" lon="5.91908">
        <ele>1059.506485988</ele>
        <time>2015-08-07T11:30:47Z</time>
      </trkpt>
      <trkpt lat="45.35596" lon="5.91907">
        <ele>1059.506485988</ele>
        <time>2015-08-07T11:30:50Z</time>
      </trkpt>
      <trkpt lat="45.35597" lon="5.91912">
        <ele>1059.506485988</ele>
        <time>2015-08-07T11:31:06Z</time>
      </trkpt>
      <trkpt lat="45.35598" lon="5.91911">
        <ele>1059.506485988</ele>
        <time>2015-08-07T11:31:10Z</time>
      </trkpt>
      <trkpt lat="45.35597" lon="5.91909">
        <ele>1059.506485988</ele>
        <time>2015-08-07T11:31:20Z</time>
      </trkpt>
      <trkpt lat="45.35597" lon="5.91908">
        <ele>1059.506485988</ele>
        <time>2015-08-07T11:31:25Z</time>
      </trkpt>
      <trkpt lat="45.35599" lon="5.91909">
        <ele>1058.911387815</ele>
        <time>2015-08-07T11:31:35Z</time>
      </trkpt>
      <trkpt lat="45.35599" lon="5.91909">
        <ele>1058.911387815</ele>
        <time>2015-08-07T11:31:40Z</time>
      </trkpt>
      <trkpt lat="45.35599" lon="5.91909">
        <ele>1058.911387815</ele>
        <time>2015-08-07T11:31:51Z</time>
      </trkpt>
      <trkpt lat="45.35599" lon="5.9191">
        <ele>1058.911387815</ele>
        <time>2015-08-07T11:31:55Z</time>
      </trkpt>
      <trkpt lat="45.35601" lon="5.9191">
        <ele>1058.911387815</ele>
        <time>2015-08-07T11:32:05Z</time>
      </trkpt>
      <trkpt lat="45.35601" lon="5.9191">
        <ele>1058.911387815</ele>
        <time>2015-08-07T11:32:10Z</time>
      </trkpt>
      <trkpt lat="45.35598" lon="5.91911">
        <ele>1058.911387815</ele>
        <time>2015-08-07T11:32:20Z</time>
      </trkpt>
      <trkpt lat="45.35598" lon="5.91912">
        <ele>1058.911387815</ele>
        <time>2015-08-07T11:32:25Z</time>
      </trkpt>
      <trkpt lat="45.35598" lon="5.91911">
        <ele>1058.911387815</ele>
        <time>2015-08-07T11:32:35Z</time>
      </trkpt>
      <trkpt lat="45.35598" lon="5.91911">
        <ele>1058.911387815</ele>
        <time>2015-08-07T11:32:41Z</time>
      </trkpt>
      <trkpt lat="45.35598" lon="5.91911">
        <ele>1058.911387815</ele>
        <time>2015-08-07T11:32:55Z</time>
      </trkpt>
      <trkpt lat="45.35598" lon="5.91912">
        <ele>1058.911387815</ele>
        <time>2015-08-07T11:33:00Z</time>
      </trkpt>
      <trkpt lat="45.35599" lon="5.91911">
        <ele>1058.911387815</ele>
        <time>2015-08-07T11:33:11Z</time>
      </trkpt>
      <trkpt lat="45.35599" lon="5.91911">
        <ele>1058.911387815</ele>
        <time>2015-08-07T11:33:16Z</time>
      </trkpt>
      <trkpt lat="45.35599" lon="5.91908">
        <ele>1057.858041559</ele>
        <time>2015-08-07T11:33:25Z</time>
      </trkpt>
      <trkpt lat="45.356" lon="5.91912">
        <ele>1057.858041559</ele>
        <time>2015-08-07T11:33:30Z</time>
      </trkpt>
      <trkpt lat="45.35601" lon="5.91909">
        <ele>1057.858041559</ele>
        <time>2015-08-07T11:33:40Z</time>
      </trkpt>
      <trkpt lat="45.35601" lon="5.91909">
        <ele>1057.858041559</ele>
        <time>2015-08-07T11:33:45Z</time>
      </trkpt>
      <trkpt lat="45.356" lon="5.91909">
        <ele>1057.858041559</ele>
        <time>2015-08-07T11:33:55Z</time>
      </trkpt>
      <trkpt lat="45.356" lon="5.91909">
        <ele>1057.858041559</ele>
        <time>2015-08-07T11:34:00Z</time>
      </trkpt>
      <trkpt lat="45.35601" lon="5.91905">
        <ele>1057.237344543</ele>
        <time>2015-08-07T11:34:15Z</time>
      </trkpt>
      <trkpt lat="45.35601" lon="5.91905">
        <ele>1057.237344543</ele>
        <time>2015-08-07T11:34:20Z</time>
      </trkpt>
      <trkpt lat="45.35601" lon="5.91905">
        <ele>1057.237344543</ele>
        <time>2015-08-07T11:34:30Z</time>
      </trkpt>
      <trkpt lat="45.35601" lon="5.91905">
        <ele>1057.237344543</ele>
        <time>2015-08-07T11:34:36Z</time>
      </trkpt>
      <trkpt lat="45.356" lon="5.91907">
        <ele>1057.237344543</ele>
        <time>2015-08-07T11:34:45Z</time>
      </trkpt>
      <trkpt lat="45.356" lon="5.91909">
        <ele>1057.237344543</ele>
        <time>2015-08-07T11:34:51Z</time>
      </trkpt>
      <trkpt lat="45.356" lon="5.91909">
        <ele>1057.237344543</ele>
        <time>2015-08-07T11:35:00Z</time>
      </trkpt>
      <trkpt lat="45.35599" lon="5.91906">
        <ele>1057.237344543</ele>
        <time>2015-08-07T11:35:05Z</time>
      </trkpt>
      <trkpt lat="45.356" lon="5.91903">
        <ele>1057.237344543</ele>
        <time>2015-08-07T11:35:15Z</time>
      </trkpt>
      <trkpt lat="45.35599" lon="5.91901">
        <ele>1056.864900986</ele>
        <time>2015-08-07T11:35:20Z</time>
      </trkpt>
      <trkpt lat="45.35598" lon="5.91906">
        <ele>1056.864900986</ele>
        <time>2015-08-07T11:35:30Z</time>
      </trkpt>
      <trkpt lat="45.35599" lon="5.91909">
        <ele>1056.864900986</ele>
        <time>2015-08-07T11:35:35Z</time>
      </trkpt>
      <trkpt lat="45.35596" lon="5.91909">
        <ele>1056.864900986</ele>
        <time>2015-08-07T11:35:50Z</time>
      </trkpt>
      <trkpt lat="45.35592" lon="5.91905">
        <ele>1057.434008957</ele>
        <time>2015-08-07T11:35:55Z</time>
      </trkpt>
      <trkpt lat="45.35583" lon="5.91901">
        <ele>1058.719909491</ele>
        <time>2015-08-07T11:36:05Z</time>
      </trkpt>
      <trkpt lat="45.35577" lon="5.91899">
        <ele>1058.719909491</ele>
        <time>2015-08-07T11:36:10Z</time>
      </trkpt>
      <trkpt lat="45.3557" lon="5.91899">
        <ele>1059.359655814</ele>
        <time>2015-08-07T11:36:20Z</time>
      </trkpt>
      <trkpt lat="45.35569" lon="5.919">
        <ele>1059.359655814</ele>
        <time>2015-08-07T11:36:25Z</time>
      </trkpt>
      <trkpt lat="45.35567" lon="5.919">
        <ele>1059.359655814</ele>
        <time>2015-08-07T11:36:35Z</time>
      </trkpt>
      <trkpt lat="45.35567" lon="5.91901">
        <ele>1059.359655814</ele>
        <time>2015-08-07T11:36:41Z</time>
      </trkpt>
      <trkpt lat="45.35568" lon="5.91904">
        <ele>1059.359655814</ele>
        <time>2015-08-07T11:36:51Z</time>
      </trkpt>
      <trkpt lat="45.3557" lon="5.91904">
        <ele>1059.359655814</ele>
        <time>2015-08-07T11:36:55Z</time>
      </trkpt>
      <trkpt lat="45.3557" lon="5.91904">
        <ele>1059.359655814</ele>
        <time>2015-08-07T11:37:05Z</time>
      </trkpt>
      <trkpt lat="45.3557" lon="5.91904">
        <ele>1059.359655814</ele>
        <time>2015-08-07T11:37:11Z</time>
      </trkpt>
      <trkpt lat="45.3557" lon="5.91904">
        <ele>1059.359655814</ele>
        <time>2015-08-07T11:37:21Z</time>
      </trkpt>
      <trkpt lat="45.3557" lon="5.91904">
        <ele>1059.359655814</ele>
        <time>2015-08-07T11:37:25Z</time>
      </trkpt>
      <trkpt lat="45.35569" lon="5.91902">
        <ele>1059.965916808</ele>
        <time>2015-08-07T11:37:35Z</time>
      </trkpt>
      <trkpt lat="45.35578" lon="5.91904">
        <ele>1059.965916808</ele>
        <time>2015-08-07T11:37:40Z</time>
      </trkpt>
      <trkpt lat="45.35578" lon="5.91903">
        <ele>1060.962578807</ele>
        <time>2015-08-07T11:37:50Z</time>
      </trkpt>
      <trkpt lat="45.35578" lon="5.91903">
        <ele>1060.962578807</ele>
        <time>2015-08-07T11:37:55Z</time>
      </trkpt>
      <trkpt lat="45.35578" lon="5.91903">
        <ele>1060.962578807</ele>
        <time>2015-08-07T11:38:10Z</time>
      </trkpt>
      <trkpt lat="45.35578" lon="5.91903">
        <ele>1060.962578807</ele>
        <time>2015-08-07T11:38:15Z</time>
      </trkpt>
      <trkpt lat="45.35578" lon="5.91903">
        <ele>1060.962578807</ele>
        <time>2015-08-07T11:38:25Z</time>
      </trkpt>
      <trkpt lat="45.35578" lon="5.91903">
        <ele>1060.962578807</ele>
        <time>2015-08-07T11:38:30Z</time>
      </trkpt>
      <trkpt lat="45.35578" lon="5.91903">
        <ele>1060.962578807</ele>
        <time>2015-08-07T11:38:40Z</time>
      </trkpt>
      <trkpt lat="45.35578" lon="5.91903">
        <ele>1060.962578807</ele>
        <time>2015-08-07T11:38:45Z</time>
      </trkpt>
      <trkpt lat="45.35578" lon="5.91903">
        <ele>1060.962578807</ele>
        <time>2015-08-07T11:38:56Z</time>
      </trkpt>
      <trkpt lat="45.35578" lon="5.91903">
        <ele>1060.962578807</ele>
        <time>2015-08-07T11:39:00Z</time>
      </trkpt>
      <trkpt lat="45.35578" lon="5.91903">
        <ele>1060.962578807</ele>
        <time>2015-08-07T11:39:10Z</time>
      </trkpt>
    </trkseg>
  </trk>
</gpx>